<?xml version="1.0" encoding="UTF-8" standalone="no" ?>
<gpx xmlns="http://www.topografix.com/GPX/1/1" xmlns:xsi="http://www.w3.org/2001/XMLSchema-instance" xsi:schemaLocation="http://www.topografix.com/GPX/1/1 http://www.topografix.com/GPX/1/1/gpx.xsd" version="1.1" creator="VisuGPX - https://www.visugpx.com">
  <metadata>
    <name>Guy mocquet 01/10/13</name>
    <desc><![CDATA[Guy mocquet 01/10/13]]></desc>
  </metadata>
  <trk>
    <name><![CDATA[75-79 Avenue de Saint-Ouen]]></name>
    <desc><![CDATA[]]></desc>
    <trkseg>
      <trkpt lat="48.89281" lon="2.32733">
        <ele>107.3</ele>
        <time>2013-10-01T18:17:14.108Z</time>
      </trkpt>
      <trkpt lat="48.89287" lon="2.32721">
        <ele>100.6</ele>
        <time>2013-10-01T18:17:15.083Z</time>
      </trkpt>
      <trkpt lat="48.89291" lon="2.32729">
        <ele>116.3</ele>
        <time>2013-10-01T18:17:16.091Z</time>
      </trkpt>
      <trkpt lat="48.89284" lon="2.32734">
        <ele>98.7</ele>
        <time>2013-10-01T18:17:17.117Z</time>
      </trkpt>
      <trkpt lat="48.89279" lon="2.32727">
        <ele>105.4</ele>
        <time>2013-10-01T18:17:23.268Z</time>
      </trkpt>
      <trkpt lat="48.8928" lon="2.32727">
        <ele>106.1</ele>
        <time>2013-10-01T18:17:24.273Z</time>
      </trkpt>
      <trkpt lat="48.8928" lon="2.32727">
        <ele>107.4</ele>
        <time>2013-10-01T18:17:26.240Z</time>
      </trkpt>
      <trkpt lat="48.89279" lon="2.32726">
        <ele>107.4</ele>
        <time>2013-10-01T18:17:27.256Z</time>
      </trkpt>
      <trkpt lat="48.89275" lon="2.32716">
        <ele>105.2</ele>
        <time>2013-10-01T18:17:30.273Z</time>
      </trkpt>
      <trkpt lat="48.89271" lon="2.32712">
        <ele>105</ele>
        <time>2013-10-01T18:17:31.279Z</time>
      </trkpt>
      <trkpt lat="48.89265" lon="2.32703">
        <ele>104.7</ele>
        <time>2013-10-01T18:17:33.265Z</time>
      </trkpt>
      <trkpt lat="48.89261" lon="2.32699">
        <ele>104.6</ele>
        <time>2013-10-01T18:17:34.269Z</time>
      </trkpt>
      <trkpt lat="48.89257" lon="2.32694">
        <ele>102.5</ele>
        <time>2013-10-01T18:17:35.268Z</time>
      </trkpt>
      <trkpt lat="48.89253" lon="2.3269">
        <ele>102.9</ele>
        <time>2013-10-01T18:17:36.279Z</time>
      </trkpt>
      <trkpt lat="48.89249" lon="2.32686">
        <ele>103.1</ele>
        <time>2013-10-01T18:17:38.095Z</time>
      </trkpt>
      <trkpt lat="48.89245" lon="2.32682">
        <ele>103.3</ele>
        <time>2013-10-01T18:17:38.318Z</time>
      </trkpt>
      <trkpt lat="48.89238" lon="2.32674">
        <ele>100.8</ele>
        <time>2013-10-01T18:17:40.263Z</time>
      </trkpt>
      <trkpt lat="48.89234" lon="2.3267">
        <ele>100.5</ele>
        <time>2013-10-01T18:17:41.265Z</time>
      </trkpt>
      <trkpt lat="48.8923" lon="2.32666">
        <ele>100.7</ele>
        <time>2013-10-01T18:17:42.251Z</time>
      </trkpt>
      <trkpt lat="48.89225" lon="2.32662">
        <ele>100.2</ele>
        <time>2013-10-01T18:17:43.222Z</time>
      </trkpt>
      <trkpt lat="48.8922" lon="2.32659">
        <ele>101</ele>
        <time>2013-10-01T18:17:44.248Z</time>
      </trkpt>
      <trkpt lat="48.89215" lon="2.32657">
        <ele>99.9</ele>
        <time>2013-10-01T18:17:45.287Z</time>
      </trkpt>
      <trkpt lat="48.8921" lon="2.32655">
        <ele>99.3</ele>
        <time>2013-10-01T18:17:46.243Z</time>
      </trkpt>
      <trkpt lat="48.89205" lon="2.32652">
        <ele>98.1</ele>
        <time>2013-10-01T18:17:47.253Z</time>
      </trkpt>
      <trkpt lat="48.892" lon="2.32648">
        <ele>98.7</ele>
        <time>2013-10-01T18:17:48.258Z</time>
      </trkpt>
      <trkpt lat="48.89197" lon="2.32644">
        <ele>98</ele>
        <time>2013-10-01T18:17:49.230Z</time>
      </trkpt>
      <trkpt lat="48.89191" lon="2.32635">
        <ele>101.4</ele>
        <time>2013-10-01T18:17:51.269Z</time>
      </trkpt>
      <trkpt lat="48.89188" lon="2.32631">
        <ele>103.2</ele>
        <time>2013-10-01T18:17:52.393Z</time>
      </trkpt>
      <trkpt lat="48.89183" lon="2.32624">
        <ele>103.5</ele>
        <time>2013-10-01T18:17:54.388Z</time>
      </trkpt>
      <trkpt lat="48.8918" lon="2.3262">
        <ele>104.6</ele>
        <time>2013-10-01T18:17:55.281Z</time>
      </trkpt>
      <trkpt lat="48.89175" lon="2.32611">
        <ele>105.3</ele>
        <time>2013-10-01T18:17:57.273Z</time>
      </trkpt>
      <trkpt lat="48.89172" lon="2.32607">
        <ele>106</ele>
        <time>2013-10-01T18:17:58.260Z</time>
      </trkpt>
      <trkpt lat="48.89166" lon="2.32598">
        <ele>107.4</ele>
        <time>2013-10-01T18:18:00.259Z</time>
      </trkpt>
      <trkpt lat="48.89163" lon="2.32593">
        <ele>107.6</ele>
        <time>2013-10-01T18:18:01.229Z</time>
      </trkpt>
      <trkpt lat="48.89159" lon="2.32588">
        <ele>107.7</ele>
        <time>2013-10-01T18:18:02.262Z</time>
      </trkpt>
      <trkpt lat="48.89155" lon="2.32584">
        <ele>109</ele>
        <time>2013-10-01T18:18:03.271Z</time>
      </trkpt>
      <trkpt lat="48.8915" lon="2.32579">
        <ele>107.6</ele>
        <time>2013-10-01T18:18:04.280Z</time>
      </trkpt>
      <trkpt lat="48.89146" lon="2.32575">
        <ele>107.9</ele>
        <time>2013-10-01T18:18:05.269Z</time>
      </trkpt>
      <trkpt lat="48.89142" lon="2.3257">
        <ele>108.9</ele>
        <time>2013-10-01T18:18:06.238Z</time>
      </trkpt>
      <trkpt lat="48.89138" lon="2.32566">
        <ele>109.8</ele>
        <time>2013-10-01T18:18:07.283Z</time>
      </trkpt>
      <trkpt lat="48.89134" lon="2.32562">
        <ele>107.3</ele>
        <time>2013-10-01T18:18:08.279Z</time>
      </trkpt>
      <trkpt lat="48.8913" lon="2.32559">
        <ele>107.5</ele>
        <time>2013-10-01T18:18:09.300Z</time>
      </trkpt>
      <trkpt lat="48.89122" lon="2.32551">
        <ele>106.6</ele>
        <time>2013-10-01T18:18:11.270Z</time>
      </trkpt>
      <trkpt lat="48.89119" lon="2.32548">
        <ele>106.9</ele>
        <time>2013-10-01T18:18:12.263Z</time>
      </trkpt>
      <trkpt lat="48.89114" lon="2.32541">
        <ele>107.9</ele>
        <time>2013-10-01T18:18:14.290Z</time>
      </trkpt>
      <trkpt lat="48.89111" lon="2.32538">
        <ele>108.8</ele>
        <time>2013-10-01T18:18:15.267Z</time>
      </trkpt>
      <trkpt lat="48.89107" lon="2.32531">
        <ele>109.7</ele>
        <time>2013-10-01T18:18:18.000Z</time>
      </trkpt>
      <trkpt lat="48.89105" lon="2.32527">
        <ele>109.1</ele>
        <time>2013-10-01T18:18:18.340Z</time>
      </trkpt>
      <trkpt lat="48.89101" lon="2.32519">
        <ele>109.4</ele>
        <time>2013-10-01T18:18:20.281Z</time>
      </trkpt>
      <trkpt lat="48.89098" lon="2.32514">
        <ele>109.3</ele>
        <time>2013-10-01T18:18:21.278Z</time>
      </trkpt>
      <trkpt lat="48.89093" lon="2.32504">
        <ele>109</ele>
        <time>2013-10-01T18:18:23.249Z</time>
      </trkpt>
      <trkpt lat="48.8909" lon="2.325">
        <ele>108.8</ele>
        <time>2013-10-01T18:18:24.290Z</time>
      </trkpt>
      <trkpt lat="48.89083" lon="2.32491">
        <ele>108.4</ele>
        <time>2013-10-01T18:18:26.288Z</time>
      </trkpt>
      <trkpt lat="48.89079" lon="2.32486">
        <ele>108.4</ele>
        <time>2013-10-01T18:18:27.237Z</time>
      </trkpt>
      <trkpt lat="48.89075" lon="2.32482">
        <ele>108.5</ele>
        <time>2013-10-01T18:18:28.279Z</time>
      </trkpt>
      <trkpt lat="48.89071" lon="2.32477">
        <ele>108.5</ele>
        <time>2013-10-01T18:18:29.283Z</time>
      </trkpt>
      <trkpt lat="48.89064" lon="2.32469">
        <ele>109.2</ele>
        <time>2013-10-01T18:18:31.320Z</time>
      </trkpt>
      <trkpt lat="48.8906" lon="2.32465">
        <ele>108.9</ele>
        <time>2013-10-01T18:18:32.415Z</time>
      </trkpt>
      <trkpt lat="48.89053" lon="2.32457">
        <ele>109.6</ele>
        <time>2013-10-01T18:18:34.400Z</time>
      </trkpt>
      <trkpt lat="48.8905" lon="2.32454">
        <ele>108.2</ele>
        <time>2013-10-01T18:18:35.253Z</time>
      </trkpt>
      <trkpt lat="48.89046" lon="2.32449">
        <ele>108.1</ele>
        <time>2013-10-01T18:18:36.377Z</time>
      </trkpt>
      <trkpt lat="48.89042" lon="2.32445">
        <ele>107.9</ele>
        <time>2013-10-01T18:18:37.371Z</time>
      </trkpt>
      <trkpt lat="48.89038" lon="2.3244">
        <ele>107.1</ele>
        <time>2013-10-01T18:18:38.358Z</time>
      </trkpt>
      <trkpt lat="48.89035" lon="2.32435">
        <ele>106.9</ele>
        <time>2013-10-01T18:18:39.258Z</time>
      </trkpt>
      <trkpt lat="48.89031" lon="2.32429">
        <ele>107.5</ele>
        <time>2013-10-01T18:18:40.310Z</time>
      </trkpt>
      <trkpt lat="48.89027" lon="2.32424">
        <ele>107.3</ele>
        <time>2013-10-01T18:18:41.257Z</time>
      </trkpt>
      <trkpt lat="48.89023" lon="2.3242">
        <ele>107</ele>
        <time>2013-10-01T18:18:42.470Z</time>
      </trkpt>
      <trkpt lat="48.89019" lon="2.32415">
        <ele>106.9</ele>
        <time>2013-10-01T18:18:43.238Z</time>
      </trkpt>
      <trkpt lat="48.89015" lon="2.32412">
        <ele>106</ele>
        <time>2013-10-01T18:18:44.249Z</time>
      </trkpt>
      <trkpt lat="48.89011" lon="2.32408">
        <ele>105.8</ele>
        <time>2013-10-01T18:18:45.290Z</time>
      </trkpt>
      <trkpt lat="48.89005" lon="2.324">
        <ele>105.5</ele>
        <time>2013-10-01T18:18:47.489Z</time>
      </trkpt>
      <trkpt lat="48.89002" lon="2.32396">
        <ele>105.9</ele>
        <time>2013-10-01T18:18:48.267Z</time>
      </trkpt>
      <trkpt lat="48.88996" lon="2.32388">
        <ele>105.3</ele>
        <time>2013-10-01T18:18:50.257Z</time>
      </trkpt>
      <trkpt lat="48.88994" lon="2.32384">
        <ele>104.9</ele>
        <time>2013-10-01T18:18:51.289Z</time>
      </trkpt>
      <trkpt lat="48.88989" lon="2.32374">
        <ele>104.2</ele>
        <time>2013-10-01T18:18:53.279Z</time>
      </trkpt>
      <trkpt lat="48.88987" lon="2.32369">
        <ele>103.6</ele>
        <time>2013-10-01T18:18:54.280Z</time>
      </trkpt>
      <trkpt lat="48.88983" lon="2.32358">
        <ele>103.4</ele>
        <time>2013-10-01T18:18:56.296Z</time>
      </trkpt>
      <trkpt lat="48.88981" lon="2.32352">
        <ele>102.4</ele>
        <time>2013-10-01T18:18:57.235Z</time>
      </trkpt>
      <trkpt lat="48.88979" lon="2.32342">
        <ele>102</ele>
        <time>2013-10-01T18:18:59.237Z</time>
      </trkpt>
      <trkpt lat="48.88977" lon="2.32337">
        <ele>102.2</ele>
        <time>2013-10-01T18:19:00.341Z</time>
      </trkpt>
      <trkpt lat="48.88974" lon="2.32328">
        <ele>101.2</ele>
        <time>2013-10-01T18:19:02.525Z</time>
      </trkpt>
      <trkpt lat="48.88972" lon="2.32324">
        <ele>100.8</ele>
        <time>2013-10-01T18:19:03.315Z</time>
      </trkpt>
      <trkpt lat="48.88966" lon="2.32315">
        <ele>99.4</ele>
        <time>2013-10-01T18:19:05.327Z</time>
      </trkpt>
      <trkpt lat="48.88963" lon="2.32312">
        <ele>98.6</ele>
        <time>2013-10-01T18:19:06.279Z</time>
      </trkpt>
      <trkpt lat="48.88955" lon="2.32306">
        <ele>99.3</ele>
        <time>2013-10-01T18:19:08.284Z</time>
      </trkpt>
      <trkpt lat="48.88951" lon="2.32303">
        <ele>100.2</ele>
        <time>2013-10-01T18:19:09.264Z</time>
      </trkpt>
      <trkpt lat="48.88943" lon="2.32299">
        <ele>99.4</ele>
        <time>2013-10-01T18:19:11.260Z</time>
      </trkpt>
      <trkpt lat="48.88939" lon="2.32297">
        <ele>100.3</ele>
        <time>2013-10-01T18:19:12.306Z</time>
      </trkpt>
      <trkpt lat="48.88932" lon="2.32295">
        <ele>100.5</ele>
        <time>2013-10-01T18:19:14.270Z</time>
      </trkpt>
      <trkpt lat="48.88929" lon="2.32294">
        <ele>99.8</ele>
        <time>2013-10-01T18:19:15.302Z</time>
      </trkpt>
      <trkpt lat="48.8892" lon="2.32292">
        <ele>105.9</ele>
        <time>2013-10-01T18:19:25.284Z</time>
      </trkpt>
      <trkpt lat="48.8892" lon="2.32292">
        <ele>106.1</ele>
        <time>2013-10-01T18:19:26.301Z</time>
      </trkpt>
      <trkpt lat="48.8892" lon="2.32293">
        <ele>105.9</ele>
        <time>2013-10-01T18:19:28.277Z</time>
      </trkpt>
      <trkpt lat="48.8892" lon="2.32293">
        <ele>105.8</ele>
        <time>2013-10-01T18:19:29.377Z</time>
      </trkpt>
      <trkpt lat="48.8892" lon="2.32292">
        <ele>107.8</ele>
        <time>2013-10-01T18:19:36.462Z</time>
      </trkpt>
      <trkpt lat="48.88921" lon="2.32292">
        <ele>104.7</ele>
        <time>2013-10-01T18:19:37.309Z</time>
      </trkpt>
      <trkpt lat="48.88922" lon="2.32289">
        <ele>104.1</ele>
        <time>2013-10-01T18:19:44.308Z</time>
      </trkpt>
      <trkpt lat="48.88922" lon="2.32289">
        <ele>105.1</ele>
        <time>2013-10-01T18:19:45.459Z</time>
      </trkpt>
      <trkpt lat="48.88922" lon="2.32287">
        <ele>104.2</ele>
        <time>2013-10-01T18:20:53.285Z</time>
      </trkpt>
      <trkpt lat="48.88922" lon="2.32286">
        <ele>103.6</ele>
        <time>2013-10-01T18:20:54.329Z</time>
      </trkpt>
      <trkpt lat="48.88918" lon="2.32277">
        <ele>104.9</ele>
        <time>2013-10-01T18:20:59.270Z</time>
      </trkpt>
      <trkpt lat="48.88916" lon="2.32275">
        <ele>105.2</ele>
        <time>2013-10-01T18:21:00.343Z</time>
      </trkpt>
      <trkpt lat="48.88908" lon="2.32273">
        <ele>107.3</ele>
        <time>2013-10-01T18:21:03.333Z</time>
      </trkpt>
      <trkpt lat="48.88906" lon="2.32273">
        <ele>107.2</ele>
        <time>2013-10-01T18:21:04.318Z</time>
      </trkpt>
      <trkpt lat="48.889" lon="2.32267">
        <ele>108.5</ele>
        <time>2013-10-01T18:21:08.292Z</time>
      </trkpt>
      <trkpt lat="48.88898" lon="2.32263">
        <ele>109</ele>
        <time>2013-10-01T18:21:09.365Z</time>
      </trkpt>
      <trkpt lat="48.88892" lon="2.32255">
        <ele>111.3</ele>
        <time>2013-10-01T18:21:11.347Z</time>
      </trkpt>
      <trkpt lat="48.8889" lon="2.3225">
        <ele>111</ele>
        <time>2013-10-01T18:21:12.305Z</time>
      </trkpt>
      <trkpt lat="48.88886" lon="2.3224">
        <ele>111.9</ele>
        <time>2013-10-01T18:21:14.268Z</time>
      </trkpt>
      <trkpt lat="48.88884" lon="2.32234">
        <ele>112.3</ele>
        <time>2013-10-01T18:21:15.258Z</time>
      </trkpt>
      <trkpt lat="48.88882" lon="2.32223">
        <ele>111.3</ele>
        <time>2013-10-01T18:21:17.348Z</time>
      </trkpt>
      <trkpt lat="48.8888" lon="2.32217">
        <ele>111</ele>
        <time>2013-10-01T18:21:18.284Z</time>
      </trkpt>
      <trkpt lat="48.88876" lon="2.32204">
        <ele>107.3</ele>
        <time>2013-10-01T18:21:20.268Z</time>
      </trkpt>
      <trkpt lat="48.88874" lon="2.32198">
        <ele>105.8</ele>
        <time>2013-10-01T18:21:21.283Z</time>
      </trkpt>
      <trkpt lat="48.88872" lon="2.32193">
        <ele>106.6</ele>
        <time>2013-10-01T18:21:22.347Z</time>
      </trkpt>
      <trkpt lat="48.88869" lon="2.32187">
        <ele>106.1</ele>
        <time>2013-10-01T18:21:23.318Z</time>
      </trkpt>
      <trkpt lat="48.88863" lon="2.32176">
        <ele>105.8</ele>
        <time>2013-10-01T18:21:25.269Z</time>
      </trkpt>
      <trkpt lat="48.8886" lon="2.3217">
        <ele>105.9</ele>
        <time>2013-10-01T18:21:26.285Z</time>
      </trkpt>
      <trkpt lat="48.88856" lon="2.32163">
        <ele>106.9</ele>
        <time>2013-10-01T18:21:27.378Z</time>
      </trkpt>
      <trkpt lat="48.88852" lon="2.32157">
        <ele>107</ele>
        <time>2013-10-01T18:21:28.281Z</time>
      </trkpt>
      <trkpt lat="48.88845" lon="2.32149">
        <ele>106.3</ele>
        <time>2013-10-01T18:21:30.257Z</time>
      </trkpt>
      <trkpt lat="48.88841" lon="2.32145">
        <ele>106.2</ele>
        <time>2013-10-01T18:21:31.380Z</time>
      </trkpt>
      <trkpt lat="48.88836" lon="2.32142">
        <ele>106.1</ele>
        <time>2013-10-01T18:21:32.402Z</time>
      </trkpt>
      <trkpt lat="48.88831" lon="2.32138">
        <ele>105.9</ele>
        <time>2013-10-01T18:21:33.247Z</time>
      </trkpt>
      <trkpt lat="48.88826" lon="2.32133">
        <ele>104.4</ele>
        <time>2013-10-01T18:21:34.260Z</time>
      </trkpt>
      <trkpt lat="48.8882" lon="2.32128">
        <ele>102.9</ele>
        <time>2013-10-01T18:21:35.288Z</time>
      </trkpt>
      <trkpt lat="48.88816" lon="2.32123">
        <ele>101.8</ele>
        <time>2013-10-01T18:21:36.277Z</time>
      </trkpt>
      <trkpt lat="48.88813" lon="2.32118">
        <ele>102.6</ele>
        <time>2013-10-01T18:21:37.270Z</time>
      </trkpt>
      <trkpt lat="48.88809" lon="2.32108">
        <ele>103.4</ele>
        <time>2013-10-01T18:21:39.337Z</time>
      </trkpt>
      <trkpt lat="48.88807" lon="2.32102">
        <ele>103.3</ele>
        <time>2013-10-01T18:21:40.328Z</time>
      </trkpt>
      <trkpt lat="48.88805" lon="2.32095">
        <ele>103.2</ele>
        <time>2013-10-01T18:21:41.320Z</time>
      </trkpt>
      <trkpt lat="48.88803" lon="2.32089">
        <ele>103.5</ele>
        <time>2013-10-01T18:21:42.309Z</time>
      </trkpt>
      <trkpt lat="48.888" lon="2.32084">
        <ele>102.8</ele>
        <time>2013-10-01T18:21:43.259Z</time>
      </trkpt>
      <trkpt lat="48.88798" lon="2.32078">
        <ele>105.2</ele>
        <time>2013-10-01T18:21:44.290Z</time>
      </trkpt>
      <trkpt lat="48.88795" lon="2.32072">
        <ele>105.9</ele>
        <time>2013-10-01T18:21:45.280Z</time>
      </trkpt>
      <trkpt lat="48.88793" lon="2.32065">
        <ele>103.9</ele>
        <time>2013-10-01T18:21:46.323Z</time>
      </trkpt>
      <trkpt lat="48.8879" lon="2.32058">
        <ele>105.1</ele>
        <time>2013-10-01T18:21:47.582Z</time>
      </trkpt>
      <trkpt lat="48.88787" lon="2.32052">
        <ele>105.3</ele>
        <time>2013-10-01T18:21:48.348Z</time>
      </trkpt>
      <trkpt lat="48.88783" lon="2.32045">
        <ele>105.8</ele>
        <time>2013-10-01T18:21:49.360Z</time>
      </trkpt>
      <trkpt lat="48.88776" lon="2.32039">
        <ele>104.7</ele>
        <time>2013-10-01T18:21:50.331Z</time>
      </trkpt>
      <trkpt lat="48.8877" lon="2.32033">
        <ele>105.8</ele>
        <time>2013-10-01T18:21:51.284Z</time>
      </trkpt>
      <trkpt lat="48.88765" lon="2.32029">
        <ele>106.7</ele>
        <time>2013-10-01T18:21:52.278Z</time>
      </trkpt>
      <trkpt lat="48.8876" lon="2.32026">
        <ele>106.2</ele>
        <time>2013-10-01T18:21:53.300Z</time>
      </trkpt>
      <trkpt lat="48.88756" lon="2.32022">
        <ele>106.9</ele>
        <time>2013-10-01T18:21:54.359Z</time>
      </trkpt>
      <trkpt lat="48.8875" lon="2.32013">
        <ele>107.1</ele>
        <time>2013-10-01T18:21:56.367Z</time>
      </trkpt>
      <trkpt lat="48.88748" lon="2.32007">
        <ele>107.2</ele>
        <time>2013-10-01T18:21:57.355Z</time>
      </trkpt>
      <trkpt lat="48.88746" lon="2.32">
        <ele>107.5</ele>
        <time>2013-10-01T18:21:58.330Z</time>
      </trkpt>
      <trkpt lat="48.88744" lon="2.31992">
        <ele>107.6</ele>
        <time>2013-10-01T18:21:59.281Z</time>
      </trkpt>
      <trkpt lat="48.88741" lon="2.31984">
        <ele>108</ele>
        <time>2013-10-01T18:22:00.303Z</time>
      </trkpt>
      <trkpt lat="48.88739" lon="2.31978">
        <ele>107.8</ele>
        <time>2013-10-01T18:22:01.281Z</time>
      </trkpt>
      <trkpt lat="48.88735" lon="2.31971">
        <ele>109.4</ele>
        <time>2013-10-01T18:22:02.766Z</time>
      </trkpt>
      <trkpt lat="48.88731" lon="2.31966">
        <ele>110.3</ele>
        <time>2013-10-01T18:22:03.328Z</time>
      </trkpt>
      <trkpt lat="48.88725" lon="2.31962">
        <ele>109.5</ele>
        <time>2013-10-01T18:22:04.372Z</time>
      </trkpt>
      <trkpt lat="48.8872" lon="2.31959">
        <ele>109.8</ele>
        <time>2013-10-01T18:22:05.349Z</time>
      </trkpt>
      <trkpt lat="48.88713" lon="2.31951">
        <ele>114.1</ele>
        <time>2013-10-01T18:22:11.401Z</time>
      </trkpt>
      <trkpt lat="48.88712" lon="2.3195">
        <ele>114.7</ele>
        <time>2013-10-01T18:22:12.406Z</time>
      </trkpt>
      <trkpt lat="48.88708" lon="2.3194">
        <ele>116.4</ele>
        <time>2013-10-01T18:22:15.286Z</time>
      </trkpt>
      <trkpt lat="48.88706" lon="2.31935">
        <ele>116.8</ele>
        <time>2013-10-01T18:22:16.287Z</time>
      </trkpt>
      <trkpt lat="48.88703" lon="2.3193">
        <ele>116.6</ele>
        <time>2013-10-01T18:22:17.437Z</time>
      </trkpt>
      <trkpt lat="48.887" lon="2.31924">
        <ele>117.2</ele>
        <time>2013-10-01T18:22:18.329Z</time>
      </trkpt>
      <trkpt lat="48.88697" lon="2.31918">
        <ele>116.9</ele>
        <time>2013-10-01T18:22:19.426Z</time>
      </trkpt>
      <trkpt lat="48.88694" lon="2.31913">
        <ele>117.5</ele>
        <time>2013-10-01T18:22:20.365Z</time>
      </trkpt>
      <trkpt lat="48.88691" lon="2.31907">
        <ele>118.3</ele>
        <time>2013-10-01T18:22:21.360Z</time>
      </trkpt>
      <trkpt lat="48.88688" lon="2.31902">
        <ele>118.1</ele>
        <time>2013-10-01T18:22:22.320Z</time>
      </trkpt>
      <trkpt lat="48.88684" lon="2.31896">
        <ele>118.2</ele>
        <time>2013-10-01T18:22:23.289Z</time>
      </trkpt>
      <trkpt lat="48.88681" lon="2.31891">
        <ele>118.3</ele>
        <time>2013-10-01T18:22:24.280Z</time>
      </trkpt>
      <trkpt lat="48.88674" lon="2.31882">
        <ele>118.3</ele>
        <time>2013-10-01T18:22:26.368Z</time>
      </trkpt>
      <trkpt lat="48.88671" lon="2.31878">
        <ele>118</ele>
        <time>2013-10-01T18:22:27.411Z</time>
      </trkpt>
      <trkpt lat="48.88665" lon="2.31868">
        <ele>116.6</ele>
        <time>2013-10-01T18:22:29.366Z</time>
      </trkpt>
      <trkpt lat="48.88662" lon="2.31863">
        <ele>116.1</ele>
        <time>2013-10-01T18:22:30.343Z</time>
      </trkpt>
      <trkpt lat="48.88659" lon="2.31857">
        <ele>117.9</ele>
        <time>2013-10-01T18:22:31.350Z</time>
      </trkpt>
      <trkpt lat="48.88657" lon="2.31851">
        <ele>115.5</ele>
        <time>2013-10-01T18:22:32.300Z</time>
      </trkpt>
      <trkpt lat="48.88654" lon="2.31846">
        <ele>114.4</ele>
        <time>2013-10-01T18:22:33.345Z</time>
      </trkpt>
      <trkpt lat="48.88651" lon="2.3184">
        <ele>113.9</ele>
        <time>2013-10-01T18:22:34.295Z</time>
      </trkpt>
      <trkpt lat="48.88646" lon="2.31829">
        <ele>113.5</ele>
        <time>2013-10-01T18:22:36.370Z</time>
      </trkpt>
      <trkpt lat="48.88643" lon="2.31824">
        <ele>110.5</ele>
        <time>2013-10-01T18:22:37.378Z</time>
      </trkpt>
      <trkpt lat="48.88638" lon="2.31814">
        <ele>110.8</ele>
        <time>2013-10-01T18:22:39.333Z</time>
      </trkpt>
      <trkpt lat="48.88636" lon="2.3181">
        <ele>114.9</ele>
        <time>2013-10-01T18:22:40.291Z</time>
      </trkpt>
      <trkpt lat="48.88629" lon="2.31802">
        <ele>114.4</ele>
        <time>2013-10-01T18:22:43.339Z</time>
      </trkpt>
      <trkpt lat="48.88627" lon="2.318">
        <ele>113.9</ele>
        <time>2013-10-01T18:22:44.288Z</time>
      </trkpt>
      <trkpt lat="48.88622" lon="2.31792">
        <ele>112.3</ele>
        <time>2013-10-01T18:22:47.543Z</time>
      </trkpt>
      <trkpt lat="48.8862" lon="2.31789">
        <ele>111.7</ele>
        <time>2013-10-01T18:22:48.350Z</time>
      </trkpt>
      <trkpt lat="48.88619" lon="2.31788">
        <ele>111.7</ele>
        <time>2013-10-01T18:22:53.340Z</time>
      </trkpt>
      <trkpt lat="48.8862" lon="2.31788">
        <ele>111.1</ele>
        <time>2013-10-01T18:22:54.471Z</time>
      </trkpt>
      <trkpt lat="48.88619" lon="2.31788">
        <ele>109.5</ele>
        <time>2013-10-01T18:22:57.627Z</time>
      </trkpt>
      <trkpt lat="48.88618" lon="2.31788">
        <ele>109.2</ele>
        <time>2013-10-01T18:22:58.277Z</time>
      </trkpt>
      <trkpt lat="48.8861" lon="2.31784">
        <ele>110.2</ele>
        <time>2013-10-01T18:23:03.291Z</time>
      </trkpt>
      <trkpt lat="48.88609" lon="2.31781">
        <ele>114.1</ele>
        <time>2013-10-01T18:23:04.303Z</time>
      </trkpt>
      <trkpt lat="48.88606" lon="2.31771">
        <ele>115.2</ele>
        <time>2013-10-01T18:23:07.602Z</time>
      </trkpt>
      <trkpt lat="48.88604" lon="2.31767">
        <ele>116</ele>
        <time>2013-10-01T18:23:08.519Z</time>
      </trkpt>
      <trkpt lat="48.88599" lon="2.31758">
        <ele>115.5</ele>
        <time>2013-10-01T18:23:10.517Z</time>
      </trkpt>
      <trkpt lat="48.88597" lon="2.31753">
        <ele>113.8</ele>
        <time>2013-10-01T18:23:11.298Z</time>
      </trkpt>
      <trkpt lat="48.88594" lon="2.31747">
        <ele>107.6</ele>
        <time>2013-10-01T18:23:12.506Z</time>
      </trkpt>
      <trkpt lat="48.88591" lon="2.31742">
        <ele>106.5</ele>
        <time>2013-10-01T18:23:13.278Z</time>
      </trkpt>
      <trkpt lat="48.88589" lon="2.31735">
        <ele>105.5</ele>
        <time>2013-10-01T18:23:14.440Z</time>
      </trkpt>
      <trkpt lat="48.88586" lon="2.3173">
        <ele>105</ele>
        <time>2013-10-01T18:23:15.461Z</time>
      </trkpt>
      <trkpt lat="48.88582" lon="2.3172">
        <ele>100.2</ele>
        <time>2013-10-01T18:23:17.381Z</time>
      </trkpt>
      <trkpt lat="48.88579" lon="2.31715">
        <ele>101</ele>
        <time>2013-10-01T18:23:18.289Z</time>
      </trkpt>
      <trkpt lat="48.88575" lon="2.31706">
        <ele>99.5</ele>
        <time>2013-10-01T18:23:20.330Z</time>
      </trkpt>
      <trkpt lat="48.88573" lon="2.31702">
        <ele>99.7</ele>
        <time>2013-10-01T18:23:21.247Z</time>
      </trkpt>
      <trkpt lat="48.88567" lon="2.31696">
        <ele>97.9</ele>
        <time>2013-10-01T18:23:23.342Z</time>
      </trkpt>
      <trkpt lat="48.88565" lon="2.31694">
        <ele>97.1</ele>
        <time>2013-10-01T18:23:24.278Z</time>
      </trkpt>
      <trkpt lat="48.88558" lon="2.31696">
        <ele>98.3</ele>
        <time>2013-10-01T18:23:26.281Z</time>
      </trkpt>
      <trkpt lat="48.88554" lon="2.31699">
        <ele>98.2</ele>
        <time>2013-10-01T18:23:27.294Z</time>
      </trkpt>
      <trkpt lat="48.8855" lon="2.31705">
        <ele>99.8</ele>
        <time>2013-10-01T18:23:28.552Z</time>
      </trkpt>
      <trkpt lat="48.88546" lon="2.31715">
        <ele>100.4</ele>
        <time>2013-10-01T18:23:29.267Z</time>
      </trkpt>
      <trkpt lat="48.88542" lon="2.31724">
        <ele>101.6</ele>
        <time>2013-10-01T18:23:30.278Z</time>
      </trkpt>
      <trkpt lat="48.88538" lon="2.3173">
        <ele>102.4</ele>
        <time>2013-10-01T18:23:31.321Z</time>
      </trkpt>
      <trkpt lat="48.88534" lon="2.31736">
        <ele>103.1</ele>
        <time>2013-10-01T18:23:32.418Z</time>
      </trkpt>
      <trkpt lat="48.8853" lon="2.3174">
        <ele>103.4</ele>
        <time>2013-10-01T18:23:33.399Z</time>
      </trkpt>
      <trkpt lat="48.88523" lon="2.31746">
        <ele>102.7</ele>
        <time>2013-10-01T18:23:35.318Z</time>
      </trkpt>
      <trkpt lat="48.88519" lon="2.3175">
        <ele>103.9</ele>
        <time>2013-10-01T18:23:36.297Z</time>
      </trkpt>
      <trkpt lat="48.88512" lon="2.31758">
        <ele>104.9</ele>
        <time>2013-10-01T18:23:38.418Z</time>
      </trkpt>
      <trkpt lat="48.88508" lon="2.31762">
        <ele>103.9</ele>
        <time>2013-10-01T18:23:39.430Z</time>
      </trkpt>
      <trkpt lat="48.88504" lon="2.31766">
        <ele>104.4</ele>
        <time>2013-10-01T18:23:40.508Z</time>
      </trkpt>
      <trkpt lat="48.885" lon="2.3177">
        <ele>105.2</ele>
        <time>2013-10-01T18:23:41.375Z</time>
      </trkpt>
      <trkpt lat="48.88493" lon="2.31777">
        <ele>105.3</ele>
        <time>2013-10-01T18:23:43.280Z</time>
      </trkpt>
      <trkpt lat="48.8849" lon="2.31781">
        <ele>106.1</ele>
        <time>2013-10-01T18:23:44.488Z</time>
      </trkpt>
      <trkpt lat="48.88483" lon="2.31788">
        <ele>105.9</ele>
        <time>2013-10-01T18:23:46.465Z</time>
      </trkpt>
      <trkpt lat="48.8848" lon="2.31792">
        <ele>106.3</ele>
        <time>2013-10-01T18:23:47.453Z</time>
      </trkpt>
      <trkpt lat="48.88475" lon="2.31797">
        <ele>107.6</ele>
        <time>2013-10-01T18:23:49.531Z</time>
      </trkpt>
      <trkpt lat="48.88471" lon="2.31799">
        <ele>107.8</ele>
        <time>2013-10-01T18:23:50.367Z</time>
      </trkpt>
      <trkpt lat="48.88465" lon="2.31805">
        <ele>108.2</ele>
        <time>2013-10-01T18:23:52.624Z</time>
      </trkpt>
      <trkpt lat="48.88461" lon="2.31809">
        <ele>109.4</ele>
        <time>2013-10-01T18:23:53.492Z</time>
      </trkpt>
      <trkpt lat="48.88456" lon="2.31816">
        <ele>110.7</ele>
        <time>2013-10-01T18:23:55.448Z</time>
      </trkpt>
      <trkpt lat="48.88453" lon="2.31819">
        <ele>110.8</ele>
        <time>2013-10-01T18:23:56.479Z</time>
      </trkpt>
      <trkpt lat="48.88447" lon="2.31824">
        <ele>111.8</ele>
        <time>2013-10-01T18:23:58.546Z</time>
      </trkpt>
      <trkpt lat="48.88444" lon="2.31826">
        <ele>112.3</ele>
        <time>2013-10-01T18:23:59.291Z</time>
      </trkpt>
      <trkpt lat="48.88438" lon="2.31832">
        <ele>113.3</ele>
        <time>2013-10-01T18:24:01.329Z</time>
      </trkpt>
      <trkpt lat="48.88434" lon="2.31835">
        <ele>113.8</ele>
        <time>2013-10-01T18:24:02.450Z</time>
      </trkpt>
      <trkpt lat="48.88429" lon="2.3184">
        <ele>113.9</ele>
        <time>2013-10-01T18:24:04.262Z</time>
      </trkpt>
      <trkpt lat="48.88427" lon="2.31843">
        <ele>114.6</ele>
        <time>2013-10-01T18:24:05.279Z</time>
      </trkpt>
      <trkpt lat="48.88423" lon="2.31853">
        <ele>116.7</ele>
        <time>2013-10-01T18:24:08.318Z</time>
      </trkpt>
      <trkpt lat="48.88421" lon="2.31856">
        <ele>116.7</ele>
        <time>2013-10-01T18:24:09.292Z</time>
      </trkpt>
      <trkpt lat="48.88415" lon="2.31864">
        <ele>118</ele>
        <time>2013-10-01T18:24:11.400Z</time>
      </trkpt>
      <trkpt lat="48.88412" lon="2.31868">
        <ele>117</ele>
        <time>2013-10-01T18:24:12.344Z</time>
      </trkpt>
      <trkpt lat="48.88405" lon="2.31875">
        <ele>116.9</ele>
        <time>2013-10-01T18:24:14.298Z</time>
      </trkpt>
      <trkpt lat="48.88402" lon="2.3188">
        <ele>113</ele>
        <time>2013-10-01T18:24:15.330Z</time>
      </trkpt>
      <trkpt lat="48.88396" lon="2.31889">
        <ele>112.6</ele>
        <time>2013-10-01T18:24:17.423Z</time>
      </trkpt>
      <trkpt lat="48.88393" lon="2.31894">
        <ele>110.3</ele>
        <time>2013-10-01T18:24:18.297Z</time>
      </trkpt>
      <trkpt lat="48.88386" lon="2.31901">
        <ele>110</ele>
        <time>2013-10-01T18:24:20.300Z</time>
      </trkpt>
      <trkpt lat="48.88383" lon="2.31904">
        <ele>110.7</ele>
        <time>2013-10-01T18:24:21.294Z</time>
      </trkpt>
      <trkpt lat="48.88377" lon="2.31909">
        <ele>111</ele>
        <time>2013-10-01T18:24:23.296Z</time>
      </trkpt>
      <trkpt lat="48.88373" lon="2.31911">
        <ele>111</ele>
        <time>2013-10-01T18:24:24.299Z</time>
      </trkpt>
      <trkpt lat="48.88368" lon="2.31915">
        <ele>113.9</ele>
        <time>2013-10-01T18:24:26.300Z</time>
      </trkpt>
      <trkpt lat="48.88365" lon="2.31917">
        <ele>114.1</ele>
        <time>2013-10-01T18:24:27.309Z</time>
      </trkpt>
      <trkpt lat="48.88359" lon="2.31924">
        <ele>113.1</ele>
        <time>2013-10-01T18:24:30.267Z</time>
      </trkpt>
      <trkpt lat="48.88356" lon="2.31926">
        <ele>113.5</ele>
        <time>2013-10-01T18:24:31.288Z</time>
      </trkpt>
      <trkpt lat="48.88349" lon="2.31933">
        <ele>112.7</ele>
        <time>2013-10-01T18:24:34.295Z</time>
      </trkpt>
      <trkpt lat="48.88347" lon="2.31936">
        <ele>113.3</ele>
        <time>2013-10-01T18:24:35.284Z</time>
      </trkpt>
      <trkpt lat="48.88341" lon="2.31942">
        <ele>114.9</ele>
        <time>2013-10-01T18:24:37.502Z</time>
      </trkpt>
      <trkpt lat="48.88338" lon="2.31944">
        <ele>114.9</ele>
        <time>2013-10-01T18:24:38.301Z</time>
      </trkpt>
      <trkpt lat="48.88332" lon="2.31949">
        <ele>114.7</ele>
        <time>2013-10-01T18:24:40.296Z</time>
      </trkpt>
      <trkpt lat="48.88329" lon="2.31951">
        <ele>114.7</ele>
        <time>2013-10-01T18:24:41.299Z</time>
      </trkpt>
      <trkpt lat="48.88322" lon="2.31957">
        <ele>114.2</ele>
        <time>2013-10-01T18:24:44.291Z</time>
      </trkpt>
      <trkpt lat="48.88319" lon="2.3196">
        <ele>113.4</ele>
        <time>2013-10-01T18:24:45.322Z</time>
      </trkpt>
      <trkpt lat="48.88313" lon="2.31967">
        <ele>112.8</ele>
        <time>2013-10-01T18:24:48.300Z</time>
      </trkpt>
      <trkpt lat="48.88311" lon="2.31969">
        <ele>112.8</ele>
        <time>2013-10-01T18:24:49.320Z</time>
      </trkpt>
      <trkpt lat="48.88306" lon="2.31974">
        <ele>113.8</ele>
        <time>2013-10-01T18:24:51.365Z</time>
      </trkpt>
      <trkpt lat="48.88303" lon="2.31976">
        <ele>114.3</ele>
        <time>2013-10-01T18:24:52.355Z</time>
      </trkpt>
      <trkpt lat="48.88297" lon="2.31981">
        <ele>115.3</ele>
        <time>2013-10-01T18:24:54.312Z</time>
      </trkpt>
      <trkpt lat="48.88294" lon="2.31984">
        <ele>114.4</ele>
        <time>2013-10-01T18:24:55.495Z</time>
      </trkpt>
      <trkpt lat="48.88286" lon="2.31991">
        <ele>114.6</ele>
        <time>2013-10-01T18:24:57.610Z</time>
      </trkpt>
      <trkpt lat="48.88283" lon="2.31994">
        <ele>115.2</ele>
        <time>2013-10-01T18:24:58.297Z</time>
      </trkpt>
      <trkpt lat="48.88279" lon="2.31998">
        <ele>116.7</ele>
        <time>2013-10-01T18:24:59.449Z</time>
      </trkpt>
      <trkpt lat="48.88276" lon="2.32003">
        <ele>117.3</ele>
        <time>2013-10-01T18:25:00.474Z</time>
      </trkpt>
      <trkpt lat="48.88269" lon="2.32011">
        <ele>117.4</ele>
        <time>2013-10-01T18:25:02.644Z</time>
      </trkpt>
      <trkpt lat="48.88267" lon="2.32014">
        <ele>117.4</ele>
        <time>2013-10-01T18:25:03.311Z</time>
      </trkpt>
      <trkpt lat="48.88261" lon="2.3202">
        <ele>118</ele>
        <time>2013-10-01T18:25:05.299Z</time>
      </trkpt>
      <trkpt lat="48.88257" lon="2.32023">
        <ele>117.7</ele>
        <time>2013-10-01T18:25:06.457Z</time>
      </trkpt>
      <trkpt lat="48.88251" lon="2.32029">
        <ele>117.1</ele>
        <time>2013-10-01T18:25:08.400Z</time>
      </trkpt>
      <trkpt lat="48.88247" lon="2.32032">
        <ele>116.3</ele>
        <time>2013-10-01T18:25:09.512Z</time>
      </trkpt>
      <trkpt lat="48.8824" lon="2.32038">
        <ele>116.4</ele>
        <time>2013-10-01T18:25:11.528Z</time>
      </trkpt>
      <trkpt lat="48.88238" lon="2.3204">
        <ele>116.5</ele>
        <time>2013-10-01T18:25:12.330Z</time>
      </trkpt>
      <trkpt lat="48.88231" lon="2.32045">
        <ele>116</ele>
        <time>2013-10-01T18:25:15.330Z</time>
      </trkpt>
      <trkpt lat="48.88228" lon="2.32046">
        <ele>116.6</ele>
        <time>2013-10-01T18:25:16.308Z</time>
      </trkpt>
      <trkpt lat="48.88223" lon="2.32035">
        <ele>113.2</ele>
        <time>2013-10-01T18:25:32.881Z</time>
      </trkpt>
      <trkpt lat="48.88223" lon="2.32035">
        <ele>113.2</ele>
        <time>2013-10-01T18:25:33.288Z</time>
      </trkpt>
      <trkpt lat="48.88223" lon="2.32034">
        <ele>112.7</ele>
        <time>2013-10-01T18:25:34.279Z</time>
      </trkpt>
      <trkpt lat="48.88222" lon="2.32035">
        <ele>110.7</ele>
        <time>2013-10-01T18:25:57.546Z</time>
      </trkpt>
      <trkpt lat="48.88222" lon="2.32036">
        <ele>110.9</ele>
        <time>2013-10-01T18:25:58.368Z</time>
      </trkpt>
      <trkpt lat="48.88221" lon="2.32039">
        <ele>109.8</ele>
        <time>2013-10-01T18:26:04.294Z</time>
      </trkpt>
      <trkpt lat="48.88221" lon="2.32038">
        <ele>109.6</ele>
        <time>2013-10-01T18:26:05.288Z</time>
      </trkpt>
      <trkpt lat="48.88221" lon="2.32039">
        <ele>110</ele>
        <time>2013-10-01T18:26:23.291Z</time>
      </trkpt>
      <trkpt lat="48.8822" lon="2.3204">
        <ele>111.4</ele>
        <time>2013-10-01T18:26:24.298Z</time>
      </trkpt>
      <trkpt lat="48.88215" lon="2.32047">
        <ele>112.3</ele>
        <time>2013-10-01T18:26:27.384Z</time>
      </trkpt>
      <trkpt lat="48.88213" lon="2.32051">
        <ele>113.5</ele>
        <time>2013-10-01T18:26:28.297Z</time>
      </trkpt>
      <trkpt lat="48.88207" lon="2.32058">
        <ele>112.2</ele>
        <time>2013-10-01T18:26:30.298Z</time>
      </trkpt>
      <trkpt lat="48.88203" lon="2.32061">
        <ele>111.7</ele>
        <time>2013-10-01T18:26:31.300Z</time>
      </trkpt>
      <trkpt lat="48.88197" lon="2.32068">
        <ele>108.5</ele>
        <time>2013-10-01T18:26:33.295Z</time>
      </trkpt>
      <trkpt lat="48.88193" lon="2.32072">
        <ele>108.8</ele>
        <time>2013-10-01T18:26:34.297Z</time>
      </trkpt>
      <trkpt lat="48.88186" lon="2.32078">
        <ele>111</ele>
        <time>2013-10-01T18:26:36.308Z</time>
      </trkpt>
      <trkpt lat="48.88182" lon="2.32081">
        <ele>111</ele>
        <time>2013-10-01T18:26:37.308Z</time>
      </trkpt>
      <trkpt lat="48.88178" lon="2.32085">
        <ele>111.3</ele>
        <time>2013-10-01T18:26:38.319Z</time>
      </trkpt>
      <trkpt lat="48.88172" lon="2.3209">
        <ele>110.7</ele>
        <time>2013-10-01T18:26:39.301Z</time>
      </trkpt>
      <trkpt lat="48.88166" lon="2.32095">
        <ele>112.5</ele>
        <time>2013-10-01T18:26:40.297Z</time>
      </trkpt>
      <trkpt lat="48.88161" lon="2.321">
        <ele>112.6</ele>
        <time>2013-10-01T18:26:41.299Z</time>
      </trkpt>
      <trkpt lat="48.88156" lon="2.32104">
        <ele>113.4</ele>
        <time>2013-10-01T18:26:42.531Z</time>
      </trkpt>
      <trkpt lat="48.88151" lon="2.32108">
        <ele>114.5</ele>
        <time>2013-10-01T18:26:43.425Z</time>
      </trkpt>
      <trkpt lat="48.88146" lon="2.32111">
        <ele>116</ele>
        <time>2013-10-01T18:26:44.391Z</time>
      </trkpt>
      <trkpt lat="48.88142" lon="2.32115">
        <ele>116.8</ele>
        <time>2013-10-01T18:26:45.308Z</time>
      </trkpt>
      <trkpt lat="48.88136" lon="2.32118">
        <ele>117.3</ele>
        <time>2013-10-01T18:26:46.319Z</time>
      </trkpt>
      <trkpt lat="48.88131" lon="2.32121">
        <ele>117</ele>
        <time>2013-10-01T18:26:47.480Z</time>
      </trkpt>
      <trkpt lat="48.88126" lon="2.32122">
        <ele>117.1</ele>
        <time>2013-10-01T18:26:48.300Z</time>
      </trkpt>
      <trkpt lat="48.8812" lon="2.32125">
        <ele>116.5</ele>
        <time>2013-10-01T18:26:49.309Z</time>
      </trkpt>
      <trkpt lat="48.88115" lon="2.32126">
        <ele>116.6</ele>
        <time>2013-10-01T18:26:50.277Z</time>
      </trkpt>
      <trkpt lat="48.8811" lon="2.32128">
        <ele>116.7</ele>
        <time>2013-10-01T18:26:51.305Z</time>
      </trkpt>
      <trkpt lat="48.88102" lon="2.32128">
        <ele>115.9</ele>
        <time>2013-10-01T18:26:53.326Z</time>
      </trkpt>
      <trkpt lat="48.88099" lon="2.3213">
        <ele>115.3</ele>
        <time>2013-10-01T18:26:54.303Z</time>
      </trkpt>
      <trkpt lat="48.88091" lon="2.32132">
        <ele>114.2</ele>
        <time>2013-10-01T18:26:56.316Z</time>
      </trkpt>
      <trkpt lat="48.88086" lon="2.32134">
        <ele>113.6</ele>
        <time>2013-10-01T18:26:57.272Z</time>
      </trkpt>
      <trkpt lat="48.88081" lon="2.32135">
        <ele>112.6</ele>
        <time>2013-10-01T18:26:58.300Z</time>
      </trkpt>
      <trkpt lat="48.88076" lon="2.32137">
        <ele>113.3</ele>
        <time>2013-10-01T18:26:59.298Z</time>
      </trkpt>
      <trkpt lat="48.8807" lon="2.32139">
        <ele>113.1</ele>
        <time>2013-10-01T18:27:00.273Z</time>
      </trkpt>
      <trkpt lat="48.88064" lon="2.32142">
        <ele>113.4</ele>
        <time>2013-10-01T18:27:01.298Z</time>
      </trkpt>
      <trkpt lat="48.88058" lon="2.32145">
        <ele>113.3</ele>
        <time>2013-10-01T18:27:02.631Z</time>
      </trkpt>
      <trkpt lat="48.88052" lon="2.32148">
        <ele>113.1</ele>
        <time>2013-10-01T18:27:03.311Z</time>
      </trkpt>
      <trkpt lat="48.88046" lon="2.32151">
        <ele>112.3</ele>
        <time>2013-10-01T18:27:04.331Z</time>
      </trkpt>
      <trkpt lat="48.8804" lon="2.32153">
        <ele>111.9</ele>
        <time>2013-10-01T18:27:05.328Z</time>
      </trkpt>
      <trkpt lat="48.88034" lon="2.32155">
        <ele>111</ele>
        <time>2013-10-01T18:27:06.364Z</time>
      </trkpt>
      <trkpt lat="48.88029" lon="2.32158">
        <ele>112</ele>
        <time>2013-10-01T18:27:07.342Z</time>
      </trkpt>
      <trkpt lat="48.88023" lon="2.3216">
        <ele>112</ele>
        <time>2013-10-01T18:27:08.304Z</time>
      </trkpt>
      <trkpt lat="48.88017" lon="2.32163">
        <ele>111.6</ele>
        <time>2013-10-01T18:27:09.314Z</time>
      </trkpt>
      <trkpt lat="48.88011" lon="2.32165">
        <ele>112.2</ele>
        <time>2013-10-01T18:27:10.307Z</time>
      </trkpt>
      <trkpt lat="48.88005" lon="2.32167">
        <ele>112.1</ele>
        <time>2013-10-01T18:27:11.329Z</time>
      </trkpt>
      <trkpt lat="48.88" lon="2.32169">
        <ele>111.9</ele>
        <time>2013-10-01T18:27:12.327Z</time>
      </trkpt>
      <trkpt lat="48.87994" lon="2.3217">
        <ele>111.6</ele>
        <time>2013-10-01T18:27:13.325Z</time>
      </trkpt>
      <trkpt lat="48.8799" lon="2.32172">
        <ele>111.7</ele>
        <time>2013-10-01T18:27:15.261Z</time>
      </trkpt>
      <trkpt lat="48.87985" lon="2.32174">
        <ele>112.1</ele>
        <time>2013-10-01T18:27:15.311Z</time>
      </trkpt>
      <trkpt lat="48.87981" lon="2.32177">
        <ele>112.1</ele>
        <time>2013-10-01T18:27:16.292Z</time>
      </trkpt>
      <trkpt lat="48.87976" lon="2.3218">
        <ele>111.3</ele>
        <time>2013-10-01T18:27:17.312Z</time>
      </trkpt>
      <trkpt lat="48.8797" lon="2.32183">
        <ele>112</ele>
        <time>2013-10-01T18:27:18.336Z</time>
      </trkpt>
      <trkpt lat="48.87964" lon="2.32186">
        <ele>111.7</ele>
        <time>2013-10-01T18:27:19.298Z</time>
      </trkpt>
      <trkpt lat="48.8796" lon="2.32188">
        <ele>110.5</ele>
        <time>2013-10-01T18:27:20.339Z</time>
      </trkpt>
      <trkpt lat="48.87956" lon="2.32191">
        <ele>107.9</ele>
        <time>2013-10-01T18:27:21.320Z</time>
      </trkpt>
      <trkpt lat="48.87949" lon="2.32197">
        <ele>106.5</ele>
        <time>2013-10-01T18:27:23.275Z</time>
      </trkpt>
      <trkpt lat="48.87945" lon="2.32201">
        <ele>105.7</ele>
        <time>2013-10-01T18:27:24.309Z</time>
      </trkpt>
      <trkpt lat="48.87939" lon="2.32209">
        <ele>105.2</ele>
        <time>2013-10-01T18:27:26.283Z</time>
      </trkpt>
      <trkpt lat="48.87935" lon="2.32213">
        <ele>105.4</ele>
        <time>2013-10-01T18:27:27.355Z</time>
      </trkpt>
      <trkpt lat="48.8793" lon="2.32217">
        <ele>105.5</ele>
        <time>2013-10-01T18:27:28.315Z</time>
      </trkpt>
      <trkpt lat="48.87925" lon="2.32221">
        <ele>106.4</ele>
        <time>2013-10-01T18:27:29.330Z</time>
      </trkpt>
      <trkpt lat="48.87919" lon="2.32225">
        <ele>105.7</ele>
        <time>2013-10-01T18:27:30.318Z</time>
      </trkpt>
      <trkpt lat="48.87913" lon="2.32227">
        <ele>106.2</ele>
        <time>2013-10-01T18:27:31.283Z</time>
      </trkpt>
      <trkpt lat="48.87907" lon="2.32229">
        <ele>105.4</ele>
        <time>2013-10-01T18:27:32.471Z</time>
      </trkpt>
      <trkpt lat="48.87901" lon="2.32231">
        <ele>105.7</ele>
        <time>2013-10-01T18:27:33.329Z</time>
      </trkpt>
      <trkpt lat="48.87895" lon="2.32232">
        <ele>104.9</ele>
        <time>2013-10-01T18:27:34.311Z</time>
      </trkpt>
      <trkpt lat="48.87889" lon="2.32233">
        <ele>105.4</ele>
        <time>2013-10-01T18:27:35.330Z</time>
      </trkpt>
      <trkpt lat="48.87881" lon="2.32233">
        <ele>106.9</ele>
        <time>2013-10-01T18:27:37.466Z</time>
      </trkpt>
      <trkpt lat="48.87879" lon="2.32233">
        <ele>107.3</ele>
        <time>2013-10-01T18:27:38.310Z</time>
      </trkpt>
      <trkpt lat="48.87877" lon="2.32235">
        <ele>106.7</ele>
        <time>2013-10-01T18:27:48.319Z</time>
      </trkpt>
      <trkpt lat="48.87877" lon="2.32235">
        <ele>106.5</ele>
        <time>2013-10-01T18:27:49.382Z</time>
      </trkpt>
      <trkpt lat="48.87877" lon="2.32235">
        <ele>106.8</ele>
        <time>2013-10-01T18:27:55.327Z</time>
      </trkpt>
      <trkpt lat="48.87877" lon="2.32235">
        <ele>106.2</ele>
        <time>2013-10-01T18:27:56.337Z</time>
      </trkpt>
      <trkpt lat="48.8787" lon="2.32242">
        <ele>106.3</ele>
        <time>2013-10-01T18:28:00.471Z</time>
      </trkpt>
      <trkpt lat="48.87867" lon="2.32244">
        <ele>106</ele>
        <time>2013-10-01T18:28:01.308Z</time>
      </trkpt>
      <trkpt lat="48.87863" lon="2.32247">
        <ele>109.7</ele>
        <time>2013-10-01T18:28:02.543Z</time>
      </trkpt>
      <trkpt lat="48.87856" lon="2.3225">
        <ele>109.8</ele>
        <time>2013-10-01T18:28:03.309Z</time>
      </trkpt>
      <trkpt lat="48.8785" lon="2.32254">
        <ele>109.7</ele>
        <time>2013-10-01T18:28:04.306Z</time>
      </trkpt>
      <trkpt lat="48.87845" lon="2.32257">
        <ele>109.9</ele>
        <time>2013-10-01T18:28:05.343Z</time>
      </trkpt>
      <trkpt lat="48.8784" lon="2.3226">
        <ele>109.6</ele>
        <time>2013-10-01T18:28:06.311Z</time>
      </trkpt>
      <trkpt lat="48.87835" lon="2.32262">
        <ele>109.9</ele>
        <time>2013-10-01T18:28:07.375Z</time>
      </trkpt>
      <trkpt lat="48.87828" lon="2.32265">
        <ele>109.4</ele>
        <time>2013-10-01T18:28:09.320Z</time>
      </trkpt>
      <trkpt lat="48.87825" lon="2.32266">
        <ele>109.4</ele>
        <time>2013-10-01T18:28:10.306Z</time>
      </trkpt>
      <trkpt lat="48.87818" lon="2.32267">
        <ele>108.5</ele>
        <time>2013-10-01T18:28:12.324Z</time>
      </trkpt>
      <trkpt lat="48.87815" lon="2.32268">
        <ele>107.9</ele>
        <time>2013-10-01T18:28:13.338Z</time>
      </trkpt>
      <trkpt lat="48.87807" lon="2.3227">
        <ele>103.5</ele>
        <time>2013-10-01T18:28:16.324Z</time>
      </trkpt>
      <trkpt lat="48.87806" lon="2.32271">
        <ele>104.1</ele>
        <time>2013-10-01T18:28:17.313Z</time>
      </trkpt>
      <trkpt lat="48.87798" lon="2.32274">
        <ele>105.9</ele>
        <time>2013-10-01T18:28:21.299Z</time>
      </trkpt>
      <trkpt lat="48.87797" lon="2.32275">
        <ele>106.4</ele>
        <time>2013-10-01T18:28:22.333Z</time>
      </trkpt>
      <trkpt lat="48.8779" lon="2.3228">
        <ele>105.6</ele>
        <time>2013-10-01T18:28:25.306Z</time>
      </trkpt>
      <trkpt lat="48.87787" lon="2.32282">
        <ele>105.1</ele>
        <time>2013-10-01T18:28:26.330Z</time>
      </trkpt>
      <trkpt lat="48.8778" lon="2.32286">
        <ele>103.2</ele>
        <time>2013-10-01T18:28:28.349Z</time>
      </trkpt>
      <trkpt lat="48.87776" lon="2.32287">
        <ele>102</ele>
        <time>2013-10-01T18:28:29.279Z</time>
      </trkpt>
      <trkpt lat="48.87772" lon="2.32289">
        <ele>101.5</ele>
        <time>2013-10-01T18:28:30.306Z</time>
      </trkpt>
      <trkpt lat="48.87765" lon="2.32291">
        <ele>102.1</ele>
        <time>2013-10-01T18:28:31.342Z</time>
      </trkpt>
      <trkpt lat="48.87758" lon="2.32293">
        <ele>101.8</ele>
        <time>2013-10-01T18:28:32.419Z</time>
      </trkpt>
      <trkpt lat="48.87753" lon="2.32295">
        <ele>101.6</ele>
        <time>2013-10-01T18:28:33.331Z</time>
      </trkpt>
      <trkpt lat="48.87747" lon="2.32298">
        <ele>101.6</ele>
        <time>2013-10-01T18:28:34.409Z</time>
      </trkpt>
      <trkpt lat="48.87742" lon="2.323">
        <ele>102.3</ele>
        <time>2013-10-01T18:28:35.345Z</time>
      </trkpt>
      <trkpt lat="48.87737" lon="2.32303">
        <ele>102.6</ele>
        <time>2013-10-01T18:28:36.308Z</time>
      </trkpt>
      <trkpt lat="48.87733" lon="2.32307">
        <ele>101.8</ele>
        <time>2013-10-01T18:28:37.478Z</time>
      </trkpt>
      <trkpt lat="48.87725" lon="2.32312">
        <ele>101.8</ele>
        <time>2013-10-01T18:28:39.485Z</time>
      </trkpt>
      <trkpt lat="48.87721" lon="2.32315">
        <ele>100.6</ele>
        <time>2013-10-01T18:28:40.439Z</time>
      </trkpt>
      <trkpt lat="48.87713" lon="2.32318">
        <ele>98.3</ele>
        <time>2013-10-01T18:28:42.589Z</time>
      </trkpt>
      <trkpt lat="48.87709" lon="2.32319">
        <ele>98</ele>
        <time>2013-10-01T18:28:43.329Z</time>
      </trkpt>
      <trkpt lat="48.87704" lon="2.32323">
        <ele>98.5</ele>
        <time>2013-10-01T18:28:44.534Z</time>
      </trkpt>
      <trkpt lat="48.87699" lon="2.32326">
        <ele>99.7</ele>
        <time>2013-10-01T18:28:45.312Z</time>
      </trkpt>
      <trkpt lat="48.87693" lon="2.32332">
        <ele>100.4</ele>
        <time>2013-10-01T18:28:46.466Z</time>
      </trkpt>
      <trkpt lat="48.87688" lon="2.32338">
        <ele>101.6</ele>
        <time>2013-10-01T18:28:47.448Z</time>
      </trkpt>
      <trkpt lat="48.87683" lon="2.32342">
        <ele>101.7</ele>
        <time>2013-10-01T18:28:48.445Z</time>
      </trkpt>
      <trkpt lat="48.87677" lon="2.32347">
        <ele>101.4</ele>
        <time>2013-10-01T18:28:49.518Z</time>
      </trkpt>
      <trkpt lat="48.87672" lon="2.32352">
        <ele>101.4</ele>
        <time>2013-10-01T18:28:50.312Z</time>
      </trkpt>
      <trkpt lat="48.87665" lon="2.32356">
        <ele>101.5</ele>
        <time>2013-10-01T18:28:51.328Z</time>
      </trkpt>
      <trkpt lat="48.87659" lon="2.32361">
        <ele>99.5</ele>
        <time>2013-10-01T18:28:52.324Z</time>
      </trkpt>
      <trkpt lat="48.87653" lon="2.32366">
        <ele>100.9</ele>
        <time>2013-10-01T18:28:53.335Z</time>
      </trkpt>
      <trkpt lat="48.87648" lon="2.32368">
        <ele>102</ele>
        <time>2013-10-01T18:28:54.341Z</time>
      </trkpt>
      <trkpt lat="48.87643" lon="2.32371">
        <ele>101.7</ele>
        <time>2013-10-01T18:28:55.308Z</time>
      </trkpt>
      <trkpt lat="48.87637" lon="2.32374">
        <ele>101.8</ele>
        <time>2013-10-01T18:28:56.319Z</time>
      </trkpt>
      <trkpt lat="48.87632" lon="2.32376">
        <ele>101.7</ele>
        <time>2013-10-01T18:28:57.311Z</time>
      </trkpt>
      <trkpt lat="48.87627" lon="2.32378">
        <ele>101.1</ele>
        <time>2013-10-01T18:28:58.316Z</time>
      </trkpt>
      <trkpt lat="48.87621" lon="2.32381">
        <ele>101.2</ele>
        <time>2013-10-01T18:28:59.324Z</time>
      </trkpt>
      <trkpt lat="48.87616" lon="2.32384">
        <ele>101.2</ele>
        <time>2013-10-01T18:29:00.284Z</time>
      </trkpt>
      <trkpt lat="48.87611" lon="2.32385">
        <ele>100.6</ele>
        <time>2013-10-01T18:29:01.309Z</time>
      </trkpt>
      <trkpt lat="48.87605" lon="2.32385">
        <ele>100.6</ele>
        <time>2013-10-01T18:29:02.684Z</time>
      </trkpt>
      <trkpt lat="48.876" lon="2.32385">
        <ele>101</ele>
        <time>2013-10-01T18:29:03.308Z</time>
      </trkpt>
      <trkpt lat="48.87595" lon="2.32387">
        <ele>101.5</ele>
        <time>2013-10-01T18:29:04.357Z</time>
      </trkpt>
      <trkpt lat="48.8759" lon="2.3239">
        <ele>101.1</ele>
        <time>2013-10-01T18:29:05.320Z</time>
      </trkpt>
      <trkpt lat="48.87585" lon="2.32394">
        <ele>101.2</ele>
        <time>2013-10-01T18:29:07.331Z</time>
      </trkpt>
      <trkpt lat="48.87581" lon="2.32397">
        <ele>101</ele>
        <time>2013-10-01T18:29:07.359Z</time>
      </trkpt>
      <trkpt lat="48.87577" lon="2.32401">
        <ele>99.9</ele>
        <time>2013-10-01T18:29:08.327Z</time>
      </trkpt>
      <trkpt lat="48.87571" lon="2.32404">
        <ele>100.2</ele>
        <time>2013-10-01T18:29:09.326Z</time>
      </trkpt>
      <trkpt lat="48.87565" lon="2.32406">
        <ele>100.1</ele>
        <time>2013-10-01T18:29:10.328Z</time>
      </trkpt>
      <trkpt lat="48.87559" lon="2.32409">
        <ele>100.1</ele>
        <time>2013-10-01T18:29:11.320Z</time>
      </trkpt>
      <trkpt lat="48.87553" lon="2.32412">
        <ele>99.5</ele>
        <time>2013-10-01T18:29:12.343Z</time>
      </trkpt>
      <trkpt lat="48.87549" lon="2.32415">
        <ele>96.2</ele>
        <time>2013-10-01T18:29:13.327Z</time>
      </trkpt>
      <trkpt lat="48.87544" lon="2.32415">
        <ele>94.5</ele>
        <time>2013-10-01T18:29:14.295Z</time>
      </trkpt>
      <trkpt lat="48.8754" lon="2.32414">
        <ele>93.6</ele>
        <time>2013-10-01T18:29:15.311Z</time>
      </trkpt>
      <trkpt lat="48.87535" lon="2.32413">
        <ele>92.6</ele>
        <time>2013-10-01T18:29:16.349Z</time>
      </trkpt>
      <trkpt lat="48.87531" lon="2.32412">
        <ele>92</ele>
        <time>2013-10-01T18:29:17.334Z</time>
      </trkpt>
      <trkpt lat="48.87525" lon="2.32411">
        <ele>92.1</ele>
        <time>2013-10-01T18:29:18.535Z</time>
      </trkpt>
      <trkpt lat="48.8752" lon="2.32411">
        <ele>92.8</ele>
        <time>2013-10-01T18:29:19.337Z</time>
      </trkpt>
      <trkpt lat="48.87513" lon="2.32408">
        <ele>90.2</ele>
        <time>2013-10-01T18:29:21.323Z</time>
      </trkpt>
      <trkpt lat="48.8751" lon="2.32405">
        <ele>88.9</ele>
        <time>2013-10-01T18:29:22.309Z</time>
      </trkpt>
      <trkpt lat="48.87503" lon="2.32402">
        <ele>89</ele>
        <time>2013-10-01T18:29:24.322Z</time>
      </trkpt>
      <trkpt lat="48.87498" lon="2.32403">
        <ele>88.3</ele>
        <time>2013-10-01T18:29:25.351Z</time>
      </trkpt>
      <trkpt lat="48.8749" lon="2.32404">
        <ele>88.1</ele>
        <time>2013-10-01T18:29:27.414Z</time>
      </trkpt>
      <trkpt lat="48.87487" lon="2.32405">
        <ele>89</ele>
        <time>2013-10-01T18:29:28.356Z</time>
      </trkpt>
      <trkpt lat="48.87478" lon="2.32407">
        <ele>88</ele>
        <time>2013-10-01T18:29:30.343Z</time>
      </trkpt>
      <trkpt lat="48.87475" lon="2.32408">
        <ele>88.6</ele>
        <time>2013-10-01T18:29:31.472Z</time>
      </trkpt>
      <trkpt lat="48.87467" lon="2.32409">
        <ele>90.1</ele>
        <time>2013-10-01T18:29:35.034Z</time>
      </trkpt>
      <trkpt lat="48.87465" lon="2.32408">
        <ele>90</ele>
        <time>2013-10-01T18:29:35.346Z</time>
      </trkpt>
      <trkpt lat="48.87458" lon="2.32408">
        <ele>90.9</ele>
        <time>2013-10-01T18:29:37.548Z</time>
      </trkpt>
      <trkpt lat="48.87455" lon="2.32408">
        <ele>90.3</ele>
        <time>2013-10-01T18:29:38.309Z</time>
      </trkpt>
      <trkpt lat="48.87447" lon="2.32409">
        <ele>90.5</ele>
        <time>2013-10-01T18:29:40.303Z</time>
      </trkpt>
      <trkpt lat="48.87443" lon="2.32409">
        <ele>90.9</ele>
        <time>2013-10-01T18:29:41.342Z</time>
      </trkpt>
      <trkpt lat="48.87437" lon="2.32409">
        <ele>90.3</ele>
        <time>2013-10-01T18:29:43.347Z</time>
      </trkpt>
      <trkpt lat="48.87434" lon="2.32408">
        <ele>91.5</ele>
        <time>2013-10-01T18:29:44.311Z</time>
      </trkpt>
      <trkpt lat="48.87429" lon="2.32399">
        <ele>93.4</ele>
        <time>2013-10-01T18:29:51.358Z</time>
      </trkpt>
      <trkpt lat="48.87429" lon="2.32397">
        <ele>93.6</ele>
        <time>2013-10-01T18:29:52.358Z</time>
      </trkpt>
      <trkpt lat="48.87424" lon="2.32386">
        <ele>96.7</ele>
        <time>2013-10-01T18:30:07.410Z</time>
      </trkpt>
      <trkpt lat="48.87424" lon="2.32386">
        <ele>96.6</ele>
        <time>2013-10-01T18:30:08.340Z</time>
      </trkpt>
      <trkpt lat="48.87425" lon="2.32385">
        <ele>97.5</ele>
        <time>2013-10-01T18:30:42.291Z</time>
      </trkpt>
      <trkpt lat="48.87423" lon="2.32385">
        <ele>98.9</ele>
        <time>2013-10-01T18:30:43.323Z</time>
      </trkpt>
      <trkpt lat="48.87416" lon="2.32385">
        <ele>101.8</ele>
        <time>2013-10-01T18:30:46.290Z</time>
      </trkpt>
      <trkpt lat="48.87412" lon="2.32385">
        <ele>101.8</ele>
        <time>2013-10-01T18:30:47.303Z</time>
      </trkpt>
      <trkpt lat="48.87408" lon="2.32385">
        <ele>101.5</ele>
        <time>2013-10-01T18:30:48.323Z</time>
      </trkpt>
      <trkpt lat="48.87403" lon="2.32384">
        <ele>99.7</ele>
        <time>2013-10-01T18:30:49.322Z</time>
      </trkpt>
      <trkpt lat="48.87397" lon="2.32383">
        <ele>98.8</ele>
        <time>2013-10-01T18:30:50.319Z</time>
      </trkpt>
      <trkpt lat="48.87392" lon="2.32383">
        <ele>95.9</ele>
        <time>2013-10-01T18:30:51.344Z</time>
      </trkpt>
      <trkpt lat="48.87386" lon="2.32382">
        <ele>92.9</ele>
        <time>2013-10-01T18:30:52.454Z</time>
      </trkpt>
      <trkpt lat="48.8738" lon="2.32382">
        <ele>93.6</ele>
        <time>2013-10-01T18:30:53.332Z</time>
      </trkpt>
      <trkpt lat="48.87374" lon="2.32382">
        <ele>92.8</ele>
        <time>2013-10-01T18:30:54.322Z</time>
      </trkpt>
      <trkpt lat="48.87368" lon="2.32382">
        <ele>93</ele>
        <time>2013-10-01T18:30:55.323Z</time>
      </trkpt>
      <trkpt lat="48.87363" lon="2.32382">
        <ele>92.7</ele>
        <time>2013-10-01T18:30:56.327Z</time>
      </trkpt>
      <trkpt lat="48.87358" lon="2.32382">
        <ele>93.8</ele>
        <time>2013-10-01T18:30:57.330Z</time>
      </trkpt>
      <trkpt lat="48.87354" lon="2.32381">
        <ele>95.3</ele>
        <time>2013-10-01T18:30:58.321Z</time>
      </trkpt>
      <trkpt lat="48.87349" lon="2.32381">
        <ele>95.5</ele>
        <time>2013-10-01T18:30:59.353Z</time>
      </trkpt>
      <trkpt lat="48.87342" lon="2.3238">
        <ele>93</ele>
        <time>2013-10-01T18:31:01.300Z</time>
      </trkpt>
      <trkpt lat="48.87339" lon="2.32381">
        <ele>90.2</ele>
        <time>2013-10-01T18:31:02.330Z</time>
      </trkpt>
      <trkpt lat="48.87331" lon="2.32384">
        <ele>91.6</ele>
        <time>2013-10-01T18:31:08.338Z</time>
      </trkpt>
      <trkpt lat="48.8733" lon="2.32387">
        <ele>91.4</ele>
        <time>2013-10-01T18:31:09.340Z</time>
      </trkpt>
      <trkpt lat="48.87329" lon="2.32396">
        <ele>91.3</ele>
        <time>2013-10-01T18:31:11.348Z</time>
      </trkpt>
      <trkpt lat="48.87329" lon="2.32401">
        <ele>92.1</ele>
        <time>2013-10-01T18:31:12.333Z</time>
      </trkpt>
      <trkpt lat="48.8733" lon="2.32412">
        <ele>90.4</ele>
        <time>2013-10-01T18:31:14.355Z</time>
      </trkpt>
      <trkpt lat="48.8733" lon="2.32418">
        <ele>89.9</ele>
        <time>2013-10-01T18:31:15.292Z</time>
      </trkpt>
      <trkpt lat="48.87331" lon="2.32428">
        <ele>89.9</ele>
        <time>2013-10-01T18:31:17.340Z</time>
      </trkpt>
      <trkpt lat="48.87331" lon="2.32432">
        <ele>89.2</ele>
        <time>2013-10-01T18:31:18.321Z</time>
      </trkpt>
      <trkpt lat="48.87328" lon="2.32444">
        <ele>83.8</ele>
        <time>2013-10-01T18:31:23.339Z</time>
      </trkpt>
      <trkpt lat="48.87328" lon="2.32446">
        <ele>83.9</ele>
        <time>2013-10-01T18:31:24.319Z</time>
      </trkpt>
      <trkpt lat="48.87325" lon="2.32457">
        <ele>84.1</ele>
        <time>2013-10-01T18:31:27.330Z</time>
      </trkpt>
      <trkpt lat="48.87324" lon="2.32462">
        <ele>83.5</ele>
        <time>2013-10-01T18:31:28.320Z</time>
      </trkpt>
      <trkpt lat="48.87322" lon="2.32473">
        <ele>83.1</ele>
        <time>2013-10-01T18:31:30.349Z</time>
      </trkpt>
      <trkpt lat="48.87321" lon="2.32481">
        <ele>82.2</ele>
        <time>2013-10-01T18:31:31.433Z</time>
      </trkpt>
      <trkpt lat="48.87322" lon="2.32489">
        <ele>83</ele>
        <time>2013-10-01T18:31:32.341Z</time>
      </trkpt>
      <trkpt lat="48.87322" lon="2.32497">
        <ele>83.2</ele>
        <time>2013-10-01T18:31:33.330Z</time>
      </trkpt>
      <trkpt lat="48.87323" lon="2.32505">
        <ele>83.5</ele>
        <time>2013-10-01T18:31:34.354Z</time>
      </trkpt>
      <trkpt lat="48.87324" lon="2.32511">
        <ele>83</ele>
        <time>2013-10-01T18:31:35.349Z</time>
      </trkpt>
      <trkpt lat="48.87327" lon="2.32524">
        <ele>82.9</ele>
        <time>2013-10-01T18:31:37.424Z</time>
      </trkpt>
      <trkpt lat="48.87326" lon="2.32531">
        <ele>81.6</ele>
        <time>2013-10-01T18:31:38.359Z</time>
      </trkpt>
      <trkpt lat="48.87327" lon="2.32538">
        <ele>81.4</ele>
        <time>2013-10-01T18:31:39.359Z</time>
      </trkpt>
      <trkpt lat="48.87326" lon="2.32545">
        <ele>81.2</ele>
        <time>2013-10-01T18:31:40.349Z</time>
      </trkpt>
      <trkpt lat="48.87326" lon="2.32553">
        <ele>81</ele>
        <time>2013-10-01T18:31:41.364Z</time>
      </trkpt>
      <trkpt lat="48.87326" lon="2.32561">
        <ele>81.4</ele>
        <time>2013-10-01T18:31:42.340Z</time>
      </trkpt>
      <trkpt lat="48.87326" lon="2.32568">
        <ele>81.1</ele>
        <time>2013-10-01T18:31:43.346Z</time>
      </trkpt>
      <trkpt lat="48.87326" lon="2.32576">
        <ele>81.2</ele>
        <time>2013-10-01T18:31:44.468Z</time>
      </trkpt>
      <trkpt lat="48.87325" lon="2.32582">
        <ele>81.8</ele>
        <time>2013-10-01T18:31:45.347Z</time>
      </trkpt>
      <trkpt lat="48.87324" lon="2.3259">
        <ele>81.7</ele>
        <time>2013-10-01T18:31:46.434Z</time>
      </trkpt>
      <trkpt lat="48.87324" lon="2.32596">
        <ele>81.8</ele>
        <time>2013-10-01T18:31:47.453Z</time>
      </trkpt>
      <trkpt lat="48.87323" lon="2.32605">
        <ele>82</ele>
        <time>2013-10-01T18:31:48.429Z</time>
      </trkpt>
      <trkpt lat="48.87323" lon="2.32617">
        <ele>82.1</ele>
        <time>2013-10-01T18:31:50.300Z</time>
      </trkpt>
      <trkpt lat="48.87324" lon="2.32621">
        <ele>82.3</ele>
        <time>2013-10-01T18:31:51.301Z</time>
      </trkpt>
      <trkpt lat="48.87324" lon="2.32633">
        <ele>80.8</ele>
        <time>2013-10-01T18:31:53.419Z</time>
      </trkpt>
      <trkpt lat="48.87324" lon="2.32637">
        <ele>80.9</ele>
        <time>2013-10-01T18:31:54.327Z</time>
      </trkpt>
      <trkpt lat="48.87321" lon="2.32648">
        <ele>79.9</ele>
        <time>2013-10-01T18:31:57.476Z</time>
      </trkpt>
      <trkpt lat="48.87321" lon="2.32651">
        <ele>79.4</ele>
        <time>2013-10-01T18:31:58.469Z</time>
      </trkpt>
      <trkpt lat="48.87322" lon="2.32656">
        <ele>78.4</ele>
        <time>2013-10-01T18:32:07.349Z</time>
      </trkpt>
      <trkpt lat="48.87322" lon="2.32656">
        <ele>78.5</ele>
        <time>2013-10-01T18:32:08.309Z</time>
      </trkpt>
      <trkpt lat="48.87321" lon="2.32656">
        <ele>79</ele>
        <time>2013-10-01T18:32:10.378Z</time>
      </trkpt>
      <trkpt lat="48.87321" lon="2.32656">
        <ele>79.1</ele>
        <time>2013-10-01T18:32:11.362Z</time>
      </trkpt>
      <trkpt lat="48.87319" lon="2.32656">
        <ele>80.3</ele>
        <time>2013-10-01T18:32:16.324Z</time>
      </trkpt>
      <trkpt lat="48.87319" lon="2.32656">
        <ele>79.9</ele>
        <time>2013-10-01T18:32:17.373Z</time>
      </trkpt>
      <trkpt lat="48.87319" lon="2.32657">
        <ele>80.6</ele>
        <time>2013-10-01T18:32:23.327Z</time>
      </trkpt>
      <trkpt lat="48.8732" lon="2.32659">
        <ele>82.5</ele>
        <time>2013-10-01T18:32:24.322Z</time>
      </trkpt>
      <trkpt lat="48.87323" lon="2.32667">
        <ele>86.4</ele>
        <time>2013-10-01T18:32:27.433Z</time>
      </trkpt>
      <trkpt lat="48.87325" lon="2.3267">
        <ele>87.8</ele>
        <time>2013-10-01T18:32:28.325Z</time>
      </trkpt>
      <trkpt lat="48.87329" lon="2.32682">
        <ele>90</ele>
        <time>2013-10-01T18:32:32.334Z</time>
      </trkpt>
      <trkpt lat="48.87329" lon="2.32687">
        <ele>92.1</ele>
        <time>2013-10-01T18:32:33.355Z</time>
      </trkpt>
      <trkpt lat="48.87329" lon="2.32693">
        <ele>91.8</ele>
        <time>2013-10-01T18:32:34.328Z</time>
      </trkpt>
      <trkpt lat="48.87328" lon="2.32701">
        <ele>92.9</ele>
        <time>2013-10-01T18:32:35.338Z</time>
      </trkpt>
      <trkpt lat="48.87327" lon="2.32709">
        <ele>93.4</ele>
        <time>2013-10-01T18:32:36.396Z</time>
      </trkpt>
      <trkpt lat="48.87326" lon="2.32718">
        <ele>93.5</ele>
        <time>2013-10-01T18:32:37.329Z</time>
      </trkpt>
      <trkpt lat="48.87322" lon="2.32732">
        <ele>93.1</ele>
        <time>2013-10-01T18:32:38.326Z</time>
      </trkpt>
      <trkpt lat="48.87318" lon="2.32745">
        <ele>94</ele>
        <time>2013-10-01T18:32:39.330Z</time>
      </trkpt>
      <trkpt lat="48.87315" lon="2.32758">
        <ele>94.4</ele>
        <time>2013-10-01T18:32:40.318Z</time>
      </trkpt>
      <trkpt lat="48.87314" lon="2.32769">
        <ele>93.6</ele>
        <time>2013-10-01T18:32:41.329Z</time>
      </trkpt>
      <trkpt lat="48.87314" lon="2.3278">
        <ele>93.8</ele>
        <time>2013-10-01T18:32:42.319Z</time>
      </trkpt>
      <trkpt lat="48.87315" lon="2.32791">
        <ele>93.9</ele>
        <time>2013-10-01T18:32:43.325Z</time>
      </trkpt>
      <trkpt lat="48.87318" lon="2.328">
        <ele>93</ele>
        <time>2013-10-01T18:32:44.336Z</time>
      </trkpt>
      <trkpt lat="48.8732" lon="2.3281">
        <ele>92.8</ele>
        <time>2013-10-01T18:32:45.299Z</time>
      </trkpt>
      <trkpt lat="48.87317" lon="2.32821">
        <ele>92.9</ele>
        <time>2013-10-01T18:32:46.330Z</time>
      </trkpt>
      <trkpt lat="48.87314" lon="2.3283">
        <ele>96.3</ele>
        <time>2013-10-01T18:32:47.473Z</time>
      </trkpt>
      <trkpt lat="48.87312" lon="2.32838">
        <ele>97</ele>
        <time>2013-10-01T18:32:48.300Z</time>
      </trkpt>
      <trkpt lat="48.87309" lon="2.32845">
        <ele>97.8</ele>
        <time>2013-10-01T18:32:49.335Z</time>
      </trkpt>
      <trkpt lat="48.87307" lon="2.3285">
        <ele>100.3</ele>
        <time>2013-10-01T18:32:50.329Z</time>
      </trkpt>
      <trkpt lat="48.87305" lon="2.32857">
        <ele>100.1</ele>
        <time>2013-10-01T18:32:51.329Z</time>
      </trkpt>
      <trkpt lat="48.87304" lon="2.32863">
        <ele>99.8</ele>
        <time>2013-10-01T18:32:52.331Z</time>
      </trkpt>
      <trkpt lat="48.87302" lon="2.32876">
        <ele>94.5</ele>
        <time>2013-10-01T18:32:54.340Z</time>
      </trkpt>
      <trkpt lat="48.873" lon="2.32882">
        <ele>97.7</ele>
        <time>2013-10-01T18:32:55.329Z</time>
      </trkpt>
      <trkpt lat="48.87296" lon="2.32891">
        <ele>99.5</ele>
        <time>2013-10-01T18:32:57.593Z</time>
      </trkpt>
      <trkpt lat="48.87294" lon="2.32894">
        <ele>103.4</ele>
        <time>2013-10-01T18:32:58.459Z</time>
      </trkpt>
      <trkpt lat="48.8729" lon="2.329">
        <ele>104.7</ele>
        <time>2013-10-01T18:33:00.359Z</time>
      </trkpt>
      <trkpt lat="48.87287" lon="2.32904">
        <ele>103.5</ele>
        <time>2013-10-01T18:33:01.336Z</time>
      </trkpt>
      <trkpt lat="48.8728" lon="2.32911">
        <ele>101.8</ele>
        <time>2013-10-01T18:33:03.328Z</time>
      </trkpt>
      <trkpt lat="48.87277" lon="2.32916">
        <ele>101.4</ele>
        <time>2013-10-01T18:33:04.346Z</time>
      </trkpt>
      <trkpt lat="48.87274" lon="2.3292">
        <ele>100.9</ele>
        <time>2013-10-01T18:33:05.334Z</time>
      </trkpt>
      <trkpt lat="48.8727" lon="2.32925">
        <ele>99.6</ele>
        <time>2013-10-01T18:33:06.339Z</time>
      </trkpt>
      <trkpt lat="48.87266" lon="2.3293">
        <ele>98.5</ele>
        <time>2013-10-01T18:33:07.543Z</time>
      </trkpt>
      <trkpt lat="48.87263" lon="2.32935">
        <ele>96.9</ele>
        <time>2013-10-01T18:33:08.340Z</time>
      </trkpt>
      <trkpt lat="48.87259" lon="2.3294">
        <ele>96.8</ele>
        <time>2013-10-01T18:33:09.337Z</time>
      </trkpt>
      <trkpt lat="48.87256" lon="2.32945">
        <ele>95.3</ele>
        <time>2013-10-01T18:33:10.350Z</time>
      </trkpt>
      <trkpt lat="48.87252" lon="2.3295">
        <ele>94.9</ele>
        <time>2013-10-01T18:33:11.350Z</time>
      </trkpt>
      <trkpt lat="48.87249" lon="2.32956">
        <ele>93.6</ele>
        <time>2013-10-01T18:33:12.347Z</time>
      </trkpt>
      <trkpt lat="48.87245" lon="2.32968">
        <ele>93.2</ele>
        <time>2013-10-01T18:33:14.343Z</time>
      </trkpt>
      <trkpt lat="48.87243" lon="2.32973">
        <ele>92.2</ele>
        <time>2013-10-01T18:33:15.338Z</time>
      </trkpt>
      <trkpt lat="48.87239" lon="2.32982">
        <ele>91.4</ele>
        <time>2013-10-01T18:33:17.408Z</time>
      </trkpt>
      <trkpt lat="48.87237" lon="2.32987">
        <ele>91.6</ele>
        <time>2013-10-01T18:33:18.347Z</time>
      </trkpt>
      <trkpt lat="48.87234" lon="2.32995">
        <ele>92.6</ele>
        <time>2013-10-01T18:33:20.361Z</time>
      </trkpt>
      <trkpt lat="48.87232" lon="2.32999">
        <ele>92.6</ele>
        <time>2013-10-01T18:33:21.302Z</time>
      </trkpt>
      <trkpt lat="48.87228" lon="2.33007">
        <ele>93</ele>
        <time>2013-10-01T18:33:23.330Z</time>
      </trkpt>
      <trkpt lat="48.87226" lon="2.3301">
        <ele>92.6</ele>
        <time>2013-10-01T18:33:24.368Z</time>
      </trkpt>
      <trkpt lat="48.87222" lon="2.33017">
        <ele>92.3</ele>
        <time>2013-10-01T18:33:26.306Z</time>
      </trkpt>
      <trkpt lat="48.8722" lon="2.33021">
        <ele>91.6</ele>
        <time>2013-10-01T18:33:27.343Z</time>
      </trkpt>
      <trkpt lat="48.87214" lon="2.3303">
        <ele>89.4</ele>
        <time>2013-10-01T18:33:30.348Z</time>
      </trkpt>
      <trkpt lat="48.87211" lon="2.33033">
        <ele>89.6</ele>
        <time>2013-10-01T18:33:31.350Z</time>
      </trkpt>
      <trkpt lat="48.87206" lon="2.33039">
        <ele>90.3</ele>
        <time>2013-10-01T18:33:33.340Z</time>
      </trkpt>
      <trkpt lat="48.87203" lon="2.33041">
        <ele>90.9</ele>
        <time>2013-10-01T18:33:34.339Z</time>
      </trkpt>
      <trkpt lat="48.87196" lon="2.33047">
        <ele>96</ele>
        <time>2013-10-01T18:33:36.337Z</time>
      </trkpt>
      <trkpt lat="48.87193" lon="2.33049">
        <ele>96.4</ele>
        <time>2013-10-01T18:33:37.346Z</time>
      </trkpt>
      <trkpt lat="48.87184" lon="2.33052">
        <ele>97.5</ele>
        <time>2013-10-01T18:33:39.378Z</time>
      </trkpt>
      <trkpt lat="48.8718" lon="2.33053">
        <ele>96.8</ele>
        <time>2013-10-01T18:33:40.329Z</time>
      </trkpt>
      <trkpt lat="48.87175" lon="2.33053">
        <ele>97.9</ele>
        <time>2013-10-01T18:33:41.357Z</time>
      </trkpt>
      <trkpt lat="48.8717" lon="2.33053">
        <ele>98.8</ele>
        <time>2013-10-01T18:33:42.367Z</time>
      </trkpt>
      <trkpt lat="48.87165" lon="2.33053">
        <ele>98.3</ele>
        <time>2013-10-01T18:33:43.322Z</time>
      </trkpt>
      <trkpt lat="48.8716" lon="2.33053">
        <ele>98.1</ele>
        <time>2013-10-01T18:33:44.361Z</time>
      </trkpt>
      <trkpt lat="48.87155" lon="2.33052">
        <ele>98.1</ele>
        <time>2013-10-01T18:33:45.338Z</time>
      </trkpt>
      <trkpt lat="48.87148" lon="2.3305">
        <ele>96.3</ele>
        <time>2013-10-01T18:33:46.359Z</time>
      </trkpt>
      <trkpt lat="48.87142" lon="2.33048">
        <ele>96.1</ele>
        <time>2013-10-01T18:33:47.337Z</time>
      </trkpt>
      <trkpt lat="48.87136" lon="2.33046">
        <ele>96.3</ele>
        <time>2013-10-01T18:33:48.333Z</time>
      </trkpt>
      <trkpt lat="48.8713" lon="2.33044">
        <ele>95.4</ele>
        <time>2013-10-01T18:33:49.355Z</time>
      </trkpt>
      <trkpt lat="48.87125" lon="2.33043">
        <ele>94.4</ele>
        <time>2013-10-01T18:33:50.391Z</time>
      </trkpt>
      <trkpt lat="48.87119" lon="2.33042">
        <ele>92.1</ele>
        <time>2013-10-01T18:33:51.332Z</time>
      </trkpt>
      <trkpt lat="48.87113" lon="2.33041">
        <ele>91.6</ele>
        <time>2013-10-01T18:33:52.356Z</time>
      </trkpt>
      <trkpt lat="48.87108" lon="2.3304">
        <ele>92</ele>
        <time>2013-10-01T18:33:53.360Z</time>
      </trkpt>
      <trkpt lat="48.87103" lon="2.33038">
        <ele>91.2</ele>
        <time>2013-10-01T18:33:54.361Z</time>
      </trkpt>
      <trkpt lat="48.87099" lon="2.33037">
        <ele>91.4</ele>
        <time>2013-10-01T18:33:55.355Z</time>
      </trkpt>
      <trkpt lat="48.87094" lon="2.33036">
        <ele>91.6</ele>
        <time>2013-10-01T18:33:56.338Z</time>
      </trkpt>
      <trkpt lat="48.87086" lon="2.33032">
        <ele>88.9</ele>
        <time>2013-10-01T18:33:58.321Z</time>
      </trkpt>
      <trkpt lat="48.87081" lon="2.3303">
        <ele>88.6</ele>
        <time>2013-10-01T18:33:59.387Z</time>
      </trkpt>
      <trkpt lat="48.87077" lon="2.33028">
        <ele>88.4</ele>
        <time>2013-10-01T18:34:00.305Z</time>
      </trkpt>
      <trkpt lat="48.87072" lon="2.33025">
        <ele>88.4</ele>
        <time>2013-10-01T18:34:01.370Z</time>
      </trkpt>
      <trkpt lat="48.87067" lon="2.33023">
        <ele>89.1</ele>
        <time>2013-10-01T18:34:02.780Z</time>
      </trkpt>
      <trkpt lat="48.87063" lon="2.33021">
        <ele>88</ele>
        <time>2013-10-01T18:34:03.339Z</time>
      </trkpt>
      <trkpt lat="48.87055" lon="2.33016">
        <ele>89</ele>
        <time>2013-10-01T18:34:05.386Z</time>
      </trkpt>
      <trkpt lat="48.87051" lon="2.33014">
        <ele>89.7</ele>
        <time>2013-10-01T18:34:06.305Z</time>
      </trkpt>
      <trkpt lat="48.87044" lon="2.33011">
        <ele>90.2</ele>
        <time>2013-10-01T18:34:08.329Z</time>
      </trkpt>
      <trkpt lat="48.8704" lon="2.33011">
        <ele>91.3</ele>
        <time>2013-10-01T18:34:09.310Z</time>
      </trkpt>
      <trkpt lat="48.87033" lon="2.33011">
        <ele>94.1</ele>
        <time>2013-10-01T18:34:11.339Z</time>
      </trkpt>
      <trkpt lat="48.87031" lon="2.33013">
        <ele>92.9</ele>
        <time>2013-10-01T18:34:12.328Z</time>
      </trkpt>
      <trkpt lat="48.87025" lon="2.3302">
        <ele>94.5</ele>
        <time>2013-10-01T18:34:14.348Z</time>
      </trkpt>
      <trkpt lat="48.87022" lon="2.33023">
        <ele>93.2</ele>
        <time>2013-10-01T18:34:15.332Z</time>
      </trkpt>
      <trkpt lat="48.87017" lon="2.33029">
        <ele>92.6</ele>
        <time>2013-10-01T18:34:17.534Z</time>
      </trkpt>
      <trkpt lat="48.87014" lon="2.33032">
        <ele>95.1</ele>
        <time>2013-10-01T18:34:18.348Z</time>
      </trkpt>
      <trkpt lat="48.87011" lon="2.33042">
        <ele>100</ele>
        <time>2013-10-01T18:34:21.348Z</time>
      </trkpt>
      <trkpt lat="48.8701" lon="2.33047">
        <ele>101.4</ele>
        <time>2013-10-01T18:34:22.328Z</time>
      </trkpt>
      <trkpt lat="48.87007" lon="2.33056">
        <ele>100.6</ele>
        <time>2013-10-01T18:34:24.320Z</time>
      </trkpt>
      <trkpt lat="48.87005" lon="2.3306">
        <ele>98.7</ele>
        <time>2013-10-01T18:34:25.308Z</time>
      </trkpt>
      <trkpt lat="48.87" lon="2.3307">
        <ele>97.3</ele>
        <time>2013-10-01T18:34:27.348Z</time>
      </trkpt>
      <trkpt lat="48.86999" lon="2.33075">
        <ele>95.6</ele>
        <time>2013-10-01T18:34:28.340Z</time>
      </trkpt>
      <trkpt lat="48.86995" lon="2.33085">
        <ele>94.3</ele>
        <time>2013-10-01T18:34:30.315Z</time>
      </trkpt>
      <trkpt lat="48.86992" lon="2.33091">
        <ele>92.6</ele>
        <time>2013-10-01T18:34:31.350Z</time>
      </trkpt>
      <trkpt lat="48.8699" lon="2.33098">
        <ele>92.9</ele>
        <time>2013-10-01T18:34:32.348Z</time>
      </trkpt>
      <trkpt lat="48.86987" lon="2.33105">
        <ele>92.2</ele>
        <time>2013-10-01T18:34:33.328Z</time>
      </trkpt>
      <trkpt lat="48.86984" lon="2.33114">
        <ele>92.1</ele>
        <time>2013-10-01T18:34:34.326Z</time>
      </trkpt>
      <trkpt lat="48.86981" lon="2.3312">
        <ele>93.2</ele>
        <time>2013-10-01T18:34:35.335Z</time>
      </trkpt>
      <trkpt lat="48.86976" lon="2.33127">
        <ele>92.3</ele>
        <time>2013-10-01T18:34:37.578Z</time>
      </trkpt>
      <trkpt lat="48.86974" lon="2.3313">
        <ele>91.5</ele>
        <time>2013-10-01T18:34:38.379Z</time>
      </trkpt>
      <trkpt lat="48.86968" lon="2.33139">
        <ele>89.6</ele>
        <time>2013-10-01T18:34:41.339Z</time>
      </trkpt>
      <trkpt lat="48.86966" lon="2.33142">
        <ele>87.8</ele>
        <time>2013-10-01T18:34:42.339Z</time>
      </trkpt>
      <trkpt lat="48.8696" lon="2.33145">
        <ele>86.6</ele>
        <time>2013-10-01T18:34:44.514Z</time>
      </trkpt>
      <trkpt lat="48.86957" lon="2.33145">
        <ele>86.9</ele>
        <time>2013-10-01T18:34:45.340Z</time>
      </trkpt>
      <trkpt lat="48.8695" lon="2.33144">
        <ele>86.3</ele>
        <time>2013-10-01T18:34:47.476Z</time>
      </trkpt>
      <trkpt lat="48.86946" lon="2.33143">
        <ele>86.5</ele>
        <time>2013-10-01T18:34:48.329Z</time>
      </trkpt>
      <trkpt lat="48.86942" lon="2.33142">
        <ele>86</ele>
        <time>2013-10-01T18:34:49.344Z</time>
      </trkpt>
      <trkpt lat="48.86937" lon="2.33138">
        <ele>86.7</ele>
        <time>2013-10-01T18:34:50.309Z</time>
      </trkpt>
      <trkpt lat="48.86932" lon="2.33135">
        <ele>86.5</ele>
        <time>2013-10-01T18:34:51.351Z</time>
      </trkpt>
      <trkpt lat="48.86927" lon="2.33131">
        <ele>86.1</ele>
        <time>2013-10-01T18:34:52.337Z</time>
      </trkpt>
      <trkpt lat="48.86922" lon="2.33127">
        <ele>86.6</ele>
        <time>2013-10-01T18:34:53.343Z</time>
      </trkpt>
      <trkpt lat="48.86917" lon="2.33124">
        <ele>86.6</ele>
        <time>2013-10-01T18:34:54.341Z</time>
      </trkpt>
      <trkpt lat="48.86912" lon="2.3312">
        <ele>87</ele>
        <time>2013-10-01T18:34:55.338Z</time>
      </trkpt>
      <trkpt lat="48.86907" lon="2.33115">
        <ele>87</ele>
        <time>2013-10-01T18:34:56.340Z</time>
      </trkpt>
      <trkpt lat="48.86901" lon="2.33111">
        <ele>87.9</ele>
        <time>2013-10-01T18:34:57.348Z</time>
      </trkpt>
      <trkpt lat="48.86894" lon="2.33108">
        <ele>88.3</ele>
        <time>2013-10-01T18:34:58.329Z</time>
      </trkpt>
      <trkpt lat="48.86887" lon="2.33105">
        <ele>88.7</ele>
        <time>2013-10-01T18:34:59.309Z</time>
      </trkpt>
      <trkpt lat="48.86882" lon="2.33102">
        <ele>89.2</ele>
        <time>2013-10-01T18:35:00.348Z</time>
      </trkpt>
      <trkpt lat="48.86876" lon="2.33101">
        <ele>89.6</ele>
        <time>2013-10-01T18:35:01.372Z</time>
      </trkpt>
      <trkpt lat="48.8687" lon="2.33096">
        <ele>89.6</ele>
        <time>2013-10-01T18:35:02.342Z</time>
      </trkpt>
      <trkpt lat="48.86864" lon="2.3309">
        <ele>89.9</ele>
        <time>2013-10-01T18:35:03.338Z</time>
      </trkpt>
      <trkpt lat="48.8686" lon="2.33085">
        <ele>90</ele>
        <time>2013-10-01T18:35:04.339Z</time>
      </trkpt>
      <trkpt lat="48.86855" lon="2.3308">
        <ele>90.2</ele>
        <time>2013-10-01T18:35:05.362Z</time>
      </trkpt>
      <trkpt lat="48.8685" lon="2.33077">
        <ele>89.5</ele>
        <time>2013-10-01T18:35:06.379Z</time>
      </trkpt>
      <trkpt lat="48.86844" lon="2.33073">
        <ele>89</ele>
        <time>2013-10-01T18:35:07.608Z</time>
      </trkpt>
      <trkpt lat="48.8684" lon="2.3307">
        <ele>88.9</ele>
        <time>2013-10-01T18:35:08.358Z</time>
      </trkpt>
      <trkpt lat="48.86834" lon="2.33065">
        <ele>88.5</ele>
        <time>2013-10-01T18:35:09.351Z</time>
      </trkpt>
      <trkpt lat="48.8683" lon="2.33059">
        <ele>89.4</ele>
        <time>2013-10-01T18:35:10.345Z</time>
      </trkpt>
      <trkpt lat="48.86826" lon="2.33053">
        <ele>89.5</ele>
        <time>2013-10-01T18:35:11.352Z</time>
      </trkpt>
      <trkpt lat="48.86823" lon="2.33048">
        <ele>90.1</ele>
        <time>2013-10-01T18:35:12.351Z</time>
      </trkpt>
      <trkpt lat="48.86819" lon="2.33043">
        <ele>88.9</ele>
        <time>2013-10-01T18:35:13.341Z</time>
      </trkpt>
      <trkpt lat="48.86815" lon="2.33038">
        <ele>89.2</ele>
        <time>2013-10-01T18:35:14.338Z</time>
      </trkpt>
      <trkpt lat="48.8681" lon="2.33034">
        <ele>88.6</ele>
        <time>2013-10-01T18:35:15.350Z</time>
      </trkpt>
      <trkpt lat="48.86806" lon="2.33031">
        <ele>87.9</ele>
        <time>2013-10-01T18:35:16.374Z</time>
      </trkpt>
      <trkpt lat="48.86801" lon="2.33029">
        <ele>88.1</ele>
        <time>2013-10-01T18:35:17.404Z</time>
      </trkpt>
      <trkpt lat="48.86797" lon="2.33026">
        <ele>87.7</ele>
        <time>2013-10-01T18:35:18.348Z</time>
      </trkpt>
      <trkpt lat="48.86789" lon="2.33018">
        <ele>87.9</ele>
        <time>2013-10-01T18:35:20.467Z</time>
      </trkpt>
      <trkpt lat="48.86788" lon="2.3301">
        <ele>85.9</ele>
        <time>2013-10-01T18:35:21.350Z</time>
      </trkpt>
      <trkpt lat="48.86783" lon="2.33">
        <ele>86.5</ele>
        <time>2013-10-01T18:35:23.350Z</time>
      </trkpt>
      <trkpt lat="48.86781" lon="2.32994">
        <ele>86.3</ele>
        <time>2013-10-01T18:35:24.339Z</time>
      </trkpt>
      <trkpt lat="48.86776" lon="2.32983">
        <ele>87.2</ele>
        <time>2013-10-01T18:35:26.312Z</time>
      </trkpt>
      <trkpt lat="48.86773" lon="2.32978">
        <ele>88</ele>
        <time>2013-10-01T18:35:27.349Z</time>
      </trkpt>
      <trkpt lat="48.86769" lon="2.3297">
        <ele>88.8</ele>
        <time>2013-10-01T18:35:29.350Z</time>
      </trkpt>
      <trkpt lat="48.86767" lon="2.32964">
        <ele>88.2</ele>
        <time>2013-10-01T18:35:30.368Z</time>
      </trkpt>
      <trkpt lat="48.86763" lon="2.32955">
        <ele>85.5</ele>
        <time>2013-10-01T18:35:32.445Z</time>
      </trkpt>
      <trkpt lat="48.8676" lon="2.32951">
        <ele>86.4</ele>
        <time>2013-10-01T18:35:33.365Z</time>
      </trkpt>
      <trkpt lat="48.86753" lon="2.32944">
        <ele>87.7</ele>
        <time>2013-10-01T18:35:35.389Z</time>
      </trkpt>
      <trkpt lat="48.8675" lon="2.3294">
        <ele>87.1</ele>
        <time>2013-10-01T18:35:36.361Z</time>
      </trkpt>
      <trkpt lat="48.86743" lon="2.32934">
        <ele>85.6</ele>
        <time>2013-10-01T18:35:38.359Z</time>
      </trkpt>
      <trkpt lat="48.86739" lon="2.32932">
        <ele>84.8</ele>
        <time>2013-10-01T18:35:39.355Z</time>
      </trkpt>
      <trkpt lat="48.86731" lon="2.32927">
        <ele>87.6</ele>
        <time>2013-10-01T18:35:41.351Z</time>
      </trkpt>
      <trkpt lat="48.86727" lon="2.32926">
        <ele>87.5</ele>
        <time>2013-10-01T18:35:42.339Z</time>
      </trkpt>
      <trkpt lat="48.86719" lon="2.32923">
        <ele>86.1</ele>
        <time>2013-10-01T18:35:44.350Z</time>
      </trkpt>
      <trkpt lat="48.86714" lon="2.32921">
        <ele>86</ele>
        <time>2013-10-01T18:35:45.358Z</time>
      </trkpt>
      <trkpt lat="48.86706" lon="2.32916">
        <ele>86.9</ele>
        <time>2013-10-01T18:35:47.454Z</time>
      </trkpt>
      <trkpt lat="48.86703" lon="2.32913">
        <ele>86.8</ele>
        <time>2013-10-01T18:35:48.355Z</time>
      </trkpt>
      <trkpt lat="48.86695" lon="2.32907">
        <ele>85.9</ele>
        <time>2013-10-01T18:35:50.366Z</time>
      </trkpt>
      <trkpt lat="48.86692" lon="2.32904">
        <ele>85.2</ele>
        <time>2013-10-01T18:35:51.335Z</time>
      </trkpt>
      <trkpt lat="48.86686" lon="2.329">
        <ele>85.8</ele>
        <time>2013-10-01T18:35:53.330Z</time>
      </trkpt>
      <trkpt lat="48.86683" lon="2.32898">
        <ele>85.9</ele>
        <time>2013-10-01T18:35:54.363Z</time>
      </trkpt>
      <trkpt lat="48.86677" lon="2.32896">
        <ele>86.1</ele>
        <time>2013-10-01T18:35:56.336Z</time>
      </trkpt>
      <trkpt lat="48.86674" lon="2.32895">
        <ele>85.6</ele>
        <time>2013-10-01T18:35:57.328Z</time>
      </trkpt>
      <trkpt lat="48.86665" lon="2.32893">
        <ele>83.6</ele>
        <time>2013-10-01T18:36:11.365Z</time>
      </trkpt>
      <trkpt lat="48.86664" lon="2.3289">
        <ele>82.6</ele>
        <time>2013-10-01T18:36:12.349Z</time>
      </trkpt>
      <trkpt lat="48.86659" lon="2.3288">
        <ele>80.5</ele>
        <time>2013-10-01T18:36:15.498Z</time>
      </trkpt>
      <trkpt lat="48.86657" lon="2.32875">
        <ele>78.3</ele>
        <time>2013-10-01T18:36:16.468Z</time>
      </trkpt>
      <trkpt lat="48.86652" lon="2.32864">
        <ele>78.9</ele>
        <time>2013-10-01T18:36:19.423Z</time>
      </trkpt>
      <trkpt lat="48.86652" lon="2.32862">
        <ele>78.9</ele>
        <time>2013-10-01T18:36:20.370Z</time>
      </trkpt>
      <trkpt lat="48.86656" lon="2.32854">
        <ele>77.4</ele>
        <time>2013-10-01T18:36:32.504Z</time>
      </trkpt>
      <trkpt lat="48.86656" lon="2.32854">
        <ele>77.2</ele>
        <time>2013-10-01T18:36:33.370Z</time>
      </trkpt>
      <trkpt lat="48.86656" lon="2.32853">
        <ele>78.1</ele>
        <time>2013-10-01T18:36:36.325Z</time>
      </trkpt>
      <trkpt lat="48.86656" lon="2.32852">
        <ele>78.3</ele>
        <time>2013-10-01T18:36:37.379Z</time>
      </trkpt>
      <trkpt lat="48.86656" lon="2.32852">
        <ele>78.2</ele>
        <time>2013-10-01T18:36:38.509Z</time>
      </trkpt>
      <trkpt lat="48.86656" lon="2.32852">
        <ele>78.1</ele>
        <time>2013-10-01T18:36:39.367Z</time>
      </trkpt>
      <trkpt lat="48.86656" lon="2.32854">
        <ele>77.5</ele>
        <time>2013-10-01T18:36:46.517Z</time>
      </trkpt>
      <trkpt lat="48.86656" lon="2.32855">
        <ele>77.2</ele>
        <time>2013-10-01T18:36:47.378Z</time>
      </trkpt>
      <trkpt lat="48.86652" lon="2.32865">
        <ele>77.9</ele>
        <time>2013-10-01T18:36:55.381Z</time>
      </trkpt>
      <trkpt lat="48.8665" lon="2.3287">
        <ele>79.8</ele>
        <time>2013-10-01T18:36:56.471Z</time>
      </trkpt>
      <trkpt lat="48.86647" lon="2.32876">
        <ele>79.2</ele>
        <time>2013-10-01T18:36:57.514Z</time>
      </trkpt>
      <trkpt lat="48.86645" lon="2.32882">
        <ele>79.7</ele>
        <time>2013-10-01T18:36:58.367Z</time>
      </trkpt>
      <trkpt lat="48.86643" lon="2.32889">
        <ele>79</ele>
        <time>2013-10-01T18:36:59.378Z</time>
      </trkpt>
      <trkpt lat="48.86641" lon="2.32895">
        <ele>79.5</ele>
        <time>2013-10-01T18:37:00.323Z</time>
      </trkpt>
      <trkpt lat="48.86639" lon="2.32903">
        <ele>80.4</ele>
        <time>2013-10-01T18:37:01.362Z</time>
      </trkpt>
      <trkpt lat="48.86637" lon="2.3291">
        <ele>80.5</ele>
        <time>2013-10-01T18:37:02.396Z</time>
      </trkpt>
      <trkpt lat="48.86634" lon="2.32916">
        <ele>80.9</ele>
        <time>2013-10-01T18:37:03.350Z</time>
      </trkpt>
      <trkpt lat="48.86632" lon="2.32923">
        <ele>78.6</ele>
        <time>2013-10-01T18:37:04.418Z</time>
      </trkpt>
      <trkpt lat="48.86629" lon="2.32933">
        <ele>77.9</ele>
        <time>2013-10-01T18:37:05.362Z</time>
      </trkpt>
      <trkpt lat="48.86626" lon="2.32941">
        <ele>77.7</ele>
        <time>2013-10-01T18:37:06.327Z</time>
      </trkpt>
      <trkpt lat="48.86621" lon="2.32951">
        <ele>77.9</ele>
        <time>2013-10-01T18:37:07.444Z</time>
      </trkpt>
      <trkpt lat="48.86618" lon="2.32959">
        <ele>77.3</ele>
        <time>2013-10-01T18:37:08.472Z</time>
      </trkpt>
      <trkpt lat="48.86616" lon="2.32967">
        <ele>77.7</ele>
        <time>2013-10-01T18:37:09.388Z</time>
      </trkpt>
      <trkpt lat="48.86613" lon="2.32974">
        <ele>78.4</ele>
        <time>2013-10-01T18:37:10.511Z</time>
      </trkpt>
      <trkpt lat="48.86606" lon="2.32981">
        <ele>79.3</ele>
        <time>2013-10-01T18:37:12.415Z</time>
      </trkpt>
      <trkpt lat="48.86602" lon="2.32985">
        <ele>79</ele>
        <time>2013-10-01T18:37:13.356Z</time>
      </trkpt>
      <trkpt lat="48.86598" lon="2.3299">
        <ele>78.8</ele>
        <time>2013-10-01T18:37:15.318Z</time>
      </trkpt>
      <trkpt lat="48.86595" lon="2.32995">
        <ele>78.1</ele>
        <time>2013-10-01T18:37:15.374Z</time>
      </trkpt>
      <trkpt lat="48.86592" lon="2.33001">
        <ele>78</ele>
        <time>2013-10-01T18:37:16.364Z</time>
      </trkpt>
      <trkpt lat="48.8659" lon="2.33008">
        <ele>78.2</ele>
        <time>2013-10-01T18:37:17.366Z</time>
      </trkpt>
      <trkpt lat="48.86588" lon="2.33015">
        <ele>78</ele>
        <time>2013-10-01T18:37:18.348Z</time>
      </trkpt>
      <trkpt lat="48.86586" lon="2.33024">
        <ele>77.7</ele>
        <time>2013-10-01T18:37:19.322Z</time>
      </trkpt>
      <trkpt lat="48.86583" lon="2.33032">
        <ele>76.5</ele>
        <time>2013-10-01T18:37:20.440Z</time>
      </trkpt>
      <trkpt lat="48.8658" lon="2.33038">
        <ele>74.9</ele>
        <time>2013-10-01T18:37:21.391Z</time>
      </trkpt>
      <trkpt lat="48.86577" lon="2.33045">
        <ele>74.9</ele>
        <time>2013-10-01T18:37:22.508Z</time>
      </trkpt>
      <trkpt lat="48.86574" lon="2.33049">
        <ele>74.8</ele>
        <time>2013-10-01T18:37:23.344Z</time>
      </trkpt>
      <trkpt lat="48.86572" lon="2.33058">
        <ele>74.4</ele>
        <time>2013-10-01T18:37:24.473Z</time>
      </trkpt>
      <trkpt lat="48.86571" lon="2.33065">
        <ele>75.1</ele>
        <time>2013-10-01T18:37:25.348Z</time>
      </trkpt>
      <trkpt lat="48.86564" lon="2.33074">
        <ele>74.9</ele>
        <time>2013-10-01T18:37:27.538Z</time>
      </trkpt>
      <trkpt lat="48.8656" lon="2.33075">
        <ele>75.4</ele>
        <time>2013-10-01T18:37:28.450Z</time>
      </trkpt>
      <trkpt lat="48.86554" lon="2.3308">
        <ele>77.5</ele>
        <time>2013-10-01T18:37:30.389Z</time>
      </trkpt>
      <trkpt lat="48.86552" lon="2.33084">
        <ele>78.8</ele>
        <time>2013-10-01T18:37:31.520Z</time>
      </trkpt>
      <trkpt lat="48.86548" lon="2.33094">
        <ele>79.4</ele>
        <time>2013-10-01T18:37:33.352Z</time>
      </trkpt>
      <trkpt lat="48.86545" lon="2.33099">
        <ele>80.4</ele>
        <time>2013-10-01T18:37:34.354Z</time>
      </trkpt>
      <trkpt lat="48.86539" lon="2.3311">
        <ele>80.1</ele>
        <time>2013-10-01T18:37:36.376Z</time>
      </trkpt>
      <trkpt lat="48.86537" lon="2.33116">
        <ele>79.2</ele>
        <time>2013-10-01T18:37:37.357Z</time>
      </trkpt>
      <trkpt lat="48.86534" lon="2.33122">
        <ele>79.4</ele>
        <time>2013-10-01T18:37:38.375Z</time>
      </trkpt>
      <trkpt lat="48.86531" lon="2.33128">
        <ele>78.8</ele>
        <time>2013-10-01T18:37:39.379Z</time>
      </trkpt>
      <trkpt lat="48.86528" lon="2.33133">
        <ele>78.7</ele>
        <time>2013-10-01T18:37:40.383Z</time>
      </trkpt>
      <trkpt lat="48.86524" lon="2.33139">
        <ele>78.5</ele>
        <time>2013-10-01T18:37:41.386Z</time>
      </trkpt>
      <trkpt lat="48.8652" lon="2.33143">
        <ele>78.8</ele>
        <time>2013-10-01T18:37:42.568Z</time>
      </trkpt>
      <trkpt lat="48.86516" lon="2.33147">
        <ele>80.6</ele>
        <time>2013-10-01T18:37:43.349Z</time>
      </trkpt>
      <trkpt lat="48.86513" lon="2.33154">
        <ele>79.5</ele>
        <time>2013-10-01T18:37:44.367Z</time>
      </trkpt>
      <trkpt lat="48.86511" lon="2.33161">
        <ele>79.6</ele>
        <time>2013-10-01T18:37:45.375Z</time>
      </trkpt>
      <trkpt lat="48.86509" lon="2.33168">
        <ele>80.5</ele>
        <time>2013-10-01T18:37:46.397Z</time>
      </trkpt>
      <trkpt lat="48.86506" lon="2.33174">
        <ele>80.2</ele>
        <time>2013-10-01T18:37:47.358Z</time>
      </trkpt>
      <trkpt lat="48.86502" lon="2.33179">
        <ele>81.1</ele>
        <time>2013-10-01T18:37:48.368Z</time>
      </trkpt>
      <trkpt lat="48.86499" lon="2.33185">
        <ele>80.6</ele>
        <time>2013-10-01T18:37:49.358Z</time>
      </trkpt>
      <trkpt lat="48.86495" lon="2.33196">
        <ele>81.8</ele>
        <time>2013-10-01T18:37:51.362Z</time>
      </trkpt>
      <trkpt lat="48.86493" lon="2.33202">
        <ele>82</ele>
        <time>2013-10-01T18:37:52.349Z</time>
      </trkpt>
      <trkpt lat="48.8649" lon="2.33208">
        <ele>81.8</ele>
        <time>2013-10-01T18:37:53.380Z</time>
      </trkpt>
      <trkpt lat="48.86489" lon="2.33214">
        <ele>81.8</ele>
        <time>2013-10-01T18:37:54.360Z</time>
      </trkpt>
      <trkpt lat="48.86486" lon="2.33227">
        <ele>80.9</ele>
        <time>2013-10-01T18:37:56.372Z</time>
      </trkpt>
      <trkpt lat="48.86486" lon="2.33233">
        <ele>81.8</ele>
        <time>2013-10-01T18:37:57.360Z</time>
      </trkpt>
      <trkpt lat="48.86481" lon="2.3324">
        <ele>82.9</ele>
        <time>2013-10-01T18:37:59.376Z</time>
      </trkpt>
      <trkpt lat="48.86478" lon="2.33243">
        <ele>83.2</ele>
        <time>2013-10-01T18:38:00.373Z</time>
      </trkpt>
      <trkpt lat="48.86471" lon="2.33248">
        <ele>83.4</ele>
        <time>2013-10-01T18:38:02.577Z</time>
      </trkpt>
      <trkpt lat="48.86469" lon="2.33252">
        <ele>83.4</ele>
        <time>2013-10-01T18:38:03.338Z</time>
      </trkpt>
      <trkpt lat="48.86471" lon="2.33265">
        <ele>84.1</ele>
        <time>2013-10-01T18:38:09.384Z</time>
      </trkpt>
      <trkpt lat="48.8647" lon="2.33265">
        <ele>80.8</ele>
        <time>2013-10-01T18:38:10.362Z</time>
      </trkpt>
      <trkpt lat="48.86462" lon="2.33263">
        <ele>78.3</ele>
        <time>2013-10-01T18:38:24.346Z</time>
      </trkpt>
      <trkpt lat="48.86462" lon="2.33263">
        <ele>78.4</ele>
        <time>2013-10-01T18:38:25.375Z</time>
      </trkpt>
      <trkpt lat="48.86461" lon="2.33263">
        <ele>79.2</ele>
        <time>2013-10-01T18:38:37.482Z</time>
      </trkpt>
      <trkpt lat="48.86461" lon="2.33264">
        <ele>79.9</ele>
        <time>2013-10-01T18:38:38.530Z</time>
      </trkpt>
      <trkpt lat="48.86457" lon="2.33274">
        <ele>85.3</ele>
        <time>2013-10-01T18:38:42.480Z</time>
      </trkpt>
      <trkpt lat="48.86454" lon="2.33278">
        <ele>85.8</ele>
        <time>2013-10-01T18:38:43.548Z</time>
      </trkpt>
      <trkpt lat="48.86448" lon="2.33287">
        <ele>84.4</ele>
        <time>2013-10-01T18:38:45.548Z</time>
      </trkpt>
      <trkpt lat="48.86444" lon="2.33296">
        <ele>83.7</ele>
        <time>2013-10-01T18:38:46.383Z</time>
      </trkpt>
      <trkpt lat="48.8644" lon="2.33305">
        <ele>85.2</ele>
        <time>2013-10-01T18:38:47.561Z</time>
      </trkpt>
      <trkpt lat="48.86437" lon="2.33312">
        <ele>84.6</ele>
        <time>2013-10-01T18:38:48.359Z</time>
      </trkpt>
      <trkpt lat="48.86434" lon="2.33319">
        <ele>84.8</ele>
        <time>2013-10-01T18:38:49.349Z</time>
      </trkpt>
      <trkpt lat="48.86431" lon="2.33327">
        <ele>85.2</ele>
        <time>2013-10-01T18:38:50.347Z</time>
      </trkpt>
      <trkpt lat="48.86427" lon="2.33334">
        <ele>85.1</ele>
        <time>2013-10-01T18:38:51.402Z</time>
      </trkpt>
      <trkpt lat="48.86425" lon="2.33341">
        <ele>85.7</ele>
        <time>2013-10-01T18:38:52.388Z</time>
      </trkpt>
      <trkpt lat="48.86422" lon="2.33348">
        <ele>85.7</ele>
        <time>2013-10-01T18:38:53.349Z</time>
      </trkpt>
      <trkpt lat="48.86419" lon="2.33355">
        <ele>85.7</ele>
        <time>2013-10-01T18:38:54.347Z</time>
      </trkpt>
      <trkpt lat="48.86416" lon="2.33363">
        <ele>85.5</ele>
        <time>2013-10-01T18:38:55.480Z</time>
      </trkpt>
      <trkpt lat="48.86413" lon="2.3337">
        <ele>85</ele>
        <time>2013-10-01T18:38:56.397Z</time>
      </trkpt>
      <trkpt lat="48.8641" lon="2.33377">
        <ele>84.7</ele>
        <time>2013-10-01T18:38:57.556Z</time>
      </trkpt>
      <trkpt lat="48.86407" lon="2.33383">
        <ele>84.4</ele>
        <time>2013-10-01T18:38:58.328Z</time>
      </trkpt>
      <trkpt lat="48.86404" lon="2.33389">
        <ele>84.6</ele>
        <time>2013-10-01T18:38:59.360Z</time>
      </trkpt>
      <trkpt lat="48.86401" lon="2.33395">
        <ele>86</ele>
        <time>2013-10-01T18:39:00.399Z</time>
      </trkpt>
      <trkpt lat="48.86395" lon="2.33405">
        <ele>85.2</ele>
        <time>2013-10-01T18:39:02.576Z</time>
      </trkpt>
      <trkpt lat="48.86394" lon="2.33411">
        <ele>85.6</ele>
        <time>2013-10-01T18:39:03.353Z</time>
      </trkpt>
      <trkpt lat="48.86391" lon="2.33418">
        <ele>85.3</ele>
        <time>2013-10-01T18:39:04.350Z</time>
      </trkpt>
      <trkpt lat="48.86388" lon="2.33424">
        <ele>85.7</ele>
        <time>2013-10-01T18:39:05.351Z</time>
      </trkpt>
      <trkpt lat="48.86386" lon="2.33432">
        <ele>86.9</ele>
        <time>2013-10-01T18:39:07.343Z</time>
      </trkpt>
      <trkpt lat="48.86383" lon="2.33439">
        <ele>87.1</ele>
        <time>2013-10-01T18:39:07.614Z</time>
      </trkpt>
      <trkpt lat="48.86378" lon="2.3345">
        <ele>87.5</ele>
        <time>2013-10-01T18:39:09.368Z</time>
      </trkpt>
      <trkpt lat="48.86374" lon="2.33456">
        <ele>86.9</ele>
        <time>2013-10-01T18:39:10.359Z</time>
      </trkpt>
      <trkpt lat="48.86371" lon="2.33461">
        <ele>86.3</ele>
        <time>2013-10-01T18:39:11.398Z</time>
      </trkpt>
      <trkpt lat="48.86367" lon="2.33467">
        <ele>86.4</ele>
        <time>2013-10-01T18:39:12.330Z</time>
      </trkpt>
      <trkpt lat="48.86364" lon="2.33474">
        <ele>86.5</ele>
        <time>2013-10-01T18:39:13.402Z</time>
      </trkpt>
      <trkpt lat="48.86363" lon="2.3348">
        <ele>88.3</ele>
        <time>2013-10-01T18:39:14.362Z</time>
      </trkpt>
      <trkpt lat="48.86362" lon="2.33491">
        <ele>88.9</ele>
        <time>2013-10-01T18:39:16.370Z</time>
      </trkpt>
      <trkpt lat="48.86361" lon="2.33495">
        <ele>89.2</ele>
        <time>2013-10-01T18:39:17.383Z</time>
      </trkpt>
      <trkpt lat="48.86359" lon="2.33507">
        <ele>89.5</ele>
        <time>2013-10-01T18:39:20.381Z</time>
      </trkpt>
      <trkpt lat="48.86358" lon="2.33511">
        <ele>89.3</ele>
        <time>2013-10-01T18:39:21.354Z</time>
      </trkpt>
      <trkpt lat="48.86352" lon="2.33519">
        <ele>92.2</ele>
        <time>2013-10-01T18:39:24.359Z</time>
      </trkpt>
      <trkpt lat="48.8635" lon="2.33522">
        <ele>92.6</ele>
        <time>2013-10-01T18:39:25.359Z</time>
      </trkpt>
      <trkpt lat="48.86344" lon="2.33531">
        <ele>91.6</ele>
        <time>2013-10-01T18:39:29.423Z</time>
      </trkpt>
      <trkpt lat="48.86343" lon="2.33533">
        <ele>90.2</ele>
        <time>2013-10-01T18:39:30.368Z</time>
      </trkpt>
      <trkpt lat="48.86338" lon="2.3354">
        <ele>89.9</ele>
        <time>2013-10-01T18:39:33.400Z</time>
      </trkpt>
      <trkpt lat="48.86336" lon="2.33542">
        <ele>90</ele>
        <time>2013-10-01T18:39:34.330Z</time>
      </trkpt>
      <trkpt lat="48.8633" lon="2.33545">
        <ele>87.9</ele>
        <time>2013-10-01T18:39:36.359Z</time>
      </trkpt>
      <trkpt lat="48.86327" lon="2.33546">
        <ele>87.6</ele>
        <time>2013-10-01T18:39:37.368Z</time>
      </trkpt>
      <trkpt lat="48.86318" lon="2.33549">
        <ele>88.8</ele>
        <time>2013-10-01T18:39:40.368Z</time>
      </trkpt>
      <trkpt lat="48.86316" lon="2.33549">
        <ele>88.8</ele>
        <time>2013-10-01T18:39:41.349Z</time>
      </trkpt>
      <trkpt lat="48.86308" lon="2.33544">
        <ele>89.5</ele>
        <time>2013-10-01T18:39:44.365Z</time>
      </trkpt>
      <trkpt lat="48.86305" lon="2.33542">
        <ele>89</ele>
        <time>2013-10-01T18:39:45.377Z</time>
      </trkpt>
      <trkpt lat="48.86299" lon="2.33539">
        <ele>90.8</ele>
        <time>2013-10-01T18:39:47.497Z</time>
      </trkpt>
      <trkpt lat="48.86295" lon="2.33537">
        <ele>91.3</ele>
        <time>2013-10-01T18:39:48.380Z</time>
      </trkpt>
      <trkpt lat="48.86287" lon="2.33535">
        <ele>90.4</ele>
        <time>2013-10-01T18:39:51.349Z</time>
      </trkpt>
      <trkpt lat="48.86285" lon="2.33536">
        <ele>90.1</ele>
        <time>2013-10-01T18:39:52.494Z</time>
      </trkpt>
      <trkpt lat="48.86279" lon="2.33546">
        <ele>94.2</ele>
        <time>2013-10-01T18:39:57.524Z</time>
      </trkpt>
      <trkpt lat="48.86279" lon="2.33546">
        <ele>94.3</ele>
        <time>2013-10-01T18:39:58.361Z</time>
      </trkpt>
      <trkpt lat="48.8627" lon="2.33552">
        <ele>94.5</ele>
        <time>2013-10-01T18:40:11.388Z</time>
      </trkpt>
      <trkpt lat="48.86269" lon="2.33554">
        <ele>94.5</ele>
        <time>2013-10-01T18:40:12.362Z</time>
      </trkpt>
      <trkpt lat="48.86262" lon="2.33561">
        <ele>94.4</ele>
        <time>2013-10-01T18:40:16.368Z</time>
      </trkpt>
      <trkpt lat="48.86261" lon="2.33562">
        <ele>94.5</ele>
        <time>2013-10-01T18:40:17.364Z</time>
      </trkpt>
      <trkpt lat="48.86256" lon="2.33555">
        <ele>94.6</ele>
        <time>2013-10-01T18:40:34.375Z</time>
      </trkpt>
      <trkpt lat="48.86252" lon="2.33548">
        <ele>94.7</ele>
        <time>2013-10-01T18:40:37.448Z</time>
      </trkpt>
      <trkpt lat="48.86258" lon="2.33545">
        <ele>91.5</ele>
        <time>2013-10-01T18:40:45.376Z</time>
      </trkpt>
      <trkpt lat="48.86258" lon="2.33546">
        <ele>90.2</ele>
        <time>2013-10-01T18:40:46.418Z</time>
      </trkpt>
      <trkpt lat="48.86258" lon="2.33547">
        <ele>91.7</ele>
        <time>2013-10-01T18:40:47.370Z</time>
      </trkpt>
      <trkpt lat="48.8625" lon="2.3355">
        <ele>88.2</ele>
        <time>2013-10-01T18:40:56.437Z</time>
      </trkpt>
      <trkpt lat="48.86247" lon="2.33549">
        <ele>88.2</ele>
        <time>2013-10-01T18:40:57.452Z</time>
      </trkpt>
      <trkpt lat="48.86243" lon="2.33547">
        <ele>85.4</ele>
        <time>2013-10-01T18:40:58.371Z</time>
      </trkpt>
      <trkpt lat="48.86238" lon="2.33544">
        <ele>88</ele>
        <time>2013-10-01T18:40:59.490Z</time>
      </trkpt>
      <trkpt lat="48.86233" lon="2.3354">
        <ele>89.4</ele>
        <time>2013-10-01T18:41:00.381Z</time>
      </trkpt>
      <trkpt lat="48.86226" lon="2.33536">
        <ele>87.5</ele>
        <time>2013-10-01T18:41:01.406Z</time>
      </trkpt>
      <trkpt lat="48.8622" lon="2.33531">
        <ele>86.2</ele>
        <time>2013-10-01T18:41:02.407Z</time>
      </trkpt>
      <trkpt lat="48.86214" lon="2.33527">
        <ele>85.1</ele>
        <time>2013-10-01T18:41:03.399Z</time>
      </trkpt>
      <trkpt lat="48.86207" lon="2.33522">
        <ele>85.7</ele>
        <time>2013-10-01T18:41:04.359Z</time>
      </trkpt>
      <trkpt lat="48.86201" lon="2.33518">
        <ele>85.2</ele>
        <time>2013-10-01T18:41:05.363Z</time>
      </trkpt>
      <trkpt lat="48.86195" lon="2.33514">
        <ele>83.3</ele>
        <time>2013-10-01T18:41:06.359Z</time>
      </trkpt>
      <trkpt lat="48.8619" lon="2.33511">
        <ele>84.3</ele>
        <time>2013-10-01T18:41:07.390Z</time>
      </trkpt>
      <trkpt lat="48.86185" lon="2.33509">
        <ele>87.4</ele>
        <time>2013-10-01T18:41:08.477Z</time>
      </trkpt>
      <trkpt lat="48.8618" lon="2.33508">
        <ele>87.4</ele>
        <time>2013-10-01T18:41:09.414Z</time>
      </trkpt>
      <trkpt lat="48.86172" lon="2.3351">
        <ele>86.8</ele>
        <time>2013-10-01T18:41:11.362Z</time>
      </trkpt>
      <trkpt lat="48.86169" lon="2.33513">
        <ele>87.3</ele>
        <time>2013-10-01T18:41:12.381Z</time>
      </trkpt>
      <trkpt lat="48.86165" lon="2.33522">
        <ele>86.8</ele>
        <time>2013-10-01T18:41:14.488Z</time>
      </trkpt>
      <trkpt lat="48.86164" lon="2.33527">
        <ele>87.9</ele>
        <time>2013-10-01T18:41:15.488Z</time>
      </trkpt>
      <trkpt lat="48.86164" lon="2.33537">
        <ele>88.2</ele>
        <time>2013-10-01T18:41:17.501Z</time>
      </trkpt>
      <trkpt lat="48.86164" lon="2.33543">
        <ele>87.7</ele>
        <time>2013-10-01T18:41:18.510Z</time>
      </trkpt>
      <trkpt lat="48.86164" lon="2.33554">
        <ele>88.6</ele>
        <time>2013-10-01T18:41:20.378Z</time>
      </trkpt>
      <trkpt lat="48.86164" lon="2.33559">
        <ele>89</ele>
        <time>2013-10-01T18:41:21.360Z</time>
      </trkpt>
      <trkpt lat="48.86163" lon="2.33571">
        <ele>89</ele>
        <time>2013-10-01T18:41:23.387Z</time>
      </trkpt>
      <trkpt lat="48.86162" lon="2.33577">
        <ele>86.9</ele>
        <time>2013-10-01T18:41:24.368Z</time>
      </trkpt>
      <trkpt lat="48.86158" lon="2.33588">
        <ele>88.8</ele>
        <time>2013-10-01T18:41:26.375Z</time>
      </trkpt>
      <trkpt lat="48.86156" lon="2.33593">
        <ele>89</ele>
        <time>2013-10-01T18:41:27.373Z</time>
      </trkpt>
      <trkpt lat="48.86153" lon="2.33603">
        <ele>88.9</ele>
        <time>2013-10-01T18:41:29.380Z</time>
      </trkpt>
      <trkpt lat="48.86152" lon="2.33607">
        <ele>88.6</ele>
        <time>2013-10-01T18:41:30.367Z</time>
      </trkpt>
      <trkpt lat="48.8615" lon="2.33617">
        <ele>84.1</ele>
        <time>2013-10-01T18:41:32.502Z</time>
      </trkpt>
      <trkpt lat="48.86149" lon="2.33622">
        <ele>81.5</ele>
        <time>2013-10-01T18:41:33.391Z</time>
      </trkpt>
      <trkpt lat="48.86146" lon="2.33632">
        <ele>79.3</ele>
        <time>2013-10-01T18:41:35.370Z</time>
      </trkpt>
      <trkpt lat="48.86144" lon="2.33636">
        <ele>79.8</ele>
        <time>2013-10-01T18:41:36.377Z</time>
      </trkpt>
      <trkpt lat="48.8614" lon="2.33647">
        <ele>79.8</ele>
        <time>2013-10-01T18:41:38.368Z</time>
      </trkpt>
      <trkpt lat="48.86138" lon="2.33652">
        <ele>81.8</ele>
        <time>2013-10-01T18:41:39.378Z</time>
      </trkpt>
      <trkpt lat="48.86133" lon="2.33663">
        <ele>79.1</ele>
        <time>2013-10-01T18:41:41.368Z</time>
      </trkpt>
      <trkpt lat="48.86131" lon="2.33669">
        <ele>78</ele>
        <time>2013-10-01T18:41:42.368Z</time>
      </trkpt>
      <trkpt lat="48.86128" lon="2.33675">
        <ele>78.2</ele>
        <time>2013-10-01T18:41:43.392Z</time>
      </trkpt>
      <trkpt lat="48.86126" lon="2.33681">
        <ele>78.9</ele>
        <time>2013-10-01T18:41:44.374Z</time>
      </trkpt>
      <trkpt lat="48.8612" lon="2.33691">
        <ele>80.7</ele>
        <time>2013-10-01T18:41:46.408Z</time>
      </trkpt>
      <trkpt lat="48.86118" lon="2.33697">
        <ele>81.3</ele>
        <time>2013-10-01T18:41:47.381Z</time>
      </trkpt>
      <trkpt lat="48.86115" lon="2.33707">
        <ele>80.7</ele>
        <time>2013-10-01T18:41:49.377Z</time>
      </trkpt>
      <trkpt lat="48.86115" lon="2.33713">
        <ele>80.7</ele>
        <time>2013-10-01T18:41:50.379Z</time>
      </trkpt>
      <trkpt lat="48.86113" lon="2.33725">
        <ele>82.7</ele>
        <time>2013-10-01T18:41:52.528Z</time>
      </trkpt>
      <trkpt lat="48.86112" lon="2.3373">
        <ele>82.5</ele>
        <time>2013-10-01T18:41:53.371Z</time>
      </trkpt>
      <trkpt lat="48.8611" lon="2.33741">
        <ele>82.9</ele>
        <time>2013-10-01T18:41:55.372Z</time>
      </trkpt>
      <trkpt lat="48.86109" lon="2.33747">
        <ele>82.9</ele>
        <time>2013-10-01T18:41:56.378Z</time>
      </trkpt>
      <trkpt lat="48.86107" lon="2.33756">
        <ele>82.9</ele>
        <time>2013-10-01T18:41:58.388Z</time>
      </trkpt>
      <trkpt lat="48.86105" lon="2.33761">
        <ele>84.4</ele>
        <time>2013-10-01T18:41:59.558Z</time>
      </trkpt>
      <trkpt lat="48.86103" lon="2.33771">
        <ele>85.5</ele>
        <time>2013-10-01T18:42:02.572Z</time>
      </trkpt>
      <trkpt lat="48.86103" lon="2.33774">
        <ele>85.8</ele>
        <time>2013-10-01T18:42:03.488Z</time>
      </trkpt>
      <trkpt lat="48.86095" lon="2.33777">
        <ele>90.8</ele>
        <time>2013-10-01T18:42:07.532Z</time>
      </trkpt>
      <trkpt lat="48.86091" lon="2.33775">
        <ele>88.4</ele>
        <time>2013-10-01T18:42:08.529Z</time>
      </trkpt>
      <trkpt lat="48.86083" lon="2.3377">
        <ele>88.4</ele>
        <time>2013-10-01T18:42:10.501Z</time>
      </trkpt>
      <trkpt lat="48.8608" lon="2.33767">
        <ele>87.6</ele>
        <time>2013-10-01T18:42:11.510Z</time>
      </trkpt>
      <trkpt lat="48.86073" lon="2.33761">
        <ele>88.4</ele>
        <time>2013-10-01T18:42:13.478Z</time>
      </trkpt>
      <trkpt lat="48.8607" lon="2.3376">
        <ele>88.5</ele>
        <time>2013-10-01T18:42:14.388Z</time>
      </trkpt>
      <trkpt lat="48.86062" lon="2.33764">
        <ele>89.1</ele>
        <time>2013-10-01T18:42:18.428Z</time>
      </trkpt>
      <trkpt lat="48.86062" lon="2.33767">
        <ele>89.2</ele>
        <time>2013-10-01T18:42:19.439Z</time>
      </trkpt>
      <trkpt lat="48.8606" lon="2.33778">
        <ele>88.8</ele>
        <time>2013-10-01T18:42:23.390Z</time>
      </trkpt>
      <trkpt lat="48.8606" lon="2.3378">
        <ele>90.5</ele>
        <time>2013-10-01T18:42:24.390Z</time>
      </trkpt>
      <trkpt lat="48.86053" lon="2.33785">
        <ele>88.6</ele>
        <time>2013-10-01T18:42:27.402Z</time>
      </trkpt>
      <trkpt lat="48.86049" lon="2.33784">
        <ele>88.3</ele>
        <time>2013-10-01T18:42:28.356Z</time>
      </trkpt>
      <trkpt lat="48.86041" lon="2.3378">
        <ele>88.6</ele>
        <time>2013-10-01T18:42:30.369Z</time>
      </trkpt>
      <trkpt lat="48.86038" lon="2.33777">
        <ele>87.3</ele>
        <time>2013-10-01T18:42:31.354Z</time>
      </trkpt>
      <trkpt lat="48.86031" lon="2.33771">
        <ele>86.2</ele>
        <time>2013-10-01T18:42:33.399Z</time>
      </trkpt>
      <trkpt lat="48.86028" lon="2.33769">
        <ele>86.6</ele>
        <time>2013-10-01T18:42:34.377Z</time>
      </trkpt>
      <trkpt lat="48.8602" lon="2.33764">
        <ele>85.7</ele>
        <time>2013-10-01T18:42:36.527Z</time>
      </trkpt>
      <trkpt lat="48.86017" lon="2.33763">
        <ele>85.1</ele>
        <time>2013-10-01T18:42:37.404Z</time>
      </trkpt>
      <trkpt lat="48.8601" lon="2.33762">
        <ele>84.8</ele>
        <time>2013-10-01T18:42:39.411Z</time>
      </trkpt>
      <trkpt lat="48.86006" lon="2.33764">
        <ele>86.1</ele>
        <time>2013-10-01T18:42:40.481Z</time>
      </trkpt>
      <trkpt lat="48.86001" lon="2.33772">
        <ele>87.6</ele>
        <time>2013-10-01T18:42:42.508Z</time>
      </trkpt>
      <trkpt lat="48.85999" lon="2.33778">
        <ele>87.7</ele>
        <time>2013-10-01T18:42:43.489Z</time>
      </trkpt>
      <trkpt lat="48.85998" lon="2.33785">
        <ele>87.7</ele>
        <time>2013-10-01T18:42:44.389Z</time>
      </trkpt>
      <trkpt lat="48.85997" lon="2.33792">
        <ele>88.8</ele>
        <time>2013-10-01T18:42:45.395Z</time>
      </trkpt>
      <trkpt lat="48.85997" lon="2.33801">
        <ele>92.9</ele>
        <time>2013-10-01T18:42:46.379Z</time>
      </trkpt>
      <trkpt lat="48.85997" lon="2.33809">
        <ele>93.4</ele>
        <time>2013-10-01T18:42:47.369Z</time>
      </trkpt>
      <trkpt lat="48.85998" lon="2.33817">
        <ele>93.4</ele>
        <time>2013-10-01T18:42:48.409Z</time>
      </trkpt>
      <trkpt lat="48.85999" lon="2.33824">
        <ele>93.4</ele>
        <time>2013-10-01T18:42:49.394Z</time>
      </trkpt>
      <trkpt lat="48.86" lon="2.33837">
        <ele>92.9</ele>
        <time>2013-10-01T18:42:51.371Z</time>
      </trkpt>
      <trkpt lat="48.86" lon="2.33843">
        <ele>92.3</ele>
        <time>2013-10-01T18:42:52.400Z</time>
      </trkpt>
      <trkpt lat="48.85996" lon="2.3385">
        <ele>94</ele>
        <time>2013-10-01T18:43:02.522Z</time>
      </trkpt>
      <trkpt lat="48.85969" lon="2.3383">
        <ele>82.7</ele>
        <time>2013-10-01T18:43:04.388Z</time>
      </trkpt>
      <trkpt lat="48.85964" lon="2.33824">
        <ele>82.1</ele>
        <time>2013-10-01T18:43:05.380Z</time>
      </trkpt>
      <trkpt lat="48.85959" lon="2.33821">
        <ele>82.5</ele>
        <time>2013-10-01T18:43:06.367Z</time>
      </trkpt>
      <trkpt lat="48.85953" lon="2.33816">
        <ele>85.6</ele>
        <time>2013-10-01T18:43:08.367Z</time>
      </trkpt>
      <trkpt lat="48.8595" lon="2.33813">
        <ele>85.4</ele>
        <time>2013-10-01T18:43:09.380Z</time>
      </trkpt>
      <trkpt lat="48.85944" lon="2.33808">
        <ele>85.1</ele>
        <time>2013-10-01T18:43:11.384Z</time>
      </trkpt>
      <trkpt lat="48.85941" lon="2.33806">
        <ele>85.9</ele>
        <time>2013-10-01T18:43:12.374Z</time>
      </trkpt>
      <trkpt lat="48.85934" lon="2.338">
        <ele>88</ele>
        <time>2013-10-01T18:43:15.381Z</time>
      </trkpt>
      <trkpt lat="48.85932" lon="2.33798">
        <ele>88.7</ele>
        <time>2013-10-01T18:43:16.393Z</time>
      </trkpt>
      <trkpt lat="48.85924" lon="2.33797">
        <ele>92.2</ele>
        <time>2013-10-01T18:43:22.418Z</time>
      </trkpt>
      <trkpt lat="48.85922" lon="2.33797">
        <ele>91.8</ele>
        <time>2013-10-01T18:43:23.389Z</time>
      </trkpt>
      <trkpt lat="48.85914" lon="2.33796">
        <ele>90.1</ele>
        <time>2013-10-01T18:43:34.375Z</time>
      </trkpt>
      <trkpt lat="48.85913" lon="2.33796">
        <ele>89.7</ele>
        <time>2013-10-01T18:43:35.377Z</time>
      </trkpt>
      <trkpt lat="48.85905" lon="2.33793">
        <ele>90.9</ele>
        <time>2013-10-01T18:43:41.540Z</time>
      </trkpt>
      <trkpt lat="48.85904" lon="2.33793">
        <ele>90.8</ele>
        <time>2013-10-01T18:43:42.495Z</time>
      </trkpt>
      <trkpt lat="48.85897" lon="2.33787">
        <ele>92.2</ele>
        <time>2013-10-01T18:43:45.402Z</time>
      </trkpt>
      <trkpt lat="48.85895" lon="2.33785">
        <ele>92.3</ele>
        <time>2013-10-01T18:43:46.398Z</time>
      </trkpt>
      <trkpt lat="48.85887" lon="2.3378">
        <ele>90.8</ele>
        <time>2013-10-01T18:43:49.496Z</time>
      </trkpt>
      <trkpt lat="48.85885" lon="2.33778">
        <ele>89.9</ele>
        <time>2013-10-01T18:43:50.489Z</time>
      </trkpt>
      <trkpt lat="48.85879" lon="2.33775">
        <ele>88.1</ele>
        <time>2013-10-01T18:43:52.541Z</time>
      </trkpt>
      <trkpt lat="48.85876" lon="2.33774">
        <ele>87.3</ele>
        <time>2013-10-01T18:43:53.443Z</time>
      </trkpt>
      <trkpt lat="48.85869" lon="2.33771">
        <ele>86</ele>
        <time>2013-10-01T18:43:55.409Z</time>
      </trkpt>
      <trkpt lat="48.85866" lon="2.33769">
        <ele>85.8</ele>
        <time>2013-10-01T18:43:56.478Z</time>
      </trkpt>
      <trkpt lat="48.85859" lon="2.33765">
        <ele>84.9</ele>
        <time>2013-10-01T18:43:58.511Z</time>
      </trkpt>
      <trkpt lat="48.85856" lon="2.33764">
        <ele>85.2</ele>
        <time>2013-10-01T18:43:59.468Z</time>
      </trkpt>
      <trkpt lat="48.85849" lon="2.33762">
        <ele>84.1</ele>
        <time>2013-10-01T18:44:01.429Z</time>
      </trkpt>
      <trkpt lat="48.85846" lon="2.33761">
        <ele>83.7</ele>
        <time>2013-10-01T18:44:02.403Z</time>
      </trkpt>
      <trkpt lat="48.85839" lon="2.33759">
        <ele>84.6</ele>
        <time>2013-10-01T18:44:04.489Z</time>
      </trkpt>
      <trkpt lat="48.85836" lon="2.33758">
        <ele>84.8</ele>
        <time>2013-10-01T18:44:05.516Z</time>
      </trkpt>
      <trkpt lat="48.8583" lon="2.33756">
        <ele>85.6</ele>
        <time>2013-10-01T18:44:07.401Z</time>
      </trkpt>
      <trkpt lat="48.85827" lon="2.33755">
        <ele>85.5</ele>
        <time>2013-10-01T18:44:08.374Z</time>
      </trkpt>
      <trkpt lat="48.85819" lon="2.3375">
        <ele>85.6</ele>
        <time>2013-10-01T18:44:11.379Z</time>
      </trkpt>
      <trkpt lat="48.85817" lon="2.33749">
        <ele>85.6</ele>
        <time>2013-10-01T18:44:12.384Z</time>
      </trkpt>
      <trkpt lat="48.85811" lon="2.33745">
        <ele>83.9</ele>
        <time>2013-10-01T18:44:14.375Z</time>
      </trkpt>
      <trkpt lat="48.85808" lon="2.33744">
        <ele>83.9</ele>
        <time>2013-10-01T18:44:15.412Z</time>
      </trkpt>
      <trkpt lat="48.85802" lon="2.3374">
        <ele>81.6</ele>
        <time>2013-10-01T18:44:17.435Z</time>
      </trkpt>
      <trkpt lat="48.85799" lon="2.33739">
        <ele>81.5</ele>
        <time>2013-10-01T18:44:18.398Z</time>
      </trkpt>
      <trkpt lat="48.85792" lon="2.33734">
        <ele>81.5</ele>
        <time>2013-10-01T18:44:21.377Z</time>
      </trkpt>
      <trkpt lat="48.8579" lon="2.33733">
        <ele>82.4</ele>
        <time>2013-10-01T18:44:22.357Z</time>
      </trkpt>
      <trkpt lat="48.85784" lon="2.33725">
        <ele>81.6</ele>
        <time>2013-10-01T18:44:27.596Z</time>
      </trkpt>
      <trkpt lat="48.85782" lon="2.3372">
        <ele>81.2</ele>
        <time>2013-10-01T18:44:28.378Z</time>
      </trkpt>
      <trkpt lat="48.85784" lon="2.3371">
        <ele>80.3</ele>
        <time>2013-10-01T18:44:31.469Z</time>
      </trkpt>
      <trkpt lat="48.85785" lon="2.33707">
        <ele>80.6</ele>
        <time>2013-10-01T18:44:32.570Z</time>
      </trkpt>
      <trkpt lat="48.85788" lon="2.33697">
        <ele>81.6</ele>
        <time>2013-10-01T18:44:36.521Z</time>
      </trkpt>
      <trkpt lat="48.85789" lon="2.33695">
        <ele>81.2</ele>
        <time>2013-10-01T18:44:37.378Z</time>
      </trkpt>
      <trkpt lat="48.85789" lon="2.33682">
        <ele>79.5</ele>
        <time>2013-10-01T18:44:42.397Z</time>
      </trkpt>
      <trkpt lat="48.85788" lon="2.33679">
        <ele>79.6</ele>
        <time>2013-10-01T18:44:43.387Z</time>
      </trkpt>
      <trkpt lat="48.85789" lon="2.33668">
        <ele>80.3</ele>
        <time>2013-10-01T18:44:47.531Z</time>
      </trkpt>
      <trkpt lat="48.8579" lon="2.33665">
        <ele>80.5</ele>
        <time>2013-10-01T18:44:48.373Z</time>
      </trkpt>
      <trkpt lat="48.85792" lon="2.33654">
        <ele>80.4</ele>
        <time>2013-10-01T18:44:51.408Z</time>
      </trkpt>
      <trkpt lat="48.85793" lon="2.3365">
        <ele>80.7</ele>
        <time>2013-10-01T18:44:52.557Z</time>
      </trkpt>
      <trkpt lat="48.85792" lon="2.33642">
        <ele>82.7</ele>
        <time>2013-10-01T18:45:02.610Z</time>
      </trkpt>
      <trkpt lat="48.85792" lon="2.33642">
        <ele>82.6</ele>
        <time>2013-10-01T18:45:03.385Z</time>
      </trkpt>
      <trkpt lat="48.85793" lon="2.33641">
        <ele>82.9</ele>
        <time>2013-10-01T18:45:57.596Z</time>
      </trkpt>
      <trkpt lat="48.85792" lon="2.33639">
        <ele>83.3</ele>
        <time>2013-10-01T18:45:58.518Z</time>
      </trkpt>
      <trkpt lat="48.85787" lon="2.33632">
        <ele>83</ele>
        <time>2013-10-01T18:46:02.636Z</time>
      </trkpt>
      <trkpt lat="48.85785" lon="2.33631">
        <ele>82.2</ele>
        <time>2013-10-01T18:46:03.407Z</time>
      </trkpt>
      <trkpt lat="48.85778" lon="2.33628">
        <ele>80.9</ele>
        <time>2013-10-01T18:46:07.384Z</time>
      </trkpt>
      <trkpt lat="48.85776" lon="2.33627">
        <ele>80.8</ele>
        <time>2013-10-01T18:46:07.549Z</time>
      </trkpt>
      <trkpt lat="48.8577" lon="2.33624">
        <ele>80.8</ele>
        <time>2013-10-01T18:46:10.388Z</time>
      </trkpt>
      <trkpt lat="48.85768" lon="2.33622">
        <ele>80.9</ele>
        <time>2013-10-01T18:46:11.517Z</time>
      </trkpt>
      <trkpt lat="48.8576" lon="2.33619">
        <ele>81.8</ele>
        <time>2013-10-01T18:46:16.569Z</time>
      </trkpt>
      <trkpt lat="48.85759" lon="2.33619">
        <ele>79.6</ele>
        <time>2013-10-01T18:46:17.439Z</time>
      </trkpt>
      <trkpt lat="48.85756" lon="2.33628">
        <ele>82.7</ele>
        <time>2013-10-01T18:46:20.612Z</time>
      </trkpt>
      <trkpt lat="48.85755" lon="2.33632">
        <ele>82.8</ele>
        <time>2013-10-01T18:46:21.518Z</time>
      </trkpt>
      <trkpt lat="48.85751" lon="2.33642">
        <ele>83.3</ele>
        <time>2013-10-01T18:46:24.570Z</time>
      </trkpt>
      <trkpt lat="48.85749" lon="2.33643">
        <ele>83.7</ele>
        <time>2013-10-01T18:46:25.428Z</time>
      </trkpt>
      <trkpt lat="48.8574" lon="2.33644">
        <ele>86.5</ele>
        <time>2013-10-01T18:46:28.585Z</time>
      </trkpt>
      <trkpt lat="48.85737" lon="2.33645">
        <ele>85.6</ele>
        <time>2013-10-01T18:46:29.500Z</time>
      </trkpt>
      <trkpt lat="48.85729" lon="2.33646">
        <ele>84.7</ele>
        <time>2013-10-01T18:46:31.589Z</time>
      </trkpt>
      <trkpt lat="48.85726" lon="2.33648">
        <ele>84.3</ele>
        <time>2013-10-01T18:46:32.457Z</time>
      </trkpt>
      <trkpt lat="48.85719" lon="2.33652">
        <ele>84.2</ele>
        <time>2013-10-01T18:46:34.400Z</time>
      </trkpt>
      <trkpt lat="48.85715" lon="2.33656">
        <ele>84.2</ele>
        <time>2013-10-01T18:46:35.557Z</time>
      </trkpt>
      <trkpt lat="48.85714" lon="2.33657">
        <ele>89.1</ele>
        <time>2013-10-01T18:46:46.521Z</time>
      </trkpt>
      <trkpt lat="48.85714" lon="2.33657">
        <ele>89.5</ele>
        <time>2013-10-01T18:46:47.577Z</time>
      </trkpt>
      <trkpt lat="48.85714" lon="2.33659">
        <ele>90.1</ele>
        <time>2013-10-01T18:46:50.410Z</time>
      </trkpt>
      <trkpt lat="48.85714" lon="2.3366">
        <ele>90.2</ele>
        <time>2013-10-01T18:46:51.553Z</time>
      </trkpt>
      <trkpt lat="48.85712" lon="2.33673">
        <ele>92.4</ele>
        <time>2013-10-01T18:46:54.574Z</time>
      </trkpt>
      <trkpt lat="48.85711" lon="2.3368">
        <ele>93.9</ele>
        <time>2013-10-01T18:46:55.513Z</time>
      </trkpt>
      <trkpt lat="48.8571" lon="2.33689">
        <ele>94.5</ele>
        <time>2013-10-01T18:46:56.574Z</time>
      </trkpt>
      <trkpt lat="48.85709" lon="2.33695">
        <ele>96.6</ele>
        <time>2013-10-01T18:46:57.390Z</time>
      </trkpt>
      <trkpt lat="48.85707" lon="2.33702">
        <ele>97.7</ele>
        <time>2013-10-01T18:46:58.410Z</time>
      </trkpt>
      <trkpt lat="48.85704" lon="2.33708">
        <ele>98.5</ele>
        <time>2013-10-01T18:46:59.419Z</time>
      </trkpt>
      <trkpt lat="48.85697" lon="2.33715">
        <ele>98.9</ele>
        <time>2013-10-01T18:47:01.380Z</time>
      </trkpt>
      <trkpt lat="48.85693" lon="2.33717">
        <ele>100.9</ele>
        <time>2013-10-01T18:47:02.397Z</time>
      </trkpt>
      <trkpt lat="48.85684" lon="2.33721">
        <ele>101.1</ele>
        <time>2013-10-01T18:47:04.409Z</time>
      </trkpt>
      <trkpt lat="48.8568" lon="2.33724">
        <ele>101.6</ele>
        <time>2013-10-01T18:47:05.397Z</time>
      </trkpt>
      <trkpt lat="48.85676" lon="2.33726">
        <ele>101.5</ele>
        <time>2013-10-01T18:47:07.349Z</time>
      </trkpt>
      <trkpt lat="48.85672" lon="2.3373">
        <ele>101.6</ele>
        <time>2013-10-01T18:47:07.664Z</time>
      </trkpt>
      <trkpt lat="48.85664" lon="2.33733">
        <ele>102.3</ele>
        <time>2013-10-01T18:47:09.457Z</time>
      </trkpt>
      <trkpt lat="48.85659" lon="2.33735">
        <ele>102.4</ele>
        <time>2013-10-01T18:47:10.525Z</time>
      </trkpt>
      <trkpt lat="48.85654" lon="2.33737">
        <ele>102.6</ele>
        <time>2013-10-01T18:47:11.458Z</time>
      </trkpt>
      <trkpt lat="48.85648" lon="2.33738">
        <ele>102.8</ele>
        <time>2013-10-01T18:47:12.545Z</time>
      </trkpt>
      <trkpt lat="48.85642" lon="2.3374">
        <ele>102.7</ele>
        <time>2013-10-01T18:47:13.451Z</time>
      </trkpt>
      <trkpt lat="48.85636" lon="2.33742">
        <ele>102.3</ele>
        <time>2013-10-01T18:47:14.490Z</time>
      </trkpt>
      <trkpt lat="48.8563" lon="2.33743">
        <ele>102.2</ele>
        <time>2013-10-01T18:47:15.391Z</time>
      </trkpt>
      <trkpt lat="48.85623" lon="2.33743">
        <ele>102.1</ele>
        <time>2013-10-01T18:47:16.459Z</time>
      </trkpt>
      <trkpt lat="48.85617" lon="2.33744">
        <ele>101.9</ele>
        <time>2013-10-01T18:47:17.458Z</time>
      </trkpt>
      <trkpt lat="48.85613" lon="2.33745">
        <ele>102.6</ele>
        <time>2013-10-01T18:47:18.489Z</time>
      </trkpt>
      <trkpt lat="48.85604" lon="2.33746">
        <ele>102.9</ele>
        <time>2013-10-01T18:47:20.438Z</time>
      </trkpt>
      <trkpt lat="48.85599" lon="2.33747">
        <ele>103.2</ele>
        <time>2013-10-01T18:47:21.552Z</time>
      </trkpt>
      <trkpt lat="48.85594" lon="2.33746">
        <ele>104</ele>
        <time>2013-10-01T18:47:22.432Z</time>
      </trkpt>
      <trkpt lat="48.85588" lon="2.33745">
        <ele>104.5</ele>
        <time>2013-10-01T18:47:23.512Z</time>
      </trkpt>
      <trkpt lat="48.85583" lon="2.33745">
        <ele>104</ele>
        <time>2013-10-01T18:47:24.400Z</time>
      </trkpt>
      <trkpt lat="48.85578" lon="2.33746">
        <ele>104.1</ele>
        <time>2013-10-01T18:47:25.520Z</time>
      </trkpt>
      <trkpt lat="48.85572" lon="2.33746">
        <ele>104.4</ele>
        <time>2013-10-01T18:47:26.498Z</time>
      </trkpt>
      <trkpt lat="48.85567" lon="2.33748">
        <ele>104.4</ele>
        <time>2013-10-01T18:47:27.478Z</time>
      </trkpt>
      <trkpt lat="48.85559" lon="2.33751">
        <ele>104.6</ele>
        <time>2013-10-01T18:47:29.407Z</time>
      </trkpt>
      <trkpt lat="48.85554" lon="2.33753">
        <ele>105</ele>
        <time>2013-10-01T18:47:30.510Z</time>
      </trkpt>
      <trkpt lat="48.85547" lon="2.33757">
        <ele>104.8</ele>
        <time>2013-10-01T18:47:32.489Z</time>
      </trkpt>
      <trkpt lat="48.85544" lon="2.33759">
        <ele>104.7</ele>
        <time>2013-10-01T18:47:33.418Z</time>
      </trkpt>
      <trkpt lat="48.85538" lon="2.33759">
        <ele>104.6</ele>
        <time>2013-10-01T18:47:35.399Z</time>
      </trkpt>
      <trkpt lat="48.85534" lon="2.33759">
        <ele>104.6</ele>
        <time>2013-10-01T18:47:36.403Z</time>
      </trkpt>
      <trkpt lat="48.85531" lon="2.33771">
        <ele>97.3</ele>
        <time>2013-10-01T18:47:38.408Z</time>
      </trkpt>
      <trkpt lat="48.8553" lon="2.33774">
        <ele>96.3</ele>
        <time>2013-10-01T18:47:39.410Z</time>
      </trkpt>
      <trkpt lat="48.85524" lon="2.3378">
        <ele>94.1</ele>
        <time>2013-10-01T18:47:42.557Z</time>
      </trkpt>
      <trkpt lat="48.85522" lon="2.33781">
        <ele>94.2</ele>
        <time>2013-10-01T18:47:43.470Z</time>
      </trkpt>
      <trkpt lat="48.85514" lon="2.33787">
        <ele>95.7</ele>
        <time>2013-10-01T18:47:46.481Z</time>
      </trkpt>
      <trkpt lat="48.85512" lon="2.33789">
        <ele>95.1</ele>
        <time>2013-10-01T18:47:47.396Z</time>
      </trkpt>
      <trkpt lat="48.85504" lon="2.33795">
        <ele>94.2</ele>
        <time>2013-10-01T18:47:51.472Z</time>
      </trkpt>
      <trkpt lat="48.85501" lon="2.33796">
        <ele>94.2</ele>
        <time>2013-10-01T18:47:52.468Z</time>
      </trkpt>
      <trkpt lat="48.85494" lon="2.33798">
        <ele>93</ele>
        <time>2013-10-01T18:47:54.423Z</time>
      </trkpt>
      <trkpt lat="48.8549" lon="2.33799">
        <ele>92.1</ele>
        <time>2013-10-01T18:47:55.404Z</time>
      </trkpt>
      <trkpt lat="48.85486" lon="2.33801">
        <ele>92.4</ele>
        <time>2013-10-01T18:47:56.398Z</time>
      </trkpt>
      <trkpt lat="48.85481" lon="2.33802">
        <ele>92.8</ele>
        <time>2013-10-01T18:47:57.520Z</time>
      </trkpt>
      <trkpt lat="48.85476" lon="2.33803">
        <ele>92.1</ele>
        <time>2013-10-01T18:47:58.497Z</time>
      </trkpt>
      <trkpt lat="48.85471" lon="2.33804">
        <ele>91.7</ele>
        <time>2013-10-01T18:47:59.498Z</time>
      </trkpt>
      <trkpt lat="48.85466" lon="2.33805">
        <ele>91.2</ele>
        <time>2013-10-01T18:48:00.528Z</time>
      </trkpt>
      <trkpt lat="48.85461" lon="2.33806">
        <ele>91.4</ele>
        <time>2013-10-01T18:48:01.399Z</time>
      </trkpt>
      <trkpt lat="48.85456" lon="2.33808">
        <ele>91.5</ele>
        <time>2013-10-01T18:48:02.581Z</time>
      </trkpt>
      <trkpt lat="48.85452" lon="2.33809">
        <ele>92.8</ele>
        <time>2013-10-01T18:48:03.409Z</time>
      </trkpt>
      <trkpt lat="48.85446" lon="2.33811">
        <ele>92.9</ele>
        <time>2013-10-01T18:48:04.519Z</time>
      </trkpt>
      <trkpt lat="48.85441" lon="2.33813">
        <ele>93.1</ele>
        <time>2013-10-01T18:48:05.441Z</time>
      </trkpt>
      <trkpt lat="48.85434" lon="2.33815">
        <ele>92.7</ele>
        <time>2013-10-01T18:48:07.604Z</time>
      </trkpt>
      <trkpt lat="48.85426" lon="2.33818">
        <ele>90.8</ele>
        <time>2013-10-01T18:48:07.698Z</time>
      </trkpt>
      <trkpt lat="48.8542" lon="2.3382">
        <ele>91.1</ele>
        <time>2013-10-01T18:48:08.437Z</time>
      </trkpt>
      <trkpt lat="48.85413" lon="2.33824">
        <ele>91.1</ele>
        <time>2013-10-01T18:48:09.562Z</time>
      </trkpt>
      <trkpt lat="48.85407" lon="2.33828">
        <ele>91.3</ele>
        <time>2013-10-01T18:48:10.410Z</time>
      </trkpt>
      <trkpt lat="48.85401" lon="2.33831">
        <ele>91.5</ele>
        <time>2013-10-01T18:48:11.538Z</time>
      </trkpt>
      <trkpt lat="48.85397" lon="2.33837">
        <ele>92.1</ele>
        <time>2013-10-01T18:48:12.422Z</time>
      </trkpt>
      <trkpt lat="48.85392" lon="2.33841">
        <ele>92.1</ele>
        <time>2013-10-01T18:48:13.405Z</time>
      </trkpt>
      <trkpt lat="48.85386" lon="2.33845">
        <ele>93.1</ele>
        <time>2013-10-01T18:48:14.549Z</time>
      </trkpt>
      <trkpt lat="48.85382" lon="2.33848">
        <ele>94.4</ele>
        <time>2013-10-01T18:48:15.425Z</time>
      </trkpt>
      <trkpt lat="48.85374" lon="2.33856">
        <ele>94.7</ele>
        <time>2013-10-01T18:48:17.405Z</time>
      </trkpt>
      <trkpt lat="48.85374" lon="2.33858">
        <ele>96.2</ele>
        <time>2013-10-01T18:48:18.421Z</time>
      </trkpt>
      <trkpt lat="48.85369" lon="2.33869">
        <ele>100.8</ele>
        <time>2013-10-01T18:48:23.408Z</time>
      </trkpt>
      <trkpt lat="48.85368" lon="2.33871">
        <ele>101.6</ele>
        <time>2013-10-01T18:48:24.429Z</time>
      </trkpt>
      <trkpt lat="48.85365" lon="2.33882">
        <ele>101.1</ele>
        <time>2013-10-01T18:48:28.527Z</time>
      </trkpt>
      <trkpt lat="48.85365" lon="2.33886">
        <ele>99.8</ele>
        <time>2013-10-01T18:48:29.415Z</time>
      </trkpt>
      <trkpt lat="48.85365" lon="2.33895">
        <ele>98.4</ele>
        <time>2013-10-01T18:48:31.419Z</time>
      </trkpt>
      <trkpt lat="48.85365" lon="2.339">
        <ele>96.8</ele>
        <time>2013-10-01T18:48:32.506Z</time>
      </trkpt>
      <trkpt lat="48.85365" lon="2.3391">
        <ele>96.4</ele>
        <time>2013-10-01T18:48:34.494Z</time>
      </trkpt>
      <trkpt lat="48.85364" lon="2.33915">
        <ele>96.7</ele>
        <time>2013-10-01T18:48:35.543Z</time>
      </trkpt>
      <trkpt lat="48.85363" lon="2.33926">
        <ele>95.3</ele>
        <time>2013-10-01T18:48:37.537Z</time>
      </trkpt>
      <trkpt lat="48.85364" lon="2.33932">
        <ele>95.8</ele>
        <time>2013-10-01T18:48:38.429Z</time>
      </trkpt>
      <trkpt lat="48.85364" lon="2.33939">
        <ele>94.5</ele>
        <time>2013-10-01T18:48:39.410Z</time>
      </trkpt>
      <trkpt lat="48.85365" lon="2.33946">
        <ele>94.1</ele>
        <time>2013-10-01T18:48:40.405Z</time>
      </trkpt>
      <trkpt lat="48.85365" lon="2.33953">
        <ele>94.3</ele>
        <time>2013-10-01T18:48:41.381Z</time>
      </trkpt>
      <trkpt lat="48.85365" lon="2.3396">
        <ele>94.3</ele>
        <time>2013-10-01T18:48:42.425Z</time>
      </trkpt>
      <trkpt lat="48.85365" lon="2.33967">
        <ele>94.6</ele>
        <time>2013-10-01T18:48:43.407Z</time>
      </trkpt>
      <trkpt lat="48.85365" lon="2.33974">
        <ele>96</ele>
        <time>2013-10-01T18:48:44.407Z</time>
      </trkpt>
      <trkpt lat="48.85364" lon="2.33985">
        <ele>96.8</ele>
        <time>2013-10-01T18:48:45.445Z</time>
      </trkpt>
      <trkpt lat="48.85361" lon="2.33995">
        <ele>96.3</ele>
        <time>2013-10-01T18:48:46.420Z</time>
      </trkpt>
      <trkpt lat="48.85359" lon="2.34005">
        <ele>96.5</ele>
        <time>2013-10-01T18:48:47.579Z</time>
      </trkpt>
      <trkpt lat="48.85358" lon="2.34015">
        <ele>96.8</ele>
        <time>2013-10-01T18:48:48.407Z</time>
      </trkpt>
      <trkpt lat="48.85358" lon="2.34024">
        <ele>97</ele>
        <time>2013-10-01T18:48:49.397Z</time>
      </trkpt>
      <trkpt lat="48.85357" lon="2.3403">
        <ele>97</ele>
        <time>2013-10-01T18:48:50.439Z</time>
      </trkpt>
      <trkpt lat="48.85355" lon="2.34036">
        <ele>97.7</ele>
        <time>2013-10-01T18:48:51.429Z</time>
      </trkpt>
      <trkpt lat="48.85353" lon="2.34043">
        <ele>98.8</ele>
        <time>2013-10-01T18:48:52.415Z</time>
      </trkpt>
      <trkpt lat="48.85351" lon="2.3405">
        <ele>99.6</ele>
        <time>2013-10-01T18:48:53.418Z</time>
      </trkpt>
      <trkpt lat="48.85349" lon="2.34058">
        <ele>99.9</ele>
        <time>2013-10-01T18:48:54.425Z</time>
      </trkpt>
      <trkpt lat="48.85347" lon="2.34065">
        <ele>99.1</ele>
        <time>2013-10-01T18:48:55.398Z</time>
      </trkpt>
      <trkpt lat="48.85345" lon="2.34074">
        <ele>99.4</ele>
        <time>2013-10-01T18:48:56.408Z</time>
      </trkpt>
      <trkpt lat="48.85344" lon="2.34086">
        <ele>96.8</ele>
        <time>2013-10-01T18:48:58.418Z</time>
      </trkpt>
      <trkpt lat="48.85344" lon="2.34091">
        <ele>96.4</ele>
        <time>2013-10-01T18:48:59.409Z</time>
      </trkpt>
      <trkpt lat="48.85344" lon="2.34098">
        <ele>95.4</ele>
        <time>2013-10-01T18:49:00.418Z</time>
      </trkpt>
      <trkpt lat="48.85345" lon="2.34105">
        <ele>94.7</ele>
        <time>2013-10-01T18:49:01.450Z</time>
      </trkpt>
      <trkpt lat="48.85349" lon="2.34117">
        <ele>91.4</ele>
        <time>2013-10-01T18:49:03.399Z</time>
      </trkpt>
      <trkpt lat="48.8535" lon="2.34122">
        <ele>89.3</ele>
        <time>2013-10-01T18:49:04.377Z</time>
      </trkpt>
      <trkpt lat="48.85351" lon="2.34133">
        <ele>88.4</ele>
        <time>2013-10-01T18:49:07.462Z</time>
      </trkpt>
      <trkpt lat="48.85352" lon="2.34137">
        <ele>89.5</ele>
        <time>2013-10-01T18:49:07.574Z</time>
      </trkpt>
      <trkpt lat="48.85358" lon="2.34146">
        <ele>90.9</ele>
        <time>2013-10-01T18:49:10.412Z</time>
      </trkpt>
      <trkpt lat="48.85361" lon="2.34148">
        <ele>89.6</ele>
        <time>2013-10-01T18:49:11.399Z</time>
      </trkpt>
      <trkpt lat="48.85368" lon="2.34153">
        <ele>86.3</ele>
        <time>2013-10-01T18:49:13.430Z</time>
      </trkpt>
      <trkpt lat="48.85371" lon="2.34156">
        <ele>87.9</ele>
        <time>2013-10-01T18:49:14.394Z</time>
      </trkpt>
      <trkpt lat="48.8538" lon="2.3416">
        <ele>91.7</ele>
        <time>2013-10-01T18:49:16.446Z</time>
      </trkpt>
      <trkpt lat="48.85384" lon="2.34162">
        <ele>92.2</ele>
        <time>2013-10-01T18:49:17.415Z</time>
      </trkpt>
      <trkpt lat="48.85391" lon="2.34165">
        <ele>92.8</ele>
        <time>2013-10-01T18:49:19.393Z</time>
      </trkpt>
      <trkpt lat="48.85395" lon="2.34166">
        <ele>92.7</ele>
        <time>2013-10-01T18:49:20.387Z</time>
      </trkpt>
      <trkpt lat="48.85402" lon="2.3417">
        <ele>92.7</ele>
        <time>2013-10-01T18:49:22.460Z</time>
      </trkpt>
      <trkpt lat="48.85406" lon="2.34172">
        <ele>92.3</ele>
        <time>2013-10-01T18:49:23.398Z</time>
      </trkpt>
      <trkpt lat="48.85413" lon="2.34175">
        <ele>92.4</ele>
        <time>2013-10-01T18:49:25.397Z</time>
      </trkpt>
      <trkpt lat="48.85417" lon="2.34177">
        <ele>92.4</ele>
        <time>2013-10-01T18:49:26.398Z</time>
      </trkpt>
      <trkpt lat="48.85423" lon="2.34182">
        <ele>92.4</ele>
        <time>2013-10-01T18:49:28.444Z</time>
      </trkpt>
      <trkpt lat="48.85424" lon="2.34187">
        <ele>92.3</ele>
        <time>2013-10-01T18:49:29.450Z</time>
      </trkpt>
      <trkpt lat="48.85427" lon="2.34199">
        <ele>90.1</ele>
        <time>2013-10-01T18:49:31.398Z</time>
      </trkpt>
      <trkpt lat="48.85429" lon="2.34205">
        <ele>91.1</ele>
        <time>2013-10-01T18:49:32.437Z</time>
      </trkpt>
      <trkpt lat="48.85432" lon="2.34217">
        <ele>91.3</ele>
        <time>2013-10-01T18:49:34.410Z</time>
      </trkpt>
      <trkpt lat="48.85434" lon="2.34221">
        <ele>92.2</ele>
        <time>2013-10-01T18:49:35.389Z</time>
      </trkpt>
      <trkpt lat="48.8544" lon="2.3423">
        <ele>77.8</ele>
        <time>2013-10-01T18:49:38.419Z</time>
      </trkpt>
      <trkpt lat="48.85443" lon="2.34232">
        <ele>77.3</ele>
        <time>2013-10-01T18:49:39.408Z</time>
      </trkpt>
      <trkpt lat="48.85447" lon="2.34242">
        <ele>73.5</ele>
        <time>2013-10-01T18:49:42.616Z</time>
      </trkpt>
      <trkpt lat="48.85448" lon="2.34246">
        <ele>70.1</ele>
        <time>2013-10-01T18:49:43.399Z</time>
      </trkpt>
      <trkpt lat="48.85446" lon="2.34258">
        <ele>66.3</ele>
        <time>2013-10-01T18:49:46.419Z</time>
      </trkpt>
      <trkpt lat="48.85445" lon="2.34262">
        <ele>66</ele>
        <time>2013-10-01T18:49:47.418Z</time>
      </trkpt>
      <trkpt lat="48.85441" lon="2.34271">
        <ele>65.3</ele>
        <time>2013-10-01T18:49:49.419Z</time>
      </trkpt>
      <trkpt lat="48.85439" lon="2.34274">
        <ele>67</ele>
        <time>2013-10-01T18:49:50.409Z</time>
      </trkpt>
      <trkpt lat="48.85435" lon="2.34282">
        <ele>66.4</ele>
        <time>2013-10-01T18:49:52.682Z</time>
      </trkpt>
      <trkpt lat="48.85433" lon="2.34286">
        <ele>67.6</ele>
        <time>2013-10-01T18:49:53.406Z</time>
      </trkpt>
      <trkpt lat="48.85429" lon="2.34294">
        <ele>67.1</ele>
        <time>2013-10-01T18:49:55.410Z</time>
      </trkpt>
      <trkpt lat="48.85428" lon="2.34298">
        <ele>67.8</ele>
        <time>2013-10-01T18:49:56.400Z</time>
      </trkpt>
      <trkpt lat="48.85424" lon="2.34307">
        <ele>67.9</ele>
        <time>2013-10-01T18:49:58.438Z</time>
      </trkpt>
      <trkpt lat="48.85423" lon="2.34311">
        <ele>68.2</ele>
        <time>2013-10-01T18:49:59.408Z</time>
      </trkpt>
      <trkpt lat="48.85415" lon="2.34315">
        <ele>70.5</ele>
        <time>2013-10-01T18:50:03.409Z</time>
      </trkpt>
      <trkpt lat="48.85412" lon="2.34314">
        <ele>70.7</ele>
        <time>2013-10-01T18:50:04.411Z</time>
      </trkpt>
      <trkpt lat="48.85405" lon="2.34308">
        <ele>72</ele>
        <time>2013-10-01T18:50:07.489Z</time>
      </trkpt>
      <trkpt lat="48.854" lon="2.34304">
        <ele>72.6</ele>
        <time>2013-10-01T18:50:07.614Z</time>
      </trkpt>
      <trkpt lat="48.85393" lon="2.34296">
        <ele>72.8</ele>
        <time>2013-10-01T18:50:09.425Z</time>
      </trkpt>
      <trkpt lat="48.85389" lon="2.34292">
        <ele>72.4</ele>
        <time>2013-10-01T18:50:10.410Z</time>
      </trkpt>
      <trkpt lat="48.85383" lon="2.34285">
        <ele>72.3</ele>
        <time>2013-10-01T18:50:12.465Z</time>
      </trkpt>
      <trkpt lat="48.8538" lon="2.34281">
        <ele>72.2</ele>
        <time>2013-10-01T18:50:13.501Z</time>
      </trkpt>
      <trkpt lat="48.85374" lon="2.3429">
        <ele>74.1</ele>
        <time>2013-10-01T18:50:23.417Z</time>
      </trkpt>
      <trkpt lat="48.85374" lon="2.34296">
        <ele>74.1</ele>
        <time>2013-10-01T18:50:24.492Z</time>
      </trkpt>
      <trkpt lat="48.85371" lon="2.34306">
        <ele>74.3</ele>
        <time>2013-10-01T18:50:26.529Z</time>
      </trkpt>
      <trkpt lat="48.8537" lon="2.3431">
        <ele>74.4</ele>
        <time>2013-10-01T18:50:27.481Z</time>
      </trkpt>
      <trkpt lat="48.85367" lon="2.34321">
        <ele>73.6</ele>
        <time>2013-10-01T18:50:30.428Z</time>
      </trkpt>
      <trkpt lat="48.85366" lon="2.34323">
        <ele>73.8</ele>
        <time>2013-10-01T18:50:31.502Z</time>
      </trkpt>
      <trkpt lat="48.85366" lon="2.34335">
        <ele>71.3</ele>
        <time>2013-10-01T18:50:47.408Z</time>
      </trkpt>
      <trkpt lat="48.85364" lon="2.34338">
        <ele>70</ele>
        <time>2013-10-01T18:50:48.417Z</time>
      </trkpt>
      <trkpt lat="48.85361" lon="2.3435">
        <ele>69.7</ele>
        <time>2013-10-01T18:50:52.547Z</time>
      </trkpt>
      <trkpt lat="48.85362" lon="2.34354">
        <ele>70.2</ele>
        <time>2013-10-01T18:50:53.384Z</time>
      </trkpt>
      <trkpt lat="48.85365" lon="2.34363">
        <ele>72.2</ele>
        <time>2013-10-01T18:50:56.427Z</time>
      </trkpt>
      <trkpt lat="48.85368" lon="2.34365">
        <ele>71.9</ele>
        <time>2013-10-01T18:50:57.422Z</time>
      </trkpt>
      <trkpt lat="48.85373" lon="2.34369">
        <ele>76.7</ele>
        <time>2013-10-01T18:50:59.427Z</time>
      </trkpt>
      <trkpt lat="48.85377" lon="2.3437">
        <ele>77.7</ele>
        <time>2013-10-01T18:51:00.452Z</time>
      </trkpt>
      <trkpt lat="48.85383" lon="2.34375">
        <ele>74.3</ele>
        <time>2013-10-01T18:51:02.566Z</time>
      </trkpt>
      <trkpt lat="48.85386" lon="2.34377">
        <ele>75.5</ele>
        <time>2013-10-01T18:51:03.421Z</time>
      </trkpt>
      <trkpt lat="48.85386" lon="2.34391">
        <ele>80.5</ele>
        <time>2013-10-01T18:51:18.438Z</time>
      </trkpt>
      <trkpt lat="48.85386" lon="2.34391">
        <ele>80.5</ele>
        <time>2013-10-01T18:51:19.638Z</time>
      </trkpt>
      <trkpt lat="48.85386" lon="2.34391">
        <ele>80.5</ele>
        <time>2013-10-01T18:51:20.607Z</time>
      </trkpt>
      <trkpt lat="48.85387" lon="2.34391">
        <ele>80.7</ele>
        <time>2013-10-01T18:52:11.427Z</time>
      </trkpt>
      <trkpt lat="48.85388" lon="2.34391">
        <ele>80.2</ele>
        <time>2013-10-01T18:52:12.421Z</time>
      </trkpt>
      <trkpt lat="48.85395" lon="2.34395">
        <ele>78.7</ele>
        <time>2013-10-01T18:52:18.443Z</time>
      </trkpt>
      <trkpt lat="48.85396" lon="2.34396">
        <ele>79.8</ele>
        <time>2013-10-01T18:52:19.390Z</time>
      </trkpt>
      <trkpt lat="48.85395" lon="2.34409">
        <ele>80.5</ele>
        <time>2013-10-01T18:52:27.458Z</time>
      </trkpt>
      <trkpt lat="48.85394" lon="2.34412">
        <ele>80.7</ele>
        <time>2013-10-01T18:52:28.430Z</time>
      </trkpt>
      <trkpt lat="48.85391" lon="2.34424">
        <ele>79.8</ele>
        <time>2013-10-01T18:52:32.573Z</time>
      </trkpt>
      <trkpt lat="48.85391" lon="2.34427">
        <ele>79.4</ele>
        <time>2013-10-01T18:52:33.427Z</time>
      </trkpt>
      <trkpt lat="48.8539" lon="2.34439">
        <ele>79.2</ele>
        <time>2013-10-01T18:52:37.681Z</time>
      </trkpt>
      <trkpt lat="48.8539" lon="2.34441">
        <ele>79.1</ele>
        <time>2013-10-01T18:52:38.538Z</time>
      </trkpt>
      <trkpt lat="48.85393" lon="2.3444">
        <ele>76</ele>
        <time>2013-10-01T18:52:46.626Z</time>
      </trkpt>
      <trkpt lat="48.85393" lon="2.3444">
        <ele>75.9</ele>
        <time>2013-10-01T18:52:47.640Z</time>
      </trkpt>
      <trkpt lat="48.85393" lon="2.3444">
        <ele>75.8</ele>
        <time>2013-10-01T18:52:48.529Z</time>
      </trkpt>
      <trkpt lat="48.85392" lon="2.34441">
        <ele>74.9</ele>
        <time>2013-10-01T18:52:49.690Z</time>
      </trkpt>
      <trkpt lat="48.85393" lon="2.3445">
        <ele>71</ele>
        <time>2013-10-01T18:52:52.731Z</time>
      </trkpt>
      <trkpt lat="48.85395" lon="2.34455">
        <ele>71</ele>
        <time>2013-10-01T18:52:53.614Z</time>
      </trkpt>
      <trkpt lat="48.854" lon="2.34463">
        <ele>72.1</ele>
        <time>2013-10-01T18:52:55.610Z</time>
      </trkpt>
      <trkpt lat="48.85403" lon="2.34466">
        <ele>72.6</ele>
        <time>2013-10-01T18:52:56.635Z</time>
      </trkpt>
      <trkpt lat="48.85409" lon="2.34473">
        <ele>73</ele>
        <time>2013-10-01T18:52:58.699Z</time>
      </trkpt>
      <trkpt lat="48.85411" lon="2.34476">
        <ele>72.9</ele>
        <time>2013-10-01T18:52:59.439Z</time>
      </trkpt>
      <trkpt lat="48.85418" lon="2.34482">
        <ele>73.5</ele>
        <time>2013-10-01T18:53:01.426Z</time>
      </trkpt>
      <trkpt lat="48.85421" lon="2.34485">
        <ele>73.1</ele>
        <time>2013-10-01T18:53:02.680Z</time>
      </trkpt>
      <trkpt lat="48.85427" lon="2.34491">
        <ele>73.5</ele>
        <time>2013-10-01T18:53:04.599Z</time>
      </trkpt>
      <trkpt lat="48.85429" lon="2.34494">
        <ele>73.7</ele>
        <time>2013-10-01T18:53:05.639Z</time>
      </trkpt>
      <trkpt lat="48.85433" lon="2.34505">
        <ele>77.4</ele>
        <time>2013-10-01T18:53:08.455Z</time>
      </trkpt>
      <trkpt lat="48.85433" lon="2.3451">
        <ele>77.1</ele>
        <time>2013-10-01T18:53:09.669Z</time>
      </trkpt>
      <trkpt lat="48.85429" lon="2.3452">
        <ele>77.2</ele>
        <time>2013-10-01T18:53:12.482Z</time>
      </trkpt>
      <trkpt lat="48.85426" lon="2.34524">
        <ele>78.5</ele>
        <time>2013-10-01T18:53:12.597Z</time>
      </trkpt>
      <trkpt lat="48.85422" lon="2.34535">
        <ele>77.6</ele>
        <time>2013-10-01T18:53:14.649Z</time>
      </trkpt>
      <trkpt lat="48.85421" lon="2.34541">
        <ele>78.2</ele>
        <time>2013-10-01T18:53:15.479Z</time>
      </trkpt>
      <trkpt lat="48.8542" lon="2.3455">
        <ele>78.1</ele>
        <time>2013-10-01T18:53:16.634Z</time>
      </trkpt>
      <trkpt lat="48.85418" lon="2.34556">
        <ele>79</ele>
        <time>2013-10-01T18:53:17.434Z</time>
      </trkpt>
      <trkpt lat="48.85416" lon="2.34565">
        <ele>78.6</ele>
        <time>2013-10-01T18:53:18.641Z</time>
      </trkpt>
      <trkpt lat="48.85415" lon="2.34571">
        <ele>78.4</ele>
        <time>2013-10-01T18:53:19.459Z</time>
      </trkpt>
      <trkpt lat="48.85413" lon="2.34579">
        <ele>78</ele>
        <time>2013-10-01T18:53:20.576Z</time>
      </trkpt>
      <trkpt lat="48.85411" lon="2.34586">
        <ele>78.1</ele>
        <time>2013-10-01T18:53:21.641Z</time>
      </trkpt>
      <trkpt lat="48.85409" lon="2.34593">
        <ele>78.1</ele>
        <time>2013-10-01T18:53:22.527Z</time>
      </trkpt>
      <trkpt lat="48.85406" lon="2.346">
        <ele>78.8</ele>
        <time>2013-10-01T18:53:23.459Z</time>
      </trkpt>
      <trkpt lat="48.85403" lon="2.34606">
        <ele>80.4</ele>
        <time>2013-10-01T18:53:24.507Z</time>
      </trkpt>
      <trkpt lat="48.854" lon="2.34613">
        <ele>80.3</ele>
        <time>2013-10-01T18:53:25.647Z</time>
      </trkpt>
      <trkpt lat="48.85398" lon="2.34619">
        <ele>80.2</ele>
        <time>2013-10-01T18:53:27.651Z</time>
      </trkpt>
      <trkpt lat="48.85395" lon="2.34627">
        <ele>80.8</ele>
        <time>2013-10-01T18:53:27.696Z</time>
      </trkpt>
      <trkpt lat="48.85393" lon="2.34634">
        <ele>79.4</ele>
        <time>2013-10-01T18:53:28.462Z</time>
      </trkpt>
      <trkpt lat="48.85391" lon="2.34641">
        <ele>79.1</ele>
        <time>2013-10-01T18:53:29.590Z</time>
      </trkpt>
      <trkpt lat="48.85389" lon="2.34648">
        <ele>79.8</ele>
        <time>2013-10-01T18:53:30.579Z</time>
      </trkpt>
      <trkpt lat="48.85387" lon="2.34654">
        <ele>80.5</ele>
        <time>2013-10-01T18:53:31.538Z</time>
      </trkpt>
      <trkpt lat="48.85385" lon="2.34661">
        <ele>80</ele>
        <time>2013-10-01T18:53:32.608Z</time>
      </trkpt>
      <trkpt lat="48.85384" lon="2.34667">
        <ele>81.1</ele>
        <time>2013-10-01T18:53:33.457Z</time>
      </trkpt>
      <trkpt lat="48.85382" lon="2.34676">
        <ele>80.5</ele>
        <time>2013-10-01T18:53:34.649Z</time>
      </trkpt>
      <trkpt lat="48.8538" lon="2.34681">
        <ele>80.5</ele>
        <time>2013-10-01T18:53:35.430Z</time>
      </trkpt>
      <trkpt lat="48.85375" lon="2.3469">
        <ele>79.7</ele>
        <time>2013-10-01T18:53:37.559Z</time>
      </trkpt>
      <trkpt lat="48.85373" lon="2.34694">
        <ele>79.1</ele>
        <time>2013-10-01T18:53:38.579Z</time>
      </trkpt>
      <trkpt lat="48.85366" lon="2.34702">
        <ele>82.9</ele>
        <time>2013-10-01T18:53:44.467Z</time>
      </trkpt>
      <trkpt lat="48.85366" lon="2.34704">
        <ele>81.9</ele>
        <time>2013-10-01T18:53:45.611Z</time>
      </trkpt>
      <trkpt lat="48.85369" lon="2.34709">
        <ele>80.7</ele>
        <time>2013-10-01T18:53:53.513Z</time>
      </trkpt>
      <trkpt lat="48.85369" lon="2.34709">
        <ele>80.6</ele>
        <time>2013-10-01T18:53:54.570Z</time>
      </trkpt>
      <trkpt lat="48.85369" lon="2.34708">
        <ele>80.8</ele>
        <time>2013-10-01T18:53:55.617Z</time>
      </trkpt>
      <trkpt lat="48.85368" lon="2.34706">
        <ele>80.7</ele>
        <time>2013-10-01T18:53:59.589Z</time>
      </trkpt>
      <trkpt lat="48.85368" lon="2.34706">
        <ele>80.8</ele>
        <time>2013-10-01T18:54:00.457Z</time>
      </trkpt>
      <trkpt lat="48.85369" lon="2.34707">
        <ele>82</ele>
        <time>2013-10-01T18:54:07.631Z</time>
      </trkpt>
      <trkpt lat="48.85369" lon="2.34708">
        <ele>83.3</ele>
        <time>2013-10-01T18:54:08.430Z</time>
      </trkpt>
      <trkpt lat="48.85369" lon="2.34721">
        <ele>87.1</ele>
        <time>2013-10-01T18:54:13.006Z</time>
      </trkpt>
      <trkpt lat="48.85368" lon="2.34725">
        <ele>89.1</ele>
        <time>2013-10-01T18:54:13.441Z</time>
      </trkpt>
      <trkpt lat="48.85368" lon="2.34735">
        <ele>89.2</ele>
        <time>2013-10-01T18:54:15.460Z</time>
      </trkpt>
      <trkpt lat="48.85368" lon="2.34742">
        <ele>89.6</ele>
        <time>2013-10-01T18:54:16.440Z</time>
      </trkpt>
      <trkpt lat="48.85371" lon="2.34754">
        <ele>90.6</ele>
        <time>2013-10-01T18:54:18.475Z</time>
      </trkpt>
      <trkpt lat="48.85373" lon="2.34759">
        <ele>90.6</ele>
        <time>2013-10-01T18:54:19.450Z</time>
      </trkpt>
      <trkpt lat="48.8538" lon="2.34766">
        <ele>91</ele>
        <time>2013-10-01T18:54:21.448Z</time>
      </trkpt>
      <trkpt lat="48.85383" lon="2.34769">
        <ele>90.4</ele>
        <time>2013-10-01T18:54:22.427Z</time>
      </trkpt>
      <trkpt lat="48.8539" lon="2.34775">
        <ele>89.4</ele>
        <time>2013-10-01T18:54:24.436Z</time>
      </trkpt>
      <trkpt lat="48.85392" lon="2.34779">
        <ele>91.8</ele>
        <time>2013-10-01T18:54:25.416Z</time>
      </trkpt>
      <trkpt lat="48.85394" lon="2.34789">
        <ele>92.7</ele>
        <time>2013-10-01T18:54:27.615Z</time>
      </trkpt>
      <trkpt lat="48.85393" lon="2.34796">
        <ele>92.7</ele>
        <time>2013-10-01T18:54:28.458Z</time>
      </trkpt>
      <trkpt lat="48.85391" lon="2.34803">
        <ele>92.4</ele>
        <time>2013-10-01T18:54:29.443Z</time>
      </trkpt>
      <trkpt lat="48.85389" lon="2.34811">
        <ele>92.7</ele>
        <time>2013-10-01T18:54:30.431Z</time>
      </trkpt>
      <trkpt lat="48.85386" lon="2.3482">
        <ele>91.6</ele>
        <time>2013-10-01T18:54:31.408Z</time>
      </trkpt>
      <trkpt lat="48.85382" lon="2.3483">
        <ele>90.2</ele>
        <time>2013-10-01T18:54:32.456Z</time>
      </trkpt>
      <trkpt lat="48.85379" lon="2.34838">
        <ele>89.2</ele>
        <time>2013-10-01T18:54:33.436Z</time>
      </trkpt>
      <trkpt lat="48.85377" lon="2.34847">
        <ele>88.9</ele>
        <time>2013-10-01T18:54:34.451Z</time>
      </trkpt>
      <trkpt lat="48.85375" lon="2.34855">
        <ele>89.1</ele>
        <time>2013-10-01T18:54:35.441Z</time>
      </trkpt>
      <trkpt lat="48.85374" lon="2.34861">
        <ele>89.1</ele>
        <time>2013-10-01T18:54:36.402Z</time>
      </trkpt>
      <trkpt lat="48.8537" lon="2.34873">
        <ele>93.6</ele>
        <time>2013-10-01T18:54:38.428Z</time>
      </trkpt>
      <trkpt lat="48.85369" lon="2.34878">
        <ele>95.4</ele>
        <time>2013-10-01T18:54:39.428Z</time>
      </trkpt>
      <trkpt lat="48.85365" lon="2.34889">
        <ele>95.5</ele>
        <time>2013-10-01T18:54:41.431Z</time>
      </trkpt>
      <trkpt lat="48.85364" lon="2.34896">
        <ele>95.5</ele>
        <time>2013-10-01T18:54:42.443Z</time>
      </trkpt>
      <trkpt lat="48.85363" lon="2.34909">
        <ele>93.4</ele>
        <time>2013-10-01T18:54:44.428Z</time>
      </trkpt>
      <trkpt lat="48.85363" lon="2.34915">
        <ele>92.7</ele>
        <time>2013-10-01T18:54:45.440Z</time>
      </trkpt>
      <trkpt lat="48.85362" lon="2.34928">
        <ele>92.6</ele>
        <time>2013-10-01T18:54:47.516Z</time>
      </trkpt>
      <trkpt lat="48.85361" lon="2.34934">
        <ele>93.2</ele>
        <time>2013-10-01T18:54:48.448Z</time>
      </trkpt>
      <trkpt lat="48.85357" lon="2.34945">
        <ele>93.2</ele>
        <time>2013-10-01T18:54:50.458Z</time>
      </trkpt>
      <trkpt lat="48.85354" lon="2.3495">
        <ele>95.1</ele>
        <time>2013-10-01T18:54:51.429Z</time>
      </trkpt>
      <trkpt lat="48.85348" lon="2.3496">
        <ele>96.2</ele>
        <time>2013-10-01T18:54:53.438Z</time>
      </trkpt>
      <trkpt lat="48.85346" lon="2.34965">
        <ele>96.8</ele>
        <time>2013-10-01T18:54:54.446Z</time>
      </trkpt>
      <trkpt lat="48.85341" lon="2.34975">
        <ele>96.5</ele>
        <time>2013-10-01T18:54:56.402Z</time>
      </trkpt>
      <trkpt lat="48.85338" lon="2.34981">
        <ele>96.6</ele>
        <time>2013-10-01T18:54:57.493Z</time>
      </trkpt>
      <trkpt lat="48.85334" lon="2.34993">
        <ele>98</ele>
        <time>2013-10-01T18:54:59.439Z</time>
      </trkpt>
      <trkpt lat="48.85333" lon="2.35">
        <ele>98.5</ele>
        <time>2013-10-01T18:55:00.500Z</time>
      </trkpt>
      <trkpt lat="48.85332" lon="2.35006">
        <ele>98.1</ele>
        <time>2013-10-01T18:55:01.451Z</time>
      </trkpt>
      <trkpt lat="48.85328" lon="2.35012">
        <ele>98.4</ele>
        <time>2013-10-01T18:55:02.438Z</time>
      </trkpt>
      <trkpt lat="48.85325" lon="2.35017">
        <ele>97.6</ele>
        <time>2013-10-01T18:55:03.462Z</time>
      </trkpt>
      <trkpt lat="48.85323" lon="2.35023">
        <ele>96.6</ele>
        <time>2013-10-01T18:55:04.419Z</time>
      </trkpt>
      <trkpt lat="48.85321" lon="2.35036">
        <ele>96</ele>
        <time>2013-10-01T18:55:06.440Z</time>
      </trkpt>
      <trkpt lat="48.8532" lon="2.35042">
        <ele>95.8</ele>
        <time>2013-10-01T18:55:07.636Z</time>
      </trkpt>
      <trkpt lat="48.85325" lon="2.35051">
        <ele>96.7</ele>
        <time>2013-10-01T18:55:12.477Z</time>
      </trkpt>
      <trkpt lat="48.85326" lon="2.35053">
        <ele>97.2</ele>
        <time>2013-10-01T18:55:13.443Z</time>
      </trkpt>
      <trkpt lat="48.85331" lon="2.35057">
        <ele>98.6</ele>
        <time>2013-10-01T18:55:15.456Z</time>
      </trkpt>
      <trkpt lat="48.85335" lon="2.3506">
        <ele>97.7</ele>
        <time>2013-10-01T18:55:16.449Z</time>
      </trkpt>
      <trkpt lat="48.8534" lon="2.35064">
        <ele>99.1</ele>
        <time>2013-10-01T18:55:17.462Z</time>
      </trkpt>
      <trkpt lat="48.85344" lon="2.35068">
        <ele>99.6</ele>
        <time>2013-10-01T18:55:18.474Z</time>
      </trkpt>
      <trkpt lat="48.8535" lon="2.35071">
        <ele>100</ele>
        <time>2013-10-01T18:55:19.466Z</time>
      </trkpt>
      <trkpt lat="48.85355" lon="2.35074">
        <ele>98.5</ele>
        <time>2013-10-01T18:55:20.468Z</time>
      </trkpt>
      <trkpt lat="48.85361" lon="2.35076">
        <ele>96.5</ele>
        <time>2013-10-01T18:55:21.649Z</time>
      </trkpt>
      <trkpt lat="48.85366" lon="2.35077">
        <ele>96.2</ele>
        <time>2013-10-01T18:55:22.439Z</time>
      </trkpt>
      <trkpt lat="48.85372" lon="2.35076">
        <ele>95.3</ele>
        <time>2013-10-01T18:55:23.626Z</time>
      </trkpt>
      <trkpt lat="48.85376" lon="2.35072">
        <ele>94.7</ele>
        <time>2013-10-01T18:55:24.543Z</time>
      </trkpt>
      <trkpt lat="48.85379" lon="2.35067">
        <ele>93.2</ele>
        <time>2013-10-01T18:55:25.578Z</time>
      </trkpt>
      <trkpt lat="48.85383" lon="2.35061">
        <ele>93.1</ele>
        <time>2013-10-01T18:55:26.619Z</time>
      </trkpt>
      <trkpt lat="48.85385" lon="2.35054">
        <ele>93.3</ele>
        <time>2013-10-01T18:55:27.535Z</time>
      </trkpt>
      <trkpt lat="48.85388" lon="2.35046">
        <ele>93.4</ele>
        <time>2013-10-01T18:55:28.659Z</time>
      </trkpt>
      <trkpt lat="48.8539" lon="2.3504">
        <ele>93.9</ele>
        <time>2013-10-01T18:55:29.451Z</time>
      </trkpt>
      <trkpt lat="48.85392" lon="2.35033">
        <ele>93.6</ele>
        <time>2013-10-01T18:55:30.651Z</time>
      </trkpt>
      <trkpt lat="48.85396" lon="2.35023">
        <ele>94.9</ele>
        <time>2013-10-01T18:55:32.632Z</time>
      </trkpt>
      <trkpt lat="48.85398" lon="2.35018">
        <ele>95.7</ele>
        <time>2013-10-01T18:55:33.658Z</time>
      </trkpt>
      <trkpt lat="48.85403" lon="2.35011">
        <ele>94.4</ele>
        <time>2013-10-01T18:55:35.454Z</time>
      </trkpt>
      <trkpt lat="48.85406" lon="2.35007">
        <ele>94.2</ele>
        <time>2013-10-01T18:55:36.497Z</time>
      </trkpt>
      <trkpt lat="48.85411" lon="2.35">
        <ele>94.9</ele>
        <time>2013-10-01T18:55:38.450Z</time>
      </trkpt>
      <trkpt lat="48.85414" lon="2.34997">
        <ele>95.2</ele>
        <time>2013-10-01T18:55:39.453Z</time>
      </trkpt>
      <trkpt lat="48.85423" lon="2.34996">
        <ele>95.6</ele>
        <time>2013-10-01T18:55:44.445Z</time>
      </trkpt>
      <trkpt lat="48.85424" lon="2.35">
        <ele>94.3</ele>
        <time>2013-10-01T18:55:45.469Z</time>
      </trkpt>
      <trkpt lat="48.85425" lon="2.35009">
        <ele>95.4</ele>
        <time>2013-10-01T18:55:47.692Z</time>
      </trkpt>
      <trkpt lat="48.85426" lon="2.35014">
        <ele>95</ele>
        <time>2013-10-01T18:55:48.479Z</time>
      </trkpt>
      <trkpt lat="48.8543" lon="2.35025">
        <ele>95.1</ele>
        <time>2013-10-01T18:55:51.472Z</time>
      </trkpt>
      <trkpt lat="48.85432" lon="2.35027">
        <ele>95</ele>
        <time>2013-10-01T18:55:52.473Z</time>
      </trkpt>
      <trkpt lat="48.8544" lon="2.3503">
        <ele>95.2</ele>
        <time>2013-10-01T18:55:55.469Z</time>
      </trkpt>
      <trkpt lat="48.85443" lon="2.3503">
        <ele>95.5</ele>
        <time>2013-10-01T18:55:56.449Z</time>
      </trkpt>
      <trkpt lat="48.85451" lon="2.35035">
        <ele>95.5</ele>
        <time>2013-10-01T18:55:59.436Z</time>
      </trkpt>
      <trkpt lat="48.85453" lon="2.35037">
        <ele>94</ele>
        <time>2013-10-01T18:56:00.468Z</time>
      </trkpt>
      <trkpt lat="48.85451" lon="2.35049">
        <ele>91.4</ele>
        <time>2013-10-01T18:56:05.448Z</time>
      </trkpt>
      <trkpt lat="48.8545" lon="2.35051">
        <ele>91.6</ele>
        <time>2013-10-01T18:56:06.438Z</time>
      </trkpt>
      <trkpt lat="48.85443" lon="2.35059">
        <ele>91.8</ele>
        <time>2013-10-01T18:56:10.445Z</time>
      </trkpt>
      <trkpt lat="48.85442" lon="2.35062">
        <ele>90.9</ele>
        <time>2013-10-01T18:56:11.480Z</time>
      </trkpt>
      <trkpt lat="48.85437" lon="2.35074">
        <ele>91.6</ele>
        <time>2013-10-01T18:56:14.437Z</time>
      </trkpt>
      <trkpt lat="48.85436" lon="2.35077">
        <ele>90.5</ele>
        <time>2013-10-01T18:56:15.477Z</time>
      </trkpt>
      <trkpt lat="48.85433" lon="2.35088">
        <ele>89.3</ele>
        <time>2013-10-01T18:56:18.473Z</time>
      </trkpt>
      <trkpt lat="48.85433" lon="2.35092">
        <ele>89.1</ele>
        <time>2013-10-01T18:56:19.418Z</time>
      </trkpt>
      <trkpt lat="48.85433" lon="2.35096">
        <ele>88.9</ele>
        <time>2013-10-01T18:56:25.441Z</time>
      </trkpt>
      <trkpt lat="48.85433" lon="2.35095">
        <ele>89.1</ele>
        <time>2013-10-01T18:56:26.442Z</time>
      </trkpt>
      <trkpt lat="48.85432" lon="2.35094">
        <ele>88.8</ele>
        <time>2013-10-01T18:56:28.483Z</time>
      </trkpt>
      <trkpt lat="48.85432" lon="2.35094">
        <ele>88.8</ele>
        <time>2013-10-01T18:56:29.488Z</time>
      </trkpt>
      <trkpt lat="48.85425" lon="2.35098">
        <ele>86.6</ele>
        <time>2013-10-01T18:56:35.446Z</time>
      </trkpt>
      <trkpt lat="48.85422" lon="2.351">
        <ele>87.1</ele>
        <time>2013-10-01T18:56:36.423Z</time>
      </trkpt>
      <trkpt lat="48.85416" lon="2.35107">
        <ele>87.1</ele>
        <time>2013-10-01T18:56:38.440Z</time>
      </trkpt>
      <trkpt lat="48.85413" lon="2.3511">
        <ele>87.9</ele>
        <time>2013-10-01T18:56:39.469Z</time>
      </trkpt>
      <trkpt lat="48.85407" lon="2.3512">
        <ele>86.1</ele>
        <time>2013-10-01T18:56:41.454Z</time>
      </trkpt>
      <trkpt lat="48.85405" lon="2.35126">
        <ele>85.3</ele>
        <time>2013-10-01T18:56:42.443Z</time>
      </trkpt>
      <trkpt lat="48.85403" lon="2.35132">
        <ele>86.3</ele>
        <time>2013-10-01T18:56:43.448Z</time>
      </trkpt>
      <trkpt lat="48.85401" lon="2.35139">
        <ele>86.2</ele>
        <time>2013-10-01T18:56:44.453Z</time>
      </trkpt>
      <trkpt lat="48.85398" lon="2.35151">
        <ele>87.2</ele>
        <time>2013-10-01T18:56:46.449Z</time>
      </trkpt>
      <trkpt lat="48.85397" lon="2.35157">
        <ele>89.6</ele>
        <time>2013-10-01T18:56:47.457Z</time>
      </trkpt>
      <trkpt lat="48.85392" lon="2.35168">
        <ele>86.4</ele>
        <time>2013-10-01T18:56:50.569Z</time>
      </trkpt>
      <trkpt lat="48.85391" lon="2.35169">
        <ele>85.7</ele>
        <time>2013-10-01T18:56:51.519Z</time>
      </trkpt>
      <trkpt lat="48.85386" lon="2.35173">
        <ele>86.1</ele>
        <time>2013-10-01T18:57:01.473Z</time>
      </trkpt>
      <trkpt lat="48.85386" lon="2.35173">
        <ele>86.9</ele>
        <time>2013-10-01T18:57:02.459Z</time>
      </trkpt>
      <trkpt lat="48.85386" lon="2.35174">
        <ele>85.1</ele>
        <time>2013-10-01T18:57:07.661Z</time>
      </trkpt>
      <trkpt lat="48.85385" lon="2.35174">
        <ele>84.7</ele>
        <time>2013-10-01T18:57:08.459Z</time>
      </trkpt>
      <trkpt lat="48.85379" lon="2.35181">
        <ele>80.9</ele>
        <time>2013-10-01T18:57:15.451Z</time>
      </trkpt>
      <trkpt lat="48.85377" lon="2.35183">
        <ele>81.3</ele>
        <time>2013-10-01T18:57:16.457Z</time>
      </trkpt>
      <trkpt lat="48.85371" lon="2.3519">
        <ele>80.6</ele>
        <time>2013-10-01T18:57:19.449Z</time>
      </trkpt>
      <trkpt lat="48.8537" lon="2.35193">
        <ele>83</ele>
        <time>2013-10-01T18:57:20.459Z</time>
      </trkpt>
      <trkpt lat="48.85366" lon="2.35201">
        <ele>84.7</ele>
        <time>2013-10-01T18:57:22.489Z</time>
      </trkpt>
      <trkpt lat="48.85364" lon="2.35205">
        <ele>83.7</ele>
        <time>2013-10-01T18:57:23.459Z</time>
      </trkpt>
      <trkpt lat="48.85357" lon="2.3521">
        <ele>83.4</ele>
        <time>2013-10-01T18:57:25.459Z</time>
      </trkpt>
      <trkpt lat="48.85353" lon="2.35212">
        <ele>83</ele>
        <time>2013-10-01T18:57:26.441Z</time>
      </trkpt>
      <trkpt lat="48.85344" lon="2.35213">
        <ele>84</ele>
        <time>2013-10-01T18:57:28.460Z</time>
      </trkpt>
      <trkpt lat="48.8534" lon="2.35213">
        <ele>85.2</ele>
        <time>2013-10-01T18:57:29.439Z</time>
      </trkpt>
      <trkpt lat="48.85335" lon="2.35214">
        <ele>84.5</ele>
        <time>2013-10-01T18:57:30.505Z</time>
      </trkpt>
      <trkpt lat="48.85331" lon="2.35215">
        <ele>84.6</ele>
        <time>2013-10-01T18:57:31.470Z</time>
      </trkpt>
      <trkpt lat="48.85326" lon="2.35215">
        <ele>84.6</ele>
        <time>2013-10-01T18:57:32.539Z</time>
      </trkpt>
      <trkpt lat="48.85321" lon="2.35215">
        <ele>86</ele>
        <time>2013-10-01T18:57:33.477Z</time>
      </trkpt>
      <trkpt lat="48.85317" lon="2.35215">
        <ele>86.3</ele>
        <time>2013-10-01T18:57:34.447Z</time>
      </trkpt>
      <trkpt lat="48.85312" lon="2.35215">
        <ele>85.8</ele>
        <time>2013-10-01T18:57:35.461Z</time>
      </trkpt>
      <trkpt lat="48.85307" lon="2.35216">
        <ele>85.9</ele>
        <time>2013-10-01T18:57:36.422Z</time>
      </trkpt>
      <trkpt lat="48.85302" lon="2.35216">
        <ele>85.1</ele>
        <time>2013-10-01T18:57:37.448Z</time>
      </trkpt>
      <trkpt lat="48.85297" lon="2.35217">
        <ele>84.7</ele>
        <time>2013-10-01T18:57:38.460Z</time>
      </trkpt>
      <trkpt lat="48.85293" lon="2.35219">
        <ele>84.8</ele>
        <time>2013-10-01T18:57:39.461Z</time>
      </trkpt>
      <trkpt lat="48.85286" lon="2.35222">
        <ele>84.7</ele>
        <time>2013-10-01T18:57:41.439Z</time>
      </trkpt>
      <trkpt lat="48.85282" lon="2.35222">
        <ele>84.2</ele>
        <time>2013-10-01T18:57:42.456Z</time>
      </trkpt>
      <trkpt lat="48.85276" lon="2.35224">
        <ele>84.7</ele>
        <time>2013-10-01T18:57:44.469Z</time>
      </trkpt>
      <trkpt lat="48.85273" lon="2.35226">
        <ele>84.3</ele>
        <time>2013-10-01T18:57:45.459Z</time>
      </trkpt>
      <trkpt lat="48.85271" lon="2.35236">
        <ele>87.8</ele>
        <time>2013-10-01T18:57:48.416Z</time>
      </trkpt>
      <trkpt lat="48.85271" lon="2.35239">
        <ele>87.6</ele>
        <time>2013-10-01T18:57:49.479Z</time>
      </trkpt>
      <trkpt lat="48.85275" lon="2.3525">
        <ele>89.7</ele>
        <time>2013-10-01T18:57:52.669Z</time>
      </trkpt>
      <trkpt lat="48.85276" lon="2.35255">
        <ele>89.6</ele>
        <time>2013-10-01T18:57:53.476Z</time>
      </trkpt>
      <trkpt lat="48.85278" lon="2.35263">
        <ele>93.6</ele>
        <time>2013-10-01T18:57:55.493Z</time>
      </trkpt>
      <trkpt lat="48.85279" lon="2.35268">
        <ele>94.8</ele>
        <time>2013-10-01T18:57:56.601Z</time>
      </trkpt>
      <trkpt lat="48.8528" lon="2.35279">
        <ele>94.5</ele>
        <time>2013-10-01T18:57:59.483Z</time>
      </trkpt>
      <trkpt lat="48.85281" lon="2.35283">
        <ele>95.2</ele>
        <time>2013-10-01T18:58:00.469Z</time>
      </trkpt>
      <trkpt lat="48.85281" lon="2.35293">
        <ele>95.7</ele>
        <time>2013-10-01T18:58:03.630Z</time>
      </trkpt>
      <trkpt lat="48.85281" lon="2.35297">
        <ele>95.7</ele>
        <time>2013-10-01T18:58:04.640Z</time>
      </trkpt>
      <trkpt lat="48.85284" lon="2.35308">
        <ele>93.6</ele>
        <time>2013-10-01T18:58:07.730Z</time>
      </trkpt>
      <trkpt lat="48.85284" lon="2.35311">
        <ele>93.8</ele>
        <time>2013-10-01T18:58:08.679Z</time>
      </trkpt>
      <trkpt lat="48.85284" lon="2.35323">
        <ele>88.5</ele>
        <time>2013-10-01T18:58:13.629Z</time>
      </trkpt>
      <trkpt lat="48.85284" lon="2.35325">
        <ele>88.4</ele>
        <time>2013-10-01T18:58:14.530Z</time>
      </trkpt>
      <trkpt lat="48.85289" lon="2.35336">
        <ele>88.2</ele>
        <time>2013-10-01T18:58:19.478Z</time>
      </trkpt>
      <trkpt lat="48.85289" lon="2.35338">
        <ele>88.4</ele>
        <time>2013-10-01T18:58:20.456Z</time>
      </trkpt>
      <trkpt lat="48.85294" lon="2.35347">
        <ele>88.1</ele>
        <time>2013-10-01T18:58:32.650Z</time>
      </trkpt>
      <trkpt lat="48.85295" lon="2.35348">
        <ele>89.5</ele>
        <time>2013-10-01T18:58:33.448Z</time>
      </trkpt>
      <trkpt lat="48.85301" lon="2.35345">
        <ele>90.4</ele>
        <time>2013-10-01T18:58:52.842Z</time>
      </trkpt>
      <trkpt lat="48.85301" lon="2.35345">
        <ele>90.4</ele>
        <time>2013-10-01T18:58:53.450Z</time>
      </trkpt>
      <trkpt lat="48.853" lon="2.35345">
        <ele>91.3</ele>
        <time>2013-10-01T19:00:32.615Z</time>
      </trkpt>
      <trkpt lat="48.853" lon="2.35344">
        <ele>91.6</ele>
        <time>2013-10-01T19:00:33.458Z</time>
      </trkpt>
      <trkpt lat="48.85298" lon="2.35344">
        <ele>93.3</ele>
        <time>2013-10-01T19:00:38.489Z</time>
      </trkpt>
      <trkpt lat="48.85298" lon="2.35344">
        <ele>93.2</ele>
        <time>2013-10-01T19:00:39.506Z</time>
      </trkpt>
      <trkpt lat="48.85297" lon="2.35345">
        <ele>92.7</ele>
        <time>2013-10-01T19:01:09.630Z</time>
      </trkpt>
      <trkpt lat="48.85296" lon="2.35347">
        <ele>89.7</ele>
        <time>2013-10-01T19:01:10.545Z</time>
      </trkpt>
      <trkpt lat="48.85293" lon="2.35353">
        <ele>90.4</ele>
        <time>2013-10-01T19:01:12.477Z</time>
      </trkpt>
      <trkpt lat="48.8529" lon="2.35359">
        <ele>91</ele>
        <time>2013-10-01T19:01:13.644Z</time>
      </trkpt>
      <trkpt lat="48.85286" lon="2.3537">
        <ele>90.9</ele>
        <time>2013-10-01T19:01:15.552Z</time>
      </trkpt>
      <trkpt lat="48.85284" lon="2.35375">
        <ele>91.2</ele>
        <time>2013-10-01T19:01:16.538Z</time>
      </trkpt>
      <trkpt lat="48.85281" lon="2.35386">
        <ele>91.9</ele>
        <time>2013-10-01T19:01:18.594Z</time>
      </trkpt>
      <trkpt lat="48.8528" lon="2.35391">
        <ele>91.9</ele>
        <time>2013-10-01T19:01:19.509Z</time>
      </trkpt>
      <trkpt lat="48.85278" lon="2.35402">
        <ele>91.5</ele>
        <time>2013-10-01T19:01:21.540Z</time>
      </trkpt>
      <trkpt lat="48.85277" lon="2.35407">
        <ele>91.5</ele>
        <time>2013-10-01T19:01:22.613Z</time>
      </trkpt>
      <trkpt lat="48.85271" lon="2.35416">
        <ele>90.2</ele>
        <time>2013-10-01T19:01:27.499Z</time>
      </trkpt>
      <trkpt lat="48.85271" lon="2.35418">
        <ele>90.3</ele>
        <time>2013-10-01T19:01:28.479Z</time>
      </trkpt>
      <trkpt lat="48.85267" lon="2.35428">
        <ele>95.8</ele>
        <time>2013-10-01T19:01:33.475Z</time>
      </trkpt>
      <trkpt lat="48.85265" lon="2.35432">
        <ele>96.6</ele>
        <time>2013-10-01T19:01:34.477Z</time>
      </trkpt>
      <trkpt lat="48.85261" lon="2.35439">
        <ele>96.3</ele>
        <time>2013-10-01T19:01:36.481Z</time>
      </trkpt>
      <trkpt lat="48.85259" lon="2.35445">
        <ele>96.7</ele>
        <time>2013-10-01T19:01:37.495Z</time>
      </trkpt>
      <trkpt lat="48.85257" lon="2.35452">
        <ele>96.7</ele>
        <time>2013-10-01T19:01:38.568Z</time>
      </trkpt>
      <trkpt lat="48.85255" lon="2.35458">
        <ele>95.8</ele>
        <time>2013-10-01T19:01:39.484Z</time>
      </trkpt>
      <trkpt lat="48.85254" lon="2.35465">
        <ele>96.1</ele>
        <time>2013-10-01T19:01:40.600Z</time>
      </trkpt>
      <trkpt lat="48.85252" lon="2.35471">
        <ele>97.5</ele>
        <time>2013-10-01T19:01:41.610Z</time>
      </trkpt>
      <trkpt lat="48.85249" lon="2.35482">
        <ele>98.1</ele>
        <time>2013-10-01T19:01:43.618Z</time>
      </trkpt>
      <trkpt lat="48.85248" lon="2.35485">
        <ele>97.7</ele>
        <time>2013-10-01T19:01:44.478Z</time>
      </trkpt>
      <trkpt lat="48.85244" lon="2.35497">
        <ele>97.8</ele>
        <time>2013-10-01T19:01:47.628Z</time>
      </trkpt>
      <trkpt lat="48.85243" lon="2.35502">
        <ele>97</ele>
        <time>2013-10-01T19:01:48.568Z</time>
      </trkpt>
      <trkpt lat="48.85239" lon="2.35512">
        <ele>96.9</ele>
        <time>2013-10-01T19:01:50.594Z</time>
      </trkpt>
      <trkpt lat="48.85238" lon="2.35518">
        <ele>96</ele>
        <time>2013-10-01T19:01:51.491Z</time>
      </trkpt>
      <trkpt lat="48.85236" lon="2.35525">
        <ele>95.5</ele>
        <time>2013-10-01T19:01:52.658Z</time>
      </trkpt>
      <trkpt lat="48.85235" lon="2.35531">
        <ele>94.7</ele>
        <time>2013-10-01T19:01:53.499Z</time>
      </trkpt>
      <trkpt lat="48.85233" lon="2.35539">
        <ele>95</ele>
        <time>2013-10-01T19:01:54.586Z</time>
      </trkpt>
      <trkpt lat="48.85232" lon="2.35545">
        <ele>96.3</ele>
        <time>2013-10-01T19:01:55.532Z</time>
      </trkpt>
      <trkpt lat="48.8523" lon="2.35552">
        <ele>96.4</ele>
        <time>2013-10-01T19:01:56.607Z</time>
      </trkpt>
      <trkpt lat="48.85229" lon="2.35559">
        <ele>95.7</ele>
        <time>2013-10-01T19:01:57.613Z</time>
      </trkpt>
      <trkpt lat="48.85225" lon="2.3557">
        <ele>95.7</ele>
        <time>2013-10-01T19:01:59.597Z</time>
      </trkpt>
      <trkpt lat="48.85224" lon="2.35575">
        <ele>96.2</ele>
        <time>2013-10-01T19:02:00.489Z</time>
      </trkpt>
      <trkpt lat="48.85219" lon="2.35586">
        <ele>93.1</ele>
        <time>2013-10-01T19:02:03.618Z</time>
      </trkpt>
      <trkpt lat="48.85217" lon="2.35588">
        <ele>93.2</ele>
        <time>2013-10-01T19:02:04.529Z</time>
      </trkpt>
      <trkpt lat="48.85211" lon="2.35595">
        <ele>93.3</ele>
        <time>2013-10-01T19:02:07.694Z</time>
      </trkpt>
      <trkpt lat="48.85208" lon="2.35595">
        <ele>92.5</ele>
        <time>2013-10-01T19:02:08.539Z</time>
      </trkpt>
      <trkpt lat="48.85204" lon="2.35594">
        <ele>91.9</ele>
        <time>2013-10-01T19:02:09.502Z</time>
      </trkpt>
      <trkpt lat="48.85199" lon="2.35591">
        <ele>91.7</ele>
        <time>2013-10-01T19:02:10.568Z</time>
      </trkpt>
      <trkpt lat="48.85194" lon="2.35588">
        <ele>91.5</ele>
        <time>2013-10-01T19:02:11.479Z</time>
      </trkpt>
      <trkpt lat="48.85189" lon="2.35583">
        <ele>90.9</ele>
        <time>2013-10-01T19:02:12.527Z</time>
      </trkpt>
      <trkpt lat="48.85185" lon="2.35578">
        <ele>90.5</ele>
        <time>2013-10-01T19:02:13.504Z</time>
      </trkpt>
      <trkpt lat="48.8518" lon="2.35574">
        <ele>90.3</ele>
        <time>2013-10-01T19:02:14.577Z</time>
      </trkpt>
      <trkpt lat="48.85175" lon="2.35569">
        <ele>90.8</ele>
        <time>2013-10-01T19:02:15.580Z</time>
      </trkpt>
      <trkpt lat="48.85171" lon="2.35565">
        <ele>91.4</ele>
        <time>2013-10-01T19:02:16.480Z</time>
      </trkpt>
      <trkpt lat="48.85167" lon="2.35561">
        <ele>91.2</ele>
        <time>2013-10-01T19:02:17.692Z</time>
      </trkpt>
      <trkpt lat="48.85163" lon="2.35557">
        <ele>90.5</ele>
        <time>2013-10-01T19:02:18.479Z</time>
      </trkpt>
      <trkpt lat="48.85155" lon="2.35551">
        <ele>88.7</ele>
        <time>2013-10-01T19:02:20.478Z</time>
      </trkpt>
      <trkpt lat="48.85151" lon="2.35548">
        <ele>88</ele>
        <time>2013-10-01T19:02:21.590Z</time>
      </trkpt>
      <trkpt lat="48.85144" lon="2.35544">
        <ele>91.3</ele>
        <time>2013-10-01T19:02:23.498Z</time>
      </trkpt>
      <trkpt lat="48.85141" lon="2.35542">
        <ele>91</ele>
        <time>2013-10-01T19:02:24.631Z</time>
      </trkpt>
      <trkpt lat="48.85139" lon="2.35554">
        <ele>81.4</ele>
        <time>2013-10-01T19:02:31.450Z</time>
      </trkpt>
      <trkpt lat="48.85139" lon="2.35557">
        <ele>82.6</ele>
        <time>2013-10-01T19:02:32.487Z</time>
      </trkpt>
      <trkpt lat="48.85135" lon="2.35566">
        <ele>83.2</ele>
        <time>2013-10-01T19:02:35.470Z</time>
      </trkpt>
      <trkpt lat="48.85134" lon="2.35569">
        <ele>82.5</ele>
        <time>2013-10-01T19:02:36.496Z</time>
      </trkpt>
      <trkpt lat="48.8513" lon="2.35579">
        <ele>84.8</ele>
        <time>2013-10-01T19:02:39.461Z</time>
      </trkpt>
      <trkpt lat="48.85129" lon="2.35582">
        <ele>87</ele>
        <time>2013-10-01T19:02:40.502Z</time>
      </trkpt>
      <trkpt lat="48.85121" lon="2.35585">
        <ele>90.5</ele>
        <time>2013-10-01T19:02:43.458Z</time>
      </trkpt>
      <trkpt lat="48.85116" lon="2.35584">
        <ele>92</ele>
        <time>2013-10-01T19:02:44.489Z</time>
      </trkpt>
      <trkpt lat="48.85112" lon="2.35581">
        <ele>92.2</ele>
        <time>2013-10-01T19:02:45.509Z</time>
      </trkpt>
      <trkpt lat="48.85106" lon="2.35576">
        <ele>93</ele>
        <time>2013-10-01T19:02:46.481Z</time>
      </trkpt>
      <trkpt lat="48.85102" lon="2.35574">
        <ele>93</ele>
        <time>2013-10-01T19:02:47.716Z</time>
      </trkpt>
      <trkpt lat="48.85098" lon="2.35569">
        <ele>92.9</ele>
        <time>2013-10-01T19:02:48.530Z</time>
      </trkpt>
      <trkpt lat="48.85091" lon="2.35562">
        <ele>92.5</ele>
        <time>2013-10-01T19:02:50.512Z</time>
      </trkpt>
      <trkpt lat="48.85087" lon="2.35558">
        <ele>93.8</ele>
        <time>2013-10-01T19:02:51.628Z</time>
      </trkpt>
      <trkpt lat="48.85081" lon="2.35552">
        <ele>92.2</ele>
        <time>2013-10-01T19:02:53.568Z</time>
      </trkpt>
      <trkpt lat="48.85078" lon="2.35549">
        <ele>92.4</ele>
        <time>2013-10-01T19:02:54.706Z</time>
      </trkpt>
      <trkpt lat="48.85072" lon="2.35545">
        <ele>92.5</ele>
        <time>2013-10-01T19:02:57.841Z</time>
      </trkpt>
      <trkpt lat="48.85069" lon="2.35544">
        <ele>92.5</ele>
        <time>2013-10-01T19:02:58.663Z</time>
      </trkpt>
      <trkpt lat="48.85062" lon="2.35537">
        <ele>92.4</ele>
        <time>2013-10-01T19:03:01.678Z</time>
      </trkpt>
      <trkpt lat="48.85059" lon="2.35534">
        <ele>92.4</ele>
        <time>2013-10-01T19:03:02.483Z</time>
      </trkpt>
      <trkpt lat="48.85052" lon="2.35528">
        <ele>92.3</ele>
        <time>2013-10-01T19:03:04.495Z</time>
      </trkpt>
      <trkpt lat="48.85048" lon="2.35525">
        <ele>92.1</ele>
        <time>2013-10-01T19:03:05.491Z</time>
      </trkpt>
      <trkpt lat="48.85041" lon="2.35518">
        <ele>90.8</ele>
        <time>2013-10-01T19:03:07.686Z</time>
      </trkpt>
      <trkpt lat="48.85038" lon="2.35514">
        <ele>90.6</ele>
        <time>2013-10-01T19:03:08.478Z</time>
      </trkpt>
      <trkpt lat="48.85033" lon="2.35507">
        <ele>90.3</ele>
        <time>2013-10-01T19:03:10.514Z</time>
      </trkpt>
      <trkpt lat="48.8503" lon="2.35504">
        <ele>90</ele>
        <time>2013-10-01T19:03:11.458Z</time>
      </trkpt>
      <trkpt lat="48.85023" lon="2.35497">
        <ele>88.9</ele>
        <time>2013-10-01T19:03:14.481Z</time>
      </trkpt>
      <trkpt lat="48.8502" lon="2.35496">
        <ele>88.8</ele>
        <time>2013-10-01T19:03:15.475Z</time>
      </trkpt>
      <trkpt lat="48.85014" lon="2.3549">
        <ele>87.1</ele>
        <time>2013-10-01T19:03:17.483Z</time>
      </trkpt>
      <trkpt lat="48.85012" lon="2.35485">
        <ele>86.4</ele>
        <time>2013-10-01T19:03:18.492Z</time>
      </trkpt>
      <trkpt lat="48.85011" lon="2.35474">
        <ele>86.4</ele>
        <time>2013-10-01T19:03:20.490Z</time>
      </trkpt>
      <trkpt lat="48.85011" lon="2.3547">
        <ele>87.2</ele>
        <time>2013-10-01T19:03:21.480Z</time>
      </trkpt>
      <trkpt lat="48.85014" lon="2.35459">
        <ele>86.8</ele>
        <time>2013-10-01T19:03:24.480Z</time>
      </trkpt>
      <trkpt lat="48.85016" lon="2.35455">
        <ele>86.2</ele>
        <time>2013-10-01T19:03:25.578Z</time>
      </trkpt>
      <trkpt lat="48.85019" lon="2.35445">
        <ele>88.7</ele>
        <time>2013-10-01T19:03:28.480Z</time>
      </trkpt>
      <trkpt lat="48.85021" lon="2.35441">
        <ele>90.3</ele>
        <time>2013-10-01T19:03:29.489Z</time>
      </trkpt>
      <trkpt lat="48.85023" lon="2.3543">
        <ele>89.9</ele>
        <time>2013-10-01T19:03:31.489Z</time>
      </trkpt>
      <trkpt lat="48.85024" lon="2.35425">
        <ele>90</ele>
        <time>2013-10-01T19:03:32.488Z</time>
      </trkpt>
      <trkpt lat="48.85026" lon="2.35413">
        <ele>89.4</ele>
        <time>2013-10-01T19:03:34.574Z</time>
      </trkpt>
      <trkpt lat="48.85027" lon="2.35407">
        <ele>88.5</ele>
        <time>2013-10-01T19:03:35.688Z</time>
      </trkpt>
      <trkpt lat="48.85029" lon="2.35395">
        <ele>86.8</ele>
        <time>2013-10-01T19:03:37.791Z</time>
      </trkpt>
      <trkpt lat="48.8503" lon="2.3539">
        <ele>87.6</ele>
        <time>2013-10-01T19:03:38.526Z</time>
      </trkpt>
      <trkpt lat="48.85033" lon="2.35378">
        <ele>86.6</ele>
        <time>2013-10-01T19:03:40.701Z</time>
      </trkpt>
      <trkpt lat="48.85034" lon="2.35373">
        <ele>86</ele>
        <time>2013-10-01T19:03:41.574Z</time>
      </trkpt>
      <trkpt lat="48.85036" lon="2.35361">
        <ele>86</ele>
        <time>2013-10-01T19:03:44.683Z</time>
      </trkpt>
      <trkpt lat="48.85037" lon="2.35359">
        <ele>86.4</ele>
        <time>2013-10-01T19:03:45.479Z</time>
      </trkpt>
      <trkpt lat="48.85035" lon="2.35358">
        <ele>85.4</ele>
        <time>2013-10-01T19:03:53.465Z</time>
      </trkpt>
      <trkpt lat="48.85035" lon="2.35359">
        <ele>85.7</ele>
        <time>2013-10-01T19:03:54.491Z</time>
      </trkpt>
      <trkpt lat="48.85034" lon="2.35359">
        <ele>83.9</ele>
        <time>2013-10-01T19:04:08.502Z</time>
      </trkpt>
      <trkpt lat="48.85033" lon="2.35358">
        <ele>83</ele>
        <time>2013-10-01T19:04:09.489Z</time>
      </trkpt>
      <trkpt lat="48.85028" lon="2.35349">
        <ele>82.7</ele>
        <time>2013-10-01T19:04:12.454Z</time>
      </trkpt>
      <trkpt lat="48.85026" lon="2.35345">
        <ele>83</ele>
        <time>2013-10-01T19:04:13.511Z</time>
      </trkpt>
      <trkpt lat="48.85019" lon="2.35339">
        <ele>82.9</ele>
        <time>2013-10-01T19:04:15.510Z</time>
      </trkpt>
      <trkpt lat="48.85015" lon="2.35337">
        <ele>84</ele>
        <time>2013-10-01T19:04:16.490Z</time>
      </trkpt>
      <trkpt lat="48.85006" lon="2.35334">
        <ele>83.8</ele>
        <time>2013-10-01T19:04:18.488Z</time>
      </trkpt>
      <trkpt lat="48.85002" lon="2.35333">
        <ele>83.4</ele>
        <time>2013-10-01T19:04:19.454Z</time>
      </trkpt>
      <trkpt lat="48.84993" lon="2.35332">
        <ele>84.1</ele>
        <time>2013-10-01T19:04:21.488Z</time>
      </trkpt>
      <trkpt lat="48.84989" lon="2.35331">
        <ele>83</ele>
        <time>2013-10-01T19:04:22.509Z</time>
      </trkpt>
      <trkpt lat="48.84982" lon="2.35327">
        <ele>81.4</ele>
        <time>2013-10-01T19:04:25.469Z</time>
      </trkpt>
      <trkpt lat="48.8498" lon="2.35325">
        <ele>81.8</ele>
        <time>2013-10-01T19:04:26.552Z</time>
      </trkpt>
      <trkpt lat="48.84973" lon="2.35321">
        <ele>81.2</ele>
        <time>2013-10-01T19:04:29.589Z</time>
      </trkpt>
      <trkpt lat="48.8497" lon="2.3532">
        <ele>80.6</ele>
        <time>2013-10-01T19:04:30.623Z</time>
      </trkpt>
      <trkpt lat="48.84964" lon="2.3532">
        <ele>81.1</ele>
        <time>2013-10-01T19:04:32.655Z</time>
      </trkpt>
      <trkpt lat="48.84961" lon="2.3532">
        <ele>82</ele>
        <time>2013-10-01T19:04:33.489Z</time>
      </trkpt>
      <trkpt lat="48.84955" lon="2.35319">
        <ele>84.8</ele>
        <time>2013-10-01T19:04:35.485Z</time>
      </trkpt>
      <trkpt lat="48.84952" lon="2.35317">
        <ele>86</ele>
        <time>2013-10-01T19:04:36.478Z</time>
      </trkpt>
      <trkpt lat="48.84946" lon="2.3531">
        <ele>89.6</ele>
        <time>2013-10-01T19:04:40.487Z</time>
      </trkpt>
      <trkpt lat="48.84944" lon="2.35308">
        <ele>90.6</ele>
        <time>2013-10-01T19:04:41.684Z</time>
      </trkpt>
      <trkpt lat="48.8494" lon="2.35301">
        <ele>91.7</ele>
        <time>2013-10-01T19:04:44.529Z</time>
      </trkpt>
      <trkpt lat="48.84938" lon="2.35298">
        <ele>90.2</ele>
        <time>2013-10-01T19:04:45.530Z</time>
      </trkpt>
      <trkpt lat="48.84933" lon="2.35292">
        <ele>90.7</ele>
        <time>2013-10-01T19:04:47.666Z</time>
      </trkpt>
      <trkpt lat="48.8493" lon="2.35289">
        <ele>89.3</ele>
        <time>2013-10-01T19:04:48.687Z</time>
      </trkpt>
      <trkpt lat="48.84922" lon="2.35282">
        <ele>89.7</ele>
        <time>2013-10-01T19:04:51.500Z</time>
      </trkpt>
      <trkpt lat="48.84919" lon="2.35281">
        <ele>89.6</ele>
        <time>2013-10-01T19:04:52.627Z</time>
      </trkpt>
      <trkpt lat="48.84913" lon="2.35277">
        <ele>89.6</ele>
        <time>2013-10-01T19:04:54.561Z</time>
      </trkpt>
      <trkpt lat="48.84908" lon="2.35274">
        <ele>88.9</ele>
        <time>2013-10-01T19:04:55.617Z</time>
      </trkpt>
      <trkpt lat="48.84904" lon="2.3527">
        <ele>88.2</ele>
        <time>2013-10-01T19:04:56.521Z</time>
      </trkpt>
      <trkpt lat="48.84899" lon="2.35267">
        <ele>87.7</ele>
        <time>2013-10-01T19:04:57.639Z</time>
      </trkpt>
      <trkpt lat="48.84894" lon="2.35264">
        <ele>87.1</ele>
        <time>2013-10-01T19:04:58.498Z</time>
      </trkpt>
      <trkpt lat="48.84889" lon="2.35261">
        <ele>86.6</ele>
        <time>2013-10-01T19:04:59.468Z</time>
      </trkpt>
      <trkpt lat="48.84884" lon="2.3526">
        <ele>86.1</ele>
        <time>2013-10-01T19:05:00.505Z</time>
      </trkpt>
      <trkpt lat="48.84878" lon="2.35258">
        <ele>85.7</ele>
        <time>2013-10-01T19:05:01.596Z</time>
      </trkpt>
      <trkpt lat="48.8487" lon="2.35253">
        <ele>84.3</ele>
        <time>2013-10-01T19:05:03.530Z</time>
      </trkpt>
      <trkpt lat="48.84866" lon="2.3525">
        <ele>84.1</ele>
        <time>2013-10-01T19:05:04.640Z</time>
      </trkpt>
      <trkpt lat="48.84859" lon="2.35241">
        <ele>84.4</ele>
        <time>2013-10-01T19:05:07.631Z</time>
      </trkpt>
      <trkpt lat="48.84856" lon="2.35237">
        <ele>84.4</ele>
        <time>2013-10-01T19:05:07.741Z</time>
      </trkpt>
      <trkpt lat="48.8485" lon="2.35232">
        <ele>84</ele>
        <time>2013-10-01T19:05:09.481Z</time>
      </trkpt>
      <trkpt lat="48.84847" lon="2.3523">
        <ele>84.5</ele>
        <time>2013-10-01T19:05:10.495Z</time>
      </trkpt>
      <trkpt lat="48.84842" lon="2.35224">
        <ele>84.3</ele>
        <time>2013-10-01T19:05:12.497Z</time>
      </trkpt>
      <trkpt lat="48.84839" lon="2.35221">
        <ele>83.7</ele>
        <time>2013-10-01T19:05:13.508Z</time>
      </trkpt>
      <trkpt lat="48.84834" lon="2.35215">
        <ele>84.4</ele>
        <time>2013-10-01T19:05:15.481Z</time>
      </trkpt>
      <trkpt lat="48.84831" lon="2.35213">
        <ele>83.9</ele>
        <time>2013-10-01T19:05:16.480Z</time>
      </trkpt>
      <trkpt lat="48.84824" lon="2.35207">
        <ele>85.5</ele>
        <time>2013-10-01T19:05:18.485Z</time>
      </trkpt>
      <trkpt lat="48.84821" lon="2.35205">
        <ele>85.7</ele>
        <time>2013-10-01T19:05:19.488Z</time>
      </trkpt>
      <trkpt lat="48.84814" lon="2.35201">
        <ele>86</ele>
        <time>2013-10-01T19:05:21.479Z</time>
      </trkpt>
      <trkpt lat="48.84811" lon="2.35199">
        <ele>86.8</ele>
        <time>2013-10-01T19:05:22.601Z</time>
      </trkpt>
      <trkpt lat="48.84802" lon="2.35195">
        <ele>87.2</ele>
        <time>2013-10-01T19:05:25.569Z</time>
      </trkpt>
      <trkpt lat="48.848" lon="2.35194">
        <ele>85.1</ele>
        <time>2013-10-01T19:05:26.558Z</time>
      </trkpt>
      <trkpt lat="48.84792" lon="2.35188">
        <ele>84.4</ele>
        <time>2013-10-01T19:05:30.490Z</time>
      </trkpt>
      <trkpt lat="48.8479" lon="2.35187">
        <ele>84.9</ele>
        <time>2013-10-01T19:05:31.490Z</time>
      </trkpt>
      <trkpt lat="48.84784" lon="2.35181">
        <ele>88.6</ele>
        <time>2013-10-01T19:05:35.517Z</time>
      </trkpt>
      <trkpt lat="48.84784" lon="2.35177">
        <ele>88.3</ele>
        <time>2013-10-01T19:05:36.695Z</time>
      </trkpt>
      <trkpt lat="48.84786" lon="2.35167">
        <ele>88.6</ele>
        <time>2013-10-01T19:05:38.709Z</time>
      </trkpt>
      <trkpt lat="48.84788" lon="2.35162">
        <ele>90.5</ele>
        <time>2013-10-01T19:05:39.509Z</time>
      </trkpt>
      <trkpt lat="48.84792" lon="2.35153">
        <ele>92.9</ele>
        <time>2013-10-01T19:05:41.489Z</time>
      </trkpt>
      <trkpt lat="48.84794" lon="2.35149">
        <ele>92.5</ele>
        <time>2013-10-01T19:05:42.499Z</time>
      </trkpt>
      <trkpt lat="48.84799" lon="2.35138">
        <ele>91.3</ele>
        <time>2013-10-01T19:05:45.548Z</time>
      </trkpt>
      <trkpt lat="48.848" lon="2.35135">
        <ele>91.2</ele>
        <time>2013-10-01T19:05:46.498Z</time>
      </trkpt>
      <trkpt lat="48.84794" lon="2.35127">
        <ele>93.1</ele>
        <time>2013-10-01T19:06:01.502Z</time>
      </trkpt>
      <trkpt lat="48.84793" lon="2.35126">
        <ele>93.8</ele>
        <time>2013-10-01T19:06:02.499Z</time>
      </trkpt>
      <trkpt lat="48.84787" lon="2.35118">
        <ele>92.6</ele>
        <time>2013-10-01T19:06:24.529Z</time>
      </trkpt>
      <trkpt lat="48.84787" lon="2.35118">
        <ele>92.6</ele>
        <time>2013-10-01T19:06:25.523Z</time>
      </trkpt>
      <trkpt lat="48.84788" lon="2.35117">
        <ele>94.1</ele>
        <time>2013-10-01T19:07:00.510Z</time>
      </trkpt>
      <trkpt lat="48.84788" lon="2.35116">
        <ele>93.6</ele>
        <time>2013-10-01T19:07:01.484Z</time>
      </trkpt>
      <trkpt lat="48.84789" lon="2.35106">
        <ele>93.7</ele>
        <time>2013-10-01T19:07:05.509Z</time>
      </trkpt>
      <trkpt lat="48.8479" lon="2.35102">
        <ele>93.2</ele>
        <time>2013-10-01T19:07:06.497Z</time>
      </trkpt>
      <trkpt lat="48.84793" lon="2.3509">
        <ele>94.4</ele>
        <time>2013-10-01T19:07:09.508Z</time>
      </trkpt>
      <trkpt lat="48.84794" lon="2.35085">
        <ele>94.5</ele>
        <time>2013-10-01T19:07:10.538Z</time>
      </trkpt>
      <trkpt lat="48.84796" lon="2.35076">
        <ele>94.4</ele>
        <time>2013-10-01T19:07:12.496Z</time>
      </trkpt>
      <trkpt lat="48.84797" lon="2.35071">
        <ele>93.7</ele>
        <time>2013-10-01T19:07:13.510Z</time>
      </trkpt>
      <trkpt lat="48.848" lon="2.35061">
        <ele>91.5</ele>
        <time>2013-10-01T19:07:15.499Z</time>
      </trkpt>
      <trkpt lat="48.84802" lon="2.35056">
        <ele>91.5</ele>
        <time>2013-10-01T19:07:16.494Z</time>
      </trkpt>
      <trkpt lat="48.84806" lon="2.35044">
        <ele>91</ele>
        <time>2013-10-01T19:07:18.489Z</time>
      </trkpt>
      <trkpt lat="48.84808" lon="2.35038">
        <ele>91.5</ele>
        <time>2013-10-01T19:07:19.538Z</time>
      </trkpt>
      <trkpt lat="48.84811" lon="2.35026">
        <ele>91.2</ele>
        <time>2013-10-01T19:07:22.502Z</time>
      </trkpt>
      <trkpt lat="48.84813" lon="2.3502">
        <ele>91.2</ele>
        <time>2013-10-01T19:07:22.518Z</time>
      </trkpt>
      <trkpt lat="48.84816" lon="2.35008">
        <ele>91.9</ele>
        <time>2013-10-01T19:07:24.478Z</time>
      </trkpt>
      <trkpt lat="48.84817" lon="2.35002">
        <ele>92</ele>
        <time>2013-10-01T19:07:25.498Z</time>
      </trkpt>
      <trkpt lat="48.8482" lon="2.34991">
        <ele>91</ele>
        <time>2013-10-01T19:07:27.576Z</time>
      </trkpt>
      <trkpt lat="48.84821" lon="2.34986">
        <ele>90.9</ele>
        <time>2013-10-01T19:07:28.490Z</time>
      </trkpt>
      <trkpt lat="48.84824" lon="2.34975">
        <ele>88.4</ele>
        <time>2013-10-01T19:07:30.508Z</time>
      </trkpt>
      <trkpt lat="48.84825" lon="2.3497">
        <ele>87.4</ele>
        <time>2013-10-01T19:07:31.469Z</time>
      </trkpt>
      <trkpt lat="48.84829" lon="2.3496">
        <ele>87.4</ele>
        <time>2013-10-01T19:07:33.521Z</time>
      </trkpt>
      <trkpt lat="48.84832" lon="2.34956">
        <ele>88.3</ele>
        <time>2013-10-01T19:07:34.532Z</time>
      </trkpt>
      <trkpt lat="48.84836" lon="2.34944">
        <ele>87.3</ele>
        <time>2013-10-01T19:07:36.469Z</time>
      </trkpt>
      <trkpt lat="48.84838" lon="2.34937">
        <ele>87</ele>
        <time>2013-10-01T19:07:37.499Z</time>
      </trkpt>
      <trkpt lat="48.8484" lon="2.34931">
        <ele>86.9</ele>
        <time>2013-10-01T19:07:38.494Z</time>
      </trkpt>
      <trkpt lat="48.84842" lon="2.34923">
        <ele>88.4</ele>
        <time>2013-10-01T19:07:39.499Z</time>
      </trkpt>
      <trkpt lat="48.84844" lon="2.34916">
        <ele>88.9</ele>
        <time>2013-10-01T19:07:40.498Z</time>
      </trkpt>
      <trkpt lat="48.84845" lon="2.34909">
        <ele>89.1</ele>
        <time>2013-10-01T19:07:41.501Z</time>
      </trkpt>
      <trkpt lat="48.84846" lon="2.34902">
        <ele>89</ele>
        <time>2013-10-01T19:07:42.635Z</time>
      </trkpt>
      <trkpt lat="48.84848" lon="2.34895">
        <ele>89.3</ele>
        <time>2013-10-01T19:07:43.584Z</time>
      </trkpt>
      <trkpt lat="48.8485" lon="2.34883">
        <ele>90.1</ele>
        <time>2013-10-01T19:07:45.518Z</time>
      </trkpt>
      <trkpt lat="48.84851" lon="2.34877">
        <ele>89.9</ele>
        <time>2013-10-01T19:07:46.506Z</time>
      </trkpt>
      <trkpt lat="48.84854" lon="2.34864">
        <ele>90.7</ele>
        <time>2013-10-01T19:07:48.509Z</time>
      </trkpt>
      <trkpt lat="48.84857" lon="2.34855">
        <ele>90.3</ele>
        <time>2013-10-01T19:07:49.523Z</time>
      </trkpt>
      <trkpt lat="48.8486" lon="2.34848">
        <ele>90.5</ele>
        <time>2013-10-01T19:07:50.520Z</time>
      </trkpt>
      <trkpt lat="48.84863" lon="2.34841">
        <ele>89.8</ele>
        <time>2013-10-01T19:07:51.519Z</time>
      </trkpt>
      <trkpt lat="48.84866" lon="2.34833">
        <ele>89.1</ele>
        <time>2013-10-01T19:07:52.627Z</time>
      </trkpt>
      <trkpt lat="48.84868" lon="2.34826">
        <ele>90.6</ele>
        <time>2013-10-01T19:07:53.505Z</time>
      </trkpt>
      <trkpt lat="48.8487" lon="2.34819">
        <ele>92</ele>
        <time>2013-10-01T19:07:54.508Z</time>
      </trkpt>
      <trkpt lat="48.84872" lon="2.34813">
        <ele>92.8</ele>
        <time>2013-10-01T19:07:55.499Z</time>
      </trkpt>
      <trkpt lat="48.84875" lon="2.34801">
        <ele>95</ele>
        <time>2013-10-01T19:07:57.508Z</time>
      </trkpt>
      <trkpt lat="48.84876" lon="2.34796">
        <ele>94.6</ele>
        <time>2013-10-01T19:07:58.499Z</time>
      </trkpt>
      <trkpt lat="48.84881" lon="2.34784">
        <ele>96</ele>
        <time>2013-10-01T19:08:00.508Z</time>
      </trkpt>
      <trkpt lat="48.84883" lon="2.34778">
        <ele>96.6</ele>
        <time>2013-10-01T19:08:01.504Z</time>
      </trkpt>
      <trkpt lat="48.84885" lon="2.34771">
        <ele>96.4</ele>
        <time>2013-10-01T19:08:02.510Z</time>
      </trkpt>
      <trkpt lat="48.84887" lon="2.34764">
        <ele>96.5</ele>
        <time>2013-10-01T19:08:03.524Z</time>
      </trkpt>
      <trkpt lat="48.84889" lon="2.34757">
        <ele>96.2</ele>
        <time>2013-10-01T19:08:04.528Z</time>
      </trkpt>
      <trkpt lat="48.8489" lon="2.34751">
        <ele>95.5</ele>
        <time>2013-10-01T19:08:05.523Z</time>
      </trkpt>
      <trkpt lat="48.84893" lon="2.34738">
        <ele>95.3</ele>
        <time>2013-10-01T19:08:07.701Z</time>
      </trkpt>
      <trkpt lat="48.84894" lon="2.34733">
        <ele>96.2</ele>
        <time>2013-10-01T19:08:08.515Z</time>
      </trkpt>
      <trkpt lat="48.84896" lon="2.34722">
        <ele>96.6</ele>
        <time>2013-10-01T19:08:10.508Z</time>
      </trkpt>
      <trkpt lat="48.84897" lon="2.34716">
        <ele>96.5</ele>
        <time>2013-10-01T19:08:11.513Z</time>
      </trkpt>
      <trkpt lat="48.849" lon="2.34704">
        <ele>97</ele>
        <time>2013-10-01T19:08:13.531Z</time>
      </trkpt>
      <trkpt lat="48.84902" lon="2.34697">
        <ele>97.5</ele>
        <time>2013-10-01T19:08:14.498Z</time>
      </trkpt>
      <trkpt lat="48.84903" lon="2.34691">
        <ele>97.2</ele>
        <time>2013-10-01T19:08:15.513Z</time>
      </trkpt>
      <trkpt lat="48.84905" lon="2.34684">
        <ele>97.1</ele>
        <time>2013-10-01T19:08:16.508Z</time>
      </trkpt>
      <trkpt lat="48.84907" lon="2.34672">
        <ele>96.4</ele>
        <time>2013-10-01T19:08:18.511Z</time>
      </trkpt>
      <trkpt lat="48.84907" lon="2.34666">
        <ele>96.4</ele>
        <time>2013-10-01T19:08:19.508Z</time>
      </trkpt>
      <trkpt lat="48.84903" lon="2.34658">
        <ele>95.7</ele>
        <time>2013-10-01T19:08:21.483Z</time>
      </trkpt>
      <trkpt lat="48.84898" lon="2.34657">
        <ele>94.7</ele>
        <time>2013-10-01T19:08:22.508Z</time>
      </trkpt>
      <trkpt lat="48.84891" lon="2.34652">
        <ele>94.4</ele>
        <time>2013-10-01T19:08:24.515Z</time>
      </trkpt>
      <trkpt lat="48.84888" lon="2.34651">
        <ele>94.2</ele>
        <time>2013-10-01T19:08:25.508Z</time>
      </trkpt>
      <trkpt lat="48.8488" lon="2.34648">
        <ele>93.2</ele>
        <time>2013-10-01T19:08:31.498Z</time>
      </trkpt>
      <trkpt lat="48.84879" lon="2.34647">
        <ele>93</ele>
        <time>2013-10-01T19:08:32.527Z</time>
      </trkpt>
      <trkpt lat="48.84871" lon="2.34643">
        <ele>94.7</ele>
        <time>2013-10-01T19:08:36.520Z</time>
      </trkpt>
      <trkpt lat="48.8487" lon="2.34642">
        <ele>96.7</ele>
        <time>2013-10-01T19:08:37.520Z</time>
      </trkpt>
      <trkpt lat="48.84862" lon="2.34638">
        <ele>98.7</ele>
        <time>2013-10-01T19:08:41.680Z</time>
      </trkpt>
      <trkpt lat="48.84861" lon="2.34637">
        <ele>99.2</ele>
        <time>2013-10-01T19:08:42.542Z</time>
      </trkpt>
      <trkpt lat="48.84853" lon="2.34634">
        <ele>103.4</ele>
        <time>2013-10-01T19:08:45.614Z</time>
      </trkpt>
      <trkpt lat="48.84851" lon="2.34634">
        <ele>103.6</ele>
        <time>2013-10-01T19:08:46.656Z</time>
      </trkpt>
      <trkpt lat="48.84845" lon="2.34643">
        <ele>102.1</ele>
        <time>2013-10-01T19:08:51.529Z</time>
      </trkpt>
      <trkpt lat="48.84845" lon="2.34646">
        <ele>102.5</ele>
        <time>2013-10-01T19:08:52.609Z</time>
      </trkpt>
      <trkpt lat="48.84844" lon="2.34658">
        <ele>101.4</ele>
        <time>2013-10-01T19:08:57.706Z</time>
      </trkpt>
      <trkpt lat="48.84842" lon="2.34659">
        <ele>101.7</ele>
        <time>2013-10-01T19:08:58.520Z</time>
      </trkpt>
      <trkpt lat="48.84836" lon="2.34665">
        <ele>103.4</ele>
        <time>2013-10-01T19:09:03.508Z</time>
      </trkpt>
      <trkpt lat="48.84834" lon="2.34668">
        <ele>103.1</ele>
        <time>2013-10-01T19:09:04.609Z</time>
      </trkpt>
      <trkpt lat="48.84831" lon="2.34681">
        <ele>101.7</ele>
        <time>2013-10-01T19:09:07.720Z</time>
      </trkpt>
      <trkpt lat="48.8483" lon="2.34684">
        <ele>101</ele>
        <time>2013-10-01T19:09:08.490Z</time>
      </trkpt>
      <trkpt lat="48.84828" lon="2.34693">
        <ele>99.7</ele>
        <time>2013-10-01T19:09:10.543Z</time>
      </trkpt>
      <trkpt lat="48.84827" lon="2.34697">
        <ele>99.9</ele>
        <time>2013-10-01T19:09:11.540Z</time>
      </trkpt>
      <trkpt lat="48.84822" lon="2.34708">
        <ele>101.3</ele>
        <time>2013-10-01T19:09:15.500Z</time>
      </trkpt>
      <trkpt lat="48.84821" lon="2.3471">
        <ele>102</ele>
        <time>2013-10-01T19:09:16.488Z</time>
      </trkpt>
      <trkpt lat="48.84815" lon="2.34708">
        <ele>103.4</ele>
        <time>2013-10-01T19:09:28.517Z</time>
      </trkpt>
      <trkpt lat="48.84815" lon="2.34708">
        <ele>103.8</ele>
        <time>2013-10-01T19:09:29.499Z</time>
      </trkpt>
      <trkpt lat="48.84814" lon="2.34708">
        <ele>104.3</ele>
        <time>2013-10-01T19:10:16.527Z</time>
      </trkpt>
      <trkpt lat="48.84813" lon="2.34708">
        <ele>104.2</ele>
        <time>2013-10-01T19:10:17.482Z</time>
      </trkpt>
      <trkpt lat="48.84811" lon="2.34713">
        <ele>107.5</ele>
        <time>2013-10-01T19:10:28.590Z</time>
      </trkpt>
      <trkpt lat="48.84811" lon="2.34713">
        <ele>107.5</ele>
        <time>2013-10-01T19:10:29.517Z</time>
      </trkpt>
      <trkpt lat="48.84811" lon="2.34713">
        <ele>107.5</ele>
        <time>2013-10-01T19:10:30.612Z</time>
      </trkpt>
      <trkpt lat="48.84811" lon="2.34714">
        <ele>107.9</ele>
        <time>2013-10-01T19:10:31.571Z</time>
      </trkpt>
      <trkpt lat="48.84805" lon="2.34724">
        <ele>105.1</ele>
        <time>2013-10-01T19:10:34.520Z</time>
      </trkpt>
      <trkpt lat="48.84801" lon="2.3473">
        <ele>106</ele>
        <time>2013-10-01T19:10:35.527Z</time>
      </trkpt>
      <trkpt lat="48.84797" lon="2.34736">
        <ele>106.1</ele>
        <time>2013-10-01T19:10:36.639Z</time>
      </trkpt>
      <trkpt lat="48.84794" lon="2.34742">
        <ele>106.8</ele>
        <time>2013-10-01T19:10:37.526Z</time>
      </trkpt>
      <trkpt lat="48.84791" lon="2.34749">
        <ele>105.9</ele>
        <time>2013-10-01T19:10:38.560Z</time>
      </trkpt>
      <trkpt lat="48.84788" lon="2.34755">
        <ele>106.4</ele>
        <time>2013-10-01T19:10:39.578Z</time>
      </trkpt>
      <trkpt lat="48.84783" lon="2.34766">
        <ele>106.3</ele>
        <time>2013-10-01T19:10:41.484Z</time>
      </trkpt>
      <trkpt lat="48.84781" lon="2.34771">
        <ele>106.5</ele>
        <time>2013-10-01T19:10:42.484Z</time>
      </trkpt>
      <trkpt lat="48.84776" lon="2.34779">
        <ele>109.1</ele>
        <time>2013-10-01T19:10:44.513Z</time>
      </trkpt>
      <trkpt lat="48.84773" lon="2.34782">
        <ele>109.6</ele>
        <time>2013-10-01T19:10:45.520Z</time>
      </trkpt>
      <trkpt lat="48.84769" lon="2.3479">
        <ele>106.4</ele>
        <time>2013-10-01T19:10:47.649Z</time>
      </trkpt>
      <trkpt lat="48.84767" lon="2.34795">
        <ele>104.8</ele>
        <time>2013-10-01T19:10:48.539Z</time>
      </trkpt>
      <trkpt lat="48.84762" lon="2.34804">
        <ele>101</ele>
        <time>2013-10-01T19:10:50.529Z</time>
      </trkpt>
      <trkpt lat="48.8476" lon="2.3481">
        <ele>101.8</ele>
        <time>2013-10-01T19:10:51.647Z</time>
      </trkpt>
      <trkpt lat="48.84754" lon="2.3482">
        <ele>101.2</ele>
        <time>2013-10-01T19:10:53.666Z</time>
      </trkpt>
      <trkpt lat="48.84751" lon="2.34824">
        <ele>103.2</ele>
        <time>2013-10-01T19:10:54.695Z</time>
      </trkpt>
      <trkpt lat="48.84744" lon="2.34831">
        <ele>101.8</ele>
        <time>2013-10-01T19:10:56.688Z</time>
      </trkpt>
      <trkpt lat="48.84741" lon="2.34832">
        <ele>102</ele>
        <time>2013-10-01T19:10:57.544Z</time>
      </trkpt>
      <trkpt lat="48.84734" lon="2.3483">
        <ele>101.7</ele>
        <time>2013-10-01T19:10:59.541Z</time>
      </trkpt>
      <trkpt lat="48.8473" lon="2.34827">
        <ele>101.8</ele>
        <time>2013-10-01T19:11:00.657Z</time>
      </trkpt>
      <trkpt lat="48.84725" lon="2.3482">
        <ele>102.9</ele>
        <time>2013-10-01T19:11:02.703Z</time>
      </trkpt>
      <trkpt lat="48.84722" lon="2.34817">
        <ele>100.5</ele>
        <time>2013-10-01T19:11:03.740Z</time>
      </trkpt>
      <trkpt lat="48.84714" lon="2.34812">
        <ele>99.2</ele>
        <time>2013-10-01T19:11:06.529Z</time>
      </trkpt>
      <trkpt lat="48.84711" lon="2.34811">
        <ele>99.2</ele>
        <time>2013-10-01T19:11:07.662Z</time>
      </trkpt>
      <trkpt lat="48.84704" lon="2.3481">
        <ele>100.4</ele>
        <time>2013-10-01T19:11:09.634Z</time>
      </trkpt>
      <trkpt lat="48.847" lon="2.34811">
        <ele>101.5</ele>
        <time>2013-10-01T19:11:10.683Z</time>
      </trkpt>
      <trkpt lat="48.84694" lon="2.34811">
        <ele>102.9</ele>
        <time>2013-10-01T19:11:12.705Z</time>
      </trkpt>
      <trkpt lat="48.84691" lon="2.3481">
        <ele>103.2</ele>
        <time>2013-10-01T19:11:13.519Z</time>
      </trkpt>
      <trkpt lat="48.84683" lon="2.34809">
        <ele>104.3</ele>
        <time>2013-10-01T19:11:16.669Z</time>
      </trkpt>
      <trkpt lat="48.84681" lon="2.34808">
        <ele>105.7</ele>
        <time>2013-10-01T19:11:17.614Z</time>
      </trkpt>
      <trkpt lat="48.84675" lon="2.34801">
        <ele>105.8</ele>
        <time>2013-10-01T19:11:21.720Z</time>
      </trkpt>
      <trkpt lat="48.84674" lon="2.34798">
        <ele>105.4</ele>
        <time>2013-10-01T19:11:22.513Z</time>
      </trkpt>
      <trkpt lat="48.84671" lon="2.34791">
        <ele>104.3</ele>
        <time>2013-10-01T19:11:24.537Z</time>
      </trkpt>
      <trkpt lat="48.84669" lon="2.34786">
        <ele>104</ele>
        <time>2013-10-01T19:11:25.507Z</time>
      </trkpt>
      <trkpt lat="48.84667" lon="2.34777">
        <ele>103.3</ele>
        <time>2013-10-01T19:11:27.752Z</time>
      </trkpt>
      <trkpt lat="48.84665" lon="2.34773">
        <ele>104</ele>
        <time>2013-10-01T19:11:28.548Z</time>
      </trkpt>
      <trkpt lat="48.84658" lon="2.34765">
        <ele>104.6</ele>
        <time>2013-10-01T19:11:31.578Z</time>
      </trkpt>
      <trkpt lat="48.84657" lon="2.34761">
        <ele>104.6</ele>
        <time>2013-10-01T19:11:32.589Z</time>
      </trkpt>
      <trkpt lat="48.84656" lon="2.34748">
        <ele>103.9</ele>
        <time>2013-10-01T19:11:35.559Z</time>
      </trkpt>
      <trkpt lat="48.84656" lon="2.34743">
        <ele>106.6</ele>
        <time>2013-10-01T19:11:36.560Z</time>
      </trkpt>
      <trkpt lat="48.84654" lon="2.34731">
        <ele>109.2</ele>
        <time>2013-10-01T19:11:39.663Z</time>
      </trkpt>
      <trkpt lat="48.84654" lon="2.34726">
        <ele>109</ele>
        <time>2013-10-01T19:11:40.710Z</time>
      </trkpt>
      <trkpt lat="48.84659" lon="2.34715">
        <ele>109</ele>
        <time>2013-10-01T19:11:44.508Z</time>
      </trkpt>
      <trkpt lat="48.84661" lon="2.34714">
        <ele>109.3</ele>
        <time>2013-10-01T19:11:45.523Z</time>
      </trkpt>
      <trkpt lat="48.84664" lon="2.34704">
        <ele>107.6</ele>
        <time>2013-10-01T19:11:49.519Z</time>
      </trkpt>
      <trkpt lat="48.84664" lon="2.347">
        <ele>108.1</ele>
        <time>2013-10-01T19:11:50.567Z</time>
      </trkpt>
      <trkpt lat="48.84666" lon="2.34692">
        <ele>106.7</ele>
        <time>2013-10-01T19:11:52.853Z</time>
      </trkpt>
      <trkpt lat="48.84667" lon="2.34687">
        <ele>106.7</ele>
        <time>2013-10-01T19:11:53.719Z</time>
      </trkpt>
      <trkpt lat="48.8467" lon="2.34675">
        <ele>105.9</ele>
        <time>2013-10-01T19:11:56.689Z</time>
      </trkpt>
      <trkpt lat="48.84671" lon="2.34671">
        <ele>106</ele>
        <time>2013-10-01T19:11:57.603Z</time>
      </trkpt>
      <trkpt lat="48.84668" lon="2.34658">
        <ele>110.2</ele>
        <time>2013-10-01T19:12:13.520Z</time>
      </trkpt>
      <trkpt lat="48.84668" lon="2.34658">
        <ele>110.4</ele>
        <time>2013-10-01T19:12:14.525Z</time>
      </trkpt>
      <trkpt lat="48.84668" lon="2.34658">
        <ele>110.5</ele>
        <time>2013-10-01T19:12:15.518Z</time>
      </trkpt>
      <trkpt lat="48.84668" lon="2.34658">
        <ele>110.6</ele>
        <time>2013-10-01T19:12:16.539Z</time>
      </trkpt>
      <trkpt lat="48.84668" lon="2.34658">
        <ele>110.8</ele>
        <time>2013-10-01T19:12:17.590Z</time>
      </trkpt>
      <trkpt lat="48.84668" lon="2.34657">
        <ele>110.8</ele>
        <time>2013-10-01T19:12:18.566Z</time>
      </trkpt>
      <trkpt lat="48.84665" lon="2.34656">
        <ele>113.9</ele>
        <time>2013-10-01T19:13:41.519Z</time>
      </trkpt>
      <trkpt lat="48.84665" lon="2.34656">
        <ele>114.9</ele>
        <time>2013-10-01T19:13:42.509Z</time>
      </trkpt>
      <trkpt lat="48.84664" lon="2.34657">
        <ele>115.7</ele>
        <time>2013-10-01T19:13:46.541Z</time>
      </trkpt>
      <trkpt lat="48.84664" lon="2.34657">
        <ele>115.7</ele>
        <time>2013-10-01T19:13:47.550Z</time>
      </trkpt>
      <trkpt lat="48.84665" lon="2.34657">
        <ele>112</ele>
        <time>2013-10-01T19:13:49.529Z</time>
      </trkpt>
      <trkpt lat="48.84665" lon="2.34657">
        <ele>110.8</ele>
        <time>2013-10-01T19:13:50.515Z</time>
      </trkpt>
      <trkpt lat="48.84667" lon="2.34656">
        <ele>109.8</ele>
        <time>2013-10-01T19:13:54.583Z</time>
      </trkpt>
      <trkpt lat="48.84667" lon="2.34656">
        <ele>109.9</ele>
        <time>2013-10-01T19:13:55.524Z</time>
      </trkpt>
      <trkpt lat="48.84666" lon="2.34656">
        <ele>110.1</ele>
        <time>2013-10-01T19:13:58.502Z</time>
      </trkpt>
      <trkpt lat="48.84666" lon="2.34655">
        <ele>110.2</ele>
        <time>2013-10-01T19:13:59.533Z</time>
      </trkpt>
      <trkpt lat="48.84664" lon="2.34654">
        <ele>110.9</ele>
        <time>2013-10-01T19:14:05.555Z</time>
      </trkpt>
      <trkpt lat="48.84664" lon="2.34654">
        <ele>111</ele>
        <time>2013-10-01T19:14:06.519Z</time>
      </trkpt>
      <trkpt lat="48.84665" lon="2.34655">
        <ele>110</ele>
        <time>2013-10-01T19:14:42.618Z</time>
      </trkpt>
      <trkpt lat="48.84665" lon="2.34655">
        <ele>111.1</ele>
        <time>2013-10-01T19:14:43.502Z</time>
      </trkpt>
      <trkpt lat="48.8467" lon="2.34656">
        <ele>110.9</ele>
        <time>2013-10-01T19:14:53.505Z</time>
      </trkpt>
      <trkpt lat="48.8467" lon="2.34656">
        <ele>110.9</ele>
        <time>2013-10-01T19:14:54.503Z</time>
      </trkpt>
      <trkpt lat="48.8467" lon="2.34656">
        <ele>110.8</ele>
        <time>2013-10-01T19:14:57.643Z</time>
      </trkpt>
      <trkpt lat="48.8467" lon="2.34655">
        <ele>112.4</ele>
        <time>2013-10-01T19:14:58.540Z</time>
      </trkpt>
      <trkpt lat="48.84664" lon="2.34645">
        <ele>114.3</ele>
        <time>2013-10-01T19:15:11.570Z</time>
      </trkpt>
      <trkpt lat="48.84664" lon="2.34645">
        <ele>114.5</ele>
        <time>2013-10-01T19:15:12.504Z</time>
      </trkpt>
      <trkpt lat="48.84664" lon="2.34642">
        <ele>115</ele>
        <time>2013-10-01T19:15:17.544Z</time>
      </trkpt>
      <trkpt lat="48.84664" lon="2.34642">
        <ele>115</ele>
        <time>2013-10-01T19:15:18.541Z</time>
      </trkpt>
      <trkpt lat="48.84664" lon="2.34642">
        <ele>115.5</ele>
        <time>2013-10-01T19:15:21.539Z</time>
      </trkpt>
      <trkpt lat="48.84665" lon="2.34642">
        <ele>115.6</ele>
        <time>2013-10-01T19:15:22.534Z</time>
      </trkpt>
      <trkpt lat="48.84665" lon="2.34642">
        <ele>115.6</ele>
        <time>2013-10-01T19:15:22.550Z</time>
      </trkpt>
      <trkpt lat="48.84665" lon="2.34642">
        <ele>115.6</ele>
        <time>2013-10-01T19:15:23.568Z</time>
      </trkpt>
      <trkpt lat="48.84665" lon="2.34641">
        <ele>116.4</ele>
        <time>2013-10-01T19:17:00.558Z</time>
      </trkpt>
      <trkpt lat="48.84665" lon="2.3464">
        <ele>114.3</ele>
        <time>2013-10-01T19:17:01.583Z</time>
      </trkpt>
      <trkpt lat="48.84666" lon="2.34628">
        <ele>110.6</ele>
        <time>2013-10-01T19:17:07.707Z</time>
      </trkpt>
      <trkpt lat="48.84667" lon="2.34625">
        <ele>111</ele>
        <time>2013-10-01T19:17:08.565Z</time>
      </trkpt>
      <trkpt lat="48.84669" lon="2.34612">
        <ele>112.7</ele>
        <time>2013-10-01T19:17:12.619Z</time>
      </trkpt>
      <trkpt lat="48.84669" lon="2.34609">
        <ele>110.9</ele>
        <time>2013-10-01T19:17:13.729Z</time>
      </trkpt>
      <trkpt lat="48.8467" lon="2.34596">
        <ele>112.2</ele>
        <time>2013-10-01T19:17:17.693Z</time>
      </trkpt>
      <trkpt lat="48.84671" lon="2.34591">
        <ele>112.1</ele>
        <time>2013-10-01T19:17:18.769Z</time>
      </trkpt>
      <trkpt lat="48.84672" lon="2.34581">
        <ele>111.9</ele>
        <time>2013-10-01T19:17:20.739Z</time>
      </trkpt>
      <trkpt lat="48.84673" lon="2.34577">
        <ele>112.1</ele>
        <time>2013-10-01T19:17:21.586Z</time>
      </trkpt>
      <trkpt lat="48.84675" lon="2.34564">
        <ele>110.8</ele>
        <time>2013-10-01T19:17:24.664Z</time>
      </trkpt>
      <trkpt lat="48.84675" lon="2.3456">
        <ele>110.1</ele>
        <time>2013-10-01T19:17:25.568Z</time>
      </trkpt>
      <trkpt lat="48.84677" lon="2.34547">
        <ele>109.4</ele>
        <time>2013-10-01T19:17:28.575Z</time>
      </trkpt>
      <trkpt lat="48.84679" lon="2.34542">
        <ele>108</ele>
        <time>2013-10-01T19:17:29.770Z</time>
      </trkpt>
      <trkpt lat="48.84684" lon="2.34532">
        <ele>106</ele>
        <time>2013-10-01T19:17:32.728Z</time>
      </trkpt>
      <trkpt lat="48.84685" lon="2.34529">
        <ele>106.3</ele>
        <time>2013-10-01T19:17:33.635Z</time>
      </trkpt>
      <trkpt lat="48.84681" lon="2.34518">
        <ele>102.8</ele>
        <time>2013-10-01T19:17:42.638Z</time>
      </trkpt>
      <trkpt lat="48.8468" lon="2.34518">
        <ele>103.9</ele>
        <time>2013-10-01T19:17:43.660Z</time>
      </trkpt>
      <trkpt lat="48.84672" lon="2.34514">
        <ele>106.7</ele>
        <time>2013-10-01T19:17:48.573Z</time>
      </trkpt>
      <trkpt lat="48.8467" lon="2.34513">
        <ele>106.9</ele>
        <time>2013-10-01T19:17:49.560Z</time>
      </trkpt>
      <trkpt lat="48.84662" lon="2.34508">
        <ele>110.2</ele>
        <time>2013-10-01T19:17:52.647Z</time>
      </trkpt>
      <trkpt lat="48.8466" lon="2.34505">
        <ele>110.2</ele>
        <time>2013-10-01T19:17:53.552Z</time>
      </trkpt>
      <trkpt lat="48.84658" lon="2.34496">
        <ele>108.8</ele>
        <time>2013-10-01T19:17:55.561Z</time>
      </trkpt>
      <trkpt lat="48.84658" lon="2.34491">
        <ele>109.1</ele>
        <time>2013-10-01T19:17:56.652Z</time>
      </trkpt>
      <trkpt lat="48.84658" lon="2.34481">
        <ele>109.3</ele>
        <time>2013-10-01T19:17:58.597Z</time>
      </trkpt>
      <trkpt lat="48.84659" lon="2.34474">
        <ele>109.6</ele>
        <time>2013-10-01T19:17:59.759Z</time>
      </trkpt>
      <trkpt lat="48.8466" lon="2.34463">
        <ele>111.3</ele>
        <time>2013-10-01T19:18:01.769Z</time>
      </trkpt>
      <trkpt lat="48.8466" lon="2.34459">
        <ele>111.5</ele>
        <time>2013-10-01T19:18:02.578Z</time>
      </trkpt>
      <trkpt lat="48.84658" lon="2.34449">
        <ele>111.8</ele>
        <time>2013-10-01T19:18:04.788Z</time>
      </trkpt>
      <trkpt lat="48.84657" lon="2.34444">
        <ele>111.1</ele>
        <time>2013-10-01T19:18:05.626Z</time>
      </trkpt>
      <trkpt lat="48.84658" lon="2.34434">
        <ele>110.3</ele>
        <time>2013-10-01T19:18:07.717Z</time>
      </trkpt>
      <trkpt lat="48.84659" lon="2.34429">
        <ele>109.6</ele>
        <time>2013-10-01T19:18:08.787Z</time>
      </trkpt>
      <trkpt lat="48.84663" lon="2.34418">
        <ele>110.7</ele>
        <time>2013-10-01T19:18:10.751Z</time>
      </trkpt>
      <trkpt lat="48.84664" lon="2.34412">
        <ele>110.9</ele>
        <time>2013-10-01T19:18:11.768Z</time>
      </trkpt>
      <trkpt lat="48.84666" lon="2.34402">
        <ele>109.9</ele>
        <time>2013-10-01T19:18:13.801Z</time>
      </trkpt>
      <trkpt lat="48.84667" lon="2.34397">
        <ele>109.6</ele>
        <time>2013-10-01T19:18:14.630Z</time>
      </trkpt>
      <trkpt lat="48.84669" lon="2.34387">
        <ele>109.6</ele>
        <time>2013-10-01T19:18:17.524Z</time>
      </trkpt>
      <trkpt lat="48.8467" lon="2.34382">
        <ele>109.1</ele>
        <time>2013-10-01T19:18:17.735Z</time>
      </trkpt>
      <trkpt lat="48.84672" lon="2.34373">
        <ele>109.3</ele>
        <time>2013-10-01T19:18:19.690Z</time>
      </trkpt>
      <trkpt lat="48.84673" lon="2.34369">
        <ele>107.9</ele>
        <time>2013-10-01T19:18:20.762Z</time>
      </trkpt>
      <trkpt lat="48.84676" lon="2.34356">
        <ele>106.9</ele>
        <time>2013-10-01T19:18:24.777Z</time>
      </trkpt>
      <trkpt lat="48.84677" lon="2.34353">
        <ele>106.5</ele>
        <time>2013-10-01T19:18:25.603Z</time>
      </trkpt>
      <trkpt lat="48.8468" lon="2.34342">
        <ele>107.2</ele>
        <time>2013-10-01T19:18:28.668Z</time>
      </trkpt>
      <trkpt lat="48.84681" lon="2.34339">
        <ele>107.8</ele>
        <time>2013-10-01T19:18:29.766Z</time>
      </trkpt>
      <trkpt lat="48.84682" lon="2.34328">
        <ele>106.1</ele>
        <time>2013-10-01T19:18:32.608Z</time>
      </trkpt>
      <trkpt lat="48.84683" lon="2.34323">
        <ele>106.5</ele>
        <time>2013-10-01T19:18:33.740Z</time>
      </trkpt>
      <trkpt lat="48.84685" lon="2.34314">
        <ele>107.8</ele>
        <time>2013-10-01T19:18:35.560Z</time>
      </trkpt>
      <trkpt lat="48.84686" lon="2.34309">
        <ele>109</ele>
        <time>2013-10-01T19:18:36.533Z</time>
      </trkpt>
      <trkpt lat="48.84689" lon="2.34297">
        <ele>109.8</ele>
        <time>2013-10-01T19:18:38.579Z</time>
      </trkpt>
      <trkpt lat="48.8469" lon="2.34291">
        <ele>109.8</ele>
        <time>2013-10-01T19:18:39.589Z</time>
      </trkpt>
      <trkpt lat="48.8469" lon="2.34278">
        <ele>112.7</ele>
        <time>2013-10-01T19:18:41.594Z</time>
      </trkpt>
      <trkpt lat="48.84691" lon="2.34272">
        <ele>113.3</ele>
        <time>2013-10-01T19:18:42.568Z</time>
      </trkpt>
      <trkpt lat="48.84692" lon="2.3426">
        <ele>112.5</ele>
        <time>2013-10-01T19:18:44.628Z</time>
      </trkpt>
      <trkpt lat="48.84693" lon="2.34254">
        <ele>112.3</ele>
        <time>2013-10-01T19:18:45.617Z</time>
      </trkpt>
      <trkpt lat="48.84695" lon="2.34248">
        <ele>111.7</ele>
        <time>2013-10-01T19:18:46.589Z</time>
      </trkpt>
      <trkpt lat="48.84697" lon="2.34242">
        <ele>111.1</ele>
        <time>2013-10-01T19:18:47.589Z</time>
      </trkpt>
      <trkpt lat="48.84699" lon="2.34234">
        <ele>109.9</ele>
        <time>2013-10-01T19:18:48.559Z</time>
      </trkpt>
      <trkpt lat="48.84702" lon="2.34227">
        <ele>109.2</ele>
        <time>2013-10-01T19:18:49.584Z</time>
      </trkpt>
      <trkpt lat="48.84704" lon="2.34219">
        <ele>108.6</ele>
        <time>2013-10-01T19:18:50.537Z</time>
      </trkpt>
      <trkpt lat="48.84706" lon="2.34212">
        <ele>108.9</ele>
        <time>2013-10-01T19:18:51.579Z</time>
      </trkpt>
      <trkpt lat="48.84709" lon="2.34204">
        <ele>109.9</ele>
        <time>2013-10-01T19:18:52.559Z</time>
      </trkpt>
      <trkpt lat="48.84712" lon="2.34194">
        <ele>109.4</ele>
        <time>2013-10-01T19:18:53.594Z</time>
      </trkpt>
      <trkpt lat="48.84714" lon="2.34187">
        <ele>109.6</ele>
        <time>2013-10-01T19:18:54.560Z</time>
      </trkpt>
      <trkpt lat="48.84717" lon="2.34182">
        <ele>108.4</ele>
        <time>2013-10-01T19:18:55.535Z</time>
      </trkpt>
      <trkpt lat="48.8472" lon="2.3417">
        <ele>106.9</ele>
        <time>2013-10-01T19:18:57.774Z</time>
      </trkpt>
      <trkpt lat="48.84721" lon="2.34163">
        <ele>106.2</ele>
        <time>2013-10-01T19:18:58.589Z</time>
      </trkpt>
      <trkpt lat="48.84723" lon="2.34156">
        <ele>104.9</ele>
        <time>2013-10-01T19:18:59.599Z</time>
      </trkpt>
      <trkpt lat="48.84725" lon="2.34149">
        <ele>103.8</ele>
        <time>2013-10-01T19:19:00.534Z</time>
      </trkpt>
      <trkpt lat="48.84727" lon="2.34143">
        <ele>103.4</ele>
        <time>2013-10-01T19:19:01.586Z</time>
      </trkpt>
      <trkpt lat="48.84729" lon="2.34137">
        <ele>104</ele>
        <time>2013-10-01T19:19:02.591Z</time>
      </trkpt>
      <trkpt lat="48.84732" lon="2.34126">
        <ele>104.8</ele>
        <time>2013-10-01T19:19:04.559Z</time>
      </trkpt>
      <trkpt lat="48.84733" lon="2.34121">
        <ele>104.2</ele>
        <time>2013-10-01T19:19:05.568Z</time>
      </trkpt>
      <trkpt lat="48.84735" lon="2.34109">
        <ele>106.3</ele>
        <time>2013-10-01T19:19:08.568Z</time>
      </trkpt>
      <trkpt lat="48.84735" lon="2.34105">
        <ele>107.4</ele>
        <time>2013-10-01T19:19:09.560Z</time>
      </trkpt>
      <trkpt lat="48.84728" lon="2.34099">
        <ele>109.9</ele>
        <time>2013-10-01T19:19:18.614Z</time>
      </trkpt>
      <trkpt lat="48.84726" lon="2.34098">
        <ele>108.3</ele>
        <time>2013-10-01T19:19:19.810Z</time>
      </trkpt>
      <trkpt lat="48.8472" lon="2.34089">
        <ele>107.7</ele>
        <time>2013-10-01T19:19:24.751Z</time>
      </trkpt>
      <trkpt lat="48.8472" lon="2.34088">
        <ele>107.7</ele>
        <time>2013-10-01T19:19:25.676Z</time>
      </trkpt>
      <trkpt lat="48.84712" lon="2.34081">
        <ele>107.7</ele>
        <time>2013-10-01T19:19:34.613Z</time>
      </trkpt>
      <trkpt lat="48.84711" lon="2.3408">
        <ele>107.8</ele>
        <time>2013-10-01T19:19:35.799Z</time>
      </trkpt>
      <trkpt lat="48.84702" lon="2.34078">
        <ele>108.4</ele>
        <time>2013-10-01T19:19:40.575Z</time>
      </trkpt>
      <trkpt lat="48.847" lon="2.34079">
        <ele>108.7</ele>
        <time>2013-10-01T19:19:41.543Z</time>
      </trkpt>
      <trkpt lat="48.84693" lon="2.34081">
        <ele>107.2</ele>
        <time>2013-10-01T19:19:44.565Z</time>
      </trkpt>
      <trkpt lat="48.8469" lon="2.34081">
        <ele>106.5</ele>
        <time>2013-10-01T19:19:45.568Z</time>
      </trkpt>
      <trkpt lat="48.84683" lon="2.34082">
        <ele>106.6</ele>
        <time>2013-10-01T19:19:47.663Z</time>
      </trkpt>
      <trkpt lat="48.8468" lon="2.34081">
        <ele>107.6</ele>
        <time>2013-10-01T19:19:48.562Z</time>
      </trkpt>
      <trkpt lat="48.84674" lon="2.34078">
        <ele>107.8</ele>
        <time>2013-10-01T19:19:50.556Z</time>
      </trkpt>
      <trkpt lat="48.84671" lon="2.34076">
        <ele>109.9</ele>
        <time>2013-10-01T19:19:51.538Z</time>
      </trkpt>
      <trkpt lat="48.84664" lon="2.34074">
        <ele>110.9</ele>
        <time>2013-10-01T19:19:54.559Z</time>
      </trkpt>
      <trkpt lat="48.84661" lon="2.34074">
        <ele>111.3</ele>
        <time>2013-10-01T19:19:55.599Z</time>
      </trkpt>
      <trkpt lat="48.84654" lon="2.34075">
        <ele>112.7</ele>
        <time>2013-10-01T19:20:03.569Z</time>
      </trkpt>
      <trkpt lat="48.84654" lon="2.34075">
        <ele>112.5</ele>
        <time>2013-10-01T19:20:04.567Z</time>
      </trkpt>
      <trkpt lat="48.84655" lon="2.34075">
        <ele>112.3</ele>
        <time>2013-10-01T19:20:07.650Z</time>
      </trkpt>
      <trkpt lat="48.84655" lon="2.34074">
        <ele>112.4</ele>
        <time>2013-10-01T19:20:07.776Z</time>
      </trkpt>
      <trkpt lat="48.84655" lon="2.34074">
        <ele>112.4</ele>
        <time>2013-10-01T19:20:08.601Z</time>
      </trkpt>
      <trkpt lat="48.84655" lon="2.34074">
        <ele>112.4</ele>
        <time>2013-10-01T19:20:09.583Z</time>
      </trkpt>
      <trkpt lat="48.84654" lon="2.34073">
        <ele>113.7</ele>
        <time>2013-10-01T19:21:01.546Z</time>
      </trkpt>
      <trkpt lat="48.84654" lon="2.34071">
        <ele>114.3</ele>
        <time>2013-10-01T19:21:02.573Z</time>
      </trkpt>
      <trkpt lat="48.84649" lon="2.34066">
        <ele>112.4</ele>
        <time>2013-10-01T19:21:05.626Z</time>
      </trkpt>
      <trkpt lat="48.84646" lon="2.34064">
        <ele>112</ele>
        <time>2013-10-01T19:21:06.572Z</time>
      </trkpt>
      <trkpt lat="48.8464" lon="2.34058">
        <ele>110.8</ele>
        <time>2013-10-01T19:21:08.589Z</time>
      </trkpt>
      <trkpt lat="48.84636" lon="2.34056">
        <ele>110.4</ele>
        <time>2013-10-01T19:21:09.612Z</time>
      </trkpt>
      <trkpt lat="48.8463" lon="2.34051">
        <ele>111.5</ele>
        <time>2013-10-01T19:21:12.627Z</time>
      </trkpt>
      <trkpt lat="48.84625" lon="2.34047">
        <ele>112.3</ele>
        <time>2013-10-01T19:21:13.583Z</time>
      </trkpt>
      <trkpt lat="48.84616" lon="2.34047">
        <ele>112.8</ele>
        <time>2013-10-01T19:21:18.610Z</time>
      </trkpt>
      <trkpt lat="48.84616" lon="2.3405">
        <ele>111.6</ele>
        <time>2013-10-01T19:21:19.574Z</time>
      </trkpt>
      <trkpt lat="48.84614" lon="2.34063">
        <ele>110.2</ele>
        <time>2013-10-01T19:21:22.580Z</time>
      </trkpt>
      <trkpt lat="48.84612" lon="2.34068">
        <ele>112.6</ele>
        <time>2013-10-01T19:21:23.690Z</time>
      </trkpt>
      <trkpt lat="48.84608" lon="2.34075">
        <ele>113.9</ele>
        <time>2013-10-01T19:21:25.602Z</time>
      </trkpt>
      <trkpt lat="48.84606" lon="2.34079">
        <ele>112.3</ele>
        <time>2013-10-01T19:21:26.584Z</time>
      </trkpt>
      <trkpt lat="48.84603" lon="2.34088">
        <ele>110.9</ele>
        <time>2013-10-01T19:21:28.609Z</time>
      </trkpt>
      <trkpt lat="48.84602" lon="2.34093">
        <ele>105.4</ele>
        <time>2013-10-01T19:21:29.559Z</time>
      </trkpt>
      <trkpt lat="48.84604" lon="2.34103">
        <ele>103.5</ele>
        <time>2013-10-01T19:21:31.594Z</time>
      </trkpt>
      <trkpt lat="48.84606" lon="2.34106">
        <ele>105.3</ele>
        <time>2013-10-01T19:21:32.570Z</time>
      </trkpt>
      <trkpt lat="48.84606" lon="2.34116">
        <ele>110</ele>
        <time>2013-10-01T19:21:52.650Z</time>
      </trkpt>
      <trkpt lat="48.84606" lon="2.34116">
        <ele>110</ele>
        <time>2013-10-01T19:21:53.576Z</time>
      </trkpt>
      <trkpt lat="48.84606" lon="2.34116">
        <ele>110.3</ele>
        <time>2013-10-01T19:22:12.612Z</time>
      </trkpt>
      <trkpt lat="48.84605" lon="2.34116">
        <ele>111</ele>
        <time>2013-10-01T19:22:13.579Z</time>
      </trkpt>
      <trkpt lat="48.84597" lon="2.3412">
        <ele>112.3</ele>
        <time>2013-10-01T19:22:17.487Z</time>
      </trkpt>
      <trkpt lat="48.84595" lon="2.34124">
        <ele>112</ele>
        <time>2013-10-01T19:22:17.808Z</time>
      </trkpt>
      <trkpt lat="48.84591" lon="2.34136">
        <ele>114</ele>
        <time>2013-10-01T19:22:19.704Z</time>
      </trkpt>
      <trkpt lat="48.8459" lon="2.34143">
        <ele>114.7</ele>
        <time>2013-10-01T19:22:20.709Z</time>
      </trkpt>
      <trkpt lat="48.84588" lon="2.34154">
        <ele>114</ele>
        <time>2013-10-01T19:22:22.644Z</time>
      </trkpt>
      <trkpt lat="48.84586" lon="2.3416">
        <ele>114.1</ele>
        <time>2013-10-01T19:22:23.583Z</time>
      </trkpt>
      <trkpt lat="48.84584" lon="2.34169">
        <ele>114.3</ele>
        <time>2013-10-01T19:22:25.589Z</time>
      </trkpt>
      <trkpt lat="48.84582" lon="2.34173">
        <ele>114.2</ele>
        <time>2013-10-01T19:22:26.578Z</time>
      </trkpt>
      <trkpt lat="48.84578" lon="2.34181">
        <ele>114</ele>
        <time>2013-10-01T19:22:28.610Z</time>
      </trkpt>
      <trkpt lat="48.84576" lon="2.34184">
        <ele>114.2</ele>
        <time>2013-10-01T19:22:29.579Z</time>
      </trkpt>
      <trkpt lat="48.84572" lon="2.34193">
        <ele>115</ele>
        <time>2013-10-01T19:22:31.593Z</time>
      </trkpt>
      <trkpt lat="48.8457" lon="2.34198">
        <ele>115</ele>
        <time>2013-10-01T19:22:32.584Z</time>
      </trkpt>
      <trkpt lat="48.84567" lon="2.34208">
        <ele>114.7</ele>
        <time>2013-10-01T19:22:34.583Z</time>
      </trkpt>
      <trkpt lat="48.84566" lon="2.34213">
        <ele>114.4</ele>
        <time>2013-10-01T19:22:35.591Z</time>
      </trkpt>
      <trkpt lat="48.84563" lon="2.34222">
        <ele>112.9</ele>
        <time>2013-10-01T19:22:37.754Z</time>
      </trkpt>
      <trkpt lat="48.84562" lon="2.34227">
        <ele>113</ele>
        <time>2013-10-01T19:22:38.594Z</time>
      </trkpt>
      <trkpt lat="48.8456" lon="2.34239">
        <ele>111.7</ele>
        <time>2013-10-01T19:22:41.577Z</time>
      </trkpt>
      <trkpt lat="48.8456" lon="2.34242">
        <ele>111.5</ele>
        <time>2013-10-01T19:22:42.583Z</time>
      </trkpt>
      <trkpt lat="48.84563" lon="2.34254">
        <ele>113.2</ele>
        <time>2013-10-01T19:22:56.617Z</time>
      </trkpt>
      <trkpt lat="48.84564" lon="2.34255">
        <ele>113.2</ele>
        <time>2013-10-01T19:22:57.589Z</time>
      </trkpt>
      <trkpt lat="48.84558" lon="2.34259">
        <ele>116.3</ele>
        <time>2013-10-01T19:23:10.590Z</time>
      </trkpt>
      <trkpt lat="48.84555" lon="2.34258">
        <ele>114.3</ele>
        <time>2013-10-01T19:23:11.619Z</time>
      </trkpt>
      <trkpt lat="48.84552" lon="2.34257">
        <ele>113.8</ele>
        <time>2013-10-01T19:23:12.694Z</time>
      </trkpt>
      <trkpt lat="48.84544" lon="2.34255">
        <ele>112.9</ele>
        <time>2013-10-01T19:23:13.614Z</time>
      </trkpt>
      <trkpt lat="48.84536" lon="2.34253">
        <ele>111.6</ele>
        <time>2013-10-01T19:23:14.579Z</time>
      </trkpt>
      <trkpt lat="48.84529" lon="2.34251">
        <ele>112</ele>
        <time>2013-10-01T19:23:15.589Z</time>
      </trkpt>
      <trkpt lat="48.84521" lon="2.34251">
        <ele>111.2</ele>
        <time>2013-10-01T19:23:16.608Z</time>
      </trkpt>
      <trkpt lat="48.84512" lon="2.34254">
        <ele>111.5</ele>
        <time>2013-10-01T19:23:17.570Z</time>
      </trkpt>
      <trkpt lat="48.84504" lon="2.34253">
        <ele>112.1</ele>
        <time>2013-10-01T19:23:18.575Z</time>
      </trkpt>
      <trkpt lat="48.84498" lon="2.34252">
        <ele>113.1</ele>
        <time>2013-10-01T19:23:19.608Z</time>
      </trkpt>
      <trkpt lat="48.84491" lon="2.34249">
        <ele>118.5</ele>
        <time>2013-10-01T19:23:20.578Z</time>
      </trkpt>
      <trkpt lat="48.84486" lon="2.34246">
        <ele>117.7</ele>
        <time>2013-10-01T19:23:21.609Z</time>
      </trkpt>
      <trkpt lat="48.84481" lon="2.34244">
        <ele>118.8</ele>
        <time>2013-10-01T19:23:22.591Z</time>
      </trkpt>
      <trkpt lat="48.84475" lon="2.34243">
        <ele>120.4</ele>
        <time>2013-10-01T19:23:23.598Z</time>
      </trkpt>
      <trkpt lat="48.84471" lon="2.34241">
        <ele>121.4</ele>
        <time>2013-10-01T19:23:24.599Z</time>
      </trkpt>
      <trkpt lat="48.84465" lon="2.3424">
        <ele>120.3</ele>
        <time>2013-10-01T19:23:25.597Z</time>
      </trkpt>
      <trkpt lat="48.8446" lon="2.34236">
        <ele>118.4</ele>
        <time>2013-10-01T19:23:26.619Z</time>
      </trkpt>
      <trkpt lat="48.84455" lon="2.34232">
        <ele>118.2</ele>
        <time>2013-10-01T19:23:27.560Z</time>
      </trkpt>
      <trkpt lat="48.84449" lon="2.34228">
        <ele>118.4</ele>
        <time>2013-10-01T19:23:28.578Z</time>
      </trkpt>
      <trkpt lat="48.84445" lon="2.34224">
        <ele>118.3</ele>
        <time>2013-10-01T19:23:29.567Z</time>
      </trkpt>
      <trkpt lat="48.84441" lon="2.34222">
        <ele>118.3</ele>
        <time>2013-10-01T19:23:30.611Z</time>
      </trkpt>
      <trkpt lat="48.84436" lon="2.34219">
        <ele>117.8</ele>
        <time>2013-10-01T19:23:31.580Z</time>
      </trkpt>
      <trkpt lat="48.84431" lon="2.34217">
        <ele>116.6</ele>
        <time>2013-10-01T19:23:32.588Z</time>
      </trkpt>
      <trkpt lat="48.84427" lon="2.34214">
        <ele>118.2</ele>
        <time>2013-10-01T19:23:33.610Z</time>
      </trkpt>
      <trkpt lat="48.84419" lon="2.34211">
        <ele>118</ele>
        <time>2013-10-01T19:23:35.578Z</time>
      </trkpt>
      <trkpt lat="48.84415" lon="2.34211">
        <ele>118.6</ele>
        <time>2013-10-01T19:23:36.605Z</time>
      </trkpt>
      <trkpt lat="48.84406" lon="2.34211">
        <ele>121.2</ele>
        <time>2013-10-01T19:23:38.584Z</time>
      </trkpt>
      <trkpt lat="48.84401" lon="2.34211">
        <ele>124.5</ele>
        <time>2013-10-01T19:23:39.588Z</time>
      </trkpt>
      <trkpt lat="48.84396" lon="2.34211">
        <ele>125.8</ele>
        <time>2013-10-01T19:23:40.587Z</time>
      </trkpt>
      <trkpt lat="48.84391" lon="2.34209">
        <ele>126.9</ele>
        <time>2013-10-01T19:23:41.588Z</time>
      </trkpt>
      <trkpt lat="48.84387" lon="2.34204">
        <ele>127.1</ele>
        <time>2013-10-01T19:23:42.574Z</time>
      </trkpt>
      <trkpt lat="48.84384" lon="2.34198">
        <ele>126.5</ele>
        <time>2013-10-01T19:23:43.587Z</time>
      </trkpt>
      <trkpt lat="48.84381" lon="2.34193">
        <ele>126.3</ele>
        <time>2013-10-01T19:23:44.583Z</time>
      </trkpt>
      <trkpt lat="48.84377" lon="2.34188">
        <ele>125.6</ele>
        <time>2013-10-01T19:23:45.579Z</time>
      </trkpt>
      <trkpt lat="48.84372" lon="2.34184">
        <ele>126.8</ele>
        <time>2013-10-01T19:23:46.658Z</time>
      </trkpt>
      <trkpt lat="48.84368" lon="2.34182">
        <ele>126.2</ele>
        <time>2013-10-01T19:23:47.587Z</time>
      </trkpt>
      <trkpt lat="48.84363" lon="2.34178">
        <ele>126.3</ele>
        <time>2013-10-01T19:23:48.669Z</time>
      </trkpt>
      <trkpt lat="48.84358" lon="2.34177">
        <ele>125.9</ele>
        <time>2013-10-01T19:23:49.590Z</time>
      </trkpt>
      <trkpt lat="48.84351" lon="2.34176">
        <ele>125.6</ele>
        <time>2013-10-01T19:23:50.578Z</time>
      </trkpt>
      <trkpt lat="48.84346" lon="2.34174">
        <ele>125.8</ele>
        <time>2013-10-01T19:23:51.578Z</time>
      </trkpt>
      <trkpt lat="48.84341" lon="2.34172">
        <ele>124.7</ele>
        <time>2013-10-01T19:23:52.591Z</time>
      </trkpt>
      <trkpt lat="48.84335" lon="2.3417">
        <ele>124.3</ele>
        <time>2013-10-01T19:23:53.582Z</time>
      </trkpt>
      <trkpt lat="48.8433" lon="2.34166">
        <ele>126.4</ele>
        <time>2013-10-01T19:23:54.588Z</time>
      </trkpt>
      <trkpt lat="48.84325" lon="2.34164">
        <ele>127.5</ele>
        <time>2013-10-01T19:23:55.579Z</time>
      </trkpt>
      <trkpt lat="48.8432" lon="2.34161">
        <ele>126.5</ele>
        <time>2013-10-01T19:23:56.578Z</time>
      </trkpt>
      <trkpt lat="48.84315" lon="2.34158">
        <ele>121.3</ele>
        <time>2013-10-01T19:23:57.568Z</time>
      </trkpt>
      <trkpt lat="48.8431" lon="2.34154">
        <ele>120.5</ele>
        <time>2013-10-01T19:23:58.570Z</time>
      </trkpt>
      <trkpt lat="48.84306" lon="2.3415">
        <ele>122.2</ele>
        <time>2013-10-01T19:23:59.620Z</time>
      </trkpt>
      <trkpt lat="48.84301" lon="2.34147">
        <ele>122.3</ele>
        <time>2013-10-01T19:24:00.582Z</time>
      </trkpt>
      <trkpt lat="48.84295" lon="2.34144">
        <ele>122.5</ele>
        <time>2013-10-01T19:24:01.585Z</time>
      </trkpt>
      <trkpt lat="48.8429" lon="2.34141">
        <ele>122.6</ele>
        <time>2013-10-01T19:24:02.650Z</time>
      </trkpt>
      <trkpt lat="48.84284" lon="2.3414">
        <ele>122.9</ele>
        <time>2013-10-01T19:24:03.569Z</time>
      </trkpt>
      <trkpt lat="48.84279" lon="2.34139">
        <ele>122.5</ele>
        <time>2013-10-01T19:24:04.621Z</time>
      </trkpt>
      <trkpt lat="48.84274" lon="2.34139">
        <ele>122.3</ele>
        <time>2013-10-01T19:24:05.597Z</time>
      </trkpt>
      <trkpt lat="48.84269" lon="2.34139">
        <ele>121.9</ele>
        <time>2013-10-01T19:24:07.436Z</time>
      </trkpt>
      <trkpt lat="48.84264" lon="2.34139">
        <ele>122.6</ele>
        <time>2013-10-01T19:24:07.771Z</time>
      </trkpt>
      <trkpt lat="48.84256" lon="2.34138">
        <ele>124</ele>
        <time>2013-10-01T19:24:09.605Z</time>
      </trkpt>
      <trkpt lat="48.84252" lon="2.34138">
        <ele>124.7</ele>
        <time>2013-10-01T19:24:10.606Z</time>
      </trkpt>
      <trkpt lat="48.84245" lon="2.34139">
        <ele>125.4</ele>
        <time>2013-10-01T19:24:12.592Z</time>
      </trkpt>
      <trkpt lat="48.84241" lon="2.34138">
        <ele>124.8</ele>
        <time>2013-10-01T19:24:13.583Z</time>
      </trkpt>
      <trkpt lat="48.84232" lon="2.34137">
        <ele>125.3</ele>
        <time>2013-10-01T19:24:15.591Z</time>
      </trkpt>
      <trkpt lat="48.84228" lon="2.34136">
        <ele>126.1</ele>
        <time>2013-10-01T19:24:16.601Z</time>
      </trkpt>
      <trkpt lat="48.8422" lon="2.34136">
        <ele>123.7</ele>
        <time>2013-10-01T19:24:18.612Z</time>
      </trkpt>
      <trkpt lat="48.84217" lon="2.34136">
        <ele>124.3</ele>
        <time>2013-10-01T19:24:19.588Z</time>
      </trkpt>
      <trkpt lat="48.84209" lon="2.34131">
        <ele>123.7</ele>
        <time>2013-10-01T19:24:22.577Z</time>
      </trkpt>
      <trkpt lat="48.84209" lon="2.34126">
        <ele>123.2</ele>
        <time>2013-10-01T19:24:23.588Z</time>
      </trkpt>
      <trkpt lat="48.84212" lon="2.34113">
        <ele>121.3</ele>
        <time>2013-10-01T19:24:25.600Z</time>
      </trkpt>
      <trkpt lat="48.84215" lon="2.34107">
        <ele>120.6</ele>
        <time>2013-10-01T19:24:26.569Z</time>
      </trkpt>
      <trkpt lat="48.84219" lon="2.34102">
        <ele>119.3</ele>
        <time>2013-10-01T19:24:27.587Z</time>
      </trkpt>
      <trkpt lat="48.84222" lon="2.34098">
        <ele>119.9</ele>
        <time>2013-10-01T19:24:28.609Z</time>
      </trkpt>
      <trkpt lat="48.84226" lon="2.34093">
        <ele>118.5</ele>
        <time>2013-10-01T19:24:29.668Z</time>
      </trkpt>
      <trkpt lat="48.84229" lon="2.34087">
        <ele>118.5</ele>
        <time>2013-10-01T19:24:30.724Z</time>
      </trkpt>
      <trkpt lat="48.8423" lon="2.34075">
        <ele>119.8</ele>
        <time>2013-10-01T19:24:32.838Z</time>
      </trkpt>
      <trkpt lat="48.84228" lon="2.3407">
        <ele>119.9</ele>
        <time>2013-10-01T19:24:33.597Z</time>
      </trkpt>
      <trkpt lat="48.84224" lon="2.34063">
        <ele>118.7</ele>
        <time>2013-10-01T19:24:34.591Z</time>
      </trkpt>
      <trkpt lat="48.84217" lon="2.34056">
        <ele>117.5</ele>
        <time>2013-10-01T19:24:35.568Z</time>
      </trkpt>
      <trkpt lat="48.8421" lon="2.3405">
        <ele>116.9</ele>
        <time>2013-10-01T19:24:36.586Z</time>
      </trkpt>
      <trkpt lat="48.84202" lon="2.34046">
        <ele>117.1</ele>
        <time>2013-10-01T19:24:37.612Z</time>
      </trkpt>
      <trkpt lat="48.84195" lon="2.34042">
        <ele>117.1</ele>
        <time>2013-10-01T19:24:38.599Z</time>
      </trkpt>
      <trkpt lat="48.84188" lon="2.34038">
        <ele>116.8</ele>
        <time>2013-10-01T19:24:39.636Z</time>
      </trkpt>
      <trkpt lat="48.84183" lon="2.34034">
        <ele>116.6</ele>
        <time>2013-10-01T19:24:40.593Z</time>
      </trkpt>
      <trkpt lat="48.84179" lon="2.34031">
        <ele>116.6</ele>
        <time>2013-10-01T19:24:41.598Z</time>
      </trkpt>
      <trkpt lat="48.84175" lon="2.34035">
        <ele>117</ele>
        <time>2013-10-01T19:24:51.640Z</time>
      </trkpt>
      <trkpt lat="48.84175" lon="2.34034">
        <ele>116.8</ele>
        <time>2013-10-01T19:24:52.722Z</time>
      </trkpt>
      <trkpt lat="48.84174" lon="2.34033">
        <ele>116.5</ele>
        <time>2013-10-01T19:24:55.720Z</time>
      </trkpt>
      <trkpt lat="48.84174" lon="2.34033">
        <ele>116.7</ele>
        <time>2013-10-01T19:24:56.614Z</time>
      </trkpt>
      <trkpt lat="48.84174" lon="2.34033">
        <ele>117</ele>
        <time>2013-10-01T19:24:57.740Z</time>
      </trkpt>
      <trkpt lat="48.84174" lon="2.34033">
        <ele>117</ele>
        <time>2013-10-01T19:24:57.782Z</time>
      </trkpt>
      <trkpt lat="48.84174" lon="2.34033">
        <ele>117</ele>
        <time>2013-10-01T19:24:58.599Z</time>
      </trkpt>
      <trkpt lat="48.84173" lon="2.34032">
        <ele>117.2</ele>
        <time>2013-10-01T19:24:59.679Z</time>
      </trkpt>
      <trkpt lat="48.84173" lon="2.34032">
        <ele>117.2</ele>
        <time>2013-10-01T19:25:00.653Z</time>
      </trkpt>
      <trkpt lat="48.84173" lon="2.34032">
        <ele>117.4</ele>
        <time>2013-10-01T19:25:11.679Z</time>
      </trkpt>
      <trkpt lat="48.84173" lon="2.34032">
        <ele>118</ele>
        <time>2013-10-01T19:25:12.609Z</time>
      </trkpt>
      <trkpt lat="48.84167" lon="2.34023">
        <ele>117.3</ele>
        <time>2013-10-01T19:25:15.729Z</time>
      </trkpt>
      <trkpt lat="48.84165" lon="2.34021">
        <ele>116.7</ele>
        <time>2013-10-01T19:25:16.657Z</time>
      </trkpt>
      <trkpt lat="48.84158" lon="2.34017">
        <ele>117.8</ele>
        <time>2013-10-01T19:25:18.693Z</time>
      </trkpt>
      <trkpt lat="48.84155" lon="2.34016">
        <ele>118.5</ele>
        <time>2013-10-01T19:25:19.611Z</time>
      </trkpt>
      <trkpt lat="48.84147" lon="2.34013">
        <ele>118.9</ele>
        <time>2013-10-01T19:25:22.537Z</time>
      </trkpt>
      <trkpt lat="48.84144" lon="2.34011">
        <ele>118.8</ele>
        <time>2013-10-01T19:25:22.733Z</time>
      </trkpt>
      <trkpt lat="48.84137" lon="2.34006">
        <ele>118.9</ele>
        <time>2013-10-01T19:25:24.696Z</time>
      </trkpt>
      <trkpt lat="48.84133" lon="2.34003">
        <ele>119.1</ele>
        <time>2013-10-01T19:25:25.728Z</time>
      </trkpt>
      <trkpt lat="48.84129" lon="2.34">
        <ele>119</ele>
        <time>2013-10-01T19:25:27.499Z</time>
      </trkpt>
      <trkpt lat="48.84125" lon="2.33997">
        <ele>120.7</ele>
        <time>2013-10-01T19:25:27.798Z</time>
      </trkpt>
      <trkpt lat="48.84117" lon="2.33993">
        <ele>117.5</ele>
        <time>2013-10-01T19:25:29.783Z</time>
      </trkpt>
      <trkpt lat="48.84114" lon="2.33992">
        <ele>119.9</ele>
        <time>2013-10-01T19:25:30.588Z</time>
      </trkpt>
      <trkpt lat="48.8411" lon="2.3399">
        <ele>120</ele>
        <time>2013-10-01T19:25:31.729Z</time>
      </trkpt>
      <trkpt lat="48.84103" lon="2.33989">
        <ele>120.8</ele>
        <time>2013-10-01T19:25:32.738Z</time>
      </trkpt>
      <trkpt lat="48.84097" lon="2.33989">
        <ele>120.1</ele>
        <time>2013-10-01T19:25:33.705Z</time>
      </trkpt>
      <trkpt lat="48.84093" lon="2.33985">
        <ele>122.5</ele>
        <time>2013-10-01T19:25:34.737Z</time>
      </trkpt>
      <trkpt lat="48.84089" lon="2.33982">
        <ele>122.3</ele>
        <time>2013-10-01T19:25:35.631Z</time>
      </trkpt>
      <trkpt lat="48.84084" lon="2.33979">
        <ele>121.8</ele>
        <time>2013-10-01T19:25:36.777Z</time>
      </trkpt>
      <trkpt lat="48.8408" lon="2.33976">
        <ele>121.7</ele>
        <time>2013-10-01T19:25:37.629Z</time>
      </trkpt>
      <trkpt lat="48.84075" lon="2.33973">
        <ele>121.3</ele>
        <time>2013-10-01T19:25:38.780Z</time>
      </trkpt>
      <trkpt lat="48.84071" lon="2.3397">
        <ele>122.3</ele>
        <time>2013-10-01T19:25:39.699Z</time>
      </trkpt>
      <trkpt lat="48.84066" lon="2.33967">
        <ele>122</ele>
        <time>2013-10-01T19:25:40.557Z</time>
      </trkpt>
      <trkpt lat="48.84062" lon="2.33963">
        <ele>122.4</ele>
        <time>2013-10-01T19:25:41.577Z</time>
      </trkpt>
      <trkpt lat="48.84057" lon="2.33959">
        <ele>122.8</ele>
        <time>2013-10-01T19:25:42.581Z</time>
      </trkpt>
      <trkpt lat="48.84053" lon="2.33955">
        <ele>123</ele>
        <time>2013-10-01T19:25:43.559Z</time>
      </trkpt>
      <trkpt lat="48.8405" lon="2.3395">
        <ele>122.6</ele>
        <time>2013-10-01T19:25:44.586Z</time>
      </trkpt>
      <trkpt lat="48.84047" lon="2.33945">
        <ele>122</ele>
        <time>2013-10-01T19:25:45.598Z</time>
      </trkpt>
      <trkpt lat="48.84043" lon="2.3394">
        <ele>121.6</ele>
        <time>2013-10-01T19:25:46.587Z</time>
      </trkpt>
      <trkpt lat="48.84039" lon="2.33936">
        <ele>122</ele>
        <time>2013-10-01T19:25:47.653Z</time>
      </trkpt>
      <trkpt lat="48.84035" lon="2.33932">
        <ele>123.1</ele>
        <time>2013-10-01T19:25:48.586Z</time>
      </trkpt>
      <trkpt lat="48.84028" lon="2.33925">
        <ele>123.1</ele>
        <time>2013-10-01T19:25:50.592Z</time>
      </trkpt>
      <trkpt lat="48.84024" lon="2.33919">
        <ele>121.1</ele>
        <time>2013-10-01T19:25:51.628Z</time>
      </trkpt>
      <trkpt lat="48.8402" lon="2.33915">
        <ele>121.3</ele>
        <time>2013-10-01T19:25:52.762Z</time>
      </trkpt>
      <trkpt lat="48.84017" lon="2.33911">
        <ele>120.5</ele>
        <time>2013-10-01T19:25:53.589Z</time>
      </trkpt>
      <trkpt lat="48.84011" lon="2.33908">
        <ele>119.8</ele>
        <time>2013-10-01T19:25:54.790Z</time>
      </trkpt>
      <trkpt lat="48.84007" lon="2.33904">
        <ele>119.2</ele>
        <time>2013-10-01T19:25:55.704Z</time>
      </trkpt>
      <trkpt lat="48.83999" lon="2.339">
        <ele>117.7</ele>
        <time>2013-10-01T19:25:57.757Z</time>
      </trkpt>
      <trkpt lat="48.83996" lon="2.33898">
        <ele>118.1</ele>
        <time>2013-10-01T19:25:58.638Z</time>
      </trkpt>
      <trkpt lat="48.83992" lon="2.33893">
        <ele>116.7</ele>
        <time>2013-10-01T19:26:00.596Z</time>
      </trkpt>
      <trkpt lat="48.83989" lon="2.3389">
        <ele>116.8</ele>
        <time>2013-10-01T19:26:01.770Z</time>
      </trkpt>
      <trkpt lat="48.83982" lon="2.33888">
        <ele>114.6</ele>
        <time>2013-10-01T19:26:03.750Z</time>
      </trkpt>
      <trkpt lat="48.83978" lon="2.33887">
        <ele>114.3</ele>
        <time>2013-10-01T19:26:04.713Z</time>
      </trkpt>
      <trkpt lat="48.8397" lon="2.33884">
        <ele>113.3</ele>
        <time>2013-10-01T19:26:07.415Z</time>
      </trkpt>
      <trkpt lat="48.83967" lon="2.33882">
        <ele>112.9</ele>
        <time>2013-10-01T19:26:07.586Z</time>
      </trkpt>
      <trkpt lat="48.83962" lon="2.33879">
        <ele>112.4</ele>
        <time>2013-10-01T19:26:08.588Z</time>
      </trkpt>
      <trkpt lat="48.83958" lon="2.33877">
        <ele>112.8</ele>
        <time>2013-10-01T19:26:09.578Z</time>
      </trkpt>
      <trkpt lat="48.83951" lon="2.33871">
        <ele>112.3</ele>
        <time>2013-10-01T19:26:11.684Z</time>
      </trkpt>
      <trkpt lat="48.83947" lon="2.33869">
        <ele>110.2</ele>
        <time>2013-10-01T19:26:12.703Z</time>
      </trkpt>
      <trkpt lat="48.83941" lon="2.33864">
        <ele>109.3</ele>
        <time>2013-10-01T19:26:14.591Z</time>
      </trkpt>
      <trkpt lat="48.83938" lon="2.33863">
        <ele>109.5</ele>
        <time>2013-10-01T19:26:15.606Z</time>
      </trkpt>
      <trkpt lat="48.83931" lon="2.33859">
        <ele>112</ele>
        <time>2013-10-01T19:26:18.591Z</time>
      </trkpt>
      <trkpt lat="48.8393" lon="2.33857">
        <ele>112.2</ele>
        <time>2013-10-01T19:26:19.586Z</time>
      </trkpt>
      <trkpt lat="48.83926" lon="2.33846">
        <ele>117.5</ele>
        <time>2013-10-01T19:26:23.649Z</time>
      </trkpt>
      <trkpt lat="48.83927" lon="2.33842">
        <ele>118.5</ele>
        <time>2013-10-01T19:26:24.807Z</time>
      </trkpt>
      <trkpt lat="48.8393" lon="2.33833">
        <ele>118.3</ele>
        <time>2013-10-01T19:26:26.749Z</time>
      </trkpt>
      <trkpt lat="48.83931" lon="2.33829">
        <ele>119.4</ele>
        <time>2013-10-01T19:26:27.780Z</time>
      </trkpt>
      <trkpt lat="48.83934" lon="2.33819">
        <ele>115.9</ele>
        <time>2013-10-01T19:26:30.285Z</time>
      </trkpt>
      <trkpt lat="48.83935" lon="2.33816">
        <ele>115.1</ele>
        <time>2013-10-01T19:26:30.528Z</time>
      </trkpt>
      <trkpt lat="48.83939" lon="2.33806">
        <ele>112.4</ele>
        <time>2013-10-01T19:26:32.702Z</time>
      </trkpt>
      <trkpt lat="48.83941" lon="2.338">
        <ele>112</ele>
        <time>2013-10-01T19:26:33.689Z</time>
      </trkpt>
      <trkpt lat="48.83944" lon="2.33791">
        <ele>111.4</ele>
        <time>2013-10-01T19:26:35.680Z</time>
      </trkpt>
      <trkpt lat="48.83945" lon="2.33787">
        <ele>110.8</ele>
        <time>2013-10-01T19:26:36.750Z</time>
      </trkpt>
      <trkpt lat="48.83947" lon="2.33776">
        <ele>108.7</ele>
        <time>2013-10-01T19:26:39.519Z</time>
      </trkpt>
      <trkpt lat="48.83948" lon="2.33773">
        <ele>108.8</ele>
        <time>2013-10-01T19:26:40.706Z</time>
      </trkpt>
      <trkpt lat="48.83955" lon="2.33768">
        <ele>106.7</ele>
        <time>2013-10-01T19:26:47.848Z</time>
      </trkpt>
      <trkpt lat="48.83957" lon="2.3377">
        <ele>107.4</ele>
        <time>2013-10-01T19:26:48.510Z</time>
      </trkpt>
      <trkpt lat="48.83964" lon="2.33774">
        <ele>109.1</ele>
        <time>2013-10-01T19:26:50.508Z</time>
      </trkpt>
      <trkpt lat="48.83967" lon="2.33777">
        <ele>109.3</ele>
        <time>2013-10-01T19:26:51.499Z</time>
      </trkpt>
      <trkpt lat="48.83974" lon="2.33781">
        <ele>108.9</ele>
        <time>2013-10-01T19:26:53.579Z</time>
      </trkpt>
      <trkpt lat="48.83978" lon="2.33783">
        <ele>107.6</ele>
        <time>2013-10-01T19:26:54.669Z</time>
      </trkpt>
      <trkpt lat="48.83986" lon="2.33787">
        <ele>108.3</ele>
        <time>2013-10-01T19:26:56.732Z</time>
      </trkpt>
      <trkpt lat="48.8399" lon="2.33789">
        <ele>108.9</ele>
        <time>2013-10-01T19:26:57.514Z</time>
      </trkpt>
      <trkpt lat="48.83997" lon="2.33793">
        <ele>111</ele>
        <time>2013-10-01T19:26:59.498Z</time>
      </trkpt>
      <trkpt lat="48.84001" lon="2.33796">
        <ele>113.5</ele>
        <time>2013-10-01T19:27:00.511Z</time>
      </trkpt>
      <trkpt lat="48.84009" lon="2.338">
        <ele>116.3</ele>
        <time>2013-10-01T19:27:02.513Z</time>
      </trkpt>
      <trkpt lat="48.84013" lon="2.33803">
        <ele>117.1</ele>
        <time>2013-10-01T19:27:03.560Z</time>
      </trkpt>
      <trkpt lat="48.8402" lon="2.33808">
        <ele>119</ele>
        <time>2013-10-01T19:27:05.470Z</time>
      </trkpt>
      <trkpt lat="48.84024" lon="2.33811">
        <ele>124.1</ele>
        <time>2013-10-01T19:27:06.505Z</time>
      </trkpt>
      <trkpt lat="48.84032" lon="2.33814">
        <ele>130</ele>
        <time>2013-10-01T19:27:08.498Z</time>
      </trkpt>
      <trkpt lat="48.84036" lon="2.33815">
        <ele>132.6</ele>
        <time>2013-10-01T19:27:09.512Z</time>
      </trkpt>
      <trkpt lat="48.84045" lon="2.33818">
        <ele>135</ele>
        <time>2013-10-01T19:27:11.510Z</time>
      </trkpt>
      <trkpt lat="48.84049" lon="2.3382">
        <ele>135.7</ele>
        <time>2013-10-01T19:27:12.502Z</time>
      </trkpt>
      <trkpt lat="48.84053" lon="2.33823">
        <ele>136.2</ele>
        <time>2013-10-01T19:27:13.506Z</time>
      </trkpt>
      <trkpt lat="48.84058" lon="2.33827">
        <ele>136</ele>
        <time>2013-10-01T19:27:14.515Z</time>
      </trkpt>
      <trkpt lat="48.84062" lon="2.3383">
        <ele>136.1</ele>
        <time>2013-10-01T19:27:15.505Z</time>
      </trkpt>
      <trkpt lat="48.84066" lon="2.33833">
        <ele>136.3</ele>
        <time>2013-10-01T19:27:16.530Z</time>
      </trkpt>
      <trkpt lat="48.84074" lon="2.33838">
        <ele>138</ele>
        <time>2013-10-01T19:27:18.552Z</time>
      </trkpt>
      <trkpt lat="48.84078" lon="2.3384">
        <ele>139.6</ele>
        <time>2013-10-01T19:27:19.528Z</time>
      </trkpt>
      <trkpt lat="48.84085" lon="2.33847">
        <ele>140.8</ele>
        <time>2013-10-01T19:27:21.519Z</time>
      </trkpt>
      <trkpt lat="48.84089" lon="2.33851">
        <ele>141.4</ele>
        <time>2013-10-01T19:27:22.557Z</time>
      </trkpt>
      <trkpt lat="48.84097" lon="2.33857">
        <ele>141.4</ele>
        <time>2013-10-01T19:27:24.599Z</time>
      </trkpt>
      <trkpt lat="48.84101" lon="2.3386">
        <ele>141.3</ele>
        <time>2013-10-01T19:27:25.551Z</time>
      </trkpt>
      <trkpt lat="48.84109" lon="2.33865">
        <ele>141.2</ele>
        <time>2013-10-01T19:27:27.590Z</time>
      </trkpt>
      <trkpt lat="48.84114" lon="2.33867">
        <ele>141</ele>
        <time>2013-10-01T19:27:28.529Z</time>
      </trkpt>
      <trkpt lat="48.84118" lon="2.33868">
        <ele>140.4</ele>
        <time>2013-10-01T19:27:29.509Z</time>
      </trkpt>
      <trkpt lat="48.84127" lon="2.33864">
        <ele>140.2</ele>
        <time>2013-10-01T19:27:30.569Z</time>
      </trkpt>
      <trkpt lat="48.84135" lon="2.33861">
        <ele>140</ele>
        <time>2013-10-01T19:27:31.519Z</time>
      </trkpt>
      <trkpt lat="48.84143" lon="2.33858">
        <ele>140</ele>
        <time>2013-10-01T19:27:32.509Z</time>
      </trkpt>
      <trkpt lat="48.84149" lon="2.33854">
        <ele>140.3</ele>
        <time>2013-10-01T19:27:33.489Z</time>
      </trkpt>
      <trkpt lat="48.84154" lon="2.33849">
        <ele>140.3</ele>
        <time>2013-10-01T19:27:34.561Z</time>
      </trkpt>
      <trkpt lat="48.8416" lon="2.33841">
        <ele>137.7</ele>
        <time>2013-10-01T19:27:36.479Z</time>
      </trkpt>
      <trkpt lat="48.84163" lon="2.33836">
        <ele>136.7</ele>
        <time>2013-10-01T19:27:37.510Z</time>
      </trkpt>
      <trkpt lat="48.84168" lon="2.33825">
        <ele>135.9</ele>
        <time>2013-10-01T19:27:39.504Z</time>
      </trkpt>
      <trkpt lat="48.8417" lon="2.3382">
        <ele>136.9</ele>
        <time>2013-10-01T19:27:40.532Z</time>
      </trkpt>
      <trkpt lat="48.84171" lon="2.33811">
        <ele>135.2</ele>
        <time>2013-10-01T19:27:42.499Z</time>
      </trkpt>
      <trkpt lat="48.84172" lon="2.33807">
        <ele>134.7</ele>
        <time>2013-10-01T19:27:43.519Z</time>
      </trkpt>
      <trkpt lat="48.84173" lon="2.33794">
        <ele>133.4</ele>
        <time>2013-10-01T19:27:46.499Z</time>
      </trkpt>
      <trkpt lat="48.84173" lon="2.33791">
        <ele>134.5</ele>
        <time>2013-10-01T19:27:47.508Z</time>
      </trkpt>
      <trkpt lat="48.84171" lon="2.3378">
        <ele>130.5</ele>
        <time>2013-10-01T19:28:00.687Z</time>
      </trkpt>
      <trkpt lat="48.84171" lon="2.3378">
        <ele>130</ele>
        <time>2013-10-01T19:28:01.529Z</time>
      </trkpt>
      <trkpt lat="48.84171" lon="2.33781">
        <ele>129.3</ele>
        <time>2013-10-01T19:28:02.689Z</time>
      </trkpt>
      <trkpt lat="48.84171" lon="2.33784">
        <ele>128.6</ele>
        <time>2013-10-01T19:28:07.737Z</time>
      </trkpt>
      <trkpt lat="48.84171" lon="2.33784">
        <ele>128.5</ele>
        <time>2013-10-01T19:28:08.563Z</time>
      </trkpt>
      <trkpt lat="48.84171" lon="2.33783">
        <ele>128.3</ele>
        <time>2013-10-01T19:28:15.546Z</time>
      </trkpt>
      <trkpt lat="48.84171" lon="2.33781">
        <ele>126.3</ele>
        <time>2013-10-01T19:28:16.695Z</time>
      </trkpt>
      <trkpt lat="48.84169" lon="2.3377">
        <ele>124.5</ele>
        <time>2013-10-01T19:28:20.608Z</time>
      </trkpt>
      <trkpt lat="48.84169" lon="2.33765">
        <ele>123.6</ele>
        <time>2013-10-01T19:28:21.779Z</time>
      </trkpt>
      <trkpt lat="48.84172" lon="2.33753">
        <ele>120.9</ele>
        <time>2013-10-01T19:28:24.503Z</time>
      </trkpt>
      <trkpt lat="48.84175" lon="2.33748">
        <ele>119.7</ele>
        <time>2013-10-01T19:28:25.716Z</time>
      </trkpt>
      <trkpt lat="48.84181" lon="2.33743">
        <ele>117.5</ele>
        <time>2013-10-01T19:28:27.665Z</time>
      </trkpt>
      <trkpt lat="48.84184" lon="2.33741">
        <ele>116.8</ele>
        <time>2013-10-01T19:28:28.713Z</time>
      </trkpt>
      <trkpt lat="48.84192" lon="2.3374">
        <ele>118</ele>
        <time>2013-10-01T19:28:30.695Z</time>
      </trkpt>
      <trkpt lat="48.84196" lon="2.3374">
        <ele>117.1</ele>
        <time>2013-10-01T19:28:31.540Z</time>
      </trkpt>
      <trkpt lat="48.84204" lon="2.33741">
        <ele>116.6</ele>
        <time>2013-10-01T19:28:33.508Z</time>
      </trkpt>
      <trkpt lat="48.84209" lon="2.33741">
        <ele>114.9</ele>
        <time>2013-10-01T19:28:34.660Z</time>
      </trkpt>
      <trkpt lat="48.84213" lon="2.33741">
        <ele>114.9</ele>
        <time>2013-10-01T19:28:35.507Z</time>
      </trkpt>
      <trkpt lat="48.84218" lon="2.33741">
        <ele>113.7</ele>
        <time>2013-10-01T19:28:36.577Z</time>
      </trkpt>
      <trkpt lat="48.84227" lon="2.3374">
        <ele>114.9</ele>
        <time>2013-10-01T19:28:38.556Z</time>
      </trkpt>
      <trkpt lat="48.84232" lon="2.33739">
        <ele>115.7</ele>
        <time>2013-10-01T19:28:39.697Z</time>
      </trkpt>
      <trkpt lat="48.84239" lon="2.33738">
        <ele>113.9</ele>
        <time>2013-10-01T19:28:41.727Z</time>
      </trkpt>
      <trkpt lat="48.84243" lon="2.33738">
        <ele>112.9</ele>
        <time>2013-10-01T19:28:42.517Z</time>
      </trkpt>
      <trkpt lat="48.84251" lon="2.33738">
        <ele>110.5</ele>
        <time>2013-10-01T19:28:44.628Z</time>
      </trkpt>
      <trkpt lat="48.84255" lon="2.33739">
        <ele>110.7</ele>
        <time>2013-10-01T19:28:45.610Z</time>
      </trkpt>
      <trkpt lat="48.84264" lon="2.33739">
        <ele>111</ele>
        <time>2013-10-01T19:28:47.722Z</time>
      </trkpt>
      <trkpt lat="48.84269" lon="2.33738">
        <ele>110.6</ele>
        <time>2013-10-01T19:28:48.660Z</time>
      </trkpt>
      <trkpt lat="48.84277" lon="2.33738">
        <ele>109.2</ele>
        <time>2013-10-01T19:28:50.506Z</time>
      </trkpt>
      <trkpt lat="48.84281" lon="2.33738">
        <ele>108.2</ele>
        <time>2013-10-01T19:28:51.499Z</time>
      </trkpt>
      <trkpt lat="48.84288" lon="2.33738">
        <ele>108.5</ele>
        <time>2013-10-01T19:28:53.516Z</time>
      </trkpt>
      <trkpt lat="48.84291" lon="2.33737">
        <ele>109.1</ele>
        <time>2013-10-01T19:28:54.551Z</time>
      </trkpt>
      <trkpt lat="48.84299" lon="2.33738">
        <ele>108.8</ele>
        <time>2013-10-01T19:28:58.557Z</time>
      </trkpt>
      <trkpt lat="48.84301" lon="2.33739">
        <ele>108.2</ele>
        <time>2013-10-01T19:28:59.625Z</time>
      </trkpt>
      <trkpt lat="48.8431" lon="2.33739">
        <ele>107.4</ele>
        <time>2013-10-01T19:29:02.874Z</time>
      </trkpt>
      <trkpt lat="48.84314" lon="2.33739">
        <ele>107.9</ele>
        <time>2013-10-01T19:29:03.570Z</time>
      </trkpt>
      <trkpt lat="48.84322" lon="2.33738">
        <ele>107.8</ele>
        <time>2013-10-01T19:29:05.516Z</time>
      </trkpt>
      <trkpt lat="48.84327" lon="2.33738">
        <ele>107.4</ele>
        <time>2013-10-01T19:29:06.678Z</time>
      </trkpt>
      <trkpt lat="48.84335" lon="2.33737">
        <ele>109.3</ele>
        <time>2013-10-01T19:29:08.639Z</time>
      </trkpt>
      <trkpt lat="48.84339" lon="2.33737">
        <ele>109.8</ele>
        <time>2013-10-01T19:29:09.730Z</time>
      </trkpt>
      <trkpt lat="48.84347" lon="2.33737">
        <ele>109.3</ele>
        <time>2013-10-01T19:29:11.668Z</time>
      </trkpt>
      <trkpt lat="48.8435" lon="2.33737">
        <ele>110.5</ele>
        <time>2013-10-01T19:29:12.488Z</time>
      </trkpt>
      <trkpt lat="48.84357" lon="2.33737">
        <ele>110.8</ele>
        <time>2013-10-01T19:29:13.666Z</time>
      </trkpt>
      <trkpt lat="48.84361" lon="2.33737">
        <ele>111.1</ele>
        <time>2013-10-01T19:29:14.527Z</time>
      </trkpt>
      <trkpt lat="48.84367" lon="2.33736">
        <ele>112.4</ele>
        <time>2013-10-01T19:29:15.663Z</time>
      </trkpt>
      <trkpt lat="48.84372" lon="2.33736">
        <ele>112.5</ele>
        <time>2013-10-01T19:29:16.600Z</time>
      </trkpt>
      <trkpt lat="48.84381" lon="2.33738">
        <ele>111.9</ele>
        <time>2013-10-01T19:29:18.729Z</time>
      </trkpt>
      <trkpt lat="48.84385" lon="2.33738">
        <ele>112.2</ele>
        <time>2013-10-01T19:29:19.508Z</time>
      </trkpt>
      <trkpt lat="48.84393" lon="2.33739">
        <ele>112.2</ele>
        <time>2013-10-01T19:29:22.522Z</time>
      </trkpt>
      <trkpt lat="48.84397" lon="2.33739">
        <ele>114.5</ele>
        <time>2013-10-01T19:29:22.649Z</time>
      </trkpt>
      <trkpt lat="48.84406" lon="2.33741">
        <ele>108.7</ele>
        <time>2013-10-01T19:29:24.639Z</time>
      </trkpt>
      <trkpt lat="48.8441" lon="2.33742">
        <ele>109.7</ele>
        <time>2013-10-01T19:29:25.736Z</time>
      </trkpt>
      <trkpt lat="48.84416" lon="2.3375">
        <ele>108</ele>
        <time>2013-10-01T19:29:27.808Z</time>
      </trkpt>
      <trkpt lat="48.84417" lon="2.33755">
        <ele>107.2</ele>
        <time>2013-10-01T19:29:28.517Z</time>
      </trkpt>
      <trkpt lat="48.84418" lon="2.33764">
        <ele>106.9</ele>
        <time>2013-10-01T19:29:29.778Z</time>
      </trkpt>
      <trkpt lat="48.84417" lon="2.33771">
        <ele>106.1</ele>
        <time>2013-10-01T19:29:30.588Z</time>
      </trkpt>
      <trkpt lat="48.84416" lon="2.33779">
        <ele>106.5</ele>
        <time>2013-10-01T19:29:31.689Z</time>
      </trkpt>
      <trkpt lat="48.84413" lon="2.33787">
        <ele>104.9</ele>
        <time>2013-10-01T19:29:32.721Z</time>
      </trkpt>
      <trkpt lat="48.84411" lon="2.33793">
        <ele>104.3</ele>
        <time>2013-10-01T19:29:33.549Z</time>
      </trkpt>
      <trkpt lat="48.84409" lon="2.33801">
        <ele>103.9</ele>
        <time>2013-10-01T19:29:34.526Z</time>
      </trkpt>
      <trkpt lat="48.84408" lon="2.33808">
        <ele>104.2</ele>
        <time>2013-10-01T19:29:35.518Z</time>
      </trkpt>
      <trkpt lat="48.84406" lon="2.33815">
        <ele>103.9</ele>
        <time>2013-10-01T19:29:36.692Z</time>
      </trkpt>
      <trkpt lat="48.84403" lon="2.33828">
        <ele>103.4</ele>
        <time>2013-10-01T19:29:38.728Z</time>
      </trkpt>
      <trkpt lat="48.84402" lon="2.33834">
        <ele>103.8</ele>
        <time>2013-10-01T19:29:39.649Z</time>
      </trkpt>
      <trkpt lat="48.84399" lon="2.33846">
        <ele>105.4</ele>
        <time>2013-10-01T19:29:41.608Z</time>
      </trkpt>
      <trkpt lat="48.84398" lon="2.33851">
        <ele>105.8</ele>
        <time>2013-10-01T19:29:42.612Z</time>
      </trkpt>
      <trkpt lat="48.84395" lon="2.33861">
        <ele>101.8</ele>
        <time>2013-10-01T19:29:44.519Z</time>
      </trkpt>
      <trkpt lat="48.84395" lon="2.33866">
        <ele>101.9</ele>
        <time>2013-10-01T19:29:45.731Z</time>
      </trkpt>
      <trkpt lat="48.84399" lon="2.33873">
        <ele>103.5</ele>
        <time>2013-10-01T19:29:59.749Z</time>
      </trkpt>
      <trkpt lat="48.84399" lon="2.33873">
        <ele>103.5</ele>
        <time>2013-10-01T19:30:00.517Z</time>
      </trkpt>
      <trkpt lat="48.844" lon="2.33874">
        <ele>103.6</ele>
        <time>2013-10-01T19:30:17.534Z</time>
      </trkpt>
      <trkpt lat="48.84399" lon="2.33876">
        <ele>104.2</ele>
        <time>2013-10-01T19:30:17.701Z</time>
      </trkpt>
      <trkpt lat="48.84397" lon="2.33887">
        <ele>107.4</ele>
        <time>2013-10-01T19:30:20.739Z</time>
      </trkpt>
      <trkpt lat="48.84396" lon="2.33891">
        <ele>108.6</ele>
        <time>2013-10-01T19:30:21.627Z</time>
      </trkpt>
      <trkpt lat="48.84394" lon="2.33901">
        <ele>108.1</ele>
        <time>2013-10-01T19:30:23.543Z</time>
      </trkpt>
      <trkpt lat="48.84394" lon="2.33905">
        <ele>107.6</ele>
        <time>2013-10-01T19:30:24.739Z</time>
      </trkpt>
      <trkpt lat="48.84393" lon="2.33913">
        <ele>107</ele>
        <time>2013-10-01T19:30:27.721Z</time>
      </trkpt>
      <trkpt lat="48.84392" lon="2.33922">
        <ele>109.5</ele>
        <time>2013-10-01T19:30:28.643Z</time>
      </trkpt>
      <trkpt lat="48.84391" lon="2.33932">
        <ele>109.9</ele>
        <time>2013-10-01T19:30:30.525Z</time>
      </trkpt>
      <trkpt lat="48.8439" lon="2.33937">
        <ele>109.7</ele>
        <time>2013-10-01T19:30:31.489Z</time>
      </trkpt>
      <trkpt lat="48.84388" lon="2.33946">
        <ele>111.1</ele>
        <time>2013-10-01T19:30:33.498Z</time>
      </trkpt>
      <trkpt lat="48.84386" lon="2.3395">
        <ele>110.7</ele>
        <time>2013-10-01T19:30:34.486Z</time>
      </trkpt>
      <trkpt lat="48.84383" lon="2.33958">
        <ele>111.9</ele>
        <time>2013-10-01T19:30:36.488Z</time>
      </trkpt>
      <trkpt lat="48.84382" lon="2.33964">
        <ele>111.9</ele>
        <time>2013-10-01T19:30:37.510Z</time>
      </trkpt>
      <trkpt lat="48.84381" lon="2.3397">
        <ele>111.9</ele>
        <time>2013-10-01T19:30:38.558Z</time>
      </trkpt>
      <trkpt lat="48.8438" lon="2.33977">
        <ele>111.7</ele>
        <time>2013-10-01T19:30:39.551Z</time>
      </trkpt>
      <trkpt lat="48.84379" lon="2.33985">
        <ele>112</ele>
        <time>2013-10-01T19:30:40.522Z</time>
      </trkpt>
      <trkpt lat="48.84377" lon="2.33995">
        <ele>115.9</ele>
        <time>2013-10-01T19:30:41.507Z</time>
      </trkpt>
      <trkpt lat="48.84376" lon="2.34004">
        <ele>116.4</ele>
        <time>2013-10-01T19:30:42.683Z</time>
      </trkpt>
      <trkpt lat="48.84375" lon="2.34013">
        <ele>115.3</ele>
        <time>2013-10-01T19:30:43.616Z</time>
      </trkpt>
      <trkpt lat="48.84372" lon="2.34025">
        <ele>114.7</ele>
        <time>2013-10-01T19:30:45.628Z</time>
      </trkpt>
      <trkpt lat="48.84371" lon="2.34033">
        <ele>113.6</ele>
        <time>2013-10-01T19:30:46.571Z</time>
      </trkpt>
      <trkpt lat="48.8437" lon="2.3404">
        <ele>111.5</ele>
        <time>2013-10-01T19:30:47.700Z</time>
      </trkpt>
      <trkpt lat="48.84369" lon="2.34047">
        <ele>109.9</ele>
        <time>2013-10-01T19:30:48.518Z</time>
      </trkpt>
      <trkpt lat="48.84368" lon="2.3406">
        <ele>108.8</ele>
        <time>2013-10-01T19:30:50.549Z</time>
      </trkpt>
      <trkpt lat="48.84366" lon="2.34066">
        <ele>106.6</ele>
        <time>2013-10-01T19:30:51.588Z</time>
      </trkpt>
      <trkpt lat="48.84364" lon="2.34076">
        <ele>108.1</ele>
        <time>2013-10-01T19:30:53.588Z</time>
      </trkpt>
      <trkpt lat="48.84362" lon="2.3408">
        <ele>108.3</ele>
        <time>2013-10-01T19:30:54.572Z</time>
      </trkpt>
      <trkpt lat="48.84359" lon="2.34091">
        <ele>108.1</ele>
        <time>2013-10-01T19:30:56.528Z</time>
      </trkpt>
      <trkpt lat="48.84358" lon="2.34097">
        <ele>107.8</ele>
        <time>2013-10-01T19:30:57.528Z</time>
      </trkpt>
      <trkpt lat="48.84356" lon="2.34103">
        <ele>107.5</ele>
        <time>2013-10-01T19:30:58.537Z</time>
      </trkpt>
      <trkpt lat="48.84355" lon="2.3411">
        <ele>107.2</ele>
        <time>2013-10-01T19:30:59.563Z</time>
      </trkpt>
      <trkpt lat="48.84353" lon="2.34123">
        <ele>107.1</ele>
        <time>2013-10-01T19:31:01.600Z</time>
      </trkpt>
      <trkpt lat="48.84351" lon="2.34129">
        <ele>107.2</ele>
        <time>2013-10-01T19:31:02.565Z</time>
      </trkpt>
      <trkpt lat="48.84349" lon="2.34141">
        <ele>107</ele>
        <time>2013-10-01T19:31:04.519Z</time>
      </trkpt>
      <trkpt lat="48.84347" lon="2.34148">
        <ele>107.2</ele>
        <time>2013-10-01T19:31:05.517Z</time>
      </trkpt>
      <trkpt lat="48.84344" lon="2.34159">
        <ele>108</ele>
        <time>2013-10-01T19:31:07.739Z</time>
      </trkpt>
      <trkpt lat="48.84342" lon="2.34162">
        <ele>107.9</ele>
        <time>2013-10-01T19:31:08.673Z</time>
      </trkpt>
      <trkpt lat="48.84338" lon="2.3417">
        <ele>108.5</ele>
        <time>2013-10-01T19:31:11.583Z</time>
      </trkpt>
      <trkpt lat="48.84336" lon="2.34173">
        <ele>109.1</ele>
        <time>2013-10-01T19:31:12.509Z</time>
      </trkpt>
      <trkpt lat="48.84334" lon="2.34182">
        <ele>109.3</ele>
        <time>2013-10-01T19:31:14.560Z</time>
      </trkpt>
      <trkpt lat="48.84333" lon="2.34186">
        <ele>114.4</ele>
        <time>2013-10-01T19:31:15.689Z</time>
      </trkpt>
      <trkpt lat="48.84329" lon="2.34198">
        <ele>115.1</ele>
        <time>2013-10-01T19:31:19.580Z</time>
      </trkpt>
      <trkpt lat="48.84329" lon="2.34201">
        <ele>114.8</ele>
        <time>2013-10-01T19:31:20.525Z</time>
      </trkpt>
      <trkpt lat="48.84327" lon="2.34211">
        <ele>111.5</ele>
        <time>2013-10-01T19:31:22.577Z</time>
      </trkpt>
      <trkpt lat="48.84326" lon="2.34217">
        <ele>109.5</ele>
        <time>2013-10-01T19:31:23.648Z</time>
      </trkpt>
      <trkpt lat="48.84325" lon="2.34228">
        <ele>107.3</ele>
        <time>2013-10-01T19:31:25.622Z</time>
      </trkpt>
      <trkpt lat="48.84326" lon="2.34233">
        <ele>106.2</ele>
        <time>2013-10-01T19:31:26.563Z</time>
      </trkpt>
      <trkpt lat="48.8433" lon="2.34244">
        <ele>110</ele>
        <time>2013-10-01T19:31:30.598Z</time>
      </trkpt>
      <trkpt lat="48.84332" lon="2.34244">
        <ele>112.6</ele>
        <time>2013-10-01T19:31:31.654Z</time>
      </trkpt>
      <trkpt lat="48.8434" lon="2.34237">
        <ele>113</ele>
        <time>2013-10-01T19:31:35.578Z</time>
      </trkpt>
      <trkpt lat="48.84342" lon="2.34235">
        <ele>113.4</ele>
        <time>2013-10-01T19:31:36.491Z</time>
      </trkpt>
      <trkpt lat="48.84349" lon="2.3423">
        <ele>112.5</ele>
        <time>2013-10-01T19:31:38.578Z</time>
      </trkpt>
      <trkpt lat="48.84354" lon="2.34228">
        <ele>111.2</ele>
        <time>2013-10-01T19:31:39.647Z</time>
      </trkpt>
      <trkpt lat="48.84358" lon="2.34225">
        <ele>109.8</ele>
        <time>2013-10-01T19:31:40.649Z</time>
      </trkpt>
      <trkpt lat="48.84362" lon="2.34223">
        <ele>109.9</ele>
        <time>2013-10-01T19:31:41.572Z</time>
      </trkpt>
      <trkpt lat="48.8437" lon="2.34218">
        <ele>109.6</ele>
        <time>2013-10-01T19:31:43.580Z</time>
      </trkpt>
      <trkpt lat="48.84374" lon="2.34215">
        <ele>110.5</ele>
        <time>2013-10-01T19:31:44.558Z</time>
      </trkpt>
      <trkpt lat="48.84381" lon="2.34212">
        <ele>110</ele>
        <time>2013-10-01T19:31:46.534Z</time>
      </trkpt>
      <trkpt lat="48.84385" lon="2.3421">
        <ele>109.8</ele>
        <time>2013-10-01T19:31:47.538Z</time>
      </trkpt>
      <trkpt lat="48.84393" lon="2.34206">
        <ele>109.1</ele>
        <time>2013-10-01T19:31:49.519Z</time>
      </trkpt>
      <trkpt lat="48.84397" lon="2.34204">
        <ele>109.4</ele>
        <time>2013-10-01T19:31:50.538Z</time>
      </trkpt>
      <trkpt lat="48.84403" lon="2.34201">
        <ele>111.8</ele>
        <time>2013-10-01T19:31:51.517Z</time>
      </trkpt>
      <trkpt lat="48.84408" lon="2.34199">
        <ele>112.8</ele>
        <time>2013-10-01T19:31:52.544Z</time>
      </trkpt>
      <trkpt lat="48.84413" lon="2.34198">
        <ele>113</ele>
        <time>2013-10-01T19:31:53.531Z</time>
      </trkpt>
      <trkpt lat="48.84419" lon="2.34197">
        <ele>113.7</ele>
        <time>2013-10-01T19:31:54.528Z</time>
      </trkpt>
      <trkpt lat="48.84423" lon="2.34195">
        <ele>114.2</ele>
        <time>2013-10-01T19:31:55.597Z</time>
      </trkpt>
      <trkpt lat="48.84428" lon="2.34194">
        <ele>114.7</ele>
        <time>2013-10-01T19:31:56.534Z</time>
      </trkpt>
      <trkpt lat="48.84434" lon="2.34193">
        <ele>113.8</ele>
        <time>2013-10-01T19:31:57.518Z</time>
      </trkpt>
      <trkpt lat="48.84439" lon="2.34192">
        <ele>113.1</ele>
        <time>2013-10-01T19:31:58.520Z</time>
      </trkpt>
      <trkpt lat="48.84444" lon="2.34187">
        <ele>115.9</ele>
        <time>2013-10-01T19:31:59.659Z</time>
      </trkpt>
      <trkpt lat="48.84449" lon="2.34183">
        <ele>115.8</ele>
        <time>2013-10-01T19:32:00.560Z</time>
      </trkpt>
      <trkpt lat="48.84454" lon="2.3418">
        <ele>115.1</ele>
        <time>2013-10-01T19:32:01.737Z</time>
      </trkpt>
      <trkpt lat="48.84459" lon="2.34177">
        <ele>115.9</ele>
        <time>2013-10-01T19:32:02.631Z</time>
      </trkpt>
      <trkpt lat="48.84464" lon="2.34174">
        <ele>116</ele>
        <time>2013-10-01T19:32:03.648Z</time>
      </trkpt>
      <trkpt lat="48.84468" lon="2.34172">
        <ele>116.9</ele>
        <time>2013-10-01T19:32:04.548Z</time>
      </trkpt>
      <trkpt lat="48.84473" lon="2.34169">
        <ele>115</ele>
        <time>2013-10-01T19:32:05.522Z</time>
      </trkpt>
      <trkpt lat="48.84479" lon="2.34167">
        <ele>115.5</ele>
        <time>2013-10-01T19:32:06.747Z</time>
      </trkpt>
      <trkpt lat="48.84487" lon="2.34163">
        <ele>116.2</ele>
        <time>2013-10-01T19:32:08.554Z</time>
      </trkpt>
      <trkpt lat="48.84491" lon="2.34161">
        <ele>115.9</ele>
        <time>2013-10-01T19:32:09.530Z</time>
      </trkpt>
      <trkpt lat="48.84496" lon="2.34162">
        <ele>116</ele>
        <time>2013-10-01T19:32:10.557Z</time>
      </trkpt>
      <trkpt lat="48.84502" lon="2.34161">
        <ele>115.9</ele>
        <time>2013-10-01T19:32:11.551Z</time>
      </trkpt>
      <trkpt lat="48.84511" lon="2.34157">
        <ele>114.9</ele>
        <time>2013-10-01T19:32:12.528Z</time>
      </trkpt>
      <trkpt lat="48.84519" lon="2.34153">
        <ele>115.4</ele>
        <time>2013-10-01T19:32:13.565Z</time>
      </trkpt>
      <trkpt lat="48.84526" lon="2.34149">
        <ele>115.8</ele>
        <time>2013-10-01T19:32:14.551Z</time>
      </trkpt>
      <trkpt lat="48.84533" lon="2.34145">
        <ele>115.2</ele>
        <time>2013-10-01T19:32:15.548Z</time>
      </trkpt>
      <trkpt lat="48.8454" lon="2.34142">
        <ele>114.5</ele>
        <time>2013-10-01T19:32:16.553Z</time>
      </trkpt>
      <trkpt lat="48.84546" lon="2.34141">
        <ele>114.4</ele>
        <time>2013-10-01T19:32:17.513Z</time>
      </trkpt>
      <trkpt lat="48.84553" lon="2.3414">
        <ele>114.3</ele>
        <time>2013-10-01T19:32:18.655Z</time>
      </trkpt>
      <trkpt lat="48.84558" lon="2.34139">
        <ele>114.4</ele>
        <time>2013-10-01T19:32:19.627Z</time>
      </trkpt>
      <trkpt lat="48.84563" lon="2.34138">
        <ele>113.6</ele>
        <time>2013-10-01T19:32:20.651Z</time>
      </trkpt>
      <trkpt lat="48.84568" lon="2.34136">
        <ele>113.6</ele>
        <time>2013-10-01T19:32:21.557Z</time>
      </trkpt>
      <trkpt lat="48.84573" lon="2.34131">
        <ele>113.9</ele>
        <time>2013-10-01T19:32:22.572Z</time>
      </trkpt>
      <trkpt lat="48.84579" lon="2.34124">
        <ele>114.1</ele>
        <time>2013-10-01T19:32:23.739Z</time>
      </trkpt>
      <trkpt lat="48.84584" lon="2.3412">
        <ele>113.8</ele>
        <time>2013-10-01T19:32:24.561Z</time>
      </trkpt>
      <trkpt lat="48.84589" lon="2.34116">
        <ele>114.2</ele>
        <time>2013-10-01T19:32:25.691Z</time>
      </trkpt>
      <trkpt lat="48.84594" lon="2.34111">
        <ele>114.6</ele>
        <time>2013-10-01T19:32:26.619Z</time>
      </trkpt>
      <trkpt lat="48.846" lon="2.34108">
        <ele>114.3</ele>
        <time>2013-10-01T19:32:27.632Z</time>
      </trkpt>
      <trkpt lat="48.84606" lon="2.34105">
        <ele>115.5</ele>
        <time>2013-10-01T19:32:28.773Z</time>
      </trkpt>
      <trkpt lat="48.8461" lon="2.34102">
        <ele>116.6</ele>
        <time>2013-10-01T19:32:29.588Z</time>
      </trkpt>
      <trkpt lat="48.84615" lon="2.34099">
        <ele>116.5</ele>
        <time>2013-10-01T19:32:30.755Z</time>
      </trkpt>
      <trkpt lat="48.84619" lon="2.34098">
        <ele>116.8</ele>
        <time>2013-10-01T19:32:31.569Z</time>
      </trkpt>
      <trkpt lat="48.84624" lon="2.34095">
        <ele>117.2</ele>
        <time>2013-10-01T19:32:32.742Z</time>
      </trkpt>
      <trkpt lat="48.84629" lon="2.34094">
        <ele>116.7</ele>
        <time>2013-10-01T19:32:33.517Z</time>
      </trkpt>
      <trkpt lat="48.84635" lon="2.34092">
        <ele>116.6</ele>
        <time>2013-10-01T19:32:34.683Z</time>
      </trkpt>
      <trkpt lat="48.8464" lon="2.34091">
        <ele>116.8</ele>
        <time>2013-10-01T19:32:35.676Z</time>
      </trkpt>
      <trkpt lat="48.84646" lon="2.34088">
        <ele>116.7</ele>
        <time>2013-10-01T19:32:36.602Z</time>
      </trkpt>
      <trkpt lat="48.84652" lon="2.34084">
        <ele>116.8</ele>
        <time>2013-10-01T19:32:37.718Z</time>
      </trkpt>
      <trkpt lat="48.84658" lon="2.34077">
        <ele>116.2</ele>
        <time>2013-10-01T19:32:38.544Z</time>
      </trkpt>
      <trkpt lat="48.84666" lon="2.34071">
        <ele>116.3</ele>
        <time>2013-10-01T19:32:39.707Z</time>
      </trkpt>
      <trkpt lat="48.84671" lon="2.34068">
        <ele>116.2</ele>
        <time>2013-10-01T19:32:40.557Z</time>
      </trkpt>
      <trkpt lat="48.84677" lon="2.34068">
        <ele>116.3</ele>
        <time>2013-10-01T19:32:41.740Z</time>
      </trkpt>
      <trkpt lat="48.84684" lon="2.34063">
        <ele>115.9</ele>
        <time>2013-10-01T19:32:43.680Z</time>
      </trkpt>
      <trkpt lat="48.84688" lon="2.3406">
        <ele>115.8</ele>
        <time>2013-10-01T19:32:44.647Z</time>
      </trkpt>
      <trkpt lat="48.84694" lon="2.34054">
        <ele>115.5</ele>
        <time>2013-10-01T19:32:47.659Z</time>
      </trkpt>
      <trkpt lat="48.84696" lon="2.34053">
        <ele>115.7</ele>
        <time>2013-10-01T19:32:48.720Z</time>
      </trkpt>
      <trkpt lat="48.84703" lon="2.34055">
        <ele>117</ele>
        <time>2013-10-01T19:32:51.643Z</time>
      </trkpt>
      <trkpt lat="48.84706" lon="2.34056">
        <ele>116.8</ele>
        <time>2013-10-01T19:32:52.636Z</time>
      </trkpt>
      <trkpt lat="48.84714" lon="2.3406">
        <ele>116.6</ele>
        <time>2013-10-01T19:32:55.749Z</time>
      </trkpt>
      <trkpt lat="48.84717" lon="2.34062">
        <ele>109</ele>
        <time>2013-10-01T19:32:56.517Z</time>
      </trkpt>
      <trkpt lat="48.84724" lon="2.34071">
        <ele>107.9</ele>
        <time>2013-10-01T19:32:58.631Z</time>
      </trkpt>
      <trkpt lat="48.84727" lon="2.34075">
        <ele>108</ele>
        <time>2013-10-01T19:32:59.667Z</time>
      </trkpt>
      <trkpt lat="48.84732" lon="2.34083">
        <ele>108.4</ele>
        <time>2013-10-01T19:33:01.599Z</time>
      </trkpt>
      <trkpt lat="48.84735" lon="2.34086">
        <ele>108.4</ele>
        <time>2013-10-01T19:33:02.715Z</time>
      </trkpt>
      <trkpt lat="48.84741" lon="2.34089">
        <ele>110.8</ele>
        <time>2013-10-01T19:33:09.720Z</time>
      </trkpt>
      <trkpt lat="48.84741" lon="2.3409">
        <ele>110.3</ele>
        <time>2013-10-01T19:33:10.607Z</time>
      </trkpt>
      <trkpt lat="48.8474" lon="2.34089">
        <ele>109.8</ele>
        <time>2013-10-01T19:33:13.748Z</time>
      </trkpt>
      <trkpt lat="48.84741" lon="2.34087">
        <ele>109.7</ele>
        <time>2013-10-01T19:33:14.621Z</time>
      </trkpt>
      <trkpt lat="48.84744" lon="2.3408">
        <ele>111.6</ele>
        <time>2013-10-01T19:33:16.730Z</time>
      </trkpt>
      <trkpt lat="48.84746" lon="2.34075">
        <ele>112.8</ele>
        <time>2013-10-01T19:33:17.548Z</time>
      </trkpt>
      <trkpt lat="48.8475" lon="2.34063">
        <ele>111.9</ele>
        <time>2013-10-01T19:33:19.539Z</time>
      </trkpt>
      <trkpt lat="48.84751" lon="2.34056">
        <ele>112.5</ele>
        <time>2013-10-01T19:33:20.778Z</time>
      </trkpt>
      <trkpt lat="48.84753" lon="2.34044">
        <ele>110.7</ele>
        <time>2013-10-01T19:33:22.702Z</time>
      </trkpt>
      <trkpt lat="48.84754" lon="2.34038">
        <ele>111.3</ele>
        <time>2013-10-01T19:33:23.699Z</time>
      </trkpt>
      <trkpt lat="48.84756" lon="2.34026">
        <ele>110.8</ele>
        <time>2013-10-01T19:33:25.746Z</time>
      </trkpt>
      <trkpt lat="48.84757" lon="2.34022">
        <ele>111</ele>
        <time>2013-10-01T19:33:26.576Z</time>
      </trkpt>
      <trkpt lat="48.84759" lon="2.34011">
        <ele>106.8</ele>
        <time>2013-10-01T19:33:28.541Z</time>
      </trkpt>
      <trkpt lat="48.8476" lon="2.34006">
        <ele>105.3</ele>
        <time>2013-10-01T19:33:29.729Z</time>
      </trkpt>
      <trkpt lat="48.84764" lon="2.33998">
        <ele>105</ele>
        <time>2013-10-01T19:33:31.706Z</time>
      </trkpt>
      <trkpt lat="48.84767" lon="2.33995">
        <ele>105.4</ele>
        <time>2013-10-01T19:33:32.812Z</time>
      </trkpt>
      <trkpt lat="48.84774" lon="2.33989">
        <ele>105.3</ele>
        <time>2013-10-01T19:33:34.728Z</time>
      </trkpt>
      <trkpt lat="48.84777" lon="2.33986">
        <ele>105.8</ele>
        <time>2013-10-01T19:33:35.578Z</time>
      </trkpt>
      <trkpt lat="48.84783" lon="2.33983">
        <ele>106</ele>
        <time>2013-10-01T19:33:36.570Z</time>
      </trkpt>
      <trkpt lat="48.84789" lon="2.33979">
        <ele>105.8</ele>
        <time>2013-10-01T19:33:37.528Z</time>
      </trkpt>
      <trkpt lat="48.84795" lon="2.33972">
        <ele>105.6</ele>
        <time>2013-10-01T19:33:38.698Z</time>
      </trkpt>
      <trkpt lat="48.84801" lon="2.33966">
        <ele>105.3</ele>
        <time>2013-10-01T19:33:39.741Z</time>
      </trkpt>
      <trkpt lat="48.84808" lon="2.33963">
        <ele>104.7</ele>
        <time>2013-10-01T19:33:40.628Z</time>
      </trkpt>
      <trkpt lat="48.84814" lon="2.33959">
        <ele>103.7</ele>
        <time>2013-10-01T19:33:41.730Z</time>
      </trkpt>
      <trkpt lat="48.84819" lon="2.33955">
        <ele>102.8</ele>
        <time>2013-10-01T19:33:42.697Z</time>
      </trkpt>
      <trkpt lat="48.84825" lon="2.3395">
        <ele>102.2</ele>
        <time>2013-10-01T19:33:43.719Z</time>
      </trkpt>
      <trkpt lat="48.8483" lon="2.33945">
        <ele>102.6</ele>
        <time>2013-10-01T19:33:44.540Z</time>
      </trkpt>
      <trkpt lat="48.84836" lon="2.3394">
        <ele>103.4</ele>
        <time>2013-10-01T19:33:45.572Z</time>
      </trkpt>
      <trkpt lat="48.84842" lon="2.33936">
        <ele>103.6</ele>
        <time>2013-10-01T19:33:46.559Z</time>
      </trkpt>
      <trkpt lat="48.84847" lon="2.33931">
        <ele>103.7</ele>
        <time>2013-10-01T19:33:47.530Z</time>
      </trkpt>
      <trkpt lat="48.84852" lon="2.33926">
        <ele>103.8</ele>
        <time>2013-10-01T19:33:48.550Z</time>
      </trkpt>
      <trkpt lat="48.84857" lon="2.3392">
        <ele>104.4</ele>
        <time>2013-10-01T19:33:49.538Z</time>
      </trkpt>
      <trkpt lat="48.84863" lon="2.33914">
        <ele>104.2</ele>
        <time>2013-10-01T19:33:50.559Z</time>
      </trkpt>
      <trkpt lat="48.84868" lon="2.33909">
        <ele>104.6</ele>
        <time>2013-10-01T19:33:51.529Z</time>
      </trkpt>
      <trkpt lat="48.84873" lon="2.33904">
        <ele>105</ele>
        <time>2013-10-01T19:33:52.550Z</time>
      </trkpt>
      <trkpt lat="48.84879" lon="2.33899">
        <ele>103.6</ele>
        <time>2013-10-01T19:33:53.548Z</time>
      </trkpt>
      <trkpt lat="48.84885" lon="2.33895">
        <ele>102.9</ele>
        <time>2013-10-01T19:33:54.514Z</time>
      </trkpt>
      <trkpt lat="48.84891" lon="2.3389">
        <ele>103</ele>
        <time>2013-10-01T19:33:55.529Z</time>
      </trkpt>
      <trkpt lat="48.84897" lon="2.33886">
        <ele>103.3</ele>
        <time>2013-10-01T19:33:56.512Z</time>
      </trkpt>
      <trkpt lat="48.84902" lon="2.33881">
        <ele>102.7</ele>
        <time>2013-10-01T19:33:57.560Z</time>
      </trkpt>
      <trkpt lat="48.84906" lon="2.33876">
        <ele>101.4</ele>
        <time>2013-10-01T19:33:58.502Z</time>
      </trkpt>
      <trkpt lat="48.8491" lon="2.3387">
        <ele>100.9</ele>
        <time>2013-10-01T19:33:59.507Z</time>
      </trkpt>
      <trkpt lat="48.84914" lon="2.33863">
        <ele>100</ele>
        <time>2013-10-01T19:34:00.550Z</time>
      </trkpt>
      <trkpt lat="48.84917" lon="2.33856">
        <ele>97.1</ele>
        <time>2013-10-01T19:34:01.527Z</time>
      </trkpt>
      <trkpt lat="48.84919" lon="2.33849">
        <ele>96.2</ele>
        <time>2013-10-01T19:34:03.063Z</time>
      </trkpt>
      <trkpt lat="48.8492" lon="2.3384">
        <ele>95.7</ele>
        <time>2013-10-01T19:34:03.546Z</time>
      </trkpt>
      <trkpt lat="48.8492" lon="2.33831">
        <ele>95.9</ele>
        <time>2013-10-01T19:34:04.554Z</time>
      </trkpt>
      <trkpt lat="48.84921" lon="2.33822">
        <ele>94.7</ele>
        <time>2013-10-01T19:34:05.504Z</time>
      </trkpt>
      <trkpt lat="48.84921" lon="2.33812">
        <ele>93.6</ele>
        <time>2013-10-01T19:34:06.539Z</time>
      </trkpt>
      <trkpt lat="48.84922" lon="2.33803">
        <ele>93.3</ele>
        <time>2013-10-01T19:34:07.549Z</time>
      </trkpt>
      <trkpt lat="48.84923" lon="2.33794">
        <ele>92.6</ele>
        <time>2013-10-01T19:34:08.575Z</time>
      </trkpt>
      <trkpt lat="48.84923" lon="2.33785">
        <ele>91.9</ele>
        <time>2013-10-01T19:34:09.540Z</time>
      </trkpt>
      <trkpt lat="48.84923" lon="2.33775">
        <ele>91.9</ele>
        <time>2013-10-01T19:34:10.504Z</time>
      </trkpt>
      <trkpt lat="48.84925" lon="2.33765">
        <ele>91.8</ele>
        <time>2013-10-01T19:34:11.567Z</time>
      </trkpt>
      <trkpt lat="48.84925" lon="2.33756">
        <ele>91.8</ele>
        <time>2013-10-01T19:34:12.635Z</time>
      </trkpt>
      <trkpt lat="48.84926" lon="2.33747">
        <ele>91.4</ele>
        <time>2013-10-01T19:34:13.559Z</time>
      </trkpt>
      <trkpt lat="48.84929" lon="2.33734">
        <ele>91.9</ele>
        <time>2013-10-01T19:34:15.568Z</time>
      </trkpt>
      <trkpt lat="48.84929" lon="2.33729">
        <ele>92.1</ele>
        <time>2013-10-01T19:34:16.530Z</time>
      </trkpt>
      <trkpt lat="48.84927" lon="2.33717">
        <ele>92.4</ele>
        <time>2013-10-01T19:34:19.569Z</time>
      </trkpt>
      <trkpt lat="48.84927" lon="2.33715">
        <ele>93.8</ele>
        <time>2013-10-01T19:34:20.549Z</time>
      </trkpt>
      <trkpt lat="48.84921" lon="2.33705">
        <ele>93.2</ele>
        <time>2013-10-01T19:34:25.530Z</time>
      </trkpt>
      <trkpt lat="48.84921" lon="2.33702">
        <ele>94.3</ele>
        <time>2013-10-01T19:34:26.557Z</time>
      </trkpt>
      <trkpt lat="48.84921" lon="2.33689">
        <ele>98.6</ele>
        <time>2013-10-01T19:34:31.539Z</time>
      </trkpt>
      <trkpt lat="48.8492" lon="2.33686">
        <ele>99.4</ele>
        <time>2013-10-01T19:34:32.559Z</time>
      </trkpt>
      <trkpt lat="48.84917" lon="2.33676">
        <ele>102.5</ele>
        <time>2013-10-01T19:34:35.540Z</time>
      </trkpt>
      <trkpt lat="48.84915" lon="2.33672">
        <ele>103.7</ele>
        <time>2013-10-01T19:34:36.538Z</time>
      </trkpt>
      <trkpt lat="48.84911" lon="2.33663">
        <ele>103.4</ele>
        <time>2013-10-01T19:34:38.529Z</time>
      </trkpt>
      <trkpt lat="48.84909" lon="2.33657">
        <ele>103.1</ele>
        <time>2013-10-01T19:34:39.541Z</time>
      </trkpt>
      <trkpt lat="48.84908" lon="2.33651">
        <ele>102.3</ele>
        <time>2013-10-01T19:34:40.530Z</time>
      </trkpt>
      <trkpt lat="48.84907" lon="2.33643">
        <ele>101.4</ele>
        <time>2013-10-01T19:34:41.535Z</time>
      </trkpt>
      <trkpt lat="48.8491" lon="2.33632">
        <ele>101.5</ele>
        <time>2013-10-01T19:34:42.569Z</time>
      </trkpt>
      <trkpt lat="48.84911" lon="2.33623">
        <ele>102.5</ele>
        <time>2013-10-01T19:34:43.528Z</time>
      </trkpt>
      <trkpt lat="48.84912" lon="2.33611">
        <ele>102.3</ele>
        <time>2013-10-01T19:34:45.534Z</time>
      </trkpt>
      <trkpt lat="48.8491" lon="2.33606">
        <ele>101.1</ele>
        <time>2013-10-01T19:34:46.538Z</time>
      </trkpt>
      <trkpt lat="48.84906" lon="2.33595">
        <ele>99</ele>
        <time>2013-10-01T19:34:49.532Z</time>
      </trkpt>
      <trkpt lat="48.84906" lon="2.33591">
        <ele>97.7</ele>
        <time>2013-10-01T19:34:50.522Z</time>
      </trkpt>
      <trkpt lat="48.8491" lon="2.33582">
        <ele>92.4</ele>
        <time>2013-10-01T19:34:52.664Z</time>
      </trkpt>
      <trkpt lat="48.84911" lon="2.33579">
        <ele>92.3</ele>
        <time>2013-10-01T19:34:53.567Z</time>
      </trkpt>
      <trkpt lat="48.84915" lon="2.3358">
        <ele>93.1</ele>
        <time>2013-10-01T19:34:58.556Z</time>
      </trkpt>
      <trkpt lat="48.84914" lon="2.3358">
        <ele>93.3</ele>
        <time>2013-10-01T19:34:59.579Z</time>
      </trkpt>
      <trkpt lat="48.84913" lon="2.3358">
        <ele>93.3</ele>
        <time>2013-10-01T19:35:00.578Z</time>
      </trkpt>
      <trkpt lat="48.84912" lon="2.3358">
        <ele>93.3</ele>
        <time>2013-10-01T19:35:01.545Z</time>
      </trkpt>
      <trkpt lat="48.84916" lon="2.33568">
        <ele>93.6</ele>
        <time>2013-10-01T19:35:14.535Z</time>
      </trkpt>
      <trkpt lat="48.84917" lon="2.33568">
        <ele>93.6</ele>
        <time>2013-10-01T19:35:15.539Z</time>
      </trkpt>
      <trkpt lat="48.84926" lon="2.33564">
        <ele>93.6</ele>
        <time>2013-10-01T19:35:20.639Z</time>
      </trkpt>
      <trkpt lat="48.84928" lon="2.33563">
        <ele>93.4</ele>
        <time>2013-10-01T19:35:21.579Z</time>
      </trkpt>
      <trkpt lat="48.84936" lon="2.3356">
        <ele>93.5</ele>
        <time>2013-10-01T19:35:24.580Z</time>
      </trkpt>
      <trkpt lat="48.84938" lon="2.33559">
        <ele>93.6</ele>
        <time>2013-10-01T19:35:25.536Z</time>
      </trkpt>
      <trkpt lat="48.84935" lon="2.33566">
        <ele>93.8</ele>
        <time>2013-10-01T19:35:30.545Z</time>
      </trkpt>
      <trkpt lat="48.84932" lon="2.33569">
        <ele>93.9</ele>
        <time>2013-10-01T19:35:31.510Z</time>
      </trkpt>
      <trkpt lat="48.84926" lon="2.33574">
        <ele>93.6</ele>
        <time>2013-10-01T19:35:33.539Z</time>
      </trkpt>
      <trkpt lat="48.84924" lon="2.33576">
        <ele>93.7</ele>
        <time>2013-10-01T19:35:34.543Z</time>
      </trkpt>
      <trkpt lat="48.84916" lon="2.3358">
        <ele>93.8</ele>
        <time>2013-10-01T19:35:42.645Z</time>
      </trkpt>
      <trkpt lat="48.84915" lon="2.33579">
        <ele>93.8</ele>
        <time>2013-10-01T19:35:43.559Z</time>
      </trkpt>
      <trkpt lat="48.84916" lon="2.33574">
        <ele>93.8</ele>
        <time>2013-10-01T19:35:50.550Z</time>
      </trkpt>
      <trkpt lat="48.84918" lon="2.33574">
        <ele>93.8</ele>
        <time>2013-10-01T19:35:51.541Z</time>
      </trkpt>
      <trkpt lat="48.8492" lon="2.33573">
        <ele>93.6</ele>
        <time>2013-10-01T19:35:52.557Z</time>
      </trkpt>
      <trkpt lat="48.84928" lon="2.33571">
        <ele>93.1</ele>
        <time>2013-10-01T19:35:55.578Z</time>
      </trkpt>
      <trkpt lat="48.84929" lon="2.33569">
        <ele>93.1</ele>
        <time>2013-10-01T19:35:56.577Z</time>
      </trkpt>
      <trkpt lat="48.84927" lon="2.33559">
        <ele>90.6</ele>
        <time>2013-10-01T19:36:02.875Z</time>
      </trkpt>
      <trkpt lat="48.84926" lon="2.33556">
        <ele>93.8</ele>
        <time>2013-10-01T19:36:03.588Z</time>
      </trkpt>
      <trkpt lat="48.84923" lon="2.33546">
        <ele>92</ele>
        <time>2013-10-01T19:36:07.575Z</time>
      </trkpt>
      <trkpt lat="48.84922" lon="2.33542">
        <ele>88.7</ele>
        <time>2013-10-01T19:36:07.679Z</time>
      </trkpt>
      <trkpt lat="48.84918" lon="2.3353">
        <ele>93.5</ele>
        <time>2013-10-01T19:36:10.555Z</time>
      </trkpt>
      <trkpt lat="48.84917" lon="2.33525">
        <ele>92.9</ele>
        <time>2013-10-01T19:36:11.548Z</time>
      </trkpt>
      <trkpt lat="48.84915" lon="2.33515">
        <ele>91.1</ele>
        <time>2013-10-01T19:36:13.539Z</time>
      </trkpt>
      <trkpt lat="48.84914" lon="2.3351">
        <ele>88.8</ele>
        <time>2013-10-01T19:36:14.538Z</time>
      </trkpt>
      <trkpt lat="48.84913" lon="2.33497">
        <ele>89</ele>
        <time>2013-10-01T19:36:17.650Z</time>
      </trkpt>
      <trkpt lat="48.84912" lon="2.3349">
        <ele>90.6</ele>
        <time>2013-10-01T19:36:17.692Z</time>
      </trkpt>
      <trkpt lat="48.84907" lon="2.33479">
        <ele>92.1</ele>
        <time>2013-10-01T19:36:19.619Z</time>
      </trkpt>
      <trkpt lat="48.84904" lon="2.33475">
        <ele>92.8</ele>
        <time>2013-10-01T19:36:20.599Z</time>
      </trkpt>
      <trkpt lat="48.84897" lon="2.33469">
        <ele>95.6</ele>
        <time>2013-10-01T19:36:22.580Z</time>
      </trkpt>
      <trkpt lat="48.84893" lon="2.33463">
        <ele>93.2</ele>
        <time>2013-10-01T19:36:23.744Z</time>
      </trkpt>
      <trkpt lat="48.8489" lon="2.33451">
        <ele>95.1</ele>
        <time>2013-10-01T19:36:25.728Z</time>
      </trkpt>
      <trkpt lat="48.8489" lon="2.33444">
        <ele>95.6</ele>
        <time>2013-10-01T19:36:26.549Z</time>
      </trkpt>
      <trkpt lat="48.84891" lon="2.33436">
        <ele>96.3</ele>
        <time>2013-10-01T19:36:27.583Z</time>
      </trkpt>
      <trkpt lat="48.84892" lon="2.33426">
        <ele>93.9</ele>
        <time>2013-10-01T19:36:28.520Z</time>
      </trkpt>
      <trkpt lat="48.84892" lon="2.33417">
        <ele>93.8</ele>
        <time>2013-10-01T19:36:29.530Z</time>
      </trkpt>
      <trkpt lat="48.84891" lon="2.3341">
        <ele>92.8</ele>
        <time>2013-10-01T19:36:30.537Z</time>
      </trkpt>
      <trkpt lat="48.84889" lon="2.33402">
        <ele>91</ele>
        <time>2013-10-01T19:36:31.548Z</time>
      </trkpt>
      <trkpt lat="48.84888" lon="2.33394">
        <ele>91</ele>
        <time>2013-10-01T19:36:32.575Z</time>
      </trkpt>
      <trkpt lat="48.84887" lon="2.33387">
        <ele>91.8</ele>
        <time>2013-10-01T19:36:33.570Z</time>
      </trkpt>
      <trkpt lat="48.84886" lon="2.33379">
        <ele>92</ele>
        <time>2013-10-01T19:36:34.560Z</time>
      </trkpt>
      <trkpt lat="48.84885" lon="2.33371">
        <ele>91.4</ele>
        <time>2013-10-01T19:36:35.563Z</time>
      </trkpt>
      <trkpt lat="48.84884" lon="2.33363">
        <ele>91.5</ele>
        <time>2013-10-01T19:36:36.522Z</time>
      </trkpt>
      <trkpt lat="48.84883" lon="2.33355">
        <ele>92.6</ele>
        <time>2013-10-01T19:36:37.719Z</time>
      </trkpt>
      <trkpt lat="48.84882" lon="2.33349">
        <ele>92</ele>
        <time>2013-10-01T19:36:38.559Z</time>
      </trkpt>
      <trkpt lat="48.84881" lon="2.33341">
        <ele>92.2</ele>
        <time>2013-10-01T19:36:39.572Z</time>
      </trkpt>
      <trkpt lat="48.8488" lon="2.33334">
        <ele>92.2</ele>
        <time>2013-10-01T19:36:40.578Z</time>
      </trkpt>
      <trkpt lat="48.84879" lon="2.33327">
        <ele>91.7</ele>
        <time>2013-10-01T19:36:41.693Z</time>
      </trkpt>
      <trkpt lat="48.84877" lon="2.33321">
        <ele>91.7</ele>
        <time>2013-10-01T19:36:42.758Z</time>
      </trkpt>
      <trkpt lat="48.84876" lon="2.33315">
        <ele>90.7</ele>
        <time>2013-10-01T19:36:43.620Z</time>
      </trkpt>
      <trkpt lat="48.84875" lon="2.33307">
        <ele>90</ele>
        <time>2013-10-01T19:36:44.713Z</time>
      </trkpt>
      <trkpt lat="48.84875" lon="2.33301">
        <ele>90</ele>
        <time>2013-10-01T19:36:45.575Z</time>
      </trkpt>
      <trkpt lat="48.84875" lon="2.33293">
        <ele>90</ele>
        <time>2013-10-01T19:36:46.676Z</time>
      </trkpt>
      <trkpt lat="48.84878" lon="2.33281">
        <ele>90.3</ele>
        <time>2013-10-01T19:36:48.687Z</time>
      </trkpt>
      <trkpt lat="48.84879" lon="2.33276">
        <ele>90.5</ele>
        <time>2013-10-01T19:36:49.695Z</time>
      </trkpt>
      <trkpt lat="48.84883" lon="2.33268">
        <ele>91.4</ele>
        <time>2013-10-01T19:36:51.565Z</time>
      </trkpt>
      <trkpt lat="48.84887" lon="2.33265">
        <ele>91.8</ele>
        <time>2013-10-01T19:36:52.558Z</time>
      </trkpt>
      <trkpt lat="48.8489" lon="2.33262">
        <ele>92.2</ele>
        <time>2013-10-01T19:36:53.540Z</time>
      </trkpt>
      <trkpt lat="48.84896" lon="2.33262">
        <ele>92.5</ele>
        <time>2013-10-01T19:36:54.593Z</time>
      </trkpt>
      <trkpt lat="48.84904" lon="2.33264">
        <ele>92.6</ele>
        <time>2013-10-01T19:36:55.578Z</time>
      </trkpt>
      <trkpt lat="48.84912" lon="2.33267">
        <ele>92.1</ele>
        <time>2013-10-01T19:36:56.537Z</time>
      </trkpt>
      <trkpt lat="48.84919" lon="2.3327">
        <ele>92.2</ele>
        <time>2013-10-01T19:36:57.776Z</time>
      </trkpt>
      <trkpt lat="48.84927" lon="2.33271">
        <ele>92.2</ele>
        <time>2013-10-01T19:36:58.537Z</time>
      </trkpt>
      <trkpt lat="48.84934" lon="2.33271">
        <ele>92.2</ele>
        <time>2013-10-01T19:36:59.591Z</time>
      </trkpt>
      <trkpt lat="48.84941" lon="2.33271">
        <ele>92.2</ele>
        <time>2013-10-01T19:37:00.554Z</time>
      </trkpt>
      <trkpt lat="48.84948" lon="2.33272">
        <ele>92.2</ele>
        <time>2013-10-01T19:37:01.525Z</time>
      </trkpt>
      <trkpt lat="48.84955" lon="2.33271">
        <ele>92.5</ele>
        <time>2013-10-01T19:37:02.591Z</time>
      </trkpt>
      <trkpt lat="48.84961" lon="2.3327">
        <ele>91.9</ele>
        <time>2013-10-01T19:37:03.566Z</time>
      </trkpt>
      <trkpt lat="48.84967" lon="2.3327">
        <ele>91.6</ele>
        <time>2013-10-01T19:37:04.590Z</time>
      </trkpt>
      <trkpt lat="48.84973" lon="2.33267">
        <ele>93.4</ele>
        <time>2013-10-01T19:37:05.573Z</time>
      </trkpt>
      <trkpt lat="48.8498" lon="2.33264">
        <ele>93.8</ele>
        <time>2013-10-01T19:37:06.659Z</time>
      </trkpt>
      <trkpt lat="48.84987" lon="2.33263">
        <ele>93.9</ele>
        <time>2013-10-01T19:37:07.669Z</time>
      </trkpt>
      <trkpt lat="48.84993" lon="2.33262">
        <ele>94.7</ele>
        <time>2013-10-01T19:37:08.618Z</time>
      </trkpt>
      <trkpt lat="48.85" lon="2.33262">
        <ele>94.8</ele>
        <time>2013-10-01T19:37:09.718Z</time>
      </trkpt>
      <trkpt lat="48.85006" lon="2.33262">
        <ele>95.5</ele>
        <time>2013-10-01T19:37:10.579Z</time>
      </trkpt>
      <trkpt lat="48.85017" lon="2.33257">
        <ele>94.4</ele>
        <time>2013-10-01T19:37:11.751Z</time>
      </trkpt>
      <trkpt lat="48.85023" lon="2.33258">
        <ele>95.5</ele>
        <time>2013-10-01T19:37:12.568Z</time>
      </trkpt>
      <trkpt lat="48.85031" lon="2.33258">
        <ele>96.8</ele>
        <time>2013-10-01T19:37:13.707Z</time>
      </trkpt>
      <trkpt lat="48.85037" lon="2.3326">
        <ele>94</ele>
        <time>2013-10-01T19:37:14.740Z</time>
      </trkpt>
      <trkpt lat="48.85043" lon="2.33262">
        <ele>93.9</ele>
        <time>2013-10-01T19:37:15.649Z</time>
      </trkpt>
      <trkpt lat="48.85048" lon="2.33263">
        <ele>94.3</ele>
        <time>2013-10-01T19:37:16.789Z</time>
      </trkpt>
      <trkpt lat="48.85052" lon="2.33265">
        <ele>94.1</ele>
        <time>2013-10-01T19:37:17.534Z</time>
      </trkpt>
      <trkpt lat="48.85058" lon="2.33266">
        <ele>94.6</ele>
        <time>2013-10-01T19:37:18.798Z</time>
      </trkpt>
      <trkpt lat="48.85062" lon="2.33267">
        <ele>95.5</ele>
        <time>2013-10-01T19:37:19.588Z</time>
      </trkpt>
      <trkpt lat="48.85068" lon="2.33268">
        <ele>94.9</ele>
        <time>2013-10-01T19:37:20.607Z</time>
      </trkpt>
      <trkpt lat="48.85073" lon="2.33269">
        <ele>95.4</ele>
        <time>2013-10-01T19:37:21.557Z</time>
      </trkpt>
      <trkpt lat="48.85078" lon="2.3327">
        <ele>96.4</ele>
        <time>2013-10-01T19:37:22.596Z</time>
      </trkpt>
      <trkpt lat="48.85083" lon="2.3327">
        <ele>96.2</ele>
        <time>2013-10-01T19:37:23.537Z</time>
      </trkpt>
      <trkpt lat="48.85091" lon="2.33274">
        <ele>98.5</ele>
        <time>2013-10-01T19:37:25.570Z</time>
      </trkpt>
      <trkpt lat="48.85095" lon="2.33276">
        <ele>99.3</ele>
        <time>2013-10-01T19:37:26.547Z</time>
      </trkpt>
      <trkpt lat="48.851" lon="2.33278">
        <ele>100.6</ele>
        <time>2013-10-01T19:37:27.561Z</time>
      </trkpt>
      <trkpt lat="48.85104" lon="2.33279">
        <ele>101.1</ele>
        <time>2013-10-01T19:37:28.543Z</time>
      </trkpt>
      <trkpt lat="48.85112" lon="2.3328">
        <ele>100.7</ele>
        <time>2013-10-01T19:37:30.549Z</time>
      </trkpt>
      <trkpt lat="48.85115" lon="2.33281">
        <ele>100.4</ele>
        <time>2013-10-01T19:37:31.562Z</time>
      </trkpt>
      <trkpt lat="48.85117" lon="2.33279">
        <ele>99.9</ele>
        <time>2013-10-01T19:37:37.634Z</time>
      </trkpt>
      <trkpt lat="48.85117" lon="2.33279">
        <ele>100.2</ele>
        <time>2013-10-01T19:37:38.549Z</time>
      </trkpt>
      <trkpt lat="48.85117" lon="2.33279">
        <ele>100</ele>
        <time>2013-10-01T19:37:40.560Z</time>
      </trkpt>
      <trkpt lat="48.85118" lon="2.33278">
        <ele>99.3</ele>
        <time>2013-10-01T19:37:41.545Z</time>
      </trkpt>
      <trkpt lat="48.85123" lon="2.33275">
        <ele>96.3</ele>
        <time>2013-10-01T19:37:43.571Z</time>
      </trkpt>
      <trkpt lat="48.85127" lon="2.33273">
        <ele>94.8</ele>
        <time>2013-10-01T19:37:44.550Z</time>
      </trkpt>
      <trkpt lat="48.85133" lon="2.33269">
        <ele>95.8</ele>
        <time>2013-10-01T19:37:46.561Z</time>
      </trkpt>
      <trkpt lat="48.85137" lon="2.33268">
        <ele>94.9</ele>
        <time>2013-10-01T19:37:47.520Z</time>
      </trkpt>
      <trkpt lat="48.85144" lon="2.3327">
        <ele>94.6</ele>
        <time>2013-10-01T19:37:49.540Z</time>
      </trkpt>
      <trkpt lat="48.85147" lon="2.33273">
        <ele>94.7</ele>
        <time>2013-10-01T19:37:50.537Z</time>
      </trkpt>
      <trkpt lat="48.85155" lon="2.33278">
        <ele>95.1</ele>
        <time>2013-10-01T19:37:52.757Z</time>
      </trkpt>
      <trkpt lat="48.85158" lon="2.33281">
        <ele>95</ele>
        <time>2013-10-01T19:37:53.550Z</time>
      </trkpt>
      <trkpt lat="48.85162" lon="2.33284">
        <ele>94.4</ele>
        <time>2013-10-01T19:37:54.669Z</time>
      </trkpt>
      <trkpt lat="48.85166" lon="2.33288">
        <ele>94.3</ele>
        <time>2013-10-01T19:37:55.559Z</time>
      </trkpt>
      <trkpt lat="48.85173" lon="2.33295">
        <ele>94.2</ele>
        <time>2013-10-01T19:37:57.569Z</time>
      </trkpt>
      <trkpt lat="48.85176" lon="2.33298">
        <ele>94.4</ele>
        <time>2013-10-01T19:37:58.547Z</time>
      </trkpt>
      <trkpt lat="48.85182" lon="2.33304">
        <ele>94.3</ele>
        <time>2013-10-01T19:38:00.551Z</time>
      </trkpt>
      <trkpt lat="48.85185" lon="2.33307">
        <ele>94.4</ele>
        <time>2013-10-01T19:38:01.560Z</time>
      </trkpt>
      <trkpt lat="48.85191" lon="2.33312">
        <ele>93.6</ele>
        <time>2013-10-01T19:38:03.557Z</time>
      </trkpt>
      <trkpt lat="48.85194" lon="2.33314">
        <ele>93.7</ele>
        <time>2013-10-01T19:38:04.543Z</time>
      </trkpt>
      <trkpt lat="48.85201" lon="2.3332">
        <ele>94.2</ele>
        <time>2013-10-01T19:38:06.559Z</time>
      </trkpt>
      <trkpt lat="48.85205" lon="2.33322">
        <ele>94.6</ele>
        <time>2013-10-01T19:38:07.706Z</time>
      </trkpt>
      <trkpt lat="48.85213" lon="2.33325">
        <ele>94.6</ele>
        <time>2013-10-01T19:38:09.531Z</time>
      </trkpt>
      <trkpt lat="48.85219" lon="2.33325">
        <ele>94.6</ele>
        <time>2013-10-01T19:38:10.565Z</time>
      </trkpt>
      <trkpt lat="48.85233" lon="2.33314">
        <ele>94.6</ele>
        <time>2013-10-01T19:38:11.549Z</time>
      </trkpt>
      <trkpt lat="48.85245" lon="2.33304">
        <ele>94.2</ele>
        <time>2013-10-01T19:38:12.530Z</time>
      </trkpt>
      <trkpt lat="48.85245" lon="2.33304">
        <ele>94.2</ele>
        <time>2013-10-01T19:38:12.571Z</time>
      </trkpt>
      <trkpt lat="48.85257" lon="2.33298">
        <ele>94.8</ele>
        <time>2013-10-01T19:38:13.550Z</time>
      </trkpt>
      <trkpt lat="48.85265" lon="2.33296">
        <ele>94.7</ele>
        <time>2013-10-01T19:38:14.585Z</time>
      </trkpt>
      <trkpt lat="48.85272" lon="2.33299">
        <ele>97.1</ele>
        <time>2013-10-01T19:38:15.561Z</time>
      </trkpt>
      <trkpt lat="48.85278" lon="2.33303">
        <ele>97.2</ele>
        <time>2013-10-01T19:38:16.558Z</time>
      </trkpt>
      <trkpt lat="48.85283" lon="2.33305">
        <ele>97.7</ele>
        <time>2013-10-01T19:38:17.534Z</time>
      </trkpt>
      <trkpt lat="48.8529" lon="2.33309">
        <ele>97.4</ele>
        <time>2013-10-01T19:38:19.567Z</time>
      </trkpt>
      <trkpt lat="48.85293" lon="2.3331">
        <ele>96.8</ele>
        <time>2013-10-01T19:38:20.560Z</time>
      </trkpt>
      <trkpt lat="48.85299" lon="2.33312">
        <ele>97</ele>
        <time>2013-10-01T19:38:22.580Z</time>
      </trkpt>
      <trkpt lat="48.85303" lon="2.33313">
        <ele>97</ele>
        <time>2013-10-01T19:38:23.576Z</time>
      </trkpt>
      <trkpt lat="48.85311" lon="2.33313">
        <ele>98.5</ele>
        <time>2013-10-01T19:38:25.562Z</time>
      </trkpt>
      <trkpt lat="48.85315" lon="2.33312">
        <ele>98.5</ele>
        <time>2013-10-01T19:38:26.561Z</time>
      </trkpt>
      <trkpt lat="48.85323" lon="2.33313">
        <ele>98.8</ele>
        <time>2013-10-01T19:38:28.558Z</time>
      </trkpt>
      <trkpt lat="48.85325" lon="2.33314">
        <ele>98.9</ele>
        <time>2013-10-01T19:38:29.548Z</time>
      </trkpt>
      <trkpt lat="48.85333" lon="2.33319">
        <ele>99.1</ele>
        <time>2013-10-01T19:38:32.679Z</time>
      </trkpt>
      <trkpt lat="48.85336" lon="2.3332">
        <ele>98.4</ele>
        <time>2013-10-01T19:38:33.579Z</time>
      </trkpt>
      <trkpt lat="48.85342" lon="2.33321">
        <ele>99.7</ele>
        <time>2013-10-01T19:38:35.564Z</time>
      </trkpt>
      <trkpt lat="48.85345" lon="2.33321">
        <ele>100.1</ele>
        <time>2013-10-01T19:38:36.575Z</time>
      </trkpt>
      <trkpt lat="48.85354" lon="2.3332">
        <ele>101.3</ele>
        <time>2013-10-01T19:38:39.569Z</time>
      </trkpt>
      <trkpt lat="48.85357" lon="2.33319">
        <ele>103</ele>
        <time>2013-10-01T19:38:40.581Z</time>
      </trkpt>
      <trkpt lat="48.85364" lon="2.3332">
        <ele>104.7</ele>
        <time>2013-10-01T19:38:42.748Z</time>
      </trkpt>
      <trkpt lat="48.85367" lon="2.33321">
        <ele>103.5</ele>
        <time>2013-10-01T19:38:43.580Z</time>
      </trkpt>
      <trkpt lat="48.85374" lon="2.33322">
        <ele>101.5</ele>
        <time>2013-10-01T19:38:45.551Z</time>
      </trkpt>
      <trkpt lat="48.85378" lon="2.33323">
        <ele>101.9</ele>
        <time>2013-10-01T19:38:46.570Z</time>
      </trkpt>
      <trkpt lat="48.85384" lon="2.33325">
        <ele>102.2</ele>
        <time>2013-10-01T19:38:48.593Z</time>
      </trkpt>
      <trkpt lat="48.85387" lon="2.33326">
        <ele>103</ele>
        <time>2013-10-01T19:38:49.567Z</time>
      </trkpt>
      <trkpt lat="48.85394" lon="2.3333">
        <ele>104.2</ele>
        <time>2013-10-01T19:38:52.778Z</time>
      </trkpt>
      <trkpt lat="48.85397" lon="2.33331">
        <ele>105</ele>
        <time>2013-10-01T19:38:53.607Z</time>
      </trkpt>
      <trkpt lat="48.85404" lon="2.33335">
        <ele>107.4</ele>
        <time>2013-10-01T19:38:57.784Z</time>
      </trkpt>
      <trkpt lat="48.85407" lon="2.33335">
        <ele>107.4</ele>
        <time>2013-10-01T19:38:58.699Z</time>
      </trkpt>
      <trkpt lat="48.85414" lon="2.33336">
        <ele>105.9</ele>
        <time>2013-10-01T19:39:01.576Z</time>
      </trkpt>
      <trkpt lat="48.85416" lon="2.33336">
        <ele>105.5</ele>
        <time>2013-10-01T19:39:02.568Z</time>
      </trkpt>
      <trkpt lat="48.85423" lon="2.33338">
        <ele>106.7</ele>
        <time>2013-10-01T19:39:05.557Z</time>
      </trkpt>
      <trkpt lat="48.85425" lon="2.33339">
        <ele>106.4</ele>
        <time>2013-10-01T19:39:06.570Z</time>
      </trkpt>
      <trkpt lat="48.85433" lon="2.3334">
        <ele>109.9</ele>
        <time>2013-10-01T19:39:10.562Z</time>
      </trkpt>
      <trkpt lat="48.85435" lon="2.33341">
        <ele>109.5</ele>
        <time>2013-10-01T19:39:11.595Z</time>
      </trkpt>
      <trkpt lat="48.85443" lon="2.33343">
        <ele>108.9</ele>
        <time>2013-10-01T19:39:15.594Z</time>
      </trkpt>
      <trkpt lat="48.85445" lon="2.33344">
        <ele>108.8</ele>
        <time>2013-10-01T19:39:16.601Z</time>
      </trkpt>
      <trkpt lat="48.85454" lon="2.33344">
        <ele>108.4</ele>
        <time>2013-10-01T19:39:20.594Z</time>
      </trkpt>
      <trkpt lat="48.85456" lon="2.33345">
        <ele>108.2</ele>
        <time>2013-10-01T19:39:21.550Z</time>
      </trkpt>
      <trkpt lat="48.85463" lon="2.33347">
        <ele>108.7</ele>
        <time>2013-10-01T19:39:23.629Z</time>
      </trkpt>
      <trkpt lat="48.85466" lon="2.33348">
        <ele>108.7</ele>
        <time>2013-10-01T19:39:24.568Z</time>
      </trkpt>
      <trkpt lat="48.85474" lon="2.33351">
        <ele>108.6</ele>
        <time>2013-10-01T19:39:26.608Z</time>
      </trkpt>
      <trkpt lat="48.85477" lon="2.33352">
        <ele>108.5</ele>
        <time>2013-10-01T19:39:27.570Z</time>
      </trkpt>
      <trkpt lat="48.85484" lon="2.33356">
        <ele>108.9</ele>
        <time>2013-10-01T19:39:29.563Z</time>
      </trkpt>
      <trkpt lat="48.85488" lon="2.33359">
        <ele>108.9</ele>
        <time>2013-10-01T19:39:30.560Z</time>
      </trkpt>
      <trkpt lat="48.85495" lon="2.33364">
        <ele>108.7</ele>
        <time>2013-10-01T19:39:32.605Z</time>
      </trkpt>
      <trkpt lat="48.85498" lon="2.33367">
        <ele>108.7</ele>
        <time>2013-10-01T19:39:33.558Z</time>
      </trkpt>
      <trkpt lat="48.85504" lon="2.33372">
        <ele>108.9</ele>
        <time>2013-10-01T19:39:35.564Z</time>
      </trkpt>
      <trkpt lat="48.85508" lon="2.33375">
        <ele>109.1</ele>
        <time>2013-10-01T19:39:36.558Z</time>
      </trkpt>
      <trkpt lat="48.85511" lon="2.3338">
        <ele>108.9</ele>
        <time>2013-10-01T19:39:37.651Z</time>
      </trkpt>
      <trkpt lat="48.85515" lon="2.33384">
        <ele>107.1</ele>
        <time>2013-10-01T19:39:38.574Z</time>
      </trkpt>
      <trkpt lat="48.85522" lon="2.3339">
        <ele>107.7</ele>
        <time>2013-10-01T19:39:39.672Z</time>
      </trkpt>
      <trkpt lat="48.85534" lon="2.33393">
        <ele>107.3</ele>
        <time>2013-10-01T19:39:40.648Z</time>
      </trkpt>
      <trkpt lat="48.85548" lon="2.33387">
        <ele>107.6</ele>
        <time>2013-10-01T19:39:41.713Z</time>
      </trkpt>
      <trkpt lat="48.85558" lon="2.33387">
        <ele>107.3</ele>
        <time>2013-10-01T19:39:42.582Z</time>
      </trkpt>
      <trkpt lat="48.85566" lon="2.33388">
        <ele>106.3</ele>
        <time>2013-10-01T19:39:43.727Z</time>
      </trkpt>
      <trkpt lat="48.85571" lon="2.33388">
        <ele>107.4</ele>
        <time>2013-10-01T19:39:44.596Z</time>
      </trkpt>
      <trkpt lat="48.85578" lon="2.33392">
        <ele>101.4</ele>
        <time>2013-10-01T19:39:45.680Z</time>
      </trkpt>
      <trkpt lat="48.85584" lon="2.33396">
        <ele>100.1</ele>
        <time>2013-10-01T19:39:46.639Z</time>
      </trkpt>
      <trkpt lat="48.85589" lon="2.33399">
        <ele>100.7</ele>
        <time>2013-10-01T19:39:47.756Z</time>
      </trkpt>
      <trkpt lat="48.85594" lon="2.33401">
        <ele>101</ele>
        <time>2013-10-01T19:39:48.679Z</time>
      </trkpt>
      <trkpt lat="48.85599" lon="2.33402">
        <ele>100.9</ele>
        <time>2013-10-01T19:39:49.601Z</time>
      </trkpt>
      <trkpt lat="48.85604" lon="2.33404">
        <ele>100.4</ele>
        <time>2013-10-01T19:39:50.644Z</time>
      </trkpt>
      <trkpt lat="48.85613" lon="2.33407">
        <ele>99.8</ele>
        <time>2013-10-01T19:39:52.768Z</time>
      </trkpt>
      <trkpt lat="48.85616" lon="2.3341">
        <ele>99.3</ele>
        <time>2013-10-01T19:39:53.580Z</time>
      </trkpt>
      <trkpt lat="48.85624" lon="2.33415">
        <ele>99.9</ele>
        <time>2013-10-01T19:39:55.642Z</time>
      </trkpt>
      <trkpt lat="48.85628" lon="2.33417">
        <ele>99.8</ele>
        <time>2013-10-01T19:39:56.648Z</time>
      </trkpt>
      <trkpt lat="48.85632" lon="2.33419">
        <ele>99.6</ele>
        <time>2013-10-01T19:39:57.777Z</time>
      </trkpt>
      <trkpt lat="48.85636" lon="2.33422">
        <ele>99.2</ele>
        <time>2013-10-01T19:39:58.608Z</time>
      </trkpt>
      <trkpt lat="48.85642" lon="2.3343">
        <ele>98.6</ele>
        <time>2013-10-01T19:40:00.560Z</time>
      </trkpt>
      <trkpt lat="48.85646" lon="2.33436">
        <ele>99.7</ele>
        <time>2013-10-01T19:40:01.770Z</time>
      </trkpt>
      <trkpt lat="48.8565" lon="2.33441">
        <ele>101.1</ele>
        <time>2013-10-01T19:40:02.818Z</time>
      </trkpt>
      <trkpt lat="48.85655" lon="2.33445">
        <ele>101.1</ele>
        <time>2013-10-01T19:40:03.696Z</time>
      </trkpt>
      <trkpt lat="48.8566" lon="2.33449">
        <ele>101.4</ele>
        <time>2013-10-01T19:40:04.688Z</time>
      </trkpt>
      <trkpt lat="48.85665" lon="2.33453">
        <ele>101.5</ele>
        <time>2013-10-01T19:40:05.629Z</time>
      </trkpt>
      <trkpt lat="48.8567" lon="2.33458">
        <ele>101.4</ele>
        <time>2013-10-01T19:40:07.689Z</time>
      </trkpt>
      <trkpt lat="48.85676" lon="2.33464">
        <ele>100.4</ele>
        <time>2013-10-01T19:40:07.803Z</time>
      </trkpt>
      <trkpt lat="48.8568" lon="2.33469">
        <ele>100.1</ele>
        <time>2013-10-01T19:40:08.541Z</time>
      </trkpt>
      <trkpt lat="48.85686" lon="2.33474">
        <ele>100.4</ele>
        <time>2013-10-01T19:40:09.560Z</time>
      </trkpt>
      <trkpt lat="48.85692" lon="2.33478">
        <ele>100</ele>
        <time>2013-10-01T19:40:10.630Z</time>
      </trkpt>
      <trkpt lat="48.85698" lon="2.33483">
        <ele>99.8</ele>
        <time>2013-10-01T19:40:11.580Z</time>
      </trkpt>
      <trkpt lat="48.85703" lon="2.33487">
        <ele>100.2</ele>
        <time>2013-10-01T19:40:12.585Z</time>
      </trkpt>
      <trkpt lat="48.85708" lon="2.33491">
        <ele>100</ele>
        <time>2013-10-01T19:40:13.569Z</time>
      </trkpt>
      <trkpt lat="48.85713" lon="2.33494">
        <ele>99.8</ele>
        <time>2013-10-01T19:40:14.584Z</time>
      </trkpt>
      <trkpt lat="48.85718" lon="2.33497">
        <ele>99.5</ele>
        <time>2013-10-01T19:40:15.540Z</time>
      </trkpt>
      <trkpt lat="48.85723" lon="2.33499">
        <ele>100.1</ele>
        <time>2013-10-01T19:40:16.568Z</time>
      </trkpt>
      <trkpt lat="48.85728" lon="2.335">
        <ele>99.9</ele>
        <time>2013-10-01T19:40:17.678Z</time>
      </trkpt>
      <trkpt lat="48.85736" lon="2.33506">
        <ele>98.8</ele>
        <time>2013-10-01T19:40:19.649Z</time>
      </trkpt>
      <trkpt lat="48.8574" lon="2.33508">
        <ele>98.7</ele>
        <time>2013-10-01T19:40:20.641Z</time>
      </trkpt>
      <trkpt lat="48.85746" lon="2.33512">
        <ele>98.8</ele>
        <time>2013-10-01T19:40:22.712Z</time>
      </trkpt>
      <trkpt lat="48.85749" lon="2.33514">
        <ele>98.8</ele>
        <time>2013-10-01T19:40:23.579Z</time>
      </trkpt>
      <trkpt lat="48.85755" lon="2.33521">
        <ele>98.6</ele>
        <time>2013-10-01T19:40:27.699Z</time>
      </trkpt>
      <trkpt lat="48.85757" lon="2.33524">
        <ele>98.9</ele>
        <time>2013-10-01T19:40:28.569Z</time>
      </trkpt>
      <trkpt lat="48.85765" lon="2.33527">
        <ele>90.6</ele>
        <time>2013-10-01T19:40:32.625Z</time>
      </trkpt>
      <trkpt lat="48.85766" lon="2.33528">
        <ele>89.4</ele>
        <time>2013-10-01T19:40:33.610Z</time>
      </trkpt>
      <trkpt lat="48.85769" lon="2.33531">
        <ele>83.2</ele>
        <time>2013-10-01T19:40:49.758Z</time>
      </trkpt>
      <trkpt lat="48.85768" lon="2.33531">
        <ele>83.1</ele>
        <time>2013-10-01T19:40:50.637Z</time>
      </trkpt>
      <trkpt lat="48.85768" lon="2.33531">
        <ele>82.9</ele>
        <time>2013-10-01T19:40:52.657Z</time>
      </trkpt>
      <trkpt lat="48.85767" lon="2.33531">
        <ele>82.6</ele>
        <time>2013-10-01T19:40:53.741Z</time>
      </trkpt>
      <trkpt lat="48.85767" lon="2.33532">
        <ele>83.2</ele>
        <time>2013-10-01T19:40:55.699Z</time>
      </trkpt>
      <trkpt lat="48.85767" lon="2.33532">
        <ele>83.4</ele>
        <time>2013-10-01T19:40:56.857Z</time>
      </trkpt>
      <trkpt lat="48.85767" lon="2.33532">
        <ele>84</ele>
        <time>2013-10-01T19:41:02.753Z</time>
      </trkpt>
      <trkpt lat="48.85768" lon="2.33531">
        <ele>83.5</ele>
        <time>2013-10-01T19:41:03.842Z</time>
      </trkpt>
      <trkpt lat="48.85771" lon="2.33524">
        <ele>88.7</ele>
        <time>2013-10-01T19:41:07.494Z</time>
      </trkpt>
      <trkpt lat="48.85774" lon="2.33519">
        <ele>91.6</ele>
        <time>2013-10-01T19:41:07.845Z</time>
      </trkpt>
      <trkpt lat="48.8578" lon="2.3351">
        <ele>92.5</ele>
        <time>2013-10-01T19:41:09.769Z</time>
      </trkpt>
      <trkpt lat="48.85784" lon="2.33505">
        <ele>92</ele>
        <time>2013-10-01T19:41:10.725Z</time>
      </trkpt>
      <trkpt lat="48.85788" lon="2.33494">
        <ele>91.4</ele>
        <time>2013-10-01T19:41:12.850Z</time>
      </trkpt>
      <trkpt lat="48.85789" lon="2.33489">
        <ele>92.2</ele>
        <time>2013-10-01T19:41:13.649Z</time>
      </trkpt>
      <trkpt lat="48.85791" lon="2.33477">
        <ele>93.5</ele>
        <time>2013-10-01T19:41:15.595Z</time>
      </trkpt>
      <trkpt lat="48.85793" lon="2.33471">
        <ele>94.1</ele>
        <time>2013-10-01T19:41:16.779Z</time>
      </trkpt>
      <trkpt lat="48.85795" lon="2.33461">
        <ele>95.3</ele>
        <time>2013-10-01T19:41:18.720Z</time>
      </trkpt>
      <trkpt lat="48.85796" lon="2.33456">
        <ele>94.7</ele>
        <time>2013-10-01T19:41:19.785Z</time>
      </trkpt>
      <trkpt lat="48.85798" lon="2.33447">
        <ele>95.1</ele>
        <time>2013-10-01T19:41:21.779Z</time>
      </trkpt>
      <trkpt lat="48.85799" lon="2.33443">
        <ele>95.5</ele>
        <time>2013-10-01T19:41:22.593Z</time>
      </trkpt>
      <trkpt lat="48.85801" lon="2.33433">
        <ele>95.6</ele>
        <time>2013-10-01T19:41:24.544Z</time>
      </trkpt>
      <trkpt lat="48.85802" lon="2.33425">
        <ele>93.3</ele>
        <time>2013-10-01T19:41:25.781Z</time>
      </trkpt>
      <trkpt lat="48.85805" lon="2.33413">
        <ele>92.2</ele>
        <time>2013-10-01T19:41:27.637Z</time>
      </trkpt>
      <trkpt lat="48.85806" lon="2.33406">
        <ele>91.8</ele>
        <time>2013-10-01T19:41:28.572Z</time>
      </trkpt>
      <trkpt lat="48.85808" lon="2.33393">
        <ele>91.6</ele>
        <time>2013-10-01T19:41:30.570Z</time>
      </trkpt>
      <trkpt lat="48.85809" lon="2.33387">
        <ele>91.5</ele>
        <time>2013-10-01T19:41:31.642Z</time>
      </trkpt>
      <trkpt lat="48.85812" lon="2.33376">
        <ele>90.6</ele>
        <time>2013-10-01T19:41:33.560Z</time>
      </trkpt>
      <trkpt lat="48.85813" lon="2.33369">
        <ele>91.2</ele>
        <time>2013-10-01T19:41:34.588Z</time>
      </trkpt>
      <trkpt lat="48.85815" lon="2.33363">
        <ele>91.5</ele>
        <time>2013-10-01T19:41:35.590Z</time>
      </trkpt>
      <trkpt lat="48.85818" lon="2.33355">
        <ele>93.5</ele>
        <time>2013-10-01T19:41:36.560Z</time>
      </trkpt>
      <trkpt lat="48.8582" lon="2.33346">
        <ele>94.1</ele>
        <time>2013-10-01T19:41:37.725Z</time>
      </trkpt>
      <trkpt lat="48.85823" lon="2.33336">
        <ele>95.8</ele>
        <time>2013-10-01T19:41:38.611Z</time>
      </trkpt>
      <trkpt lat="48.85826" lon="2.33329">
        <ele>96</ele>
        <time>2013-10-01T19:41:39.610Z</time>
      </trkpt>
      <trkpt lat="48.85828" lon="2.33321">
        <ele>95</ele>
        <time>2013-10-01T19:41:40.591Z</time>
      </trkpt>
      <trkpt lat="48.85831" lon="2.33314">
        <ele>95.2</ele>
        <time>2013-10-01T19:41:41.575Z</time>
      </trkpt>
      <trkpt lat="48.85833" lon="2.33307">
        <ele>94.7</ele>
        <time>2013-10-01T19:41:42.581Z</time>
      </trkpt>
      <trkpt lat="48.85835" lon="2.33301">
        <ele>93.3</ele>
        <time>2013-10-01T19:41:43.569Z</time>
      </trkpt>
      <trkpt lat="48.85837" lon="2.33295">
        <ele>93.2</ele>
        <time>2013-10-01T19:41:44.570Z</time>
      </trkpt>
      <trkpt lat="48.85841" lon="2.33286">
        <ele>90.3</ele>
        <time>2013-10-01T19:41:46.561Z</time>
      </trkpt>
      <trkpt lat="48.85842" lon="2.33282">
        <ele>90</ele>
        <time>2013-10-01T19:41:47.552Z</time>
      </trkpt>
      <trkpt lat="48.85846" lon="2.3327">
        <ele>90.9</ele>
        <time>2013-10-01T19:41:53.569Z</time>
      </trkpt>
      <trkpt lat="48.85846" lon="2.33269">
        <ele>91</ele>
        <time>2013-10-01T19:41:54.557Z</time>
      </trkpt>
      <trkpt lat="48.85847" lon="2.3327">
        <ele>91.8</ele>
        <time>2013-10-01T19:41:59.578Z</time>
      </trkpt>
      <trkpt lat="48.85847" lon="2.3327">
        <ele>91.6</ele>
        <time>2013-10-01T19:42:00.569Z</time>
      </trkpt>
      <trkpt lat="48.85847" lon="2.33269">
        <ele>91.7</ele>
        <time>2013-10-01T19:42:02.802Z</time>
      </trkpt>
      <trkpt lat="48.85848" lon="2.33268">
        <ele>91.8</ele>
        <time>2013-10-01T19:42:03.560Z</time>
      </trkpt>
      <trkpt lat="48.85848" lon="2.33267">
        <ele>91.7</ele>
        <time>2013-10-01T19:42:07.752Z</time>
      </trkpt>
      <trkpt lat="48.85848" lon="2.33267">
        <ele>91.6</ele>
        <time>2013-10-01T19:42:08.583Z</time>
      </trkpt>
      <trkpt lat="48.85848" lon="2.33267">
        <ele>91.7</ele>
        <time>2013-10-01T19:42:09.599Z</time>
      </trkpt>
      <trkpt lat="48.85848" lon="2.33266">
        <ele>91.7</ele>
        <time>2013-10-01T19:42:10.609Z</time>
      </trkpt>
      <trkpt lat="48.85852" lon="2.33254">
        <ele>89.7</ele>
        <time>2013-10-01T19:42:15.702Z</time>
      </trkpt>
      <trkpt lat="48.85853" lon="2.33251">
        <ele>90.3</ele>
        <time>2013-10-01T19:42:16.856Z</time>
      </trkpt>
      <trkpt lat="48.85856" lon="2.33239">
        <ele>91.6</ele>
        <time>2013-10-01T19:42:20.715Z</time>
      </trkpt>
      <trkpt lat="48.85857" lon="2.33236">
        <ele>88.8</ele>
        <time>2013-10-01T19:42:21.535Z</time>
      </trkpt>
      <trkpt lat="48.85861" lon="2.33226">
        <ele>91.5</ele>
        <time>2013-10-01T19:42:25.824Z</time>
      </trkpt>
      <trkpt lat="48.85862" lon="2.33224">
        <ele>91.9</ele>
        <time>2013-10-01T19:42:26.537Z</time>
      </trkpt>
      <trkpt lat="48.85865" lon="2.33214">
        <ele>90.8</ele>
        <time>2013-10-01T19:42:29.704Z</time>
      </trkpt>
      <trkpt lat="48.85866" lon="2.3321">
        <ele>90.2</ele>
        <time>2013-10-01T19:42:30.626Z</time>
      </trkpt>
      <trkpt lat="48.85868" lon="2.33198">
        <ele>88.9</ele>
        <time>2013-10-01T19:42:33.556Z</time>
      </trkpt>
      <trkpt lat="48.85868" lon="2.33193">
        <ele>88.5</ele>
        <time>2013-10-01T19:42:34.476Z</time>
      </trkpt>
      <trkpt lat="48.8587" lon="2.33181">
        <ele>88.4</ele>
        <time>2013-10-01T19:42:36.514Z</time>
      </trkpt>
      <trkpt lat="48.85872" lon="2.33176">
        <ele>89</ele>
        <time>2013-10-01T19:42:37.477Z</time>
      </trkpt>
      <trkpt lat="48.85875" lon="2.33163">
        <ele>90.1</ele>
        <time>2013-10-01T19:42:39.566Z</time>
      </trkpt>
      <trkpt lat="48.85877" lon="2.33158">
        <ele>90.6</ele>
        <time>2013-10-01T19:42:40.523Z</time>
      </trkpt>
      <trkpt lat="48.85879" lon="2.33152">
        <ele>90</ele>
        <time>2013-10-01T19:42:41.485Z</time>
      </trkpt>
      <trkpt lat="48.85881" lon="2.33145">
        <ele>89.3</ele>
        <time>2013-10-01T19:42:42.467Z</time>
      </trkpt>
      <trkpt lat="48.85883" lon="2.33139">
        <ele>88.7</ele>
        <time>2013-10-01T19:42:43.476Z</time>
      </trkpt>
      <trkpt lat="48.85886" lon="2.33132">
        <ele>89.9</ele>
        <time>2013-10-01T19:42:44.504Z</time>
      </trkpt>
      <trkpt lat="48.85888" lon="2.33126">
        <ele>90.2</ele>
        <time>2013-10-01T19:42:45.477Z</time>
      </trkpt>
      <trkpt lat="48.8589" lon="2.3312">
        <ele>89.8</ele>
        <time>2013-10-01T19:42:46.502Z</time>
      </trkpt>
      <trkpt lat="48.85894" lon="2.33109">
        <ele>91.2</ele>
        <time>2013-10-01T19:42:48.496Z</time>
      </trkpt>
      <trkpt lat="48.85896" lon="2.33103">
        <ele>92.4</ele>
        <time>2013-10-01T19:42:49.523Z</time>
      </trkpt>
      <trkpt lat="48.85899" lon="2.33094">
        <ele>92.8</ele>
        <time>2013-10-01T19:42:51.499Z</time>
      </trkpt>
      <trkpt lat="48.859" lon="2.33089">
        <ele>93.8</ele>
        <time>2013-10-01T19:42:52.486Z</time>
      </trkpt>
      <trkpt lat="48.85902" lon="2.3308">
        <ele>93.5</ele>
        <time>2013-10-01T19:42:54.496Z</time>
      </trkpt>
      <trkpt lat="48.85903" lon="2.33075">
        <ele>93.7</ele>
        <time>2013-10-01T19:42:55.486Z</time>
      </trkpt>
      <trkpt lat="48.85905" lon="2.33066">
        <ele>93.9</ele>
        <time>2013-10-01T19:42:57.675Z</time>
      </trkpt>
      <trkpt lat="48.85906" lon="2.33062">
        <ele>93.4</ele>
        <time>2013-10-01T19:42:58.495Z</time>
      </trkpt>
      <trkpt lat="48.85909" lon="2.33053">
        <ele>92.8</ele>
        <time>2013-10-01T19:43:00.493Z</time>
      </trkpt>
      <trkpt lat="48.8591" lon="2.33047">
        <ele>92.5</ele>
        <time>2013-10-01T19:43:01.515Z</time>
      </trkpt>
      <trkpt lat="48.85913" lon="2.33036">
        <ele>93.5</ele>
        <time>2013-10-01T19:43:03.499Z</time>
      </trkpt>
      <trkpt lat="48.85915" lon="2.3303">
        <ele>93.7</ele>
        <time>2013-10-01T19:43:04.487Z</time>
      </trkpt>
      <trkpt lat="48.85919" lon="2.33019">
        <ele>94.7</ele>
        <time>2013-10-01T19:43:07.502Z</time>
      </trkpt>
      <trkpt lat="48.85921" lon="2.33013">
        <ele>95.9</ele>
        <time>2013-10-01T19:43:07.523Z</time>
      </trkpt>
      <trkpt lat="48.85923" lon="2.33007">
        <ele>95.7</ele>
        <time>2013-10-01T19:43:08.477Z</time>
      </trkpt>
      <trkpt lat="48.85926" lon="2.33001">
        <ele>95.4</ele>
        <time>2013-10-01T19:43:09.480Z</time>
      </trkpt>
      <trkpt lat="48.85928" lon="2.32994">
        <ele>95.9</ele>
        <time>2013-10-01T19:43:10.502Z</time>
      </trkpt>
      <trkpt lat="48.8593" lon="2.32988">
        <ele>96.4</ele>
        <time>2013-10-01T19:43:11.478Z</time>
      </trkpt>
      <trkpt lat="48.85933" lon="2.32981">
        <ele>96.2</ele>
        <time>2013-10-01T19:43:12.528Z</time>
      </trkpt>
      <trkpt lat="48.85935" lon="2.32975">
        <ele>95.7</ele>
        <time>2013-10-01T19:43:13.496Z</time>
      </trkpt>
      <trkpt lat="48.85938" lon="2.32964">
        <ele>95.2</ele>
        <time>2013-10-01T19:43:15.478Z</time>
      </trkpt>
      <trkpt lat="48.8594" lon="2.32959">
        <ele>95.3</ele>
        <time>2013-10-01T19:43:16.498Z</time>
      </trkpt>
      <trkpt lat="48.85946" lon="2.3295">
        <ele>92.7</ele>
        <time>2013-10-01T19:43:19.497Z</time>
      </trkpt>
      <trkpt lat="48.85947" lon="2.32948">
        <ele>92.7</ele>
        <time>2013-10-01T19:43:20.517Z</time>
      </trkpt>
      <trkpt lat="48.8595" lon="2.32941">
        <ele>88.3</ele>
        <time>2013-10-01T19:43:29.501Z</time>
      </trkpt>
      <trkpt lat="48.8595" lon="2.32941">
        <ele>88.3</ele>
        <time>2013-10-01T19:43:30.488Z</time>
      </trkpt>
      <trkpt lat="48.85951" lon="2.32942">
        <ele>88.1</ele>
        <time>2013-10-01T19:43:31.729Z</time>
      </trkpt>
      <trkpt lat="48.85953" lon="2.32941">
        <ele>87</ele>
        <time>2013-10-01T19:43:37.787Z</time>
      </trkpt>
      <trkpt lat="48.85953" lon="2.32941">
        <ele>87.1</ele>
        <time>2013-10-01T19:43:38.655Z</time>
      </trkpt>
      <trkpt lat="48.85953" lon="2.32941">
        <ele>87.2</ele>
        <time>2013-10-01T19:43:44.497Z</time>
      </trkpt>
      <trkpt lat="48.85953" lon="2.32939">
        <ele>88.2</ele>
        <time>2013-10-01T19:43:45.503Z</time>
      </trkpt>
      <trkpt lat="48.85956" lon="2.32928">
        <ele>86.7</ele>
        <time>2013-10-01T19:43:50.499Z</time>
      </trkpt>
      <trkpt lat="48.85957" lon="2.32926">
        <ele>86.9</ele>
        <time>2013-10-01T19:43:51.496Z</time>
      </trkpt>
      <trkpt lat="48.85958" lon="2.32924">
        <ele>85.3</ele>
        <time>2013-10-01T19:43:54.498Z</time>
      </trkpt>
      <trkpt lat="48.85958" lon="2.32924">
        <ele>85.5</ele>
        <time>2013-10-01T19:43:55.487Z</time>
      </trkpt>
      <trkpt lat="48.85958" lon="2.32925">
        <ele>84.9</ele>
        <time>2013-10-01T19:44:31.515Z</time>
      </trkpt>
      <trkpt lat="48.85958" lon="2.32924">
        <ele>84.6</ele>
        <time>2013-10-01T19:44:32.638Z</time>
      </trkpt>
      <trkpt lat="48.85962" lon="2.32912">
        <ele>84.8</ele>
        <time>2013-10-01T19:44:35.768Z</time>
      </trkpt>
      <trkpt lat="48.85964" lon="2.32907">
        <ele>83.3</ele>
        <time>2013-10-01T19:44:36.493Z</time>
      </trkpt>
      <trkpt lat="48.85966" lon="2.32896">
        <ele>85.1</ele>
        <time>2013-10-01T19:44:38.489Z</time>
      </trkpt>
      <trkpt lat="48.85968" lon="2.32889">
        <ele>84.6</ele>
        <time>2013-10-01T19:44:39.553Z</time>
      </trkpt>
      <trkpt lat="48.8597" lon="2.32878">
        <ele>85.7</ele>
        <time>2013-10-01T19:44:41.630Z</time>
      </trkpt>
      <trkpt lat="48.85971" lon="2.32871">
        <ele>85.7</ele>
        <time>2013-10-01T19:44:42.708Z</time>
      </trkpt>
      <trkpt lat="48.85972" lon="2.32858">
        <ele>87.3</ele>
        <time>2013-10-01T19:44:44.681Z</time>
      </trkpt>
      <trkpt lat="48.85972" lon="2.32852">
        <ele>87.6</ele>
        <time>2013-10-01T19:44:45.534Z</time>
      </trkpt>
      <trkpt lat="48.85963" lon="2.32853">
        <ele>87</ele>
        <time>2013-10-01T19:44:55.492Z</time>
      </trkpt>
      <trkpt lat="48.85963" lon="2.32854">
        <ele>86.4</ele>
        <time>2013-10-01T19:44:56.496Z</time>
      </trkpt>
      <trkpt lat="48.85957" lon="2.32851">
        <ele>86</ele>
        <time>2013-10-01T19:45:21.497Z</time>
      </trkpt>
      <trkpt lat="48.85957" lon="2.32852">
        <ele>85.8</ele>
        <time>2013-10-01T19:45:22.486Z</time>
      </trkpt>
      <trkpt lat="48.85958" lon="2.32849">
        <ele>85.6</ele>
        <time>2013-10-01T19:45:51.506Z</time>
      </trkpt>
      <trkpt lat="48.85958" lon="2.32848">
        <ele>85.4</ele>
        <time>2013-10-01T19:45:52.708Z</time>
      </trkpt>
      <trkpt lat="48.85961" lon="2.32839">
        <ele>78.7</ele>
        <time>2013-10-01T19:45:55.506Z</time>
      </trkpt>
      <trkpt lat="48.85963" lon="2.32835">
        <ele>76.6</ele>
        <time>2013-10-01T19:45:56.499Z</time>
      </trkpt>
      <trkpt lat="48.85967" lon="2.32824">
        <ele>72.8</ele>
        <time>2013-10-01T19:45:59.497Z</time>
      </trkpt>
      <trkpt lat="48.85968" lon="2.32821">
        <ele>71.9</ele>
        <time>2013-10-01T19:46:00.529Z</time>
      </trkpt>
      <trkpt lat="48.8597" lon="2.3281">
        <ele>68.4</ele>
        <time>2013-10-01T19:46:04.631Z</time>
      </trkpt>
      <trkpt lat="48.85971" lon="2.32807">
        <ele>67.9</ele>
        <time>2013-10-01T19:46:05.589Z</time>
      </trkpt>
      <trkpt lat="48.85975" lon="2.32797">
        <ele>71.7</ele>
        <time>2013-10-01T19:46:08.685Z</time>
      </trkpt>
      <trkpt lat="48.85976" lon="2.32794">
        <ele>71.4</ele>
        <time>2013-10-01T19:46:09.505Z</time>
      </trkpt>
      <trkpt lat="48.85981" lon="2.32786">
        <ele>71.6</ele>
        <time>2013-10-01T19:46:11.644Z</time>
      </trkpt>
      <trkpt lat="48.85983" lon="2.32781">
        <ele>72.6</ele>
        <time>2013-10-01T19:46:12.576Z</time>
      </trkpt>
      <trkpt lat="48.85987" lon="2.32771">
        <ele>70.6</ele>
        <time>2013-10-01T19:46:14.537Z</time>
      </trkpt>
      <trkpt lat="48.85989" lon="2.32766">
        <ele>70.7</ele>
        <time>2013-10-01T19:46:15.615Z</time>
      </trkpt>
      <trkpt lat="48.85993" lon="2.32755">
        <ele>69.2</ele>
        <time>2013-10-01T19:46:17.702Z</time>
      </trkpt>
      <trkpt lat="48.85995" lon="2.3275">
        <ele>69.9</ele>
        <time>2013-10-01T19:46:18.517Z</time>
      </trkpt>
      <trkpt lat="48.85998" lon="2.3274">
        <ele>73.3</ele>
        <time>2013-10-01T19:46:20.621Z</time>
      </trkpt>
      <trkpt lat="48.86" lon="2.32735">
        <ele>73.9</ele>
        <time>2013-10-01T19:46:21.472Z</time>
      </trkpt>
      <trkpt lat="48.86004" lon="2.32725">
        <ele>72.8</ele>
        <time>2013-10-01T19:46:23.496Z</time>
      </trkpt>
      <trkpt lat="48.86006" lon="2.3272">
        <ele>72.7</ele>
        <time>2013-10-01T19:46:24.522Z</time>
      </trkpt>
      <trkpt lat="48.8601" lon="2.32709">
        <ele>70.7</ele>
        <time>2013-10-01T19:46:26.617Z</time>
      </trkpt>
      <trkpt lat="48.86011" lon="2.32704">
        <ele>70.7</ele>
        <time>2013-10-01T19:46:27.688Z</time>
      </trkpt>
      <trkpt lat="48.86014" lon="2.32695">
        <ele>71.5</ele>
        <time>2013-10-01T19:46:29.524Z</time>
      </trkpt>
      <trkpt lat="48.86016" lon="2.3269">
        <ele>71.7</ele>
        <time>2013-10-01T19:46:30.510Z</time>
      </trkpt>
      <trkpt lat="48.86018" lon="2.32679">
        <ele>71.4</ele>
        <time>2013-10-01T19:46:32.720Z</time>
      </trkpt>
      <trkpt lat="48.8602" lon="2.32674">
        <ele>70.9</ele>
        <time>2013-10-01T19:46:33.491Z</time>
      </trkpt>
      <trkpt lat="48.86022" lon="2.32663">
        <ele>70.5</ele>
        <time>2013-10-01T19:46:35.528Z</time>
      </trkpt>
      <trkpt lat="48.86023" lon="2.32658">
        <ele>70.4</ele>
        <time>2013-10-01T19:46:36.475Z</time>
      </trkpt>
      <trkpt lat="48.86025" lon="2.32647">
        <ele>70.6</ele>
        <time>2013-10-01T19:46:38.487Z</time>
      </trkpt>
      <trkpt lat="48.86026" lon="2.32641">
        <ele>71</ele>
        <time>2013-10-01T19:46:39.494Z</time>
      </trkpt>
      <trkpt lat="48.86028" lon="2.3263">
        <ele>73.1</ele>
        <time>2013-10-01T19:46:41.501Z</time>
      </trkpt>
      <trkpt lat="48.86029" lon="2.32625">
        <ele>72.5</ele>
        <time>2013-10-01T19:46:42.498Z</time>
      </trkpt>
      <trkpt lat="48.86032" lon="2.32614">
        <ele>70.6</ele>
        <time>2013-10-01T19:46:44.506Z</time>
      </trkpt>
      <trkpt lat="48.86034" lon="2.32609">
        <ele>70.8</ele>
        <time>2013-10-01T19:46:45.504Z</time>
      </trkpt>
      <trkpt lat="48.86039" lon="2.32598">
        <ele>73.4</ele>
        <time>2013-10-01T19:46:47.734Z</time>
      </trkpt>
      <trkpt lat="48.86041" lon="2.32593">
        <ele>74</ele>
        <time>2013-10-01T19:46:48.533Z</time>
      </trkpt>
      <trkpt lat="48.86045" lon="2.32582">
        <ele>75.4</ele>
        <time>2013-10-01T19:46:50.528Z</time>
      </trkpt>
      <trkpt lat="48.86047" lon="2.32577">
        <ele>76.3</ele>
        <time>2013-10-01T19:46:51.519Z</time>
      </trkpt>
      <trkpt lat="48.86051" lon="2.32568">
        <ele>76.7</ele>
        <time>2013-10-01T19:46:53.553Z</time>
      </trkpt>
      <trkpt lat="48.86052" lon="2.32563">
        <ele>78.4</ele>
        <time>2013-10-01T19:46:54.516Z</time>
      </trkpt>
      <trkpt lat="48.86053" lon="2.32551">
        <ele>79</ele>
        <time>2013-10-01T19:46:57.751Z</time>
      </trkpt>
      <trkpt lat="48.86051" lon="2.32548">
        <ele>79.1</ele>
        <time>2013-10-01T19:46:58.491Z</time>
      </trkpt>
      <trkpt lat="48.86046" lon="2.32544">
        <ele>80.1</ele>
        <time>2013-10-01T19:47:00.476Z</time>
      </trkpt>
      <trkpt lat="48.86042" lon="2.32542">
        <ele>81.3</ele>
        <time>2013-10-01T19:47:01.520Z</time>
      </trkpt>
      <trkpt lat="48.86035" lon="2.32537">
        <ele>84</ele>
        <time>2013-10-01T19:47:03.524Z</time>
      </trkpt>
      <trkpt lat="48.86031" lon="2.32533">
        <ele>86.3</ele>
        <time>2013-10-01T19:47:04.502Z</time>
      </trkpt>
      <trkpt lat="48.86025" lon="2.32526">
        <ele>87.9</ele>
        <time>2013-10-01T19:47:07.527Z</time>
      </trkpt>
      <trkpt lat="48.86022" lon="2.32522">
        <ele>87.5</ele>
        <time>2013-10-01T19:47:07.560Z</time>
      </trkpt>
      <trkpt lat="48.86017" lon="2.32515">
        <ele>89.9</ele>
        <time>2013-10-01T19:47:09.544Z</time>
      </trkpt>
      <trkpt lat="48.86014" lon="2.32512">
        <ele>90.4</ele>
        <time>2013-10-01T19:47:10.557Z</time>
      </trkpt>
      <trkpt lat="48.86007" lon="2.32504">
        <ele>92.7</ele>
        <time>2013-10-01T19:47:13.513Z</time>
      </trkpt>
      <trkpt lat="48.86006" lon="2.32502">
        <ele>93.5</ele>
        <time>2013-10-01T19:47:14.507Z</time>
      </trkpt>
      <trkpt lat="48.86011" lon="2.32501">
        <ele>96.4</ele>
        <time>2013-10-01T19:47:24.509Z</time>
      </trkpt>
      <trkpt lat="48.8601" lon="2.32501">
        <ele>96.5</ele>
        <time>2013-10-01T19:47:25.582Z</time>
      </trkpt>
      <trkpt lat="48.8601" lon="2.32498">
        <ele>96.3</ele>
        <time>2013-10-01T19:47:42.920Z</time>
      </trkpt>
      <trkpt lat="48.8601" lon="2.32498">
        <ele>95.6</ele>
        <time>2013-10-01T19:47:43.538Z</time>
      </trkpt>
      <trkpt lat="48.86014" lon="2.32497">
        <ele>89.3</ele>
        <time>2013-10-01T19:47:56.751Z</time>
      </trkpt>
      <trkpt lat="48.86014" lon="2.32497">
        <ele>89.4</ele>
        <time>2013-10-01T19:47:57.591Z</time>
      </trkpt>
      <trkpt lat="48.86014" lon="2.32496">
        <ele>89.3</ele>
        <time>2013-10-01T19:47:59.524Z</time>
      </trkpt>
      <trkpt lat="48.86013" lon="2.32495">
        <ele>89.3</ele>
        <time>2013-10-01T19:48:00.739Z</time>
      </trkpt>
      <trkpt lat="48.86006" lon="2.32486">
        <ele>91.4</ele>
        <time>2013-10-01T19:48:03.684Z</time>
      </trkpt>
      <trkpt lat="48.86005" lon="2.3248">
        <ele>92.7</ele>
        <time>2013-10-01T19:48:04.598Z</time>
      </trkpt>
      <trkpt lat="48.86005" lon="2.32467">
        <ele>93.5</ele>
        <time>2013-10-01T19:48:07.535Z</time>
      </trkpt>
      <trkpt lat="48.86006" lon="2.32459">
        <ele>93.7</ele>
        <time>2013-10-01T19:48:07.636Z</time>
      </trkpt>
      <trkpt lat="48.86008" lon="2.32452">
        <ele>94.4</ele>
        <time>2013-10-01T19:48:08.523Z</time>
      </trkpt>
      <trkpt lat="48.8601" lon="2.32444">
        <ele>94.5</ele>
        <time>2013-10-01T19:48:09.516Z</time>
      </trkpt>
      <trkpt lat="48.86012" lon="2.32437">
        <ele>93.7</ele>
        <time>2013-10-01T19:48:10.526Z</time>
      </trkpt>
      <trkpt lat="48.86014" lon="2.3243">
        <ele>93.5</ele>
        <time>2013-10-01T19:48:11.534Z</time>
      </trkpt>
      <trkpt lat="48.86016" lon="2.32423">
        <ele>94</ele>
        <time>2013-10-01T19:48:12.562Z</time>
      </trkpt>
      <trkpt lat="48.86018" lon="2.32417">
        <ele>94.6</ele>
        <time>2013-10-01T19:48:13.547Z</time>
      </trkpt>
      <trkpt lat="48.8602" lon="2.32411">
        <ele>94.4</ele>
        <time>2013-10-01T19:48:14.507Z</time>
      </trkpt>
      <trkpt lat="48.86022" lon="2.32404">
        <ele>94.4</ele>
        <time>2013-10-01T19:48:15.527Z</time>
      </trkpt>
      <trkpt lat="48.86027" lon="2.32393">
        <ele>93.9</ele>
        <time>2013-10-01T19:48:17.579Z</time>
      </trkpt>
      <trkpt lat="48.86029" lon="2.32388">
        <ele>92.9</ele>
        <time>2013-10-01T19:48:18.513Z</time>
      </trkpt>
      <trkpt lat="48.86034" lon="2.32378">
        <ele>87.9</ele>
        <time>2013-10-01T19:48:24.535Z</time>
      </trkpt>
      <trkpt lat="48.86036" lon="2.32378">
        <ele>88.8</ele>
        <time>2013-10-01T19:48:25.556Z</time>
      </trkpt>
      <trkpt lat="48.86043" lon="2.32383">
        <ele>91.2</ele>
        <time>2013-10-01T19:48:28.758Z</time>
      </trkpt>
      <trkpt lat="48.86045" lon="2.32384">
        <ele>92</ele>
        <time>2013-10-01T19:48:29.615Z</time>
      </trkpt>
      <trkpt lat="48.86052" lon="2.32385">
        <ele>94.3</ele>
        <time>2013-10-01T19:48:31.550Z</time>
      </trkpt>
      <trkpt lat="48.86055" lon="2.32386">
        <ele>95</ele>
        <time>2013-10-01T19:48:32.686Z</time>
      </trkpt>
      <trkpt lat="48.86062" lon="2.32386">
        <ele>96.8</ele>
        <time>2013-10-01T19:48:34.536Z</time>
      </trkpt>
      <trkpt lat="48.86065" lon="2.32386">
        <ele>96.4</ele>
        <time>2013-10-01T19:48:35.523Z</time>
      </trkpt>
      <trkpt lat="48.86071" lon="2.32388">
        <ele>98.2</ele>
        <time>2013-10-01T19:48:37.728Z</time>
      </trkpt>
      <trkpt lat="48.86074" lon="2.32389">
        <ele>96.9</ele>
        <time>2013-10-01T19:48:38.536Z</time>
      </trkpt>
      <trkpt lat="48.8608" lon="2.32394">
        <ele>95.4</ele>
        <time>2013-10-01T19:48:40.507Z</time>
      </trkpt>
      <trkpt lat="48.86083" lon="2.32396">
        <ele>97.5</ele>
        <time>2013-10-01T19:48:41.516Z</time>
      </trkpt>
      <trkpt lat="48.86089" lon="2.32401">
        <ele>94.4</ele>
        <time>2013-10-01T19:48:43.525Z</time>
      </trkpt>
      <trkpt lat="48.86093" lon="2.32403">
        <ele>94.7</ele>
        <time>2013-10-01T19:48:44.535Z</time>
      </trkpt>
      <trkpt lat="48.86099" lon="2.3241">
        <ele>93.2</ele>
        <time>2013-10-01T19:48:47.548Z</time>
      </trkpt>
      <trkpt lat="48.861" lon="2.32412">
        <ele>90.8</ele>
        <time>2013-10-01T19:48:48.508Z</time>
      </trkpt>
      <trkpt lat="48.86102" lon="2.32417">
        <ele>85.9</ele>
        <time>2013-10-01T19:48:57.948Z</time>
      </trkpt>
      <trkpt lat="48.86102" lon="2.32417">
        <ele>85.7</ele>
        <time>2013-10-01T19:48:58.497Z</time>
      </trkpt>
      <trkpt lat="48.86102" lon="2.32418">
        <ele>85.6</ele>
        <time>2013-10-01T19:49:04.506Z</time>
      </trkpt>
      <trkpt lat="48.86102" lon="2.32419">
        <ele>85.7</ele>
        <time>2013-10-01T19:49:05.528Z</time>
      </trkpt>
      <trkpt lat="48.86109" lon="2.32421">
        <ele>88.7</ele>
        <time>2013-10-01T19:49:09.558Z</time>
      </trkpt>
      <trkpt lat="48.86112" lon="2.32421">
        <ele>88.7</ele>
        <time>2013-10-01T19:49:10.543Z</time>
      </trkpt>
      <trkpt lat="48.86118" lon="2.32419">
        <ele>87.8</ele>
        <time>2013-10-01T19:49:12.576Z</time>
      </trkpt>
      <trkpt lat="48.86122" lon="2.32418">
        <ele>87.7</ele>
        <time>2013-10-01T19:49:13.496Z</time>
      </trkpt>
      <trkpt lat="48.86128" lon="2.32418">
        <ele>87</ele>
        <time>2013-10-01T19:49:15.542Z</time>
      </trkpt>
      <trkpt lat="48.86131" lon="2.32418">
        <ele>87.6</ele>
        <time>2013-10-01T19:49:16.484Z</time>
      </trkpt>
      <trkpt lat="48.86139" lon="2.32424">
        <ele>87.9</ele>
        <time>2013-10-01T19:49:19.507Z</time>
      </trkpt>
      <trkpt lat="48.86142" lon="2.32426">
        <ele>88.2</ele>
        <time>2013-10-01T19:49:20.526Z</time>
      </trkpt>
      <trkpt lat="48.86148" lon="2.32433">
        <ele>86.7</ele>
        <time>2013-10-01T19:49:23.519Z</time>
      </trkpt>
      <trkpt lat="48.8615" lon="2.32436">
        <ele>87.6</ele>
        <time>2013-10-01T19:49:24.495Z</time>
      </trkpt>
      <trkpt lat="48.86158" lon="2.32443">
        <ele>88.2</ele>
        <time>2013-10-01T19:49:27.608Z</time>
      </trkpt>
      <trkpt lat="48.8616" lon="2.32444">
        <ele>88.3</ele>
        <time>2013-10-01T19:49:28.509Z</time>
      </trkpt>
      <trkpt lat="48.86167" lon="2.32451">
        <ele>86.8</ele>
        <time>2013-10-01T19:49:31.519Z</time>
      </trkpt>
      <trkpt lat="48.8617" lon="2.32453">
        <ele>86.9</ele>
        <time>2013-10-01T19:49:32.516Z</time>
      </trkpt>
      <trkpt lat="48.86175" lon="2.32457">
        <ele>85.1</ele>
        <time>2013-10-01T19:49:34.517Z</time>
      </trkpt>
      <trkpt lat="48.86178" lon="2.3246">
        <ele>84.6</ele>
        <time>2013-10-01T19:49:35.510Z</time>
      </trkpt>
      <trkpt lat="48.86184" lon="2.32465">
        <ele>82.7</ele>
        <time>2013-10-01T19:49:37.637Z</time>
      </trkpt>
      <trkpt lat="48.86187" lon="2.32468">
        <ele>82.8</ele>
        <time>2013-10-01T19:49:38.677Z</time>
      </trkpt>
      <trkpt lat="48.86191" lon="2.32473">
        <ele>83.3</ele>
        <time>2013-10-01T19:49:40.557Z</time>
      </trkpt>
      <trkpt lat="48.86195" lon="2.32476">
        <ele>81.5</ele>
        <time>2013-10-01T19:49:41.548Z</time>
      </trkpt>
      <trkpt lat="48.862" lon="2.32482">
        <ele>80.4</ele>
        <time>2013-10-01T19:49:43.518Z</time>
      </trkpt>
      <trkpt lat="48.86203" lon="2.32484">
        <ele>80</ele>
        <time>2013-10-01T19:49:44.528Z</time>
      </trkpt>
      <trkpt lat="48.86208" lon="2.32489">
        <ele>79.9</ele>
        <time>2013-10-01T19:49:46.517Z</time>
      </trkpt>
      <trkpt lat="48.86211" lon="2.32491">
        <ele>79.6</ele>
        <time>2013-10-01T19:49:47.527Z</time>
      </trkpt>
      <trkpt lat="48.86218" lon="2.32497">
        <ele>79</ele>
        <time>2013-10-01T19:49:50.518Z</time>
      </trkpt>
      <trkpt lat="48.86221" lon="2.32498">
        <ele>78.8</ele>
        <time>2013-10-01T19:49:51.518Z</time>
      </trkpt>
      <trkpt lat="48.8623" lon="2.32499">
        <ele>79.3</ele>
        <time>2013-10-01T19:49:55.522Z</time>
      </trkpt>
      <trkpt lat="48.86231" lon="2.32499">
        <ele>79.4</ele>
        <time>2013-10-01T19:49:56.523Z</time>
      </trkpt>
      <trkpt lat="48.86237" lon="2.32508">
        <ele>79.8</ele>
        <time>2013-10-01T19:50:02.663Z</time>
      </trkpt>
      <trkpt lat="48.86238" lon="2.3251">
        <ele>79.5</ele>
        <time>2013-10-01T19:50:03.535Z</time>
      </trkpt>
      <trkpt lat="48.86235" lon="2.32522">
        <ele>78.7</ele>
        <time>2013-10-01T19:50:11.532Z</time>
      </trkpt>
      <trkpt lat="48.86235" lon="2.32524">
        <ele>78.8</ele>
        <time>2013-10-01T19:50:12.521Z</time>
      </trkpt>
      <trkpt lat="48.86239" lon="2.32519">
        <ele>79.7</ele>
        <time>2013-10-01T19:50:27.613Z</time>
      </trkpt>
      <trkpt lat="48.86239" lon="2.3252">
        <ele>80</ele>
        <time>2013-10-01T19:50:28.528Z</time>
      </trkpt>
      <trkpt lat="48.86239" lon="2.32521">
        <ele>80</ele>
        <time>2013-10-01T19:50:29.528Z</time>
      </trkpt>
      <trkpt lat="48.86239" lon="2.32522">
        <ele>80.2</ele>
        <time>2013-10-01T19:50:30.535Z</time>
      </trkpt>
      <trkpt lat="48.86239" lon="2.32523">
        <ele>79.5</ele>
        <time>2013-10-01T19:50:34.536Z</time>
      </trkpt>
      <trkpt lat="48.86239" lon="2.32523">
        <ele>79.4</ele>
        <time>2013-10-01T19:50:35.535Z</time>
      </trkpt>
      <trkpt lat="48.86238" lon="2.32523">
        <ele>79.3</ele>
        <time>2013-10-01T19:51:07.821Z</time>
      </trkpt>
      <trkpt lat="48.86239" lon="2.32523">
        <ele>79.3</ele>
        <time>2013-10-01T19:51:08.548Z</time>
      </trkpt>
      <trkpt lat="48.86246" lon="2.32526">
        <ele>77.7</ele>
        <time>2013-10-01T19:51:12.640Z</time>
      </trkpt>
      <trkpt lat="48.86248" lon="2.32527">
        <ele>77.8</ele>
        <time>2013-10-01T19:51:13.500Z</time>
      </trkpt>
      <trkpt lat="48.86255" lon="2.32522">
        <ele>78.2</ele>
        <time>2013-10-01T19:51:16.551Z</time>
      </trkpt>
      <trkpt lat="48.86257" lon="2.32519">
        <ele>78.2</ele>
        <time>2013-10-01T19:51:17.525Z</time>
      </trkpt>
      <trkpt lat="48.86263" lon="2.3251">
        <ele>80.1</ele>
        <time>2013-10-01T19:51:19.522Z</time>
      </trkpt>
      <trkpt lat="48.86265" lon="2.32505">
        <ele>81</ele>
        <time>2013-10-01T19:51:20.525Z</time>
      </trkpt>
      <trkpt lat="48.86268" lon="2.32494">
        <ele>81.3</ele>
        <time>2013-10-01T19:51:22.594Z</time>
      </trkpt>
      <trkpt lat="48.86269" lon="2.32489">
        <ele>80.8</ele>
        <time>2013-10-01T19:51:23.558Z</time>
      </trkpt>
      <trkpt lat="48.86273" lon="2.32477">
        <ele>81.3</ele>
        <time>2013-10-01T19:51:25.556Z</time>
      </trkpt>
      <trkpt lat="48.86274" lon="2.32469">
        <ele>81.6</ele>
        <time>2013-10-01T19:51:26.595Z</time>
      </trkpt>
      <trkpt lat="48.86276" lon="2.32463">
        <ele>82.3</ele>
        <time>2013-10-01T19:51:27.612Z</time>
      </trkpt>
      <trkpt lat="48.86277" lon="2.32456">
        <ele>82.4</ele>
        <time>2013-10-01T19:51:28.695Z</time>
      </trkpt>
      <trkpt lat="48.86278" lon="2.32449">
        <ele>82.3</ele>
        <time>2013-10-01T19:51:29.561Z</time>
      </trkpt>
      <trkpt lat="48.8628" lon="2.32442">
        <ele>81.1</ele>
        <time>2013-10-01T19:51:30.495Z</time>
      </trkpt>
      <trkpt lat="48.86283" lon="2.32434">
        <ele>81.3</ele>
        <time>2013-10-01T19:51:31.560Z</time>
      </trkpt>
      <trkpt lat="48.86285" lon="2.32427">
        <ele>81.3</ele>
        <time>2013-10-01T19:51:32.526Z</time>
      </trkpt>
      <trkpt lat="48.86288" lon="2.32421">
        <ele>81.5</ele>
        <time>2013-10-01T19:51:33.538Z</time>
      </trkpt>
      <trkpt lat="48.86291" lon="2.32414">
        <ele>81.6</ele>
        <time>2013-10-01T19:51:34.527Z</time>
      </trkpt>
      <trkpt lat="48.86293" lon="2.32408">
        <ele>80.9</ele>
        <time>2013-10-01T19:51:35.548Z</time>
      </trkpt>
      <trkpt lat="48.86295" lon="2.32401">
        <ele>80.6</ele>
        <time>2013-10-01T19:51:36.545Z</time>
      </trkpt>
      <trkpt lat="48.86297" lon="2.32395">
        <ele>81.1</ele>
        <time>2013-10-01T19:51:37.653Z</time>
      </trkpt>
      <trkpt lat="48.86299" lon="2.32389">
        <ele>81.1</ele>
        <time>2013-10-01T19:51:38.566Z</time>
      </trkpt>
      <trkpt lat="48.863" lon="2.32381">
        <ele>83.4</ele>
        <time>2013-10-01T19:51:39.644Z</time>
      </trkpt>
      <trkpt lat="48.86303" lon="2.32373">
        <ele>83</ele>
        <time>2013-10-01T19:51:40.749Z</time>
      </trkpt>
      <trkpt lat="48.86306" lon="2.32366">
        <ele>83.2</ele>
        <time>2013-10-01T19:51:41.568Z</time>
      </trkpt>
      <trkpt lat="48.86309" lon="2.32358">
        <ele>83.2</ele>
        <time>2013-10-01T19:51:42.743Z</time>
      </trkpt>
      <trkpt lat="48.86311" lon="2.32353">
        <ele>83.7</ele>
        <time>2013-10-01T19:51:43.513Z</time>
      </trkpt>
      <trkpt lat="48.86313" lon="2.32345">
        <ele>83</ele>
        <time>2013-10-01T19:51:44.741Z</time>
      </trkpt>
      <trkpt lat="48.86315" lon="2.32339">
        <ele>82.7</ele>
        <time>2013-10-01T19:51:45.593Z</time>
      </trkpt>
      <trkpt lat="48.86317" lon="2.32332">
        <ele>83.3</ele>
        <time>2013-10-01T19:51:46.661Z</time>
      </trkpt>
      <trkpt lat="48.86319" lon="2.32326">
        <ele>82</ele>
        <time>2013-10-01T19:51:47.679Z</time>
      </trkpt>
      <trkpt lat="48.86323" lon="2.3232">
        <ele>83.1</ele>
        <time>2013-10-01T19:51:48.516Z</time>
      </trkpt>
      <trkpt lat="48.86327" lon="2.32308">
        <ele>82.9</ele>
        <time>2013-10-01T19:51:50.557Z</time>
      </trkpt>
      <trkpt lat="48.8633" lon="2.32301">
        <ele>83.7</ele>
        <time>2013-10-01T19:51:51.751Z</time>
      </trkpt>
      <trkpt lat="48.86332" lon="2.32295">
        <ele>83.8</ele>
        <time>2013-10-01T19:51:52.552Z</time>
      </trkpt>
      <trkpt lat="48.86335" lon="2.32287">
        <ele>84.1</ele>
        <time>2013-10-01T19:51:53.537Z</time>
      </trkpt>
      <trkpt lat="48.86338" lon="2.3228">
        <ele>84</ele>
        <time>2013-10-01T19:51:54.527Z</time>
      </trkpt>
      <trkpt lat="48.8634" lon="2.32273">
        <ele>84.3</ele>
        <time>2013-10-01T19:51:55.549Z</time>
      </trkpt>
      <trkpt lat="48.8634" lon="2.32266">
        <ele>84.1</ele>
        <time>2013-10-01T19:51:56.526Z</time>
      </trkpt>
      <trkpt lat="48.86341" lon="2.32258">
        <ele>84.7</ele>
        <time>2013-10-01T19:51:57.537Z</time>
      </trkpt>
      <trkpt lat="48.86343" lon="2.32252">
        <ele>84.7</ele>
        <time>2013-10-01T19:51:58.526Z</time>
      </trkpt>
      <trkpt lat="48.86344" lon="2.32245">
        <ele>84.8</ele>
        <time>2013-10-01T19:51:59.527Z</time>
      </trkpt>
      <trkpt lat="48.86346" lon="2.32238">
        <ele>86.1</ele>
        <time>2013-10-01T19:52:00.526Z</time>
      </trkpt>
      <trkpt lat="48.86348" lon="2.32231">
        <ele>86.5</ele>
        <time>2013-10-01T19:52:01.542Z</time>
      </trkpt>
      <trkpt lat="48.8635" lon="2.32224">
        <ele>86.4</ele>
        <time>2013-10-01T19:52:02.693Z</time>
      </trkpt>
      <trkpt lat="48.86352" lon="2.32218">
        <ele>86.1</ele>
        <time>2013-10-01T19:52:03.537Z</time>
      </trkpt>
      <trkpt lat="48.86355" lon="2.32211">
        <ele>87.8</ele>
        <time>2013-10-01T19:52:04.726Z</time>
      </trkpt>
      <trkpt lat="48.86357" lon="2.32206">
        <ele>89.1</ele>
        <time>2013-10-01T19:52:05.652Z</time>
      </trkpt>
      <trkpt lat="48.8636" lon="2.32195">
        <ele>89.6</ele>
        <time>2013-10-01T19:52:07.826Z</time>
      </trkpt>
      <trkpt lat="48.86361" lon="2.3219">
        <ele>88.7</ele>
        <time>2013-10-01T19:52:08.608Z</time>
      </trkpt>
      <trkpt lat="48.86365" lon="2.32179">
        <ele>87.7</ele>
        <time>2013-10-01T19:52:10.567Z</time>
      </trkpt>
      <trkpt lat="48.86367" lon="2.32173">
        <ele>87.6</ele>
        <time>2013-10-01T19:52:11.752Z</time>
      </trkpt>
      <trkpt lat="48.8637" lon="2.32162">
        <ele>86.1</ele>
        <time>2013-10-01T19:52:13.708Z</time>
      </trkpt>
      <trkpt lat="48.86373" lon="2.32157">
        <ele>85.3</ele>
        <time>2013-10-01T19:52:14.709Z</time>
      </trkpt>
      <trkpt lat="48.8638" lon="2.32152">
        <ele>86.9</ele>
        <time>2013-10-01T19:52:17.559Z</time>
      </trkpt>
      <trkpt lat="48.86382" lon="2.32151">
        <ele>87.6</ele>
        <time>2013-10-01T19:52:18.706Z</time>
      </trkpt>
      <trkpt lat="48.86391" lon="2.32152">
        <ele>84</ele>
        <time>2013-10-01T19:52:21.626Z</time>
      </trkpt>
      <trkpt lat="48.86393" lon="2.32154">
        <ele>84.6</ele>
        <time>2013-10-01T19:52:22.541Z</time>
      </trkpt>
      <trkpt lat="48.86399" lon="2.32159">
        <ele>83.5</ele>
        <time>2013-10-01T19:52:24.536Z</time>
      </trkpt>
      <trkpt lat="48.86403" lon="2.32162">
        <ele>83.3</ele>
        <time>2013-10-01T19:52:25.748Z</time>
      </trkpt>
      <trkpt lat="48.8641" lon="2.32169">
        <ele>83</ele>
        <time>2013-10-01T19:52:27.663Z</time>
      </trkpt>
      <trkpt lat="48.86415" lon="2.32173">
        <ele>83.4</ele>
        <time>2013-10-01T19:52:28.768Z</time>
      </trkpt>
      <trkpt lat="48.86419" lon="2.32176">
        <ele>83.7</ele>
        <time>2013-10-01T19:52:29.618Z</time>
      </trkpt>
      <trkpt lat="48.86423" lon="2.32179">
        <ele>83.6</ele>
        <time>2013-10-01T19:52:30.583Z</time>
      </trkpt>
      <trkpt lat="48.8643" lon="2.32184">
        <ele>83.8</ele>
        <time>2013-10-01T19:52:32.671Z</time>
      </trkpt>
      <trkpt lat="48.86433" lon="2.32186">
        <ele>83.4</ele>
        <time>2013-10-01T19:52:33.548Z</time>
      </trkpt>
      <trkpt lat="48.8644" lon="2.3219">
        <ele>84.1</ele>
        <time>2013-10-01T19:52:35.568Z</time>
      </trkpt>
      <trkpt lat="48.86443" lon="2.32192">
        <ele>83.5</ele>
        <time>2013-10-01T19:52:36.536Z</time>
      </trkpt>
      <trkpt lat="48.86449" lon="2.32196">
        <ele>83.1</ele>
        <time>2013-10-01T19:52:38.547Z</time>
      </trkpt>
      <trkpt lat="48.86453" lon="2.32198">
        <ele>84.2</ele>
        <time>2013-10-01T19:52:39.526Z</time>
      </trkpt>
      <trkpt lat="48.8646" lon="2.32202">
        <ele>84.4</ele>
        <time>2013-10-01T19:52:41.526Z</time>
      </trkpt>
      <trkpt lat="48.86464" lon="2.32204">
        <ele>86.3</ele>
        <time>2013-10-01T19:52:42.581Z</time>
      </trkpt>
      <trkpt lat="48.86472" lon="2.32207">
        <ele>86.1</ele>
        <time>2013-10-01T19:52:44.535Z</time>
      </trkpt>
      <trkpt lat="48.86476" lon="2.3221">
        <ele>86.6</ele>
        <time>2013-10-01T19:52:45.535Z</time>
      </trkpt>
      <trkpt lat="48.86483" lon="2.32214">
        <ele>87.7</ele>
        <time>2013-10-01T19:52:47.547Z</time>
      </trkpt>
      <trkpt lat="48.86485" lon="2.32216">
        <ele>88.9</ele>
        <time>2013-10-01T19:52:48.511Z</time>
      </trkpt>
      <trkpt lat="48.86494" lon="2.3222">
        <ele>89.2</ele>
        <time>2013-10-01T19:52:54.551Z</time>
      </trkpt>
      <trkpt lat="48.86496" lon="2.32222">
        <ele>88.6</ele>
        <time>2013-10-01T19:52:55.508Z</time>
      </trkpt>
      <trkpt lat="48.86501" lon="2.32226">
        <ele>87.1</ele>
        <time>2013-10-01T19:52:57.969Z</time>
      </trkpt>
      <trkpt lat="48.86504" lon="2.32228">
        <ele>85.5</ele>
        <time>2013-10-01T19:52:58.555Z</time>
      </trkpt>
      <trkpt lat="48.8651" lon="2.32233">
        <ele>84.3</ele>
        <time>2013-10-01T19:53:00.546Z</time>
      </trkpt>
      <trkpt lat="48.86513" lon="2.32235">
        <ele>84.3</ele>
        <time>2013-10-01T19:53:01.511Z</time>
      </trkpt>
      <trkpt lat="48.86519" lon="2.32239">
        <ele>83.2</ele>
        <time>2013-10-01T19:53:03.537Z</time>
      </trkpt>
      <trkpt lat="48.86522" lon="2.32242">
        <ele>82.8</ele>
        <time>2013-10-01T19:53:04.540Z</time>
      </trkpt>
      <trkpt lat="48.86528" lon="2.32247">
        <ele>81.7</ele>
        <time>2013-10-01T19:53:07.554Z</time>
      </trkpt>
      <trkpt lat="48.86532" lon="2.3225">
        <ele>81.5</ele>
        <time>2013-10-01T19:53:07.628Z</time>
      </trkpt>
      <trkpt lat="48.8654" lon="2.32255">
        <ele>80.6</ele>
        <time>2013-10-01T19:53:09.666Z</time>
      </trkpt>
      <trkpt lat="48.86544" lon="2.32258">
        <ele>79.3</ele>
        <time>2013-10-01T19:53:10.676Z</time>
      </trkpt>
      <trkpt lat="48.8655" lon="2.32264">
        <ele>79.1</ele>
        <time>2013-10-01T19:53:12.594Z</time>
      </trkpt>
      <trkpt lat="48.86554" lon="2.32268">
        <ele>78.7</ele>
        <time>2013-10-01T19:53:13.605Z</time>
      </trkpt>
      <trkpt lat="48.86558" lon="2.32271">
        <ele>79.4</ele>
        <time>2013-10-01T19:53:14.518Z</time>
      </trkpt>
      <trkpt lat="48.86562" lon="2.32274">
        <ele>79.2</ele>
        <time>2013-10-01T19:53:15.533Z</time>
      </trkpt>
      <trkpt lat="48.8657" lon="2.3228">
        <ele>77.9</ele>
        <time>2013-10-01T19:53:17.551Z</time>
      </trkpt>
      <trkpt lat="48.86574" lon="2.32283">
        <ele>77.9</ele>
        <time>2013-10-01T19:53:18.516Z</time>
      </trkpt>
      <trkpt lat="48.86582" lon="2.32289">
        <ele>76.9</ele>
        <time>2013-10-01T19:53:20.526Z</time>
      </trkpt>
      <trkpt lat="48.86585" lon="2.32292">
        <ele>76.7</ele>
        <time>2013-10-01T19:53:21.526Z</time>
      </trkpt>
      <trkpt lat="48.86592" lon="2.32298">
        <ele>76.5</ele>
        <time>2013-10-01T19:53:23.545Z</time>
      </trkpt>
      <trkpt lat="48.86595" lon="2.32301">
        <ele>76.4</ele>
        <time>2013-10-01T19:53:24.619Z</time>
      </trkpt>
      <trkpt lat="48.86601" lon="2.32305">
        <ele>77.2</ele>
        <time>2013-10-01T19:53:26.557Z</time>
      </trkpt>
      <trkpt lat="48.86604" lon="2.32307">
        <ele>77.3</ele>
        <time>2013-10-01T19:53:27.541Z</time>
      </trkpt>
      <trkpt lat="48.86612" lon="2.32312">
        <ele>77.5</ele>
        <time>2013-10-01T19:53:30.800Z</time>
      </trkpt>
      <trkpt lat="48.86614" lon="2.32313">
        <ele>77.4</ele>
        <time>2013-10-01T19:53:31.531Z</time>
      </trkpt>
      <trkpt lat="48.86622" lon="2.3232">
        <ele>76</ele>
        <time>2013-10-01T19:53:34.649Z</time>
      </trkpt>
      <trkpt lat="48.86624" lon="2.32322">
        <ele>75.8</ele>
        <time>2013-10-01T19:53:35.773Z</time>
      </trkpt>
      <trkpt lat="48.8663" lon="2.32329">
        <ele>76.7</ele>
        <time>2013-10-01T19:53:38.566Z</time>
      </trkpt>
      <trkpt lat="48.86632" lon="2.32334">
        <ele>76</ele>
        <time>2013-10-01T19:53:39.783Z</time>
      </trkpt>
      <trkpt lat="48.86633" lon="2.32345">
        <ele>75.5</ele>
        <time>2013-10-01T19:53:43.650Z</time>
      </trkpt>
      <trkpt lat="48.86633" lon="2.32347">
        <ele>76</ele>
        <time>2013-10-01T19:53:44.745Z</time>
      </trkpt>
      <trkpt lat="48.86638" lon="2.32352">
        <ele>77.5</ele>
        <time>2013-10-01T19:53:47.965Z</time>
      </trkpt>
      <trkpt lat="48.86641" lon="2.32354">
        <ele>77.4</ele>
        <time>2013-10-01T19:53:48.708Z</time>
      </trkpt>
      <trkpt lat="48.8665" lon="2.32357">
        <ele>77</ele>
        <time>2013-10-01T19:53:51.772Z</time>
      </trkpt>
      <trkpt lat="48.86652" lon="2.32357">
        <ele>76.5</ele>
        <time>2013-10-01T19:53:52.576Z</time>
      </trkpt>
      <trkpt lat="48.86658" lon="2.32359">
        <ele>77</ele>
        <time>2013-10-01T19:53:54.540Z</time>
      </trkpt>
      <trkpt lat="48.86662" lon="2.32361">
        <ele>77.4</ele>
        <time>2013-10-01T19:53:55.680Z</time>
      </trkpt>
      <trkpt lat="48.86668" lon="2.32366">
        <ele>77.7</ele>
        <time>2013-10-01T19:53:58.063Z</time>
      </trkpt>
      <trkpt lat="48.86671" lon="2.32368">
        <ele>79</ele>
        <time>2013-10-01T19:53:58.646Z</time>
      </trkpt>
      <trkpt lat="48.86678" lon="2.32372">
        <ele>79.8</ele>
        <time>2013-10-01T19:54:00.663Z</time>
      </trkpt>
      <trkpt lat="48.86682" lon="2.32373">
        <ele>78.9</ele>
        <time>2013-10-01T19:54:01.545Z</time>
      </trkpt>
      <trkpt lat="48.86689" lon="2.32376">
        <ele>78.2</ele>
        <time>2013-10-01T19:54:03.567Z</time>
      </trkpt>
      <trkpt lat="48.86694" lon="2.32377">
        <ele>78.5</ele>
        <time>2013-10-01T19:54:04.682Z</time>
      </trkpt>
      <trkpt lat="48.86702" lon="2.32381">
        <ele>79</ele>
        <time>2013-10-01T19:54:07.569Z</time>
      </trkpt>
      <trkpt lat="48.86706" lon="2.32382">
        <ele>79</ele>
        <time>2013-10-01T19:54:07.648Z</time>
      </trkpt>
      <trkpt lat="48.86711" lon="2.32384">
        <ele>79.2</ele>
        <time>2013-10-01T19:54:08.586Z</time>
      </trkpt>
      <trkpt lat="48.86716" lon="2.32385">
        <ele>79.8</ele>
        <time>2013-10-01T19:54:09.538Z</time>
      </trkpt>
      <trkpt lat="48.86721" lon="2.32387">
        <ele>78.9</ele>
        <time>2013-10-01T19:54:10.555Z</time>
      </trkpt>
      <trkpt lat="48.86725" lon="2.32391">
        <ele>78.7</ele>
        <time>2013-10-01T19:54:11.542Z</time>
      </trkpt>
      <trkpt lat="48.86729" lon="2.32394">
        <ele>78.9</ele>
        <time>2013-10-01T19:54:12.540Z</time>
      </trkpt>
      <trkpt lat="48.86733" lon="2.32397">
        <ele>78.9</ele>
        <time>2013-10-01T19:54:13.566Z</time>
      </trkpt>
      <trkpt lat="48.86738" lon="2.32398">
        <ele>80.2</ele>
        <time>2013-10-01T19:54:14.537Z</time>
      </trkpt>
      <trkpt lat="48.86743" lon="2.324">
        <ele>79.7</ele>
        <time>2013-10-01T19:54:15.550Z</time>
      </trkpt>
      <trkpt lat="48.86748" lon="2.32401">
        <ele>80.9</ele>
        <time>2013-10-01T19:54:16.553Z</time>
      </trkpt>
      <trkpt lat="48.86752" lon="2.32403">
        <ele>80</ele>
        <time>2013-10-01T19:54:17.539Z</time>
      </trkpt>
      <trkpt lat="48.86757" lon="2.32406">
        <ele>79.2</ele>
        <time>2013-10-01T19:54:18.540Z</time>
      </trkpt>
      <trkpt lat="48.86761" lon="2.32408">
        <ele>79.1</ele>
        <time>2013-10-01T19:54:19.537Z</time>
      </trkpt>
      <trkpt lat="48.86766" lon="2.32411">
        <ele>79.7</ele>
        <time>2013-10-01T19:54:20.554Z</time>
      </trkpt>
      <trkpt lat="48.8677" lon="2.32414">
        <ele>80.1</ele>
        <time>2013-10-01T19:54:21.595Z</time>
      </trkpt>
      <trkpt lat="48.86777" lon="2.3242">
        <ele>80.2</ele>
        <time>2013-10-01T19:54:23.536Z</time>
      </trkpt>
      <trkpt lat="48.8678" lon="2.32421">
        <ele>81</ele>
        <time>2013-10-01T19:54:24.546Z</time>
      </trkpt>
      <trkpt lat="48.86787" lon="2.32428">
        <ele>83.1</ele>
        <time>2013-10-01T19:54:27.617Z</time>
      </trkpt>
      <trkpt lat="48.8679" lon="2.3243">
        <ele>83.7</ele>
        <time>2013-10-01T19:54:28.557Z</time>
      </trkpt>
      <trkpt lat="48.86796" lon="2.32438">
        <ele>84.6</ele>
        <time>2013-10-01T19:54:31.545Z</time>
      </trkpt>
      <trkpt lat="48.86798" lon="2.32441">
        <ele>85.1</ele>
        <time>2013-10-01T19:54:32.598Z</time>
      </trkpt>
      <trkpt lat="48.86804" lon="2.32447">
        <ele>86.8</ele>
        <time>2013-10-01T19:54:35.552Z</time>
      </trkpt>
      <trkpt lat="48.86807" lon="2.3245">
        <ele>87.5</ele>
        <time>2013-10-01T19:54:36.559Z</time>
      </trkpt>
      <trkpt lat="48.86812" lon="2.32456">
        <ele>87.9</ele>
        <time>2013-10-01T19:54:38.551Z</time>
      </trkpt>
      <trkpt lat="48.86815" lon="2.32459">
        <ele>88.1</ele>
        <time>2013-10-01T19:54:39.549Z</time>
      </trkpt>
      <trkpt lat="48.86822" lon="2.32465">
        <ele>89.7</ele>
        <time>2013-10-01T19:54:41.546Z</time>
      </trkpt>
      <trkpt lat="48.86825" lon="2.32469">
        <ele>89.5</ele>
        <time>2013-10-01T19:54:42.667Z</time>
      </trkpt>
      <trkpt lat="48.8683" lon="2.32475">
        <ele>90.5</ele>
        <time>2013-10-01T19:54:44.647Z</time>
      </trkpt>
      <trkpt lat="48.86833" lon="2.32478">
        <ele>90.7</ele>
        <time>2013-10-01T19:54:45.565Z</time>
      </trkpt>
      <trkpt lat="48.86839" lon="2.32484">
        <ele>91.7</ele>
        <time>2013-10-01T19:54:47.723Z</time>
      </trkpt>
      <trkpt lat="48.86842" lon="2.32487">
        <ele>91.6</ele>
        <time>2013-10-01T19:54:48.547Z</time>
      </trkpt>
      <trkpt lat="48.86849" lon="2.32494">
        <ele>93.1</ele>
        <time>2013-10-01T19:54:50.547Z</time>
      </trkpt>
      <trkpt lat="48.86852" lon="2.32497">
        <ele>93.8</ele>
        <time>2013-10-01T19:54:51.519Z</time>
      </trkpt>
      <trkpt lat="48.86859" lon="2.32502">
        <ele>96.3</ele>
        <time>2013-10-01T19:54:53.535Z</time>
      </trkpt>
      <trkpt lat="48.86862" lon="2.32505">
        <ele>96.2</ele>
        <time>2013-10-01T19:54:54.537Z</time>
      </trkpt>
      <trkpt lat="48.86868" lon="2.3251">
        <ele>95.3</ele>
        <time>2013-10-01T19:54:56.564Z</time>
      </trkpt>
      <trkpt lat="48.86871" lon="2.32512">
        <ele>95.9</ele>
        <time>2013-10-01T19:54:57.559Z</time>
      </trkpt>
      <trkpt lat="48.86878" lon="2.32514">
        <ele>93.9</ele>
        <time>2013-10-01T19:54:59.545Z</time>
      </trkpt>
      <trkpt lat="48.86882" lon="2.32514">
        <ele>93.9</ele>
        <time>2013-10-01T19:55:00.540Z</time>
      </trkpt>
      <trkpt lat="48.86889" lon="2.32512">
        <ele>95.2</ele>
        <time>2013-10-01T19:55:02.588Z</time>
      </trkpt>
      <trkpt lat="48.86892" lon="2.32511">
        <ele>95.8</ele>
        <time>2013-10-01T19:55:03.566Z</time>
      </trkpt>
      <trkpt lat="48.86899" lon="2.3251">
        <ele>97.6</ele>
        <time>2013-10-01T19:55:05.555Z</time>
      </trkpt>
      <trkpt lat="48.86902" lon="2.32511">
        <ele>98.2</ele>
        <time>2013-10-01T19:55:06.558Z</time>
      </trkpt>
      <trkpt lat="48.86909" lon="2.32512">
        <ele>99</ele>
        <time>2013-10-01T19:55:08.584Z</time>
      </trkpt>
      <trkpt lat="48.86913" lon="2.32512">
        <ele>98.8</ele>
        <time>2013-10-01T19:55:09.555Z</time>
      </trkpt>
      <trkpt lat="48.86919" lon="2.32512">
        <ele>99.6</ele>
        <time>2013-10-01T19:55:11.546Z</time>
      </trkpt>
      <trkpt lat="48.86922" lon="2.32512">
        <ele>100.1</ele>
        <time>2013-10-01T19:55:12.549Z</time>
      </trkpt>
      <trkpt lat="48.8693" lon="2.32512">
        <ele>97.7</ele>
        <time>2013-10-01T19:55:27.716Z</time>
      </trkpt>
      <trkpt lat="48.86933" lon="2.3251">
        <ele>100.4</ele>
        <time>2013-10-01T19:55:28.538Z</time>
      </trkpt>
      <trkpt lat="48.86941" lon="2.32506">
        <ele>98.7</ele>
        <time>2013-10-01T19:55:31.542Z</time>
      </trkpt>
      <trkpt lat="48.86944" lon="2.32504">
        <ele>98.6</ele>
        <time>2013-10-01T19:55:32.537Z</time>
      </trkpt>
      <trkpt lat="48.86951" lon="2.325">
        <ele>98.7</ele>
        <time>2013-10-01T19:55:34.547Z</time>
      </trkpt>
      <trkpt lat="48.86954" lon="2.32498">
        <ele>99.9</ele>
        <time>2013-10-01T19:55:35.563Z</time>
      </trkpt>
      <trkpt lat="48.86961" lon="2.32493">
        <ele>100.8</ele>
        <time>2013-10-01T19:55:37.687Z</time>
      </trkpt>
      <trkpt lat="48.86965" lon="2.32492">
        <ele>102.3</ele>
        <time>2013-10-01T19:55:38.535Z</time>
      </trkpt>
      <trkpt lat="48.86972" lon="2.32494">
        <ele>101.9</ele>
        <time>2013-10-01T19:55:40.533Z</time>
      </trkpt>
      <trkpt lat="48.86975" lon="2.32497">
        <ele>102.9</ele>
        <time>2013-10-01T19:55:41.538Z</time>
      </trkpt>
      <trkpt lat="48.86982" lon="2.32501">
        <ele>104.4</ele>
        <time>2013-10-01T19:55:43.578Z</time>
      </trkpt>
      <trkpt lat="48.86986" lon="2.32502">
        <ele>105.2</ele>
        <time>2013-10-01T19:55:44.528Z</time>
      </trkpt>
      <trkpt lat="48.86993" lon="2.32505">
        <ele>107.2</ele>
        <time>2013-10-01T19:55:46.614Z</time>
      </trkpt>
      <trkpt lat="48.86997" lon="2.32507">
        <ele>107.4</ele>
        <time>2013-10-01T19:55:47.551Z</time>
      </trkpt>
      <trkpt lat="48.87001" lon="2.32509">
        <ele>108.7</ele>
        <time>2013-10-01T19:55:48.692Z</time>
      </trkpt>
      <trkpt lat="48.87006" lon="2.32512">
        <ele>99.9</ele>
        <time>2013-10-01T19:55:49.588Z</time>
      </trkpt>
      <trkpt lat="48.87012" lon="2.32516">
        <ele>99.9</ele>
        <time>2013-10-01T19:55:50.556Z</time>
      </trkpt>
      <trkpt lat="48.87019" lon="2.32519">
        <ele>94.5</ele>
        <time>2013-10-01T19:55:51.549Z</time>
      </trkpt>
      <trkpt lat="48.87027" lon="2.32521">
        <ele>93.6</ele>
        <time>2013-10-01T19:55:52.777Z</time>
      </trkpt>
      <trkpt lat="48.87033" lon="2.32524">
        <ele>92.4</ele>
        <time>2013-10-01T19:55:53.709Z</time>
      </trkpt>
      <trkpt lat="48.87038" lon="2.32526">
        <ele>90</ele>
        <time>2013-10-01T19:55:54.676Z</time>
      </trkpt>
      <trkpt lat="48.87043" lon="2.32529">
        <ele>88.4</ele>
        <time>2013-10-01T19:55:55.803Z</time>
      </trkpt>
      <trkpt lat="48.87047" lon="2.32532">
        <ele>87.4</ele>
        <time>2013-10-01T19:55:56.586Z</time>
      </trkpt>
      <trkpt lat="48.87052" lon="2.32535">
        <ele>87.4</ele>
        <time>2013-10-01T19:55:57.738Z</time>
      </trkpt>
      <trkpt lat="48.87059" lon="2.32539">
        <ele>87.4</ele>
        <time>2013-10-01T19:55:59.553Z</time>
      </trkpt>
      <trkpt lat="48.87062" lon="2.3254">
        <ele>88</ele>
        <time>2013-10-01T19:56:00.557Z</time>
      </trkpt>
      <trkpt lat="48.87067" lon="2.32549">
        <ele>86.6</ele>
        <time>2013-10-01T19:56:02.809Z</time>
      </trkpt>
      <trkpt lat="48.87069" lon="2.32555">
        <ele>85.8</ele>
        <time>2013-10-01T19:56:03.593Z</time>
      </trkpt>
      <trkpt lat="48.8707" lon="2.32566">
        <ele>85.7</ele>
        <time>2013-10-01T19:56:05.556Z</time>
      </trkpt>
      <trkpt lat="48.8707" lon="2.3257">
        <ele>82.3</ele>
        <time>2013-10-01T19:56:06.536Z</time>
      </trkpt>
      <trkpt lat="48.87065" lon="2.3258">
        <ele>81.2</ele>
        <time>2013-10-01T19:56:13.547Z</time>
      </trkpt>
      <trkpt lat="48.87064" lon="2.32583">
        <ele>81.2</ele>
        <time>2013-10-01T19:56:14.548Z</time>
      </trkpt>
      <trkpt lat="48.87061" lon="2.32593">
        <ele>80.5</ele>
        <time>2013-10-01T19:56:17.618Z</time>
      </trkpt>
      <trkpt lat="48.87059" lon="2.32596">
        <ele>79.7</ele>
        <time>2013-10-01T19:56:18.554Z</time>
      </trkpt>
      <trkpt lat="48.8706" lon="2.32608">
        <ele>81.8</ele>
        <time>2013-10-01T19:56:25.561Z</time>
      </trkpt>
      <trkpt lat="48.87062" lon="2.3261">
        <ele>81.5</ele>
        <time>2013-10-01T19:56:26.519Z</time>
      </trkpt>
      <trkpt lat="48.87069" lon="2.32616">
        <ele>81.6</ele>
        <time>2013-10-01T19:56:28.565Z</time>
      </trkpt>
      <trkpt lat="48.87072" lon="2.32619">
        <ele>81.6</ele>
        <time>2013-10-01T19:56:29.545Z</time>
      </trkpt>
      <trkpt lat="48.8708" lon="2.32625">
        <ele>82.4</ele>
        <time>2013-10-01T19:56:31.519Z</time>
      </trkpt>
      <trkpt lat="48.87085" lon="2.32627">
        <ele>81.8</ele>
        <time>2013-10-01T19:56:32.546Z</time>
      </trkpt>
      <trkpt lat="48.87091" lon="2.32628">
        <ele>82.1</ele>
        <time>2013-10-01T19:56:33.584Z</time>
      </trkpt>
      <trkpt lat="48.87096" lon="2.32628">
        <ele>80.8</ele>
        <time>2013-10-01T19:56:34.566Z</time>
      </trkpt>
      <trkpt lat="48.87102" lon="2.32629">
        <ele>80</ele>
        <time>2013-10-01T19:56:35.548Z</time>
      </trkpt>
      <trkpt lat="48.87107" lon="2.3263">
        <ele>79.7</ele>
        <time>2013-10-01T19:56:36.520Z</time>
      </trkpt>
      <trkpt lat="48.87112" lon="2.32631">
        <ele>80.3</ele>
        <time>2013-10-01T19:56:37.650Z</time>
      </trkpt>
      <trkpt lat="48.87118" lon="2.32631">
        <ele>81.1</ele>
        <time>2013-10-01T19:56:38.570Z</time>
      </trkpt>
      <trkpt lat="48.87125" lon="2.32635">
        <ele>82</ele>
        <time>2013-10-01T19:56:40.547Z</time>
      </trkpt>
      <trkpt lat="48.87127" lon="2.32638">
        <ele>82.1</ele>
        <time>2013-10-01T19:56:41.556Z</time>
      </trkpt>
      <trkpt lat="48.87133" lon="2.32641">
        <ele>84.6</ele>
        <time>2013-10-01T19:56:43.555Z</time>
      </trkpt>
      <trkpt lat="48.87138" lon="2.32642">
        <ele>84.4</ele>
        <time>2013-10-01T19:56:44.557Z</time>
      </trkpt>
      <trkpt lat="48.87143" lon="2.32643">
        <ele>84.4</ele>
        <time>2013-10-01T19:56:45.556Z</time>
      </trkpt>
      <trkpt lat="48.87148" lon="2.32643">
        <ele>85</ele>
        <time>2013-10-01T19:56:46.562Z</time>
      </trkpt>
      <trkpt lat="48.87154" lon="2.32643">
        <ele>85.4</ele>
        <time>2013-10-01T19:56:47.714Z</time>
      </trkpt>
      <trkpt lat="48.87159" lon="2.32643">
        <ele>85.3</ele>
        <time>2013-10-01T19:56:48.558Z</time>
      </trkpt>
      <trkpt lat="48.87165" lon="2.32643">
        <ele>85</ele>
        <time>2013-10-01T19:56:49.605Z</time>
      </trkpt>
      <trkpt lat="48.87171" lon="2.32644">
        <ele>84.8</ele>
        <time>2013-10-01T19:56:50.640Z</time>
      </trkpt>
      <trkpt lat="48.87179" lon="2.32645">
        <ele>84.5</ele>
        <time>2013-10-01T19:56:51.575Z</time>
      </trkpt>
      <trkpt lat="48.87186" lon="2.32645">
        <ele>85.3</ele>
        <time>2013-10-01T19:56:52.528Z</time>
      </trkpt>
      <trkpt lat="48.87194" lon="2.32646">
        <ele>86</ele>
        <time>2013-10-01T19:56:53.574Z</time>
      </trkpt>
      <trkpt lat="48.87201" lon="2.32648">
        <ele>87.1</ele>
        <time>2013-10-01T19:56:54.563Z</time>
      </trkpt>
      <trkpt lat="48.87207" lon="2.32651">
        <ele>87.9</ele>
        <time>2013-10-01T19:56:55.568Z</time>
      </trkpt>
      <trkpt lat="48.87213" lon="2.32653">
        <ele>87.7</ele>
        <time>2013-10-01T19:56:56.555Z</time>
      </trkpt>
      <trkpt lat="48.87219" lon="2.32655">
        <ele>87.8</ele>
        <time>2013-10-01T19:56:57.559Z</time>
      </trkpt>
      <trkpt lat="48.87224" lon="2.32657">
        <ele>87.8</ele>
        <time>2013-10-01T19:56:58.564Z</time>
      </trkpt>
      <trkpt lat="48.87232" lon="2.32656">
        <ele>86.3</ele>
        <time>2013-10-01T19:56:59.558Z</time>
      </trkpt>
      <trkpt lat="48.87241" lon="2.32654">
        <ele>87.7</ele>
        <time>2013-10-01T19:57:00.557Z</time>
      </trkpt>
      <trkpt lat="48.87248" lon="2.32652">
        <ele>90.3</ele>
        <time>2013-10-01T19:57:01.556Z</time>
      </trkpt>
      <trkpt lat="48.87255" lon="2.32651">
        <ele>91.9</ele>
        <time>2013-10-01T19:57:02.572Z</time>
      </trkpt>
      <trkpt lat="48.8726" lon="2.32649">
        <ele>91.5</ele>
        <time>2013-10-01T19:57:03.555Z</time>
      </trkpt>
      <trkpt lat="48.87266" lon="2.32648">
        <ele>92.9</ele>
        <time>2013-10-01T19:57:04.556Z</time>
      </trkpt>
      <trkpt lat="48.87273" lon="2.32648">
        <ele>93.6</ele>
        <time>2013-10-01T19:57:06.582Z</time>
      </trkpt>
      <trkpt lat="48.87276" lon="2.32648">
        <ele>94.2</ele>
        <time>2013-10-01T19:57:07.595Z</time>
      </trkpt>
      <trkpt lat="48.87282" lon="2.32649">
        <ele>95.6</ele>
        <time>2013-10-01T19:57:09.537Z</time>
      </trkpt>
      <trkpt lat="48.87286" lon="2.3265">
        <ele>96.1</ele>
        <time>2013-10-01T19:57:10.580Z</time>
      </trkpt>
      <trkpt lat="48.87292" lon="2.3265">
        <ele>97.8</ele>
        <time>2013-10-01T19:57:12.546Z</time>
      </trkpt>
      <trkpt lat="48.87296" lon="2.32651">
        <ele>99.5</ele>
        <time>2013-10-01T19:57:13.587Z</time>
      </trkpt>
      <trkpt lat="48.87302" lon="2.32652">
        <ele>101.3</ele>
        <time>2013-10-01T19:57:15.596Z</time>
      </trkpt>
      <trkpt lat="48.87306" lon="2.32653">
        <ele>99.5</ele>
        <time>2013-10-01T19:57:16.537Z</time>
      </trkpt>
      <trkpt lat="48.87312" lon="2.32657">
        <ele>101.6</ele>
        <time>2013-10-01T19:57:18.562Z</time>
      </trkpt>
      <trkpt lat="48.87315" lon="2.32659">
        <ele>102.3</ele>
        <time>2013-10-01T19:57:19.555Z</time>
      </trkpt>
      <trkpt lat="48.87322" lon="2.32666">
        <ele>105.4</ele>
        <time>2013-10-01T19:57:22.646Z</time>
      </trkpt>
      <trkpt lat="48.87324" lon="2.32667">
        <ele>104.1</ele>
        <time>2013-10-01T19:57:23.577Z</time>
      </trkpt>
      <trkpt lat="48.87332" lon="2.32668">
        <ele>105.5</ele>
        <time>2013-10-01T19:57:27.653Z</time>
      </trkpt>
      <trkpt lat="48.87334" lon="2.32667">
        <ele>104.8</ele>
        <time>2013-10-01T19:57:28.548Z</time>
      </trkpt>
      <trkpt lat="48.87341" lon="2.32664">
        <ele>103.1</ele>
        <time>2013-10-01T19:57:34.046Z</time>
      </trkpt>
      <trkpt lat="48.87342" lon="2.32663">
        <ele>102</ele>
        <time>2013-10-01T19:57:34.588Z</time>
      </trkpt>
      <trkpt lat="48.87349" lon="2.32669">
        <ele>88.1</ele>
        <time>2013-10-01T19:57:43.533Z</time>
      </trkpt>
      <trkpt lat="48.8735" lon="2.32672">
        <ele>88.5</ele>
        <time>2013-10-01T19:57:44.541Z</time>
      </trkpt>
      <trkpt lat="48.87354" lon="2.32683">
        <ele>89.1</ele>
        <time>2013-10-01T19:57:48.548Z</time>
      </trkpt>
      <trkpt lat="48.87356" lon="2.32684">
        <ele>89</ele>
        <time>2013-10-01T19:57:49.545Z</time>
      </trkpt>
      <trkpt lat="48.87364" lon="2.32688">
        <ele>92</ele>
        <time>2013-10-01T19:57:54.547Z</time>
      </trkpt>
      <trkpt lat="48.87366" lon="2.32688">
        <ele>92.6</ele>
        <time>2013-10-01T19:57:55.693Z</time>
      </trkpt>
      <trkpt lat="48.87372" lon="2.32688">
        <ele>98</ele>
        <time>2013-10-01T19:58:20.558Z</time>
      </trkpt>
      <trkpt lat="48.87375" lon="2.32688">
        <ele>98.1</ele>
        <time>2013-10-01T19:58:21.556Z</time>
      </trkpt>
      <trkpt lat="48.87383" lon="2.32687">
        <ele>96.7</ele>
        <time>2013-10-01T19:58:26.608Z</time>
      </trkpt>
      <trkpt lat="48.87384" lon="2.32684">
        <ele>95.7</ele>
        <time>2013-10-01T19:58:27.571Z</time>
      </trkpt>
      <trkpt lat="48.87382" lon="2.32676">
        <ele>96.3</ele>
        <time>2013-10-01T19:58:29.717Z</time>
      </trkpt>
      <trkpt lat="48.87381" lon="2.3267">
        <ele>94.7</ele>
        <time>2013-10-01T19:58:30.707Z</time>
      </trkpt>
      <trkpt lat="48.8738" lon="2.32664">
        <ele>94.3</ele>
        <time>2013-10-01T19:58:31.607Z</time>
      </trkpt>
      <trkpt lat="48.87379" lon="2.32656">
        <ele>90.7</ele>
        <time>2013-10-01T19:58:32.581Z</time>
      </trkpt>
      <trkpt lat="48.8738" lon="2.32648">
        <ele>90.7</ele>
        <time>2013-10-01T19:58:34.551Z</time>
      </trkpt>
      <trkpt lat="48.87386" lon="2.32634">
        <ele>88.2</ele>
        <time>2013-10-01T19:58:34.586Z</time>
      </trkpt>
      <trkpt lat="48.87391" lon="2.32621">
        <ele>87.6</ele>
        <time>2013-10-01T19:58:35.556Z</time>
      </trkpt>
      <trkpt lat="48.87396" lon="2.3261">
        <ele>87</ele>
        <time>2013-10-01T19:58:36.528Z</time>
      </trkpt>
      <trkpt lat="48.87401" lon="2.32599">
        <ele>87.6</ele>
        <time>2013-10-01T19:58:37.642Z</time>
      </trkpt>
      <trkpt lat="48.87405" lon="2.32589">
        <ele>87.8</ele>
        <time>2013-10-01T19:58:38.629Z</time>
      </trkpt>
      <trkpt lat="48.87409" lon="2.3258">
        <ele>88.6</ele>
        <time>2013-10-01T19:58:39.556Z</time>
      </trkpt>
      <trkpt lat="48.87413" lon="2.32572">
        <ele>86.4</ele>
        <time>2013-10-01T19:58:40.555Z</time>
      </trkpt>
      <trkpt lat="48.87418" lon="2.32566">
        <ele>81.6</ele>
        <time>2013-10-01T19:58:41.587Z</time>
      </trkpt>
      <trkpt lat="48.87423" lon="2.3256">
        <ele>82.1</ele>
        <time>2013-10-01T19:58:42.557Z</time>
      </trkpt>
      <trkpt lat="48.87427" lon="2.32555">
        <ele>81.9</ele>
        <time>2013-10-01T19:58:43.558Z</time>
      </trkpt>
      <trkpt lat="48.87431" lon="2.32549">
        <ele>80.5</ele>
        <time>2013-10-01T19:58:44.562Z</time>
      </trkpt>
      <trkpt lat="48.87438" lon="2.32541">
        <ele>81.5</ele>
        <time>2013-10-01T19:58:46.567Z</time>
      </trkpt>
      <trkpt lat="48.87441" lon="2.32537">
        <ele>82.1</ele>
        <time>2013-10-01T19:58:47.556Z</time>
      </trkpt>
      <trkpt lat="48.87445" lon="2.3253">
        <ele>82.8</ele>
        <time>2013-10-01T19:58:49.562Z</time>
      </trkpt>
      <trkpt lat="48.87447" lon="2.32526">
        <ele>83.2</ele>
        <time>2013-10-01T19:58:50.565Z</time>
      </trkpt>
      <trkpt lat="48.87452" lon="2.32517">
        <ele>84.1</ele>
        <time>2013-10-01T19:58:52.840Z</time>
      </trkpt>
      <trkpt lat="48.87455" lon="2.32514">
        <ele>83.2</ele>
        <time>2013-10-01T19:58:53.574Z</time>
      </trkpt>
      <trkpt lat="48.8746" lon="2.32506">
        <ele>81.9</ele>
        <time>2013-10-01T19:58:55.556Z</time>
      </trkpt>
      <trkpt lat="48.87463" lon="2.32503">
        <ele>81.7</ele>
        <time>2013-10-01T19:58:56.567Z</time>
      </trkpt>
      <trkpt lat="48.87468" lon="2.32495">
        <ele>80.9</ele>
        <time>2013-10-01T19:58:58.568Z</time>
      </trkpt>
      <trkpt lat="48.87471" lon="2.32491">
        <ele>82.6</ele>
        <time>2013-10-01T19:58:59.565Z</time>
      </trkpt>
      <trkpt lat="48.87477" lon="2.32485">
        <ele>79.4</ele>
        <time>2013-10-01T19:59:01.567Z</time>
      </trkpt>
      <trkpt lat="48.8748" lon="2.32482">
        <ele>75.1</ele>
        <time>2013-10-01T19:59:02.558Z</time>
      </trkpt>
      <trkpt lat="48.87487" lon="2.32474">
        <ele>76.8</ele>
        <time>2013-10-01T19:59:05.558Z</time>
      </trkpt>
      <trkpt lat="48.87489" lon="2.32472">
        <ele>75.9</ele>
        <time>2013-10-01T19:59:06.569Z</time>
      </trkpt>
      <trkpt lat="48.87495" lon="2.32467">
        <ele>75.8</ele>
        <time>2013-10-01T19:59:08.568Z</time>
      </trkpt>
      <trkpt lat="48.87497" lon="2.32464">
        <ele>74.5</ele>
        <time>2013-10-01T19:59:09.558Z</time>
      </trkpt>
      <trkpt lat="48.87504" lon="2.32458">
        <ele>77.3</ele>
        <time>2013-10-01T19:59:11.605Z</time>
      </trkpt>
      <trkpt lat="48.87507" lon="2.32455">
        <ele>77.3</ele>
        <time>2013-10-01T19:59:12.573Z</time>
      </trkpt>
      <trkpt lat="48.87512" lon="2.32447">
        <ele>78.5</ele>
        <time>2013-10-01T19:59:14.595Z</time>
      </trkpt>
      <trkpt lat="48.87515" lon="2.32443">
        <ele>80.7</ele>
        <time>2013-10-01T19:59:15.826Z</time>
      </trkpt>
      <trkpt lat="48.87516" lon="2.32437">
        <ele>86.1</ele>
        <time>2013-10-01T19:59:27.634Z</time>
      </trkpt>
      <trkpt lat="48.87516" lon="2.32437">
        <ele>87.3</ele>
        <time>2013-10-01T19:59:28.662Z</time>
      </trkpt>
      <trkpt lat="48.87517" lon="2.32437">
        <ele>88.1</ele>
        <time>2013-10-01T19:59:29.576Z</time>
      </trkpt>
      <trkpt lat="48.87518" lon="2.32435">
        <ele>87.7</ele>
        <time>2013-10-01T19:59:30.576Z</time>
      </trkpt>
      <trkpt lat="48.87523" lon="2.32427">
        <ele>92.2</ele>
        <time>2013-10-01T19:59:33.588Z</time>
      </trkpt>
      <trkpt lat="48.87525" lon="2.32423">
        <ele>95.6</ele>
        <time>2013-10-01T19:59:34.746Z</time>
      </trkpt>
      <trkpt lat="48.8753" lon="2.32413">
        <ele>98.4</ele>
        <time>2013-10-01T19:59:37.690Z</time>
      </trkpt>
      <trkpt lat="48.87532" lon="2.3241">
        <ele>97.2</ele>
        <time>2013-10-01T19:59:38.617Z</time>
      </trkpt>
      <trkpt lat="48.87539" lon="2.32407">
        <ele>93.3</ele>
        <time>2013-10-01T19:59:40.565Z</time>
      </trkpt>
      <trkpt lat="48.87542" lon="2.32406">
        <ele>92</ele>
        <time>2013-10-01T19:59:41.601Z</time>
      </trkpt>
      <trkpt lat="48.87549" lon="2.32398">
        <ele>94.9</ele>
        <time>2013-10-01T19:59:43.596Z</time>
      </trkpt>
      <trkpt lat="48.87553" lon="2.32394">
        <ele>95.6</ele>
        <time>2013-10-01T19:59:44.556Z</time>
      </trkpt>
      <trkpt lat="48.87559" lon="2.32387">
        <ele>96.2</ele>
        <time>2013-10-01T19:59:46.582Z</time>
      </trkpt>
      <trkpt lat="48.87563" lon="2.32384">
        <ele>97.4</ele>
        <time>2013-10-01T19:59:47.558Z</time>
      </trkpt>
      <trkpt lat="48.87569" lon="2.32378">
        <ele>96.8</ele>
        <time>2013-10-01T19:59:49.557Z</time>
      </trkpt>
      <trkpt lat="48.87572" lon="2.32375">
        <ele>96.1</ele>
        <time>2013-10-01T19:59:50.553Z</time>
      </trkpt>
      <trkpt lat="48.87578" lon="2.32369">
        <ele>97</ele>
        <time>2013-10-01T19:59:52.577Z</time>
      </trkpt>
      <trkpt lat="48.87582" lon="2.32367">
        <ele>97</ele>
        <time>2013-10-01T19:59:53.556Z</time>
      </trkpt>
      <trkpt lat="48.87586" lon="2.32364">
        <ele>97</ele>
        <time>2013-10-01T19:59:54.622Z</time>
      </trkpt>
      <trkpt lat="48.8759" lon="2.32362">
        <ele>98.7</ele>
        <time>2013-10-01T19:59:55.577Z</time>
      </trkpt>
      <trkpt lat="48.87595" lon="2.3236">
        <ele>98.4</ele>
        <time>2013-10-01T19:59:56.577Z</time>
      </trkpt>
      <trkpt lat="48.876" lon="2.32358">
        <ele>98.2</ele>
        <time>2013-10-01T19:59:57.573Z</time>
      </trkpt>
      <trkpt lat="48.87605" lon="2.32356">
        <ele>97.3</ele>
        <time>2013-10-01T19:59:58.553Z</time>
      </trkpt>
      <trkpt lat="48.87611" lon="2.32352">
        <ele>97.4</ele>
        <time>2013-10-01T19:59:59.560Z</time>
      </trkpt>
      <trkpt lat="48.87617" lon="2.32349">
        <ele>96.8</ele>
        <time>2013-10-01T20:00:00.545Z</time>
      </trkpt>
      <trkpt lat="48.87622" lon="2.32345">
        <ele>96.2</ele>
        <time>2013-10-01T20:00:01.557Z</time>
      </trkpt>
      <trkpt lat="48.87627" lon="2.32343">
        <ele>96.7</ele>
        <time>2013-10-01T20:00:02.841Z</time>
      </trkpt>
      <trkpt lat="48.87632" lon="2.32342">
        <ele>97.5</ele>
        <time>2013-10-01T20:00:03.595Z</time>
      </trkpt>
      <trkpt lat="48.8764" lon="2.32335">
        <ele>98.5</ele>
        <time>2013-10-01T20:00:05.606Z</time>
      </trkpt>
      <trkpt lat="48.87643" lon="2.32333">
        <ele>98.9</ele>
        <time>2013-10-01T20:00:06.588Z</time>
      </trkpt>
      <trkpt lat="48.87651" lon="2.32329">
        <ele>98.7</ele>
        <time>2013-10-01T20:00:08.595Z</time>
      </trkpt>
      <trkpt lat="48.87656" lon="2.32326">
        <ele>98.8</ele>
        <time>2013-10-01T20:00:09.573Z</time>
      </trkpt>
      <trkpt lat="48.87662" lon="2.3232">
        <ele>99.4</ele>
        <time>2013-10-01T20:00:11.576Z</time>
      </trkpt>
      <trkpt lat="48.87665" lon="2.32317">
        <ele>100</ele>
        <time>2013-10-01T20:00:12.538Z</time>
      </trkpt>
      <trkpt lat="48.8767" lon="2.32316">
        <ele>100.2</ele>
        <time>2013-10-01T20:00:13.577Z</time>
      </trkpt>
      <trkpt lat="48.87675" lon="2.32314">
        <ele>101.7</ele>
        <time>2013-10-01T20:00:14.563Z</time>
      </trkpt>
      <trkpt lat="48.87682" lon="2.32311">
        <ele>105.1</ele>
        <time>2013-10-01T20:00:16.577Z</time>
      </trkpt>
      <trkpt lat="48.87686" lon="2.3231">
        <ele>105.8</ele>
        <time>2013-10-01T20:00:17.564Z</time>
      </trkpt>
      <trkpt lat="48.87692" lon="2.32307">
        <ele>106.4</ele>
        <time>2013-10-01T20:00:19.577Z</time>
      </trkpt>
      <trkpt lat="48.87695" lon="2.32305">
        <ele>106.3</ele>
        <time>2013-10-01T20:00:20.568Z</time>
      </trkpt>
      <trkpt lat="48.87702" lon="2.32301">
        <ele>107.5</ele>
        <time>2013-10-01T20:00:22.619Z</time>
      </trkpt>
      <trkpt lat="48.87705" lon="2.32299">
        <ele>109.5</ele>
        <time>2013-10-01T20:00:23.557Z</time>
      </trkpt>
      <trkpt lat="48.87713" lon="2.32295">
        <ele>109.3</ele>
        <time>2013-10-01T20:00:25.595Z</time>
      </trkpt>
      <trkpt lat="48.87717" lon="2.32294">
        <ele>110.2</ele>
        <time>2013-10-01T20:00:26.585Z</time>
      </trkpt>
      <trkpt lat="48.87724" lon="2.3229">
        <ele>111</ele>
        <time>2013-10-01T20:00:28.705Z</time>
      </trkpt>
      <trkpt lat="48.87728" lon="2.32288">
        <ele>110.2</ele>
        <time>2013-10-01T20:00:29.691Z</time>
      </trkpt>
      <trkpt lat="48.87735" lon="2.32284">
        <ele>107.6</ele>
        <time>2013-10-01T20:00:31.648Z</time>
      </trkpt>
      <trkpt lat="48.8774" lon="2.32283">
        <ele>107.5</ele>
        <time>2013-10-01T20:00:32.608Z</time>
      </trkpt>
      <trkpt lat="48.87748" lon="2.32281">
        <ele>111.2</ele>
        <time>2013-10-01T20:00:34.580Z</time>
      </trkpt>
      <trkpt lat="48.87752" lon="2.32279">
        <ele>110.4</ele>
        <time>2013-10-01T20:00:35.563Z</time>
      </trkpt>
      <trkpt lat="48.8776" lon="2.32276">
        <ele>109.4</ele>
        <time>2013-10-01T20:00:37.701Z</time>
      </trkpt>
      <trkpt lat="48.87764" lon="2.32274">
        <ele>108.9</ele>
        <time>2013-10-01T20:00:38.566Z</time>
      </trkpt>
      <trkpt lat="48.87772" lon="2.32271">
        <ele>107.9</ele>
        <time>2013-10-01T20:00:40.567Z</time>
      </trkpt>
      <trkpt lat="48.87775" lon="2.32269">
        <ele>105.8</ele>
        <time>2013-10-01T20:00:41.576Z</time>
      </trkpt>
      <trkpt lat="48.87782" lon="2.32265">
        <ele>102.2</ele>
        <time>2013-10-01T20:00:43.567Z</time>
      </trkpt>
      <trkpt lat="48.87785" lon="2.32262">
        <ele>103.8</ele>
        <time>2013-10-01T20:00:44.568Z</time>
      </trkpt>
      <trkpt lat="48.87791" lon="2.32258">
        <ele>103.8</ele>
        <time>2013-10-01T20:00:46.569Z</time>
      </trkpt>
      <trkpt lat="48.87793" lon="2.32256">
        <ele>105.3</ele>
        <time>2013-10-01T20:00:47.578Z</time>
      </trkpt>
      <trkpt lat="48.878" lon="2.32253">
        <ele>105.8</ele>
        <time>2013-10-01T20:00:49.566Z</time>
      </trkpt>
      <trkpt lat="48.87803" lon="2.32252">
        <ele>105.1</ele>
        <time>2013-10-01T20:00:50.581Z</time>
      </trkpt>
      <trkpt lat="48.87809" lon="2.3225">
        <ele>102.5</ele>
        <time>2013-10-01T20:00:52.792Z</time>
      </trkpt>
      <trkpt lat="48.87813" lon="2.32249">
        <ele>101.4</ele>
        <time>2013-10-01T20:00:53.566Z</time>
      </trkpt>
      <trkpt lat="48.8782" lon="2.32248">
        <ele>103.1</ele>
        <time>2013-10-01T20:00:55.578Z</time>
      </trkpt>
      <trkpt lat="48.87823" lon="2.32246">
        <ele>103</ele>
        <time>2013-10-01T20:00:56.568Z</time>
      </trkpt>
      <trkpt lat="48.8783" lon="2.32242">
        <ele>103.5</ele>
        <time>2013-10-01T20:00:58.577Z</time>
      </trkpt>
      <trkpt lat="48.87834" lon="2.3224">
        <ele>103.7</ele>
        <time>2013-10-01T20:00:59.577Z</time>
      </trkpt>
      <trkpt lat="48.87841" lon="2.32234">
        <ele>104.5</ele>
        <time>2013-10-01T20:01:01.578Z</time>
      </trkpt>
      <trkpt lat="48.87845" lon="2.32232">
        <ele>105.3</ele>
        <time>2013-10-01T20:01:02.566Z</time>
      </trkpt>
      <trkpt lat="48.87853" lon="2.32227">
        <ele>105.7</ele>
        <time>2013-10-01T20:01:04.579Z</time>
      </trkpt>
      <trkpt lat="48.87856" lon="2.32224">
        <ele>105.6</ele>
        <time>2013-10-01T20:01:05.578Z</time>
      </trkpt>
      <trkpt lat="48.87863" lon="2.32219">
        <ele>106.4</ele>
        <time>2013-10-01T20:01:07.694Z</time>
      </trkpt>
      <trkpt lat="48.87866" lon="2.32217">
        <ele>107.1</ele>
        <time>2013-10-01T20:01:08.584Z</time>
      </trkpt>
      <trkpt lat="48.87871" lon="2.32212">
        <ele>108.5</ele>
        <time>2013-10-01T20:01:11.110Z</time>
      </trkpt>
      <trkpt lat="48.87874" lon="2.3221">
        <ele>107.7</ele>
        <time>2013-10-01T20:01:11.588Z</time>
      </trkpt>
      <trkpt lat="48.87881" lon="2.32206">
        <ele>106.5</ele>
        <time>2013-10-01T20:01:13.558Z</time>
      </trkpt>
      <trkpt lat="48.87885" lon="2.32205">
        <ele>105.4</ele>
        <time>2013-10-01T20:01:14.576Z</time>
      </trkpt>
      <trkpt lat="48.87892" lon="2.32202">
        <ele>106.4</ele>
        <time>2013-10-01T20:01:16.578Z</time>
      </trkpt>
      <trkpt lat="48.87897" lon="2.32199">
        <ele>107</ele>
        <time>2013-10-01T20:01:17.605Z</time>
      </trkpt>
      <trkpt lat="48.87902" lon="2.32196">
        <ele>106.7</ele>
        <time>2013-10-01T20:01:18.596Z</time>
      </trkpt>
      <trkpt lat="48.87907" lon="2.32194">
        <ele>106.4</ele>
        <time>2013-10-01T20:01:19.616Z</time>
      </trkpt>
      <trkpt lat="48.87911" lon="2.32191">
        <ele>106.1</ele>
        <time>2013-10-01T20:01:20.596Z</time>
      </trkpt>
      <trkpt lat="48.87915" lon="2.32188">
        <ele>107.6</ele>
        <time>2013-10-01T20:01:21.826Z</time>
      </trkpt>
      <trkpt lat="48.87919" lon="2.32186">
        <ele>107.8</ele>
        <time>2013-10-01T20:01:22.688Z</time>
      </trkpt>
      <trkpt lat="48.87924" lon="2.32183">
        <ele>110</ele>
        <time>2013-10-01T20:01:23.574Z</time>
      </trkpt>
      <trkpt lat="48.87929" lon="2.3218">
        <ele>104</ele>
        <time>2013-10-01T20:01:24.544Z</time>
      </trkpt>
      <trkpt lat="48.87933" lon="2.32178">
        <ele>103</ele>
        <time>2013-10-01T20:01:25.551Z</time>
      </trkpt>
      <trkpt lat="48.87938" lon="2.32175">
        <ele>103.7</ele>
        <time>2013-10-01T20:01:26.576Z</time>
      </trkpt>
      <trkpt lat="48.87942" lon="2.32174">
        <ele>103</ele>
        <time>2013-10-01T20:01:27.591Z</time>
      </trkpt>
      <trkpt lat="48.8795" lon="2.32171">
        <ele>104.1</ele>
        <time>2013-10-01T20:01:29.598Z</time>
      </trkpt>
      <trkpt lat="48.87954" lon="2.32169">
        <ele>104.1</ele>
        <time>2013-10-01T20:01:30.577Z</time>
      </trkpt>
      <trkpt lat="48.87961" lon="2.32165">
        <ele>103.9</ele>
        <time>2013-10-01T20:01:32.683Z</time>
      </trkpt>
      <trkpt lat="48.87964" lon="2.32163">
        <ele>104.1</ele>
        <time>2013-10-01T20:01:33.591Z</time>
      </trkpt>
      <trkpt lat="48.8797" lon="2.32158">
        <ele>104.2</ele>
        <time>2013-10-01T20:01:35.548Z</time>
      </trkpt>
      <trkpt lat="48.87973" lon="2.32156">
        <ele>105.5</ele>
        <time>2013-10-01T20:01:36.575Z</time>
      </trkpt>
      <trkpt lat="48.87979" lon="2.32151">
        <ele>107.6</ele>
        <time>2013-10-01T20:01:38.599Z</time>
      </trkpt>
      <trkpt lat="48.87982" lon="2.32149">
        <ele>108.4</ele>
        <time>2013-10-01T20:01:39.692Z</time>
      </trkpt>
      <trkpt lat="48.87989" lon="2.32146">
        <ele>108.6</ele>
        <time>2013-10-01T20:01:41.634Z</time>
      </trkpt>
      <trkpt lat="48.87992" lon="2.32144">
        <ele>108.1</ele>
        <time>2013-10-01T20:01:42.588Z</time>
      </trkpt>
      <trkpt lat="48.88" lon="2.3214">
        <ele>109.9</ele>
        <time>2013-10-01T20:01:44.602Z</time>
      </trkpt>
      <trkpt lat="48.88003" lon="2.32137">
        <ele>110.9</ele>
        <time>2013-10-01T20:01:45.566Z</time>
      </trkpt>
      <trkpt lat="48.8801" lon="2.3213">
        <ele>112.8</ele>
        <time>2013-10-01T20:01:47.785Z</time>
      </trkpt>
      <trkpt lat="48.88014" lon="2.32127">
        <ele>112.4</ele>
        <time>2013-10-01T20:01:48.583Z</time>
      </trkpt>
      <trkpt lat="48.88022" lon="2.32123">
        <ele>111.6</ele>
        <time>2013-10-01T20:01:50.637Z</time>
      </trkpt>
      <trkpt lat="48.88026" lon="2.32121">
        <ele>111.7</ele>
        <time>2013-10-01T20:01:51.595Z</time>
      </trkpt>
      <trkpt lat="48.88031" lon="2.32119">
        <ele>113.9</ele>
        <time>2013-10-01T20:01:52.796Z</time>
      </trkpt>
      <trkpt lat="48.88036" lon="2.32116">
        <ele>114.6</ele>
        <time>2013-10-01T20:01:53.785Z</time>
      </trkpt>
      <trkpt lat="48.8804" lon="2.32114">
        <ele>115.4</ele>
        <time>2013-10-01T20:01:54.744Z</time>
      </trkpt>
      <trkpt lat="48.88044" lon="2.32112">
        <ele>115.8</ele>
        <time>2013-10-01T20:01:55.725Z</time>
      </trkpt>
      <trkpt lat="48.88049" lon="2.32109">
        <ele>115.2</ele>
        <time>2013-10-01T20:01:56.783Z</time>
      </trkpt>
      <trkpt lat="48.88053" lon="2.32107">
        <ele>114.2</ele>
        <time>2013-10-01T20:01:57.646Z</time>
      </trkpt>
      <trkpt lat="48.88058" lon="2.32105">
        <ele>111.4</ele>
        <time>2013-10-01T20:01:58.825Z</time>
      </trkpt>
      <trkpt lat="48.88062" lon="2.32102">
        <ele>111.3</ele>
        <time>2013-10-01T20:01:59.567Z</time>
      </trkpt>
      <trkpt lat="48.88069" lon="2.32099">
        <ele>109.2</ele>
        <time>2013-10-01T20:02:00.792Z</time>
      </trkpt>
      <trkpt lat="48.88074" lon="2.32097">
        <ele>110</ele>
        <time>2013-10-01T20:02:01.598Z</time>
      </trkpt>
      <trkpt lat="48.8808" lon="2.32094">
        <ele>111.2</ele>
        <time>2013-10-01T20:02:02.811Z</time>
      </trkpt>
      <trkpt lat="48.88084" lon="2.32091">
        <ele>110.7</ele>
        <time>2013-10-01T20:02:03.768Z</time>
      </trkpt>
      <trkpt lat="48.88091" lon="2.32085">
        <ele>112.9</ele>
        <time>2013-10-01T20:02:05.808Z</time>
      </trkpt>
      <trkpt lat="48.88093" lon="2.32084">
        <ele>113.6</ele>
        <time>2013-10-01T20:02:06.606Z</time>
      </trkpt>
      <trkpt lat="48.88102" lon="2.3208">
        <ele>116.5</ele>
        <time>2013-10-01T20:02:08.611Z</time>
      </trkpt>
      <trkpt lat="48.88107" lon="2.32079">
        <ele>115.8</ele>
        <time>2013-10-01T20:02:09.733Z</time>
      </trkpt>
      <trkpt lat="48.88116" lon="2.32077">
        <ele>117.1</ele>
        <time>2013-10-01T20:02:12.544Z</time>
      </trkpt>
      <trkpt lat="48.8812" lon="2.32077">
        <ele>117.2</ele>
        <time>2013-10-01T20:02:12.872Z</time>
      </trkpt>
      <trkpt lat="48.88128" lon="2.32076">
        <ele>117</ele>
        <time>2013-10-01T20:02:14.827Z</time>
      </trkpt>
      <trkpt lat="48.88131" lon="2.32075">
        <ele>116.5</ele>
        <time>2013-10-01T20:02:15.598Z</time>
      </trkpt>
      <trkpt lat="48.8814" lon="2.32073">
        <ele>115.9</ele>
        <time>2013-10-01T20:02:17.662Z</time>
      </trkpt>
      <trkpt lat="48.88145" lon="2.32071">
        <ele>117.1</ele>
        <time>2013-10-01T20:02:18.718Z</time>
      </trkpt>
      <trkpt lat="48.88151" lon="2.3207">
        <ele>116.8</ele>
        <time>2013-10-01T20:02:19.818Z</time>
      </trkpt>
      <trkpt lat="48.88156" lon="2.32069">
        <ele>116.1</ele>
        <time>2013-10-01T20:02:20.646Z</time>
      </trkpt>
      <trkpt lat="48.88164" lon="2.32065">
        <ele>114.5</ele>
        <time>2013-10-01T20:02:22.644Z</time>
      </trkpt>
      <trkpt lat="48.88169" lon="2.32063">
        <ele>114.6</ele>
        <time>2013-10-01T20:02:23.828Z</time>
      </trkpt>
      <trkpt lat="48.88175" lon="2.32058">
        <ele>114.7</ele>
        <time>2013-10-01T20:02:25.790Z</time>
      </trkpt>
      <trkpt lat="48.88179" lon="2.32055">
        <ele>114.7</ele>
        <time>2013-10-01T20:02:26.768Z</time>
      </trkpt>
      <trkpt lat="48.88186" lon="2.32051">
        <ele>116.1</ele>
        <time>2013-10-01T20:02:28.848Z</time>
      </trkpt>
      <trkpt lat="48.88189" lon="2.32049">
        <ele>115.8</ele>
        <time>2013-10-01T20:02:29.655Z</time>
      </trkpt>
      <trkpt lat="48.88195" lon="2.32046">
        <ele>116</ele>
        <time>2013-10-01T20:02:31.607Z</time>
      </trkpt>
      <trkpt lat="48.88199" lon="2.32045">
        <ele>115.4</ele>
        <time>2013-10-01T20:02:32.965Z</time>
      </trkpt>
      <trkpt lat="48.88207" lon="2.32042">
        <ele>115</ele>
        <time>2013-10-01T20:02:35.547Z</time>
      </trkpt>
      <trkpt lat="48.88209" lon="2.32042">
        <ele>113.6</ele>
        <time>2013-10-01T20:02:36.626Z</time>
      </trkpt>
      <trkpt lat="48.88213" lon="2.32051">
        <ele>112.8</ele>
        <time>2013-10-01T20:02:51.595Z</time>
      </trkpt>
      <trkpt lat="48.88213" lon="2.32051">
        <ele>112.8</ele>
        <time>2013-10-01T20:02:52.683Z</time>
      </trkpt>
      <trkpt lat="48.88213" lon="2.32052">
        <ele>111.7</ele>
        <time>2013-10-01T20:03:08.575Z</time>
      </trkpt>
      <trkpt lat="48.88213" lon="2.32053">
        <ele>111.8</ele>
        <time>2013-10-01T20:03:09.561Z</time>
      </trkpt>
      <trkpt lat="48.88215" lon="2.32057">
        <ele>111.3</ele>
        <time>2013-10-01T20:03:17.634Z</time>
      </trkpt>
      <trkpt lat="48.88215" lon="2.32057">
        <ele>111.2</ele>
        <time>2013-10-01T20:03:18.765Z</time>
      </trkpt>
      <trkpt lat="48.88214" lon="2.32058">
        <ele>110.6</ele>
        <time>2013-10-01T20:03:49.574Z</time>
      </trkpt>
      <trkpt lat="48.88215" lon="2.32059">
        <ele>109.7</ele>
        <time>2013-10-01T20:03:50.618Z</time>
      </trkpt>
      <trkpt lat="48.88219" lon="2.3207">
        <ele>105.2</ele>
        <time>2013-10-01T20:03:54.585Z</time>
      </trkpt>
      <trkpt lat="48.8822" lon="2.32074">
        <ele>105</ele>
        <time>2013-10-01T20:03:55.597Z</time>
      </trkpt>
      <trkpt lat="48.88224" lon="2.32084">
        <ele>103</ele>
        <time>2013-10-01T20:03:58.581Z</time>
      </trkpt>
      <trkpt lat="48.88226" lon="2.32088">
        <ele>103.2</ele>
        <time>2013-10-01T20:03:59.602Z</time>
      </trkpt>
      <trkpt lat="48.88231" lon="2.32099">
        <ele>101</ele>
        <time>2013-10-01T20:04:02.759Z</time>
      </trkpt>
      <trkpt lat="48.88232" lon="2.32101">
        <ele>101.2</ele>
        <time>2013-10-01T20:04:03.577Z</time>
      </trkpt>
      <trkpt lat="48.8824" lon="2.32095">
        <ele>101.5</ele>
        <time>2013-10-01T20:04:09.621Z</time>
      </trkpt>
      <trkpt lat="48.88241" lon="2.32092">
        <ele>100.8</ele>
        <time>2013-10-01T20:04:10.594Z</time>
      </trkpt>
      <trkpt lat="48.88246" lon="2.32085">
        <ele>101.6</ele>
        <time>2013-10-01T20:04:12.605Z</time>
      </trkpt>
      <trkpt lat="48.88249" lon="2.32082">
        <ele>102</ele>
        <time>2013-10-01T20:04:13.628Z</time>
      </trkpt>
      <trkpt lat="48.88256" lon="2.32077">
        <ele>102.5</ele>
        <time>2013-10-01T20:04:15.602Z</time>
      </trkpt>
      <trkpt lat="48.8826" lon="2.32076">
        <ele>102.6</ele>
        <time>2013-10-01T20:04:16.587Z</time>
      </trkpt>
      <trkpt lat="48.88268" lon="2.32072">
        <ele>103</ele>
        <time>2013-10-01T20:04:18.583Z</time>
      </trkpt>
      <trkpt lat="48.88273" lon="2.32071">
        <ele>102.2</ele>
        <time>2013-10-01T20:04:19.721Z</time>
      </trkpt>
      <trkpt lat="48.88281" lon="2.32068">
        <ele>101.8</ele>
        <time>2013-10-01T20:04:21.607Z</time>
      </trkpt>
      <trkpt lat="48.88286" lon="2.32067">
        <ele>102</ele>
        <time>2013-10-01T20:04:22.623Z</time>
      </trkpt>
      <trkpt lat="48.88291" lon="2.32066">
        <ele>101.4</ele>
        <time>2013-10-01T20:04:23.581Z</time>
      </trkpt>
      <trkpt lat="48.88295" lon="2.32064">
        <ele>101.5</ele>
        <time>2013-10-01T20:04:24.616Z</time>
      </trkpt>
      <trkpt lat="48.88302" lon="2.32058">
        <ele>102.5</ele>
        <time>2013-10-01T20:04:26.577Z</time>
      </trkpt>
      <trkpt lat="48.88306" lon="2.32057">
        <ele>100.9</ele>
        <time>2013-10-01T20:04:27.638Z</time>
      </trkpt>
      <trkpt lat="48.88313" lon="2.32054">
        <ele>100.5</ele>
        <time>2013-10-01T20:04:29.577Z</time>
      </trkpt>
      <trkpt lat="48.88316" lon="2.32052">
        <ele>101.2</ele>
        <time>2013-10-01T20:04:30.578Z</time>
      </trkpt>
      <trkpt lat="48.88323" lon="2.32049">
        <ele>101.7</ele>
        <time>2013-10-01T20:04:32.720Z</time>
      </trkpt>
      <trkpt lat="48.88327" lon="2.32047">
        <ele>100.2</ele>
        <time>2013-10-01T20:04:33.586Z</time>
      </trkpt>
      <trkpt lat="48.88334" lon="2.32041">
        <ele>100.4</ele>
        <time>2013-10-01T20:04:35.600Z</time>
      </trkpt>
      <trkpt lat="48.88338" lon="2.32039">
        <ele>100.7</ele>
        <time>2013-10-01T20:04:36.576Z</time>
      </trkpt>
      <trkpt lat="48.88345" lon="2.32034">
        <ele>101.2</ele>
        <time>2013-10-01T20:04:38.576Z</time>
      </trkpt>
      <trkpt lat="48.88349" lon="2.32033">
        <ele>100.2</ele>
        <time>2013-10-01T20:04:39.588Z</time>
      </trkpt>
      <trkpt lat="48.88355" lon="2.32033">
        <ele>100.5</ele>
        <time>2013-10-01T20:04:41.578Z</time>
      </trkpt>
      <trkpt lat="48.88358" lon="2.32037">
        <ele>102.5</ele>
        <time>2013-10-01T20:04:42.586Z</time>
      </trkpt>
      <trkpt lat="48.8836" lon="2.32042">
        <ele>102.6</ele>
        <time>2013-10-01T20:04:43.607Z</time>
      </trkpt>
      <trkpt lat="48.88362" lon="2.32049">
        <ele>102.7</ele>
        <time>2013-10-01T20:04:44.592Z</time>
      </trkpt>
      <trkpt lat="48.88364" lon="2.32056">
        <ele>103.4</ele>
        <time>2013-10-01T20:04:45.576Z</time>
      </trkpt>
      <trkpt lat="48.88367" lon="2.32063">
        <ele>105.4</ele>
        <time>2013-10-01T20:04:46.588Z</time>
      </trkpt>
      <trkpt lat="48.8837" lon="2.3207">
        <ele>106.1</ele>
        <time>2013-10-01T20:04:47.913Z</time>
      </trkpt>
      <trkpt lat="48.88374" lon="2.32076">
        <ele>106.6</ele>
        <time>2013-10-01T20:04:48.578Z</time>
      </trkpt>
      <trkpt lat="48.88377" lon="2.32082">
        <ele>106.3</ele>
        <time>2013-10-01T20:04:49.587Z</time>
      </trkpt>
      <trkpt lat="48.8838" lon="2.32088">
        <ele>106.9</ele>
        <time>2013-10-01T20:04:50.588Z</time>
      </trkpt>
      <trkpt lat="48.88387" lon="2.32097">
        <ele>108.9</ele>
        <time>2013-10-01T20:04:52.604Z</time>
      </trkpt>
      <trkpt lat="48.8839" lon="2.32102">
        <ele>108.6</ele>
        <time>2013-10-01T20:04:53.600Z</time>
      </trkpt>
      <trkpt lat="48.88392" lon="2.32107">
        <ele>107.1</ele>
        <time>2013-10-01T20:04:54.586Z</time>
      </trkpt>
      <trkpt lat="48.88394" lon="2.32116">
        <ele>108.4</ele>
        <time>2013-10-01T20:04:55.605Z</time>
      </trkpt>
      <trkpt lat="48.88395" lon="2.32125">
        <ele>110.8</ele>
        <time>2013-10-01T20:04:56.627Z</time>
      </trkpt>
      <trkpt lat="48.88395" lon="2.32132">
        <ele>112.7</ele>
        <time>2013-10-01T20:04:57.647Z</time>
      </trkpt>
      <trkpt lat="48.88396" lon="2.32144">
        <ele>114.6</ele>
        <time>2013-10-01T20:04:59.578Z</time>
      </trkpt>
      <trkpt lat="48.88397" lon="2.32149">
        <ele>114.6</ele>
        <time>2013-10-01T20:05:00.591Z</time>
      </trkpt>
      <trkpt lat="48.88401" lon="2.32158">
        <ele>114.4</ele>
        <time>2013-10-01T20:05:02.976Z</time>
      </trkpt>
      <trkpt lat="48.88407" lon="2.32158">
        <ele>115.3</ele>
        <time>2013-10-01T20:05:03.596Z</time>
      </trkpt>
      <trkpt lat="48.88413" lon="2.32158">
        <ele>115</ele>
        <time>2013-10-01T20:05:04.601Z</time>
      </trkpt>
      <trkpt lat="48.88419" lon="2.32158">
        <ele>116.4</ele>
        <time>2013-10-01T20:05:05.585Z</time>
      </trkpt>
      <trkpt lat="48.88426" lon="2.32161">
        <ele>122.1</ele>
        <time>2013-10-01T20:05:07.809Z</time>
      </trkpt>
      <trkpt lat="48.88427" lon="2.32164">
        <ele>123.7</ele>
        <time>2013-10-01T20:05:08.587Z</time>
      </trkpt>
      <trkpt lat="48.88426" lon="2.32177">
        <ele>120.4</ele>
        <time>2013-10-01T20:05:10.598Z</time>
      </trkpt>
      <trkpt lat="48.88424" lon="2.32185">
        <ele>118.5</ele>
        <time>2013-10-01T20:05:11.602Z</time>
      </trkpt>
      <trkpt lat="48.88422" lon="2.32193">
        <ele>117</ele>
        <time>2013-10-01T20:05:12.607Z</time>
      </trkpt>
      <trkpt lat="48.88421" lon="2.322">
        <ele>115.8</ele>
        <time>2013-10-01T20:05:13.591Z</time>
      </trkpt>
      <trkpt lat="48.88418" lon="2.32209">
        <ele>114.8</ele>
        <time>2013-10-01T20:05:15.604Z</time>
      </trkpt>
      <trkpt lat="48.88417" lon="2.32213">
        <ele>113.6</ele>
        <time>2013-10-01T20:05:16.597Z</time>
      </trkpt>
      <trkpt lat="48.88425" lon="2.32207">
        <ele>108.2</ele>
        <time>2013-10-01T20:05:26.616Z</time>
      </trkpt>
      <trkpt lat="48.88427" lon="2.32202">
        <ele>107.8</ele>
        <time>2013-10-01T20:05:27.590Z</time>
      </trkpt>
      <trkpt lat="48.88432" lon="2.32191">
        <ele>106.7</ele>
        <time>2013-10-01T20:05:29.617Z</time>
      </trkpt>
      <trkpt lat="48.88435" lon="2.32186">
        <ele>106.7</ele>
        <time>2013-10-01T20:05:30.599Z</time>
      </trkpt>
      <trkpt lat="48.88439" lon="2.3218">
        <ele>106.8</ele>
        <time>2013-10-01T20:05:31.602Z</time>
      </trkpt>
      <trkpt lat="48.88442" lon="2.32175">
        <ele>107.3</ele>
        <time>2013-10-01T20:05:32.595Z</time>
      </trkpt>
      <trkpt lat="48.88446" lon="2.32169">
        <ele>107.2</ele>
        <time>2013-10-01T20:05:33.597Z</time>
      </trkpt>
      <trkpt lat="48.8845" lon="2.32163">
        <ele>107.6</ele>
        <time>2013-10-01T20:05:34.601Z</time>
      </trkpt>
      <trkpt lat="48.88453" lon="2.32157">
        <ele>106.8</ele>
        <time>2013-10-01T20:05:35.602Z</time>
      </trkpt>
      <trkpt lat="48.88456" lon="2.32151">
        <ele>107.2</ele>
        <time>2013-10-01T20:05:36.599Z</time>
      </trkpt>
      <trkpt lat="48.88458" lon="2.32144">
        <ele>105.5</ele>
        <time>2013-10-01T20:05:37.708Z</time>
      </trkpt>
      <trkpt lat="48.88461" lon="2.32137">
        <ele>107</ele>
        <time>2013-10-01T20:05:38.588Z</time>
      </trkpt>
      <trkpt lat="48.88464" lon="2.32131">
        <ele>106.6</ele>
        <time>2013-10-01T20:05:39.613Z</time>
      </trkpt>
      <trkpt lat="48.88467" lon="2.32127">
        <ele>106.1</ele>
        <time>2013-10-01T20:05:40.587Z</time>
      </trkpt>
      <trkpt lat="48.88472" lon="2.32123">
        <ele>105.4</ele>
        <time>2013-10-01T20:05:41.630Z</time>
      </trkpt>
      <trkpt lat="48.88476" lon="2.32117">
        <ele>105.5</ele>
        <time>2013-10-01T20:05:42.617Z</time>
      </trkpt>
      <trkpt lat="48.88481" lon="2.32113">
        <ele>103.1</ele>
        <time>2013-10-01T20:05:43.614Z</time>
      </trkpt>
      <trkpt lat="48.88486" lon="2.32108">
        <ele>103.3</ele>
        <time>2013-10-01T20:05:44.597Z</time>
      </trkpt>
      <trkpt lat="48.8849" lon="2.32103">
        <ele>103.6</ele>
        <time>2013-10-01T20:05:45.577Z</time>
      </trkpt>
      <trkpt lat="48.88494" lon="2.32098">
        <ele>103.4</ele>
        <time>2013-10-01T20:05:46.597Z</time>
      </trkpt>
      <trkpt lat="48.88497" lon="2.32093">
        <ele>103.7</ele>
        <time>2013-10-01T20:05:47.590Z</time>
      </trkpt>
      <trkpt lat="48.885" lon="2.32088">
        <ele>103.2</ele>
        <time>2013-10-01T20:05:48.600Z</time>
      </trkpt>
      <trkpt lat="48.88507" lon="2.3208">
        <ele>103.3</ele>
        <time>2013-10-01T20:05:50.577Z</time>
      </trkpt>
      <trkpt lat="48.88511" lon="2.32077">
        <ele>103.7</ele>
        <time>2013-10-01T20:05:51.615Z</time>
      </trkpt>
      <trkpt lat="48.88517" lon="2.32075">
        <ele>103.4</ele>
        <time>2013-10-01T20:05:53.596Z</time>
      </trkpt>
      <trkpt lat="48.88521" lon="2.32081">
        <ele>103.2</ele>
        <time>2013-10-01T20:05:54.597Z</time>
      </trkpt>
      <trkpt lat="48.88525" lon="2.32087">
        <ele>103.2</ele>
        <time>2013-10-01T20:05:55.589Z</time>
      </trkpt>
      <trkpt lat="48.88528" lon="2.32093">
        <ele>103.5</ele>
        <time>2013-10-01T20:05:56.627Z</time>
      </trkpt>
      <trkpt lat="48.88534" lon="2.32103">
        <ele>104.1</ele>
        <time>2013-10-01T20:05:58.578Z</time>
      </trkpt>
      <trkpt lat="48.88538" lon="2.32107">
        <ele>104.2</ele>
        <time>2013-10-01T20:05:59.613Z</time>
      </trkpt>
      <trkpt lat="48.88545" lon="2.32113">
        <ele>103</ele>
        <time>2013-10-01T20:06:01.685Z</time>
      </trkpt>
      <trkpt lat="48.8855" lon="2.32117">
        <ele>103.4</ele>
        <time>2013-10-01T20:06:02.698Z</time>
      </trkpt>
      <trkpt lat="48.88557" lon="2.32124">
        <ele>105</ele>
        <time>2013-10-01T20:06:04.660Z</time>
      </trkpt>
      <trkpt lat="48.8856" lon="2.32129">
        <ele>106.1</ele>
        <time>2013-10-01T20:06:05.625Z</time>
      </trkpt>
      <trkpt lat="48.88566" lon="2.32139">
        <ele>106.2</ele>
        <time>2013-10-01T20:06:07.612Z</time>
      </trkpt>
      <trkpt lat="48.88569" lon="2.32142">
        <ele>106.4</ele>
        <time>2013-10-01T20:06:08.619Z</time>
      </trkpt>
      <trkpt lat="48.88575" lon="2.32148">
        <ele>105.9</ele>
        <time>2013-10-01T20:06:10.607Z</time>
      </trkpt>
      <trkpt lat="48.88579" lon="2.3215">
        <ele>106.8</ele>
        <time>2013-10-01T20:06:11.618Z</time>
      </trkpt>
      <trkpt lat="48.88584" lon="2.32156">
        <ele>106.8</ele>
        <time>2013-10-01T20:06:13.587Z</time>
      </trkpt>
      <trkpt lat="48.88587" lon="2.3216">
        <ele>105.9</ele>
        <time>2013-10-01T20:06:14.587Z</time>
      </trkpt>
      <trkpt lat="48.88594" lon="2.32167">
        <ele>107.6</ele>
        <time>2013-10-01T20:06:16.565Z</time>
      </trkpt>
      <trkpt lat="48.88598" lon="2.32171">
        <ele>107.8</ele>
        <time>2013-10-01T20:06:17.599Z</time>
      </trkpt>
      <trkpt lat="48.88605" lon="2.32177">
        <ele>107.8</ele>
        <time>2013-10-01T20:06:19.636Z</time>
      </trkpt>
      <trkpt lat="48.88608" lon="2.3218">
        <ele>108</ele>
        <time>2013-10-01T20:06:20.640Z</time>
      </trkpt>
      <trkpt lat="48.88613" lon="2.32187">
        <ele>107.5</ele>
        <time>2013-10-01T20:06:22.662Z</time>
      </trkpt>
      <trkpt lat="48.88616" lon="2.32191">
        <ele>106.8</ele>
        <time>2013-10-01T20:06:23.598Z</time>
      </trkpt>
      <trkpt lat="48.8862" lon="2.32201">
        <ele>105.4</ele>
        <time>2013-10-01T20:06:25.594Z</time>
      </trkpt>
      <trkpt lat="48.88622" lon="2.32205">
        <ele>105.2</ele>
        <time>2013-10-01T20:06:26.597Z</time>
      </trkpt>
      <trkpt lat="48.88627" lon="2.32212">
        <ele>104.2</ele>
        <time>2013-10-01T20:06:28.586Z</time>
      </trkpt>
      <trkpt lat="48.8863" lon="2.32215">
        <ele>104.1</ele>
        <time>2013-10-01T20:06:29.634Z</time>
      </trkpt>
      <trkpt lat="48.88638" lon="2.32218">
        <ele>106.5</ele>
        <time>2013-10-01T20:06:31.586Z</time>
      </trkpt>
      <trkpt lat="48.88642" lon="2.3222">
        <ele>106.4</ele>
        <time>2013-10-01T20:06:32.610Z</time>
      </trkpt>
      <trkpt lat="48.8865" lon="2.32223">
        <ele>106.1</ele>
        <time>2013-10-01T20:06:34.596Z</time>
      </trkpt>
      <trkpt lat="48.88654" lon="2.32226">
        <ele>106.6</ele>
        <time>2013-10-01T20:06:35.600Z</time>
      </trkpt>
      <trkpt lat="48.8866" lon="2.32234">
        <ele>106.6</ele>
        <time>2013-10-01T20:06:37.771Z</time>
      </trkpt>
      <trkpt lat="48.88663" lon="2.32238">
        <ele>106.8</ele>
        <time>2013-10-01T20:06:38.594Z</time>
      </trkpt>
      <trkpt lat="48.88667" lon="2.32243">
        <ele>107.1</ele>
        <time>2013-10-01T20:06:39.597Z</time>
      </trkpt>
      <trkpt lat="48.8867" lon="2.32247">
        <ele>107.9</ele>
        <time>2013-10-01T20:06:40.616Z</time>
      </trkpt>
      <trkpt lat="48.88674" lon="2.32251">
        <ele>107.5</ele>
        <time>2013-10-01T20:06:41.599Z</time>
      </trkpt>
      <trkpt lat="48.88678" lon="2.32255">
        <ele>107.8</ele>
        <time>2013-10-01T20:06:42.615Z</time>
      </trkpt>
      <trkpt lat="48.88684" lon="2.32264">
        <ele>108.1</ele>
        <time>2013-10-01T20:06:44.627Z</time>
      </trkpt>
      <trkpt lat="48.88687" lon="2.32268">
        <ele>107.6</ele>
        <time>2013-10-01T20:06:45.598Z</time>
      </trkpt>
      <trkpt lat="48.88693" lon="2.32275">
        <ele>108.7</ele>
        <time>2013-10-01T20:06:47.812Z</time>
      </trkpt>
      <trkpt lat="48.88696" lon="2.32278">
        <ele>108.4</ele>
        <time>2013-10-01T20:06:48.730Z</time>
      </trkpt>
      <trkpt lat="48.88703" lon="2.32283">
        <ele>106.4</ele>
        <time>2013-10-01T20:06:52.835Z</time>
      </trkpt>
      <trkpt lat="48.88704" lon="2.32285">
        <ele>103.7</ele>
        <time>2013-10-01T20:06:53.795Z</time>
      </trkpt>
      <trkpt lat="48.88708" lon="2.32292">
        <ele>102.8</ele>
        <time>2013-10-01T20:06:56.636Z</time>
      </trkpt>
      <trkpt lat="48.8871" lon="2.32295">
        <ele>102.6</ele>
        <time>2013-10-01T20:06:57.608Z</time>
      </trkpt>
      <trkpt lat="48.88714" lon="2.32304">
        <ele>101.9</ele>
        <time>2013-10-01T20:06:59.569Z</time>
      </trkpt>
      <trkpt lat="48.88716" lon="2.32309">
        <ele>101.1</ele>
        <time>2013-10-01T20:07:00.567Z</time>
      </trkpt>
      <trkpt lat="48.88722" lon="2.32318">
        <ele>101</ele>
        <time>2013-10-01T20:07:02.911Z</time>
      </trkpt>
      <trkpt lat="48.88725" lon="2.32322">
        <ele>101.2</ele>
        <time>2013-10-01T20:07:03.633Z</time>
      </trkpt>
      <trkpt lat="48.88731" lon="2.3233">
        <ele>102.6</ele>
        <time>2013-10-01T20:07:05.605Z</time>
      </trkpt>
      <trkpt lat="48.88734" lon="2.32335">
        <ele>103.9</ele>
        <time>2013-10-01T20:07:06.576Z</time>
      </trkpt>
      <trkpt lat="48.88739" lon="2.3234">
        <ele>105</ele>
        <time>2013-10-01T20:07:07.779Z</time>
      </trkpt>
      <trkpt lat="48.88742" lon="2.32345">
        <ele>105</ele>
        <time>2013-10-01T20:07:08.606Z</time>
      </trkpt>
      <trkpt lat="48.88745" lon="2.3235">
        <ele>106.2</ele>
        <time>2013-10-01T20:07:09.651Z</time>
      </trkpt>
      <trkpt lat="48.88748" lon="2.32356">
        <ele>107.3</ele>
        <time>2013-10-01T20:07:10.614Z</time>
      </trkpt>
      <trkpt lat="48.88751" lon="2.32362">
        <ele>109.5</ele>
        <time>2013-10-01T20:07:11.606Z</time>
      </trkpt>
      <trkpt lat="48.88754" lon="2.32367">
        <ele>108.9</ele>
        <time>2013-10-01T20:07:12.608Z</time>
      </trkpt>
      <trkpt lat="48.88759" lon="2.32378">
        <ele>108.7</ele>
        <time>2013-10-01T20:07:14.611Z</time>
      </trkpt>
      <trkpt lat="48.88762" lon="2.32382">
        <ele>109.1</ele>
        <time>2013-10-01T20:07:15.598Z</time>
      </trkpt>
      <trkpt lat="48.88767" lon="2.3239">
        <ele>108.8</ele>
        <time>2013-10-01T20:07:17.612Z</time>
      </trkpt>
      <trkpt lat="48.8877" lon="2.32394">
        <ele>109.2</ele>
        <time>2013-10-01T20:07:18.607Z</time>
      </trkpt>
      <trkpt lat="48.88776" lon="2.32402">
        <ele>108.8</ele>
        <time>2013-10-01T20:07:20.601Z</time>
      </trkpt>
      <trkpt lat="48.88779" lon="2.32406">
        <ele>107.8</ele>
        <time>2013-10-01T20:07:21.596Z</time>
      </trkpt>
      <trkpt lat="48.88784" lon="2.32413">
        <ele>108.6</ele>
        <time>2013-10-01T20:07:23.622Z</time>
      </trkpt>
      <trkpt lat="48.88786" lon="2.32416">
        <ele>108.4</ele>
        <time>2013-10-01T20:07:24.608Z</time>
      </trkpt>
      <trkpt lat="48.88789" lon="2.32426">
        <ele>108.1</ele>
        <time>2013-10-01T20:07:27.603Z</time>
      </trkpt>
      <trkpt lat="48.8879" lon="2.3243">
        <ele>108.1</ele>
        <time>2013-10-01T20:07:28.617Z</time>
      </trkpt>
      <trkpt lat="48.88793" lon="2.32441">
        <ele>110.8</ele>
        <time>2013-10-01T20:07:31.616Z</time>
      </trkpt>
      <trkpt lat="48.88795" lon="2.32443">
        <ele>109.7</ele>
        <time>2013-10-01T20:07:32.600Z</time>
      </trkpt>
      <trkpt lat="48.88802" lon="2.32446">
        <ele>105.2</ele>
        <time>2013-10-01T20:07:36.631Z</time>
      </trkpt>
      <trkpt lat="48.88804" lon="2.32446">
        <ele>104.4</ele>
        <time>2013-10-01T20:07:37.596Z</time>
      </trkpt>
      <trkpt lat="48.88806" lon="2.3245">
        <ele>103.8</ele>
        <time>2013-10-01T20:07:46.576Z</time>
      </trkpt>
      <trkpt lat="48.88807" lon="2.32449">
        <ele>104.2</ele>
        <time>2013-10-01T20:07:47.607Z</time>
      </trkpt>
      <trkpt lat="48.88807" lon="2.32449">
        <ele>104.2</ele>
        <time>2013-10-01T20:07:47.725Z</time>
      </trkpt>
      <trkpt lat="48.88808" lon="2.32449">
        <ele>103.6</ele>
        <time>2013-10-01T20:07:48.611Z</time>
      </trkpt>
      <trkpt lat="48.88816" lon="2.32443">
        <ele>104</ele>
        <time>2013-10-01T20:07:51.621Z</time>
      </trkpt>
      <trkpt lat="48.88819" lon="2.3244">
        <ele>104.5</ele>
        <time>2013-10-01T20:07:52.616Z</time>
      </trkpt>
      <trkpt lat="48.88825" lon="2.32433">
        <ele>103.7</ele>
        <time>2013-10-01T20:07:54.642Z</time>
      </trkpt>
      <trkpt lat="48.88829" lon="2.32428">
        <ele>102.2</ele>
        <time>2013-10-01T20:07:55.618Z</time>
      </trkpt>
      <trkpt lat="48.88833" lon="2.32423">
        <ele>99.8</ele>
        <time>2013-10-01T20:07:56.620Z</time>
      </trkpt>
      <trkpt lat="48.88837" lon="2.32419">
        <ele>101.3</ele>
        <time>2013-10-01T20:07:57.606Z</time>
      </trkpt>
      <trkpt lat="48.88846" lon="2.32417">
        <ele>101.7</ele>
        <time>2013-10-01T20:07:59.606Z</time>
      </trkpt>
      <trkpt lat="48.88849" lon="2.32418">
        <ele>102</ele>
        <time>2013-10-01T20:08:00.605Z</time>
      </trkpt>
      <trkpt lat="48.88846" lon="2.32428">
        <ele>104.8</ele>
        <time>2013-10-01T20:08:15.656Z</time>
      </trkpt>
      <trkpt lat="48.88846" lon="2.32428">
        <ele>105</ele>
        <time>2013-10-01T20:08:16.603Z</time>
      </trkpt>
      <trkpt lat="48.88847" lon="2.32429">
        <ele>105.7</ele>
        <time>2013-10-01T20:08:25.606Z</time>
      </trkpt>
      <trkpt lat="48.88847" lon="2.32428">
        <ele>106.4</ele>
        <time>2013-10-01T20:08:26.616Z</time>
      </trkpt>
      <trkpt lat="48.8885" lon="2.32438">
        <ele>109.4</ele>
        <time>2013-10-01T20:08:53.866Z</time>
      </trkpt>
      <trkpt lat="48.88851" lon="2.32441">
        <ele>109.1</ele>
        <time>2013-10-01T20:08:54.646Z</time>
      </trkpt>
      <trkpt lat="48.88857" lon="2.32448">
        <ele>109.7</ele>
        <time>2013-10-01T20:08:58.597Z</time>
      </trkpt>
      <trkpt lat="48.88859" lon="2.32449">
        <ele>109.2</ele>
        <time>2013-10-01T20:08:59.624Z</time>
      </trkpt>
      <trkpt lat="48.88867" lon="2.3245">
        <ele>106</ele>
        <time>2013-10-01T20:09:02.820Z</time>
      </trkpt>
      <trkpt lat="48.88869" lon="2.32451">
        <ele>105.2</ele>
        <time>2013-10-01T20:09:03.614Z</time>
      </trkpt>
      <trkpt lat="48.88874" lon="2.32458">
        <ele>105.2</ele>
        <time>2013-10-01T20:09:05.617Z</time>
      </trkpt>
      <trkpt lat="48.88876" lon="2.32462">
        <ele>105.8</ele>
        <time>2013-10-01T20:09:06.597Z</time>
      </trkpt>
      <trkpt lat="48.88881" lon="2.32469">
        <ele>106.4</ele>
        <time>2013-10-01T20:09:08.617Z</time>
      </trkpt>
      <trkpt lat="48.88882" lon="2.32472">
        <ele>103.9</ele>
        <time>2013-10-01T20:09:09.593Z</time>
      </trkpt>
      <trkpt lat="48.88885" lon="2.32485">
        <ele>112.1</ele>
        <time>2013-10-01T20:09:12.634Z</time>
      </trkpt>
      <trkpt lat="48.88885" lon="2.32489">
        <ele>113.1</ele>
        <time>2013-10-01T20:09:13.624Z</time>
      </trkpt>
      <trkpt lat="48.88882" lon="2.32501">
        <ele>115.4</ele>
        <time>2013-10-01T20:09:16.605Z</time>
      </trkpt>
      <trkpt lat="48.88881" lon="2.32505">
        <ele>114.9</ele>
        <time>2013-10-01T20:09:17.635Z</time>
      </trkpt>
      <trkpt lat="48.88878" lon="2.32516">
        <ele>117.4</ele>
        <time>2013-10-01T20:09:19.694Z</time>
      </trkpt>
      <trkpt lat="48.88877" lon="2.3252">
        <ele>118</ele>
        <time>2013-10-01T20:09:20.616Z</time>
      </trkpt>
      <trkpt lat="48.88875" lon="2.3253">
        <ele>119.6</ele>
        <time>2013-10-01T20:09:22.679Z</time>
      </trkpt>
      <trkpt lat="48.88874" lon="2.32534">
        <ele>119.6</ele>
        <time>2013-10-01T20:09:23.617Z</time>
      </trkpt>
      <trkpt lat="48.88871" lon="2.32545">
        <ele>118.1</ele>
        <time>2013-10-01T20:09:26.636Z</time>
      </trkpt>
      <trkpt lat="48.88869" lon="2.32549">
        <ele>117.7</ele>
        <time>2013-10-01T20:09:27.674Z</time>
      </trkpt>
      <trkpt lat="48.88865" lon="2.32559">
        <ele>118.2</ele>
        <time>2013-10-01T20:09:30.728Z</time>
      </trkpt>
      <trkpt lat="48.88864" lon="2.3256">
        <ele>117.4</ele>
        <time>2013-10-01T20:09:31.634Z</time>
      </trkpt>
      <trkpt lat="48.88864" lon="2.32559">
        <ele>117.9</ele>
        <time>2013-10-01T20:09:36.718Z</time>
      </trkpt>
      <trkpt lat="48.88864" lon="2.32559">
        <ele>118</ele>
        <time>2013-10-01T20:09:37.687Z</time>
      </trkpt>
      <trkpt lat="48.88865" lon="2.32559">
        <ele>118</ele>
        <time>2013-10-01T20:09:39.668Z</time>
      </trkpt>
      <trkpt lat="48.88865" lon="2.3256">
        <ele>118.8</ele>
        <time>2013-10-01T20:09:40.645Z</time>
      </trkpt>
      <trkpt lat="48.88871" lon="2.32562">
        <ele>119.2</ele>
        <time>2013-10-01T20:09:45.628Z</time>
      </trkpt>
      <trkpt lat="48.88876" lon="2.32563">
        <ele>118.3</ele>
        <time>2013-10-01T20:09:46.786Z</time>
      </trkpt>
      <trkpt lat="48.8888" lon="2.32563">
        <ele>120.2</ele>
        <time>2013-10-01T20:09:47.830Z</time>
      </trkpt>
      <trkpt lat="48.88886" lon="2.32565">
        <ele>120.8</ele>
        <time>2013-10-01T20:09:48.737Z</time>
      </trkpt>
      <trkpt lat="48.88891" lon="2.32566">
        <ele>121.6</ele>
        <time>2013-10-01T20:09:49.753Z</time>
      </trkpt>
      <trkpt lat="48.88896" lon="2.32569">
        <ele>122</ele>
        <time>2013-10-01T20:09:50.707Z</time>
      </trkpt>
      <trkpt lat="48.88901" lon="2.32571">
        <ele>120.6</ele>
        <time>2013-10-01T20:09:51.792Z</time>
      </trkpt>
      <trkpt lat="48.88905" lon="2.32574">
        <ele>118.1</ele>
        <time>2013-10-01T20:09:52.666Z</time>
      </trkpt>
      <trkpt lat="48.8891" lon="2.32577">
        <ele>117.5</ele>
        <time>2013-10-01T20:09:53.707Z</time>
      </trkpt>
      <trkpt lat="48.88913" lon="2.3258">
        <ele>118.2</ele>
        <time>2013-10-01T20:09:54.625Z</time>
      </trkpt>
      <trkpt lat="48.8892" lon="2.32585">
        <ele>118.5</ele>
        <time>2013-10-01T20:09:56.658Z</time>
      </trkpt>
      <trkpt lat="48.88924" lon="2.32587">
        <ele>118.2</ele>
        <time>2013-10-01T20:09:57.696Z</time>
      </trkpt>
      <trkpt lat="48.88929" lon="2.32591">
        <ele>116.7</ele>
        <time>2013-10-01T20:09:59.683Z</time>
      </trkpt>
      <trkpt lat="48.88932" lon="2.32593">
        <ele>117.1</ele>
        <time>2013-10-01T20:10:00.722Z</time>
      </trkpt>
      <trkpt lat="48.88939" lon="2.32598">
        <ele>114</ele>
        <time>2013-10-01T20:10:02.856Z</time>
      </trkpt>
      <trkpt lat="48.88942" lon="2.326">
        <ele>112.8</ele>
        <time>2013-10-01T20:10:03.647Z</time>
      </trkpt>
      <trkpt lat="48.88949" lon="2.32605">
        <ele>114.3</ele>
        <time>2013-10-01T20:10:04.773Z</time>
      </trkpt>
      <trkpt lat="48.88955" lon="2.32607">
        <ele>112.2</ele>
        <time>2013-10-01T20:10:05.735Z</time>
      </trkpt>
      <trkpt lat="48.88961" lon="2.32608">
        <ele>112.2</ele>
        <time>2013-10-01T20:10:07.561Z</time>
      </trkpt>
      <trkpt lat="48.88968" lon="2.3261">
        <ele>114.1</ele>
        <time>2013-10-01T20:10:07.827Z</time>
      </trkpt>
      <trkpt lat="48.88973" lon="2.32611">
        <ele>114.8</ele>
        <time>2013-10-01T20:10:08.642Z</time>
      </trkpt>
      <trkpt lat="48.88978" lon="2.32612">
        <ele>116</ele>
        <time>2013-10-01T20:10:09.749Z</time>
      </trkpt>
      <trkpt lat="48.88985" lon="2.32616">
        <ele>118.1</ele>
        <time>2013-10-01T20:10:11.753Z</time>
      </trkpt>
      <trkpt lat="48.88987" lon="2.32618">
        <ele>117.3</ele>
        <time>2013-10-01T20:10:12.614Z</time>
      </trkpt>
      <trkpt lat="48.88992" lon="2.32624">
        <ele>116.4</ele>
        <time>2013-10-01T20:10:15.646Z</time>
      </trkpt>
      <trkpt lat="48.88994" lon="2.32626">
        <ele>116.5</ele>
        <time>2013-10-01T20:10:16.761Z</time>
      </trkpt>
      <trkpt lat="48.88999" lon="2.32629">
        <ele>116.8</ele>
        <time>2013-10-01T20:10:18.746Z</time>
      </trkpt>
      <trkpt lat="48.89003" lon="2.32631">
        <ele>117.9</ele>
        <time>2013-10-01T20:10:19.645Z</time>
      </trkpt>
      <trkpt lat="48.89008" lon="2.32634">
        <ele>118.7</ele>
        <time>2013-10-01T20:10:20.721Z</time>
      </trkpt>
      <trkpt lat="48.89015" lon="2.32636">
        <ele>119.5</ele>
        <time>2013-10-01T20:10:21.726Z</time>
      </trkpt>
      <trkpt lat="48.89021" lon="2.32638">
        <ele>120</ele>
        <time>2013-10-01T20:10:22.709Z</time>
      </trkpt>
      <trkpt lat="48.89028" lon="2.32639">
        <ele>115.9</ele>
        <time>2013-10-01T20:10:23.695Z</time>
      </trkpt>
      <trkpt lat="48.89035" lon="2.32639">
        <ele>115</ele>
        <time>2013-10-01T20:10:24.631Z</time>
      </trkpt>
      <trkpt lat="48.89042" lon="2.32639">
        <ele>114.9</ele>
        <time>2013-10-01T20:10:25.751Z</time>
      </trkpt>
      <trkpt lat="48.89049" lon="2.32639">
        <ele>112.5</ele>
        <time>2013-10-01T20:10:27.822Z</time>
      </trkpt>
      <trkpt lat="48.89051" lon="2.32639">
        <ele>114.1</ele>
        <time>2013-10-01T20:10:28.663Z</time>
      </trkpt>
      <trkpt lat="48.89057" lon="2.32641">
        <ele>113.1</ele>
        <time>2013-10-01T20:10:30.768Z</time>
      </trkpt>
      <trkpt lat="48.8906" lon="2.32642">
        <ele>113</ele>
        <time>2013-10-01T20:10:31.639Z</time>
      </trkpt>
      <trkpt lat="48.89067" lon="2.32645">
        <ele>112.8</ele>
        <time>2013-10-01T20:10:33.652Z</time>
      </trkpt>
      <trkpt lat="48.8907" lon="2.32646">
        <ele>112.4</ele>
        <time>2013-10-01T20:10:34.637Z</time>
      </trkpt>
      <trkpt lat="48.89077" lon="2.32649">
        <ele>111.1</ele>
        <time>2013-10-01T20:10:36.646Z</time>
      </trkpt>
      <trkpt lat="48.89081" lon="2.3265">
        <ele>110.1</ele>
        <time>2013-10-01T20:10:37.655Z</time>
      </trkpt>
      <trkpt lat="48.89088" lon="2.32652">
        <ele>110.8</ele>
        <time>2013-10-01T20:10:39.637Z</time>
      </trkpt>
      <trkpt lat="48.89093" lon="2.32653">
        <ele>111.9</ele>
        <time>2013-10-01T20:10:40.636Z</time>
      </trkpt>
      <trkpt lat="48.89098" lon="2.32655">
        <ele>112.4</ele>
        <time>2013-10-01T20:10:41.652Z</time>
      </trkpt>
      <trkpt lat="48.89103" lon="2.32657">
        <ele>112.8</ele>
        <time>2013-10-01T20:10:42.604Z</time>
      </trkpt>
      <trkpt lat="48.89108" lon="2.32659">
        <ele>112.8</ele>
        <time>2013-10-01T20:10:43.595Z</time>
      </trkpt>
      <trkpt lat="48.89116" lon="2.32663">
        <ele>113</ele>
        <time>2013-10-01T20:10:44.646Z</time>
      </trkpt>
      <trkpt lat="48.89123" lon="2.32666">
        <ele>113.3</ele>
        <time>2013-10-01T20:10:45.613Z</time>
      </trkpt>
      <trkpt lat="48.89133" lon="2.32667">
        <ele>106.7</ele>
        <time>2013-10-01T20:10:46.634Z</time>
      </trkpt>
      <trkpt lat="48.89141" lon="2.32667">
        <ele>106.1</ele>
        <time>2013-10-01T20:10:47.649Z</time>
      </trkpt>
      <trkpt lat="48.89148" lon="2.32668">
        <ele>109.1</ele>
        <time>2013-10-01T20:10:48.628Z</time>
      </trkpt>
      <trkpt lat="48.89153" lon="2.32669">
        <ele>112</ele>
        <time>2013-10-01T20:10:49.650Z</time>
      </trkpt>
      <trkpt lat="48.89158" lon="2.3267">
        <ele>114</ele>
        <time>2013-10-01T20:10:50.646Z</time>
      </trkpt>
      <trkpt lat="48.89166" lon="2.32675">
        <ele>122.5</ele>
        <time>2013-10-01T20:10:58.671Z</time>
      </trkpt>
      <trkpt lat="48.89169" lon="2.32676">
        <ele>122.4</ele>
        <time>2013-10-01T20:10:59.776Z</time>
      </trkpt>
      <trkpt lat="48.89176" lon="2.32678">
        <ele>121.7</ele>
        <time>2013-10-01T20:11:01.736Z</time>
      </trkpt>
      <trkpt lat="48.8918" lon="2.32679">
        <ele>121.9</ele>
        <time>2013-10-01T20:11:02.749Z</time>
      </trkpt>
      <trkpt lat="48.89188" lon="2.32681">
        <ele>122.2</ele>
        <time>2013-10-01T20:11:04.767Z</time>
      </trkpt>
      <trkpt lat="48.89192" lon="2.32682">
        <ele>122.4</ele>
        <time>2013-10-01T20:11:05.636Z</time>
      </trkpt>
      <trkpt lat="48.892" lon="2.32683">
        <ele>124.4</ele>
        <time>2013-10-01T20:11:07.787Z</time>
      </trkpt>
      <trkpt lat="48.89203" lon="2.32683">
        <ele>124.4</ele>
        <time>2013-10-01T20:11:08.738Z</time>
      </trkpt>
      <trkpt lat="48.89212" lon="2.32685">
        <ele>124.1</ele>
        <time>2013-10-01T20:11:11.755Z</time>
      </trkpt>
      <trkpt lat="48.89213" lon="2.32685">
        <ele>123.9</ele>
        <time>2013-10-01T20:11:12.627Z</time>
      </trkpt>
      <trkpt lat="48.89222" lon="2.32689">
        <ele>122.6</ele>
        <time>2013-10-01T20:11:17.625Z</time>
      </trkpt>
      <trkpt lat="48.89223" lon="2.32691">
        <ele>124.9</ele>
        <time>2013-10-01T20:11:18.615Z</time>
      </trkpt>
      <trkpt lat="48.89228" lon="2.32701">
        <ele>126.5</ele>
        <time>2013-10-01T20:11:28.639Z</time>
      </trkpt>
      <trkpt lat="48.89229" lon="2.32702">
        <ele>127.1</ele>
        <time>2013-10-01T20:11:29.625Z</time>
      </trkpt>
      <trkpt lat="48.89231" lon="2.32709">
        <ele>126.3</ele>
        <time>2013-10-01T20:11:39.598Z</time>
      </trkpt>
      <trkpt lat="48.89231" lon="2.32709">
        <ele>126.2</ele>
        <time>2013-10-01T20:11:40.606Z</time>
      </trkpt>
    </trkseg>
  </trk>
</gpx>